<?xml version='1.0' encoding='UTF-8'?><gpx version="1.1" creator="JPX - https://github.com/jenetics/jpx" xmlns="http://www.topografix.com/GPX/1/1"><trk><trkseg><trkpt lat="45.31120527273932" lon="10.65948961694303"><ele>54.99999999999999</ele><time>2026-05-03T07:14:40Z</time></trkpt><trkpt lat="45.311096819967446" lon="10.65946272930202"><ele>55.0</ele><time>2026-05-03T07:14:42Z</time></trkpt><trkpt lat="45.31099431637352" lon="10.65946550612174"><ele>55.0</ele><time>2026-05-03T07:14:44Z</time></trkpt><trkpt lat="45.310927913544475" lon="10.659465800544003"><ele>55.0</ele><time>2026-05-03T07:14:45Z</time></trkpt><trkpt lat="45.31085435766548" lon="10.659458500547666"><ele>54.99999999999999</ele><time>2026-05-03T07:14:46Z</time></trkpt><trkpt lat="45.31079093429859" lon="10.659437496154679"><ele>55.0</ele><time>2026-05-03T07:14:47Z</time></trkpt><trkpt lat="45.31071023800442" lon="10.659415699950005"><ele>54.83333333333333</ele><time>2026-05-03T07:14:49Z</time></trkpt><trkpt lat="45.31064314141075" lon="10.659397376290967"><ele>54.666666666666664</ele><time>2026-05-03T07:14:51Z</time></trkpt><trkpt lat="45.310579945748444" lon="10.659348442260494"><ele>54.5</ele><time>2026-05-03T07:14:57Z</time></trkpt><trkpt lat="45.31048834521347" lon="10.65931466810784"><ele>54.33333333333333</ele><time>2026-05-03T07:15:01Z</time></trkpt><trkpt lat="45.3103642778571" lon="10.659328125540924"><ele>54.166666666666664</ele><time>2026-05-03T07:15:03Z</time></trkpt><trkpt lat="45.31029993009301" lon="10.659338733053493"><ele>54.0</ele><time>2026-05-03T07:15:04Z</time></trkpt><trkpt lat="45.31022715242507" lon="10.659334825461393"><ele>53.800000000000004</ele><time>2026-05-03T07:15:05Z</time></trkpt><trkpt lat="45.310158602373356" lon="10.659313288348121"><ele>53.60000000000001</ele><time>2026-05-03T07:15:06Z</time></trkpt><trkpt lat="45.310051769143016" lon="10.659271390457892"><ele>53.4</ele><time>2026-05-03T07:15:08Z</time></trkpt><trkpt lat="45.30993400867393" lon="10.65924462238187"><ele>53.2</ele><time>2026-05-03T07:15:10Z</time></trkpt><trkpt lat="45.30981012095754" lon="10.659214057717184"><ele>53.0</ele><time>2026-05-03T07:15:12Z</time></trkpt><trkpt lat="45.30974406585859" lon="10.659191455105645"><ele>53.16666666666667</ele><time>2026-05-03T07:15:13Z</time></trkpt><trkpt lat="45.30967128889853" lon="10.659167762461331"><ele>53.333333333333336</ele><time>2026-05-03T07:15:14Z</time></trkpt><trkpt lat="45.30959224090883" lon="10.659140455300568"><ele>53.5</ele><time>2026-05-03T07:15:15Z</time></trkpt><trkpt lat="45.30951060564169" lon="10.659112132710318"><ele>53.66666666666667</ele><time>2026-05-03T07:15:16Z</time></trkpt><trkpt lat="45.30942204665081" lon="10.659086356302787"><ele>53.833333333333336</ele><time>2026-05-03T07:15:17Z</time></trkpt><trkpt lat="45.309346209835375" lon="10.659054455886974"><ele>54.0</ele><time>2026-05-03T07:15:18Z</time></trkpt><trkpt lat="45.3092697547173" lon="10.659021269931722"><ele>54.0</ele><time>2026-05-03T07:15:19Z</time></trkpt><trkpt lat="45.30919190552172" lon="10.658991418276878"><ele>54.0</ele><time>2026-05-03T07:15:20Z</time></trkpt><trkpt lat="45.309111557355486" lon="10.658962628781893"><ele>54.0</ele><time>2026-05-03T07:15:21Z</time></trkpt><trkpt lat="45.30903450474205" lon="10.658935713557879"><ele>54.0</ele><time>2026-05-03T07:15:22Z</time></trkpt><trkpt lat="45.308960717538014" lon="10.658902498062108"><ele>54.0</ele><time>2026-05-03T07:15:23Z</time></trkpt><trkpt lat="45.30888170763811" lon="10.65886896840266"><ele>54.0</ele><time>2026-05-03T07:15:24Z</time></trkpt><trkpt lat="45.30879697729666" lon="10.658833426476134"><ele>53.833333333333336</ele><time>2026-05-03T07:15:25Z</time></trkpt><trkpt lat="45.308722355111655" lon="10.658800774963971"><ele>53.66666666666667</ele><time>2026-05-03T07:15:26Z</time></trkpt><trkpt lat="45.3086540820608" lon="10.658786036795918"><ele>53.5</ele><time>2026-05-03T07:15:27Z</time></trkpt><trkpt lat="45.30859002888048" lon="10.658754375425724"><ele>53.333333333333336</ele><time>2026-05-03T07:15:28Z</time></trkpt><trkpt lat="45.30852917729738" lon="10.658728966567386"><ele>53.16666666666667</ele><time>2026-05-03T07:15:29Z</time></trkpt><trkpt lat="45.308418491051754" lon="10.65868896032472"><ele>53.0</ele><time>2026-05-03T07:15:31Z</time></trkpt><trkpt lat="45.308355689297976" lon="10.658669949182832"><ele>53.00000000000001</ele><time>2026-05-03T07:15:32Z</time></trkpt><trkpt lat="45.30828369662479" lon="10.658648246610424"><ele>53.0</ele><time>2026-05-03T07:15:33Z</time></trkpt><trkpt lat="45.308204636458214" lon="10.65862123923049"><ele>53.0</ele><time>2026-05-03T07:15:34Z</time></trkpt><trkpt lat="45.30811480762366" lon="10.658617375525937"><ele>53.0</ele><time>2026-05-03T07:15:35Z</time></trkpt><trkpt lat="45.30802045874328" lon="10.658653241442073"><ele>53.00000000000001</ele><time>2026-05-03T07:15:36Z</time></trkpt><trkpt lat="45.307939889052705" lon="10.658708302717057"><ele>53.0</ele><time>2026-05-03T07:15:37Z</time></trkpt><trkpt lat="45.30788267774022" lon="10.658785081186958"><ele>53.25</ele><time>2026-05-03T07:15:38Z</time></trkpt><trkpt lat="45.30781389301265" lon="10.65892925611673"><ele>53.5</ele><time>2026-05-03T07:15:40Z</time></trkpt><trkpt lat="45.30771482435675" lon="10.659024323736611"><ele>53.75</ele><time>2026-05-03T07:15:42Z</time></trkpt><trkpt lat="45.307611296826586" lon="10.659126319046111"><ele>54.0</ele><time>2026-05-03T07:15:44Z</time></trkpt><trkpt lat="45.30754197699863" lon="10.65924787502777"><ele>54.0</ele><time>2026-05-03T07:15:46Z</time></trkpt><trkpt lat="45.30750600234908" lon="10.659322758458707"><ele>54.0</ele><time>2026-05-03T07:15:47Z</time></trkpt><trkpt lat="45.30746717772553" lon="10.659401363880306"><ele>54.0</ele><time>2026-05-03T07:15:48Z</time></trkpt><trkpt lat="45.30742841228648" lon="10.659483214423304"><ele>54.0</ele><time>2026-05-03T07:15:49Z</time></trkpt><trkpt lat="45.30738707124513" lon="10.659568432037311"><ele>54.0</ele><time>2026-05-03T07:15:50Z</time></trkpt><trkpt lat="45.30734663449816" lon="10.659656577588743"><ele>54.0</ele><time>2026-05-03T07:15:51Z</time></trkpt><trkpt lat="45.30730709947411" lon="10.659750156740376"><ele>54.0</ele><time>2026-05-03T07:15:52Z</time></trkpt><trkpt lat="45.307268881848366" lon="10.659842747576855"><ele>54.0</ele><time>2026-05-03T07:15:53Z</time></trkpt><trkpt lat="45.30720969379529" lon="10.659964778893569"><ele>54.0</ele><time>2026-05-03T07:15:55Z</time></trkpt><trkpt lat="45.30716347270842" lon="10.660051072540556"><ele>54.0</ele><time>2026-05-03T07:15:57Z</time></trkpt><trkpt lat="45.30712295411198" lon="10.660157468518115"><ele>54.0</ele><time>2026-05-03T07:16:00Z</time></trkpt><trkpt lat="45.30708805287674" lon="10.660248468963035"><ele>54.0</ele><time>2026-05-03T07:16:04Z</time></trkpt><trkpt lat="45.30703820616177" lon="10.660335120237953"><ele>54.0</ele><time>2026-05-03T07:16:09Z</time></trkpt><trkpt lat="45.306993200162225" lon="10.66043472361231"><ele>54.0</ele><time>2026-05-03T07:16:18Z</time></trkpt><trkpt lat="45.3070353312185" lon="10.660341482906684"><ele>54.0</ele><time>2026-05-03T07:16:36Z</time></trkpt><trkpt lat="45.30707118041087" lon="10.660262144931353"><ele>54.0</ele><time>2026-05-03T07:16:39Z</time></trkpt><trkpt lat="45.30711630148095" lon="10.660162286342516"><ele>54.0</ele><time>2026-05-03T07:16:43Z</time></trkpt><trkpt lat="45.30715171660165" lon="10.660083908584456"><ele>54.0</ele><time>2026-05-03T07:16:46Z</time></trkpt><trkpt lat="45.30718914549823" lon="10.660002291962135"><ele>54.0</ele><time>2026-05-03T07:16:48Z</time></trkpt><trkpt lat="45.307262770487824" lon="10.659842259553868"><ele>54.0</ele><time>2026-05-03T07:16:50Z</time></trkpt><trkpt lat="45.307369314024136" lon="10.659703706741517"><ele>54.00000000000001</ele><time>2026-05-03T07:16:51Z</time></trkpt><trkpt lat="45.307415644861365" lon="10.659563835668425"><ele>54.00000000000001</ele><time>2026-05-03T07:16:52Z</time></trkpt><trkpt lat="45.307461088623754" lon="10.659457640840953"><ele>54.0</ele><time>2026-05-03T07:16:53Z</time></trkpt><trkpt lat="45.30751171219635" lon="10.659343274735187"><ele>54.0</ele><time>2026-05-03T07:16:54Z</time></trkpt><trkpt lat="45.3075737852778" lon="10.659233036401996"><ele>54.0</ele><time>2026-05-03T07:16:55Z</time></trkpt><trkpt lat="45.30762790791241" lon="10.659143345982795"><ele>54.00000000000001</ele><time>2026-05-03T07:16:56Z</time></trkpt><trkpt lat="45.30768012312635" lon="10.659076486417174"><ele>54.00000000000001</ele><time>2026-05-03T07:16:57Z</time></trkpt><trkpt lat="45.30779674226865" lon="10.659012992742484"><ele>54.0</ele><time>2026-05-03T07:16:59Z</time></trkpt><trkpt lat="45.30788577812964" lon="10.65890800901559"><ele>54.0</ele><time>2026-05-03T07:17:01Z</time></trkpt><trkpt lat="45.307963092694436" lon="10.658769942206618"><ele>54.0</ele><time>2026-05-03T07:17:03Z</time></trkpt><trkpt lat="45.30803039581928" lon="10.658717674776895"><ele>54.00000000000001</ele><time>2026-05-03T07:17:04Z</time></trkpt><trkpt lat="45.30811921000814" lon="10.658687835972733"><ele>54.00000000000001</ele><time>2026-05-03T07:17:05Z</time></trkpt><trkpt lat="45.30821842767352" lon="10.658706197379304"><ele>54.0</ele><time>2026-05-03T07:17:06Z</time></trkpt><trkpt lat="45.308315342573614" lon="10.658731753198897"><ele>54.0</ele><time>2026-05-03T07:17:07Z</time></trkpt><trkpt lat="45.30842064906279" lon="10.658762545345112"><ele>53.800000000000004</ele><time>2026-05-03T07:17:08Z</time></trkpt><trkpt lat="45.308532763653545" lon="10.658810977973513"><ele>53.60000000000001</ele><time>2026-05-03T07:17:09Z</time></trkpt><trkpt lat="45.308628563187725" lon="10.65884719827838"><ele>53.4</ele><time>2026-05-03T07:17:10Z</time></trkpt><trkpt lat="45.3087123489429" lon="10.658883113596891"><ele>53.2</ele><time>2026-05-03T07:17:11Z</time></trkpt><trkpt lat="45.308796810477624" lon="10.658919942808806"><ele>53.0</ele><time>2026-05-03T07:17:12Z</time></trkpt><trkpt lat="45.30888818131899" lon="10.658956820922427"><ele>53.2</ele><time>2026-05-03T07:17:13Z</time></trkpt><trkpt lat="45.30898348865542" lon="10.658992520192776"><ele>53.4</ele><time>2026-05-03T07:17:14Z</time></trkpt><trkpt lat="45.309084571760984" lon="10.65903000465533"><ele>53.60000000000001</ele><time>2026-05-03T07:17:15Z</time></trkpt><trkpt lat="45.309189086197726" lon="10.65906629388348"><ele>53.800000000000004</ele><time>2026-05-03T07:17:16Z</time></trkpt><trkpt lat="45.30928651504342" lon="10.659105029978791"><ele>54.0</ele><time>2026-05-03T07:17:17Z</time></trkpt><trkpt lat="45.30937432313707" lon="10.659135333541476"><ele>54.0</ele><time>2026-05-03T07:17:18Z</time></trkpt><trkpt lat="45.30945214556276" lon="10.659158815505187"><ele>54.0</ele><time>2026-05-03T07:17:19Z</time></trkpt><trkpt lat="45.309521237387514" lon="10.659185879728426"><ele>54.0</ele><time>2026-05-03T07:17:20Z</time></trkpt><trkpt lat="45.30958994103555" lon="10.659206129295193"><ele>54.0</ele><time>2026-05-03T07:17:21Z</time></trkpt><trkpt lat="45.30966624129493" lon="10.659229365928525"><ele>54.0</ele><time>2026-05-03T07:17:22Z</time></trkpt><trkpt lat="45.30974614491897" lon="10.659251619958631"><ele>54.0</ele><time>2026-05-03T07:17:23Z</time></trkpt><trkpt lat="45.3098294062115" lon="10.659275531566914"><ele>53.857142857142854</ele><time>2026-05-03T07:17:24Z</time></trkpt><trkpt lat="45.30989922235051" lon="10.659289032590701"><ele>53.71428571428571</ele><time>2026-05-03T07:17:25Z</time></trkpt><trkpt lat="45.309969479594905" lon="10.65930346411088"><ele>53.57142857142857</ele><time>2026-05-03T07:17:26Z</time></trkpt><trkpt lat="45.31004129294248" lon="10.659335299535465"><ele>53.42857142857143</ele><time>2026-05-03T07:17:27Z</time></trkpt><trkpt lat="45.310112457917825" lon="10.65937149973888"><ele>53.285714285714285</ele><time>2026-05-03T07:17:28Z</time></trkpt><trkpt lat="45.31018136992587" lon="10.659399344861336"><ele>53.142857142857146</ele><time>2026-05-03T07:17:29Z</time></trkpt><trkpt lat="45.31025133936769" lon="10.65941922124888"><ele>53.0</ele><time>2026-05-03T07:17:30Z</time></trkpt><trkpt lat="45.310326096409426" lon="10.659433113267268"><ele>53.00000000000001</ele><time>2026-05-03T07:17:31Z</time></trkpt><trkpt lat="45.31038933877" lon="10.659446371466455"><ele>53.0</ele><time>2026-05-03T07:17:32Z</time></trkpt><trkpt lat="45.310449088307855" lon="10.659485593071416"><ele>53.0</ele><time>2026-05-03T07:17:36Z</time></trkpt><trkpt lat="45.31052708908501" lon="10.659469357041413"><ele>53.0</ele><time>2026-05-03T07:17:40Z</time></trkpt><trkpt lat="45.31061249864131" lon="10.659469096420533"><ele>53.00000000000001</ele><time>2026-05-03T07:17:41Z</time></trkpt><trkpt lat="45.31070708934422" lon="10.659461452122146"><ele>53.0</ele><time>2026-05-03T07:17:42Z</time></trkpt><trkpt lat="45.31081211440932" lon="10.659488679257683"><ele>53.4</ele><time>2026-05-03T07:17:43Z</time></trkpt><trkpt lat="45.31090924639929" lon="10.659512731688523"><ele>53.8</ele><time>2026-05-03T07:17:44Z</time></trkpt><trkpt lat="45.31100716088843" lon="10.659537646818805"><ele>54.2</ele><time>2026-05-03T07:17:45Z</time></trkpt><trkpt lat="45.31111587199247" lon="10.659554272598955"><ele>54.6</ele><time>2026-05-03T07:17:46Z</time></trkpt><trkpt lat="45.31122905751497" lon="10.659569047873731"><ele>55.0</ele><time>2026-05-03T07:17:47Z</time></trkpt><trkpt lat="45.311348934592345" lon="10.659595594298837"><ele>55.0</ele><time>2026-05-03T07:17:48Z</time></trkpt><trkpt lat="45.31147037262512" lon="10.659622455841053"><ele>55.0</ele><time>2026-05-03T07:17:49Z</time></trkpt><trkpt lat="45.3116013970327" lon="10.65964680822885"><ele>55.0</ele><time>2026-05-03T07:17:50Z</time></trkpt><trkpt lat="45.31172097673891" lon="10.659666762876647"><ele>55.0</ele><time>2026-05-03T07:17:51Z</time></trkpt><trkpt lat="45.3118265230924" lon="10.659683315582136"><ele>55.0</ele><time>2026-05-03T07:17:52Z</time></trkpt><trkpt lat="45.311934194731535" lon="10.659697864961226"><ele>55.0</ele><time>2026-05-03T07:17:53Z</time></trkpt><trkpt lat="45.31203840360832" lon="10.659709791478097"><ele>55.0</ele><time>2026-05-03T07:17:54Z</time></trkpt><trkpt lat="45.31214856146822" lon="10.65972397741953"><ele>55.0</ele><time>2026-05-03T07:17:55Z</time></trkpt><trkpt lat="45.31225786263192" lon="10.659747646900323"><ele>55.0</ele><time>2026-05-03T07:17:56Z</time></trkpt><trkpt lat="45.31235842158879" lon="10.65978014905845"><ele>55.166666666666664</ele><time>2026-05-03T07:17:57Z</time></trkpt><trkpt lat="45.31245131386543" lon="10.659777010328696"><ele>55.33333333333333</ele><time>2026-05-03T07:17:58Z</time></trkpt><trkpt lat="45.312533671298674" lon="10.659790412223087"><ele>55.5</ele><time>2026-05-03T07:17:59Z</time></trkpt><trkpt lat="45.31260724693294" lon="10.659810198171337"><ele>55.66666666666667</ele><time>2026-05-03T07:18:00Z</time></trkpt><trkpt lat="45.312708675403826" lon="10.659795145382635"><ele>55.833333333333336</ele><time>2026-05-03T07:18:02Z</time></trkpt><trkpt lat="45.31280332286626" lon="10.659810546580903"><ele>56.0</ele><time>2026-05-03T07:18:04Z</time></trkpt><trkpt lat="45.31290928557079" lon="10.659827789015859"><ele>56.0</ele><time>2026-05-03T07:18:06Z</time></trkpt><trkpt lat="45.31303208731099" lon="10.659502862766697"><ele>56.0</ele><time>2026-05-03T07:18:08Z</time></trkpt><trkpt lat="45.313127174389216" lon="10.659550161561011"><ele>56.0</ele><time>2026-05-03T07:18:10Z</time></trkpt><trkpt lat="45.31322027131652" lon="10.65970273378199"><ele>56.599999999999994</ele><time>2026-05-03T07:18:12Z</time></trkpt><trkpt lat="45.31323506068462" lon="10.659832486105339"><ele>57.199999999999996</ele><time>2026-05-03T07:18:13Z</time></trkpt><trkpt lat="45.313247991026124" lon="10.659981976028591"><ele>57.800000000000004</ele><time>2026-05-03T07:18:14Z</time></trkpt><trkpt lat="45.31327310343157" lon="10.6601441516829"><ele>58.400000000000006</ele><time>2026-05-03T07:18:15Z</time></trkpt><trkpt lat="45.31329813311664" lon="10.660306677888379"><ele>59.0</ele><time>2026-05-03T07:18:16Z</time></trkpt><trkpt lat="45.31332770820255" lon="10.660484474802011"><ele>59.25</ele><time>2026-05-03T07:18:17Z</time></trkpt><trkpt lat="45.31335015478655" lon="10.66067065108542"><ele>59.5</ele><time>2026-05-03T07:18:18Z</time></trkpt><trkpt lat="45.31335688791685" lon="10.660861278497515"><ele>59.75</ele><time>2026-05-03T07:18:19Z</time></trkpt><trkpt lat="45.31335685752628" lon="10.661037277631939"><ele>60.0</ele><time>2026-05-03T07:18:20Z</time></trkpt><trkpt lat="45.31335329773944" lon="10.661200048972313"><ele>60.5</ele><time>2026-05-03T07:18:21Z</time></trkpt><trkpt lat="45.31343283353888" lon="10.661392400062512"><ele>61.0</ele><time>2026-05-03T07:18:22Z</time></trkpt><trkpt lat="45.31340152738875" lon="10.661567046190168"><ele>61.5</ele><time>2026-05-03T07:18:23Z</time></trkpt><trkpt lat="45.31336349883999" lon="10.661719411511724"><ele>62.0</ele><time>2026-05-03T07:18:24Z</time></trkpt><trkpt lat="45.313249269220755" lon="10.661812060496807"><ele>62.00000000000001</ele><time>2026-05-03T07:18:25Z</time></trkpt><trkpt lat="45.313219440305666" lon="10.661928593051078"><ele>62.0</ele><time>2026-05-03T07:18:26Z</time></trkpt><trkpt lat="45.31319944259668" lon="10.662029389809373"><ele>62.0</ele><time>2026-05-03T07:18:27Z</time></trkpt><trkpt lat="45.31317224005874" lon="10.662119251656852"><ele>62.0</ele><time>2026-05-03T07:18:28Z</time></trkpt><trkpt lat="45.31312704050563" lon="10.662278216828783"><ele>62.00000000000001</ele><time>2026-05-03T07:18:30Z</time></trkpt><trkpt lat="45.313100896426995" lon="10.662378163772322"><ele>62.0</ele><time>2026-05-03T07:18:31Z</time></trkpt><trkpt lat="45.313072153142684" lon="10.662487399871573"><ele>61.2</ele><time>2026-05-03T07:18:32Z</time></trkpt><trkpt lat="45.31304362203429" lon="10.662615563691833"><ele>60.400000000000006</ele><time>2026-05-03T07:18:33Z</time></trkpt><trkpt lat="45.31301471259012" lon="10.662745787732858"><ele>59.599999999999994</ele><time>2026-05-03T07:18:34Z</time></trkpt><trkpt lat="45.31298024030076" lon="10.662889432528244"><ele>58.8</ele><time>2026-05-03T07:18:35Z</time></trkpt><trkpt lat="45.312937336026636" lon="10.6630425339686"><ele>58.0</ele><time>2026-05-03T07:18:36Z</time></trkpt><trkpt lat="45.31289295889611" lon="10.663214156894869"><ele>57.75</ele><time>2026-05-03T07:18:37Z</time></trkpt><trkpt lat="45.312854221055204" lon="10.66338363640888"><ele>57.5</ele><time>2026-05-03T07:18:38Z</time></trkpt><trkpt lat="45.31281461542639" lon="10.663534459592809"><ele>57.25</ele><time>2026-05-03T07:18:39Z</time></trkpt><trkpt lat="45.31277398341663" lon="10.66367768975653"><ele>57.0</ele><time>2026-05-03T07:18:40Z</time></trkpt><trkpt lat="45.312738721578285" lon="10.6638229895223"><ele>57.0</ele><time>2026-05-03T07:18:41Z</time></trkpt><trkpt lat="45.31270560300057" lon="10.66394865342069"><ele>57.0</ele><time>2026-05-03T07:18:42Z</time></trkpt><trkpt lat="45.31267445516538" lon="10.664083553344634"><ele>57.0</ele><time>2026-05-03T07:18:43Z</time></trkpt><trkpt lat="45.3126384354466" lon="10.664225016717644"><ele>57.0</ele><time>2026-05-03T07:18:44Z</time></trkpt><trkpt lat="45.31260624527035" lon="10.664374236034012"><ele>57.0</ele><time>2026-05-03T07:18:45Z</time></trkpt><trkpt lat="45.31256707629196" lon="10.664524168871761"><ele>57.0</ele><time>2026-05-03T07:18:46Z</time></trkpt><trkpt lat="45.31252967013726" lon="10.664676189046684"><ele>57.0</ele><time>2026-05-03T07:18:47Z</time></trkpt><trkpt lat="45.312583844445314" lon="10.664878558432441"><ele>57.0</ele><time>2026-05-03T07:18:48Z</time></trkpt><trkpt lat="45.31254610919844" lon="10.66502760478965"><ele>57.0</ele><time>2026-05-03T07:18:49Z</time></trkpt><trkpt lat="45.31251256706277" lon="10.665160089546267"><ele>57.0</ele><time>2026-05-03T07:18:50Z</time></trkpt><trkpt lat="45.312389052589666" lon="10.665243556372333"><ele>57.0</ele><time>2026-05-03T07:18:51Z</time></trkpt><trkpt lat="45.3123559861435" lon="10.665382627448851"><ele>57.0</ele><time>2026-05-03T07:18:52Z</time></trkpt><trkpt lat="45.31232652755483" lon="10.665526288209893"><ele>57.0</ele><time>2026-05-03T07:18:53Z</time></trkpt><trkpt lat="45.31229000223013" lon="10.6656464076619"><ele>57.0</ele><time>2026-05-03T07:18:54Z</time></trkpt><trkpt lat="45.31225858061277" lon="10.665776129405002"><ele>56.6</ele><time>2026-05-03T07:18:55Z</time></trkpt><trkpt lat="45.31222464773819" lon="10.665903361841291"><ele>56.2</ele><time>2026-05-03T07:18:56Z</time></trkpt><trkpt lat="45.312193273571566" lon="10.66602250762484"><ele>55.8</ele><time>2026-05-03T07:18:57Z</time></trkpt><trkpt lat="45.31215229570268" lon="10.666146367836344"><ele>55.4</ele><time>2026-05-03T07:18:58Z</time></trkpt><trkpt lat="45.31219298034223" lon="10.6663339112623"><ele>55.0</ele><time>2026-05-03T07:18:59Z</time></trkpt><trkpt lat="45.3121371665928" lon="10.66647456920278"><ele>55.6</ele><time>2026-05-03T07:19:00Z</time></trkpt><trkpt lat="45.312086812341285" lon="10.666590447884984"><ele>56.2</ele><time>2026-05-03T07:19:01Z</time></trkpt><trkpt lat="45.31203105257738" lon="10.666707216237992"><ele>56.8</ele><time>2026-05-03T07:19:02Z</time></trkpt><trkpt lat="45.3119701344155" lon="10.666820453993628"><ele>57.4</ele><time>2026-05-03T07:19:03Z</time></trkpt><trkpt lat="45.311907575464346" lon="10.666929871603404"><ele>58.0</ele><time>2026-05-03T07:19:04Z</time></trkpt><trkpt lat="45.31183950691662" lon="10.667041961184987"><ele>58.0</ele><time>2026-05-03T07:19:05Z</time></trkpt><trkpt lat="45.31177272642239" lon="10.667150160443047"><ele>58.0</ele><time>2026-05-03T07:19:06Z</time></trkpt><trkpt lat="45.311707887918146" lon="10.667255187724546"><ele>58.0</ele><time>2026-05-03T07:19:07Z</time></trkpt><trkpt lat="45.31164319155596" lon="10.667358544089582"><ele>58.0</ele><time>2026-05-03T07:19:08Z</time></trkpt><trkpt lat="45.311571839294125" lon="10.667470968935278"><ele>58.0</ele><time>2026-05-03T07:19:09Z</time></trkpt><trkpt lat="45.31142369480438" lon="10.667700646193692"><ele>57.8</ele><time>2026-05-03T07:19:11Z</time></trkpt><trkpt lat="45.311347265506804" lon="10.667820047612837"><ele>57.599999999999994</ele><time>2026-05-03T07:19:12Z</time></trkpt><trkpt lat="45.31127780171114" lon="10.667929519643621"><ele>57.400000000000006</ele><time>2026-05-03T07:19:13Z</time></trkpt><trkpt lat="45.31121892237803" lon="10.668022590714957"><ele>57.2</ele><time>2026-05-03T07:19:14Z</time></trkpt><trkpt lat="45.311161110960406" lon="10.668113973869788"><ele>57.0</ele><time>2026-05-03T07:19:15Z</time></trkpt><trkpt lat="45.311101014675145" lon="10.668208968696907"><ele>57.0</ele><time>2026-05-03T07:19:16Z</time></trkpt><trkpt lat="45.31104451692336" lon="10.66829827515447"><ele>57.0</ele><time>2026-05-03T07:19:17Z</time></trkpt><trkpt lat="45.31099653281673" lon="10.668374124218618"><ele>57.0</ele><time>2026-05-03T07:19:18Z</time></trkpt><trkpt lat="45.31092683633836" lon="10.668484294504964"><ele>57.0</ele><time>2026-05-03T07:19:20Z</time></trkpt><trkpt lat="45.31077214673902" lon="10.668212911847622"><ele>57.0</ele><time>2026-05-03T07:19:22Z</time></trkpt><trkpt lat="45.31070582353744" lon="10.66811841181618"><ele>57.0</ele><time>2026-05-03T07:19:23Z</time></trkpt><trkpt lat="45.310634510616836" lon="10.668016802228614"><ele>57.0</ele><time>2026-05-03T07:19:24Z</time></trkpt><trkpt lat="45.31056168450377" lon="10.667913036581089"><ele>57.0</ele><time>2026-05-03T07:19:25Z</time></trkpt><trkpt lat="45.310372683017086" lon="10.667990356244102"><ele>56.8</ele><time>2026-05-03T07:19:26Z</time></trkpt><trkpt lat="45.31027731787999" lon="10.66792230921025"><ele>56.6</ele><time>2026-05-03T07:19:27Z</time></trkpt><trkpt lat="45.31017822083108" lon="10.667841142952383"><ele>56.39999999999999</ele><time>2026-05-03T07:19:28Z</time></trkpt><trkpt lat="45.31007440416717" lon="10.667770667944943"><ele>56.199999999999996</ele><time>2026-05-03T07:19:29Z</time></trkpt><trkpt lat="45.30998655763416" lon="10.667697109532423"><ele>56.0</ele><time>2026-05-03T07:19:30Z</time></trkpt><trkpt lat="45.309902863048066" lon="10.667630129866586"><ele>56.0</ele><time>2026-05-03T07:19:31Z</time></trkpt><trkpt lat="45.30982405503171" lon="10.667558967666732"><ele>55.99999999999999</ele><time>2026-05-03T07:19:32Z</time></trkpt><trkpt lat="45.30974426264959" lon="10.667484104918959"><ele>55.99999999999999</ele><time>2026-05-03T07:19:33Z</time></trkpt><trkpt lat="45.30966335026272" lon="10.667400127229916"><ele>56.0</ele><time>2026-05-03T07:19:34Z</time></trkpt><trkpt lat="45.30959497702798" lon="10.667321571309833"><ele>56.0</ele><time>2026-05-03T07:19:35Z</time></trkpt><trkpt lat="45.30952511553139" lon="10.667239289589507"><ele>55.8</ele><time>2026-05-03T07:19:36Z</time></trkpt><trkpt lat="45.309453107945004" lon="10.667151411947788"><ele>55.599999999999994</ele><time>2026-05-03T07:19:37Z</time></trkpt><trkpt lat="45.30937129605829" lon="10.667063631178015"><ele>55.4</ele><time>2026-05-03T07:19:38Z</time></trkpt><trkpt lat="45.30929170904796" lon="10.666967683887828"><ele>55.2</ele><time>2026-05-03T07:19:39Z</time></trkpt><trkpt lat="45.30920720980814" lon="10.666874882069715"><ele>55.0</ele><time>2026-05-03T07:19:40Z</time></trkpt><trkpt lat="45.30911772498999" lon="10.666786334789311"><ele>55.0</ele><time>2026-05-03T07:19:41Z</time></trkpt><trkpt lat="45.30902825829435" lon="10.666702789620858"><ele>55.0</ele><time>2026-05-03T07:19:42Z</time></trkpt><trkpt lat="45.30894351532021" lon="10.666611569108381"><ele>55.0</ele><time>2026-05-03T07:19:43Z</time></trkpt><trkpt lat="45.30886420930218" lon="10.666505865831823"><ele>55.0</ele><time>2026-05-03T07:19:44Z</time></trkpt><trkpt lat="45.308776756388355" lon="10.666402150405677"><ele>55.0</ele><time>2026-05-03T07:19:45Z</time></trkpt><trkpt lat="45.30868828699619" lon="10.666293072581336"><ele>54.5</ele><time>2026-05-03T07:19:46Z</time></trkpt><trkpt lat="45.308606803612626" lon="10.66617563811946"><ele>54.0</ele><time>2026-05-03T07:19:47Z</time></trkpt><trkpt lat="45.30852667102444" lon="10.666056202548996"><ele>53.5</ele><time>2026-05-03T07:19:48Z</time></trkpt><trkpt lat="45.308451447489716" lon="10.665933500344533"><ele>53.0</ele><time>2026-05-03T07:19:49Z</time></trkpt><trkpt lat="45.30838335005251" lon="10.665817981342844"><ele>53.0</ele><time>2026-05-03T07:19:50Z</time></trkpt><trkpt lat="45.30831857044354" lon="10.665719023565563"><ele>53.0</ele><time>2026-05-03T07:19:51Z</time></trkpt><trkpt lat="45.30826941227037" lon="10.665616990503114"><ele>53.0</ele><time>2026-05-03T07:19:52Z</time></trkpt><trkpt lat="45.30822110760744" lon="10.665513726405344"><ele>53.0</ele><time>2026-05-03T07:19:53Z</time></trkpt><trkpt lat="45.30815240996735" lon="10.665414344231182"><ele>53.0</ele><time>2026-05-03T07:19:54Z</time></trkpt><trkpt lat="45.308074906469606" lon="10.665312111988712"><ele>53.4</ele><time>2026-05-03T07:19:55Z</time></trkpt><trkpt lat="45.30798895005992" lon="10.665209082784868"><ele>53.8</ele><time>2026-05-03T07:19:56Z</time></trkpt><trkpt lat="45.30791033869173" lon="10.665099144189615"><ele>54.2</ele><time>2026-05-03T07:19:57Z</time></trkpt><trkpt lat="45.307837431341724" lon="10.665010590007139"><ele>54.6</ele><time>2026-05-03T07:19:58Z</time></trkpt><trkpt lat="45.307769391161486" lon="10.664922539101106"><ele>55.0</ele><time>2026-05-03T07:19:59Z</time></trkpt><trkpt lat="45.307720462618704" lon="10.66481211954342"><ele>55.0</ele><time>2026-05-03T07:20:00Z</time></trkpt><trkpt lat="45.30767477542027" lon="10.664674715639823"><ele>55.0</ele><time>2026-05-03T07:20:01Z</time></trkpt><trkpt lat="45.30763780021221" lon="10.664527956542573"><ele>55.0</ele><time>2026-05-03T07:20:02Z</time></trkpt><trkpt lat="45.30760248921549" lon="10.664377284177725"><ele>55.0</ele><time>2026-05-03T07:20:03Z</time></trkpt><trkpt lat="45.307558513320494" lon="10.664222440844101"><ele>55.0</ele><time>2026-05-03T07:20:04Z</time></trkpt><trkpt lat="45.30752167295324" lon="10.664058401465963"><ele>54.75</ele><time>2026-05-03T07:20:05Z</time></trkpt><trkpt lat="45.3074825754405" lon="10.663893379487323"><ele>54.5</ele><time>2026-05-03T07:20:06Z</time></trkpt><trkpt lat="45.30744035970101" lon="10.663721503747944"><ele>54.25</ele><time>2026-05-03T07:20:07Z</time></trkpt><trkpt lat="45.307408971609256" lon="10.663564244657172"><ele>54.0</ele><time>2026-05-03T07:20:08Z</time></trkpt><trkpt lat="45.307380193552724" lon="10.663427812125436"><ele>54.0</ele><time>2026-05-03T07:20:09Z</time></trkpt><trkpt lat="45.30736295064742" lon="10.663285092238812"><ele>54.0</ele><time>2026-05-03T07:20:10Z</time></trkpt><trkpt lat="45.30733545290847" lon="10.663132664918635"><ele>54.0</ele><time>2026-05-03T07:20:11Z</time></trkpt><trkpt lat="45.30730763144247" lon="10.66295737116227"><ele>54.0</ele><time>2026-05-03T07:20:12Z</time></trkpt><trkpt lat="45.30727977453726" lon="10.662799234410935"><ele>54.0</ele><time>2026-05-03T07:20:13Z</time></trkpt><trkpt lat="45.30725509607712" lon="10.66265533810607"><ele>54.00000000000001</ele><time>2026-05-03T07:20:14Z</time></trkpt><trkpt lat="45.30722764657228" lon="10.66250271212302"><ele>54.00000000000001</ele><time>2026-05-03T07:20:15Z</time></trkpt><trkpt lat="45.30719866140851" lon="10.662341379722399"><ele>54.0</ele><time>2026-05-03T07:20:16Z</time></trkpt><trkpt lat="45.30716947614253" lon="10.662185216846224"><ele>54.0</ele><time>2026-05-03T07:20:17Z</time></trkpt><trkpt lat="45.307141943855314" lon="10.66202959000503"><ele>54.0</ele><time>2026-05-03T07:20:18Z</time></trkpt><trkpt lat="45.30711556217073" lon="10.661884268017891"><ele>54.00000000000001</ele><time>2026-05-03T07:20:19Z</time></trkpt><trkpt lat="45.30709118432679" lon="10.661741833708923"><ele>54.00000000000001</ele><time>2026-05-03T07:20:20Z</time></trkpt><trkpt lat="45.30706832428007" lon="10.661608795820687"><ele>54.0</ele><time>2026-05-03T07:20:21Z</time></trkpt><trkpt lat="45.30704514082054" lon="10.66148083857633"><ele>54.0</ele><time>2026-05-03T07:20:22Z</time></trkpt><trkpt lat="45.30702416611032" lon="10.661367629924534"><ele>54.0</ele><time>2026-05-03T07:20:23Z</time></trkpt><trkpt lat="45.30700812032975" lon="10.661271697519739"><ele>54.0</ele><time>2026-05-03T07:20:24Z</time></trkpt><trkpt lat="45.30698083750193" lon="10.661113078089441"><ele>54.0</ele><time>2026-05-03T07:20:26Z</time></trkpt><trkpt lat="45.30695831905076" lon="10.660998902368165"><ele>54.0</ele><time>2026-05-03T07:20:28Z</time></trkpt><trkpt lat="45.30691394913638" lon="10.660921412746971"><ele>54.0</ele><time>2026-05-03T07:20:30Z</time></trkpt><trkpt lat="45.306845917872295" lon="10.660887009664412"><ele>54.0</ele><time>2026-05-03T07:20:32Z</time></trkpt><trkpt lat="45.30672967787742" lon="10.660968762054528"><ele>54.0</ele><time>2026-05-03T07:20:34Z</time></trkpt><trkpt lat="45.30668075891726" lon="10.66108265174751"><ele>54.0</ele><time>2026-05-03T07:20:35Z</time></trkpt><trkpt lat="45.306626485066715" lon="10.661203171757885"><ele>54.0</ele><time>2026-05-03T07:20:36Z</time></trkpt><trkpt lat="45.306576540489644" lon="10.661303465986771"><ele>54.0</ele><time>2026-05-03T07:20:37Z</time></trkpt><trkpt lat="45.30653744152351" lon="10.661388194709494"><ele>54.0</ele><time>2026-05-03T07:20:38Z</time></trkpt><trkpt lat="45.30649958089193" lon="10.66146864669388"><ele>54.0</ele><time>2026-05-03T07:20:39Z</time></trkpt><trkpt lat="45.30643853589545" lon="10.661597053280206"><ele>53.833333333333336</ele><time>2026-05-03T07:20:41Z</time></trkpt><trkpt lat="45.30639751039119" lon="10.661691560198026"><ele>53.66666666666667</ele><time>2026-05-03T07:20:43Z</time></trkpt><trkpt lat="45.3063449403813" lon="10.661798535569325"><ele>53.5</ele><time>2026-05-03T07:20:46Z</time></trkpt><trkpt lat="45.306300195175936" lon="10.661890107533639"><ele>53.333333333333336</ele><time>2026-05-03T07:20:48Z</time></trkpt><trkpt lat="45.306250682522105" lon="10.661984941463706"><ele>53.16666666666667</ele><time>2026-05-03T07:20:50Z</time></trkpt><trkpt lat="45.306168771057195" lon="10.662094021383083"><ele>53.0</ele><time>2026-05-03T07:20:52Z</time></trkpt><trkpt lat="45.30607823987313" lon="10.662131658877696"><ele>52.833333333333336</ele><time>2026-05-03T07:20:54Z</time></trkpt><trkpt lat="45.30596013034759" lon="10.662199957458935"><ele>52.66666666666667</ele><time>2026-05-03T07:20:56Z</time></trkpt><trkpt lat="45.30589807682826" lon="10.662225375154216"><ele>52.5</ele><time>2026-05-03T07:20:57Z</time></trkpt><trkpt lat="45.305834355768454" lon="10.662247874761283"><ele>52.33333333333333</ele><time>2026-05-03T07:20:58Z</time></trkpt><trkpt lat="45.30577239736139" lon="10.662275651446663"><ele>52.166666666666664</ele><time>2026-05-03T07:20:59Z</time></trkpt><trkpt lat="45.30571106587421" lon="10.66230697851529"><ele>52.0</ele><time>2026-05-03T07:21:00Z</time></trkpt><trkpt lat="45.30564283115548" lon="10.662334297283996"><ele>52.0</ele><time>2026-05-03T07:21:01Z</time></trkpt><trkpt lat="45.30556963711705" lon="10.662365232074288"><ele>52.0</ele><time>2026-05-03T07:21:02Z</time></trkpt><trkpt lat="45.305491749650805" lon="10.662396673281027"><ele>52.0</ele><time>2026-05-03T07:21:03Z</time></trkpt><trkpt lat="45.30540905501431" lon="10.662426907570964"><ele>52.0</ele><time>2026-05-03T07:21:04Z</time></trkpt><trkpt lat="45.30531528513691" lon="10.662468806283389"><ele>52.0</ele><time>2026-05-03T07:21:05Z</time></trkpt><trkpt lat="45.305202245972424" lon="10.66252444922489"><ele>52.0</ele><time>2026-05-03T07:21:06Z</time></trkpt><trkpt lat="45.305074711845144" lon="10.662582047769448"><ele>52.0</ele><time>2026-05-03T07:21:07Z</time></trkpt><trkpt lat="45.304926172391276" lon="10.662622287936252"><ele>52.0</ele><time>2026-05-03T07:21:08Z</time></trkpt><trkpt lat="45.30477201209892" lon="10.662688074192687"><ele>52.0</ele><time>2026-05-03T07:21:09Z</time></trkpt><trkpt lat="45.30461915393445" lon="10.662757433856205"><ele>52.666666666666664</ele><time>2026-05-03T07:21:10Z</time></trkpt><trkpt lat="45.30446571377732" lon="10.662828031890491"><ele>53.33333333333333</ele><time>2026-05-03T07:21:11Z</time></trkpt><trkpt lat="45.304312151637184" lon="10.662922960444712"><ele>54.0</ele><time>2026-05-03T07:21:12Z</time></trkpt><trkpt lat="45.304156048125556" lon="10.662989357859203"><ele>54.0</ele><time>2026-05-03T07:21:13Z</time></trkpt><trkpt lat="45.30401378487241" lon="10.663058704358244"><ele>54.0</ele><time>2026-05-03T07:21:14Z</time></trkpt><trkpt lat="45.303861722411476" lon="10.663102950278128"><ele>54.0</ele><time>2026-05-03T07:21:15Z</time></trkpt><trkpt lat="45.303714805423105" lon="10.663168381736766"><ele>53.5</ele><time>2026-05-03T07:21:16Z</time></trkpt><trkpt lat="45.30358011676662" lon="10.663228365321755"><ele>53.0</ele><time>2026-05-03T07:21:17Z</time></trkpt><trkpt lat="45.30346395236082" lon="10.663304388484892"><ele>52.5</ele><time>2026-05-03T07:21:18Z</time></trkpt><trkpt lat="45.30334875063983" lon="10.663350592370568"><ele>52.0</ele><time>2026-05-03T07:21:19Z</time></trkpt><trkpt lat="45.3032314126064" lon="10.66341204292308"><ele>52.0</ele><time>2026-05-03T07:21:20Z</time></trkpt><trkpt lat="45.30311158768538" lon="10.663471201591918"><ele>52.0</ele><time>2026-05-03T07:21:21Z</time></trkpt><trkpt lat="45.3029887933455" lon="10.663528615396187"><ele>52.0</ele><time>2026-05-03T07:21:22Z</time></trkpt><trkpt lat="45.30287475483153" lon="10.663589854109638"><ele>52.0</ele><time>2026-05-03T07:21:23Z</time></trkpt><trkpt lat="45.30276652693279" lon="10.663623578662476"><ele>52.0</ele><time>2026-05-03T07:21:24Z</time></trkpt><trkpt lat="45.302670773675175" lon="10.663670957960132"><ele>52.0</ele><time>2026-05-03T07:21:25Z</time></trkpt><trkpt lat="45.302579030339025" lon="10.663738465872136"><ele>52.0</ele><time>2026-05-03T07:21:26Z</time></trkpt><trkpt lat="45.3024762988826" lon="10.663787093118536"><ele>52.0</ele><time>2026-05-03T07:21:27Z</time></trkpt><trkpt lat="45.30236732434683" lon="10.663840535054625"><ele>52.0</ele><time>2026-05-03T07:21:28Z</time></trkpt><trkpt lat="45.30225051307931" lon="10.663895590423198"><ele>52.25</ele><time>2026-05-03T07:21:29Z</time></trkpt><trkpt lat="45.302127537311335" lon="10.663954359217586"><ele>52.5</ele><time>2026-05-03T07:21:30Z</time></trkpt><trkpt lat="45.30199850895497" lon="10.664019734109461"><ele>52.75</ele><time>2026-05-03T07:21:31Z</time></trkpt><trkpt lat="45.301863645004936" lon="10.664090175536211"><ele>53.0</ele><time>2026-05-03T07:21:32Z</time></trkpt><trkpt lat="45.30172225019285" lon="10.664154060140792"><ele>53.0</ele><time>2026-05-03T07:21:33Z</time></trkpt><trkpt lat="45.30157905092345" lon="10.664214423084957"><ele>53.0</ele><time>2026-05-03T07:21:34Z</time></trkpt><trkpt lat="45.301445732722" lon="10.66427762755452"><ele>53.0</ele><time>2026-05-03T07:21:35Z</time></trkpt><trkpt lat="45.3013112930669" lon="10.664347784959812"><ele>53.0</ele><time>2026-05-03T07:21:36Z</time></trkpt><trkpt lat="45.30116922332665" lon="10.66438408400399"><ele>53.0</ele><time>2026-05-03T07:21:37Z</time></trkpt><trkpt lat="45.30102898507206" lon="10.664420311901255"><ele>53.0</ele><time>2026-05-03T07:21:38Z</time></trkpt><trkpt lat="45.300895400848596" lon="10.66447484478558"><ele>53.0</ele><time>2026-05-03T07:21:39Z</time></trkpt><trkpt lat="45.30075987462688" lon="10.664486222254634"><ele>53.0</ele><time>2026-05-03T07:21:40Z</time></trkpt><trkpt lat="45.300624387182076" lon="10.664523886508347"><ele>53.0</ele><time>2026-05-03T07:21:41Z</time></trkpt><trkpt lat="45.30048983134032" lon="10.664589069570331"><ele>53.0</ele><time>2026-05-03T07:21:42Z</time></trkpt><trkpt lat="45.30035318097237" lon="10.664615817512395"><ele>53.0</ele><time>2026-05-03T07:21:43Z</time></trkpt><trkpt lat="45.300230892002304" lon="10.664659978576177"><ele>53.0</ele><time>2026-05-03T07:21:44Z</time></trkpt><trkpt lat="45.3001182848145" lon="10.664700295935761"><ele>53.0</ele><time>2026-05-03T07:21:45Z</time></trkpt><trkpt lat="45.300003819249106" lon="10.664756019783075"><ele>53.0</ele><time>2026-05-03T07:21:46Z</time></trkpt><trkpt lat="45.299879012196584" lon="10.664760810544262"><ele>53.0</ele><time>2026-05-03T07:21:47Z</time></trkpt><trkpt lat="45.299756352019706" lon="10.66480666838123"><ele>53.0</ele><time>2026-05-03T07:21:48Z</time></trkpt><trkpt lat="45.29963450316347" lon="10.664811835022519"><ele>52.75</ele><time>2026-05-03T07:21:49Z</time></trkpt><trkpt lat="45.29952024085807" lon="10.664839758693828"><ele>52.5</ele><time>2026-05-03T07:21:50Z</time></trkpt><trkpt lat="45.299402255254506" lon="10.664870563151863"><ele>52.25</ele><time>2026-05-03T07:21:51Z</time></trkpt><trkpt lat="45.29929156730748" lon="10.66489960354035"><ele>52.0</ele><time>2026-05-03T07:21:52Z</time></trkpt><trkpt lat="45.299179006371965" lon="10.664927317469642"><ele>52.0</ele><time>2026-05-03T07:21:53Z</time></trkpt><trkpt lat="45.29907183128522" lon="10.664950745621923"><ele>52.0</ele><time>2026-05-03T07:21:54Z</time></trkpt><trkpt lat="45.298965286320254" lon="10.664971618102703"><ele>52.0</ele><time>2026-05-03T07:21:55Z</time></trkpt><trkpt lat="45.29887063783967" lon="10.66498911913702"><ele>52.0</ele><time>2026-05-03T07:21:56Z</time></trkpt><trkpt lat="45.29878034429996" lon="10.665005814918322"><ele>52.0</ele><time>2026-05-03T07:21:57Z</time></trkpt><trkpt lat="45.298686570850656" lon="10.66502315416198"><ele>51.8</ele><time>2026-05-03T07:21:58Z</time></trkpt><trkpt lat="45.29859308967952" lon="10.66504043936289"><ele>51.6</ele><time>2026-05-03T07:21:59Z</time></trkpt><trkpt lat="45.29849022244683" lon="10.665059460102045"><ele>51.4</ele><time>2026-05-03T07:22:00Z</time></trkpt><trkpt lat="45.2983853503025" lon="10.665078179385432"><ele>51.199999999999996</ele><time>2026-05-03T07:22:01Z</time></trkpt><trkpt lat="45.29829342604974" lon="10.665093722431932"><ele>51.0</ele><time>2026-05-03T07:22:02Z</time></trkpt><trkpt lat="45.2982098652146" lon="10.665106333088179"><ele>51.0</ele><time>2026-05-03T07:22:03Z</time></trkpt><trkpt lat="45.29812667330877" lon="10.665118284233161"><ele>51.0</ele><time>2026-05-03T07:22:04Z</time></trkpt><trkpt lat="45.29803714210242" lon="10.66513028456652"><ele>51.0</ele><time>2026-05-03T07:22:05Z</time></trkpt><trkpt lat="45.29794081651849" lon="10.66514027894605"><ele>51.0</ele><time>2026-05-03T07:22:06Z</time></trkpt><trkpt lat="45.297841418222966" lon="10.665146851659863"><ele>51.0</ele><time>2026-05-03T07:22:07Z</time></trkpt><trkpt lat="45.29773838588668" lon="10.665152622120592"><ele>51.166666666666664</ele><time>2026-05-03T07:22:08Z</time></trkpt><trkpt lat="45.29763876048162" lon="10.665178877699763"><ele>51.33333333333333</ele><time>2026-05-03T07:22:09Z</time></trkpt><trkpt lat="45.29754682843316" lon="10.665181326784264"><ele>51.5</ele><time>2026-05-03T07:22:10Z</time></trkpt><trkpt lat="45.297461474221095" lon="10.665184625350436"><ele>51.666666666666664</ele><time>2026-05-03T07:22:11Z</time></trkpt><trkpt lat="45.29738566302706" lon="10.665196361628086"><ele>51.83333333333333</ele><time>2026-05-03T07:22:12Z</time></trkpt><trkpt lat="45.29731815529113" lon="10.665182543140071"><ele>52.0</ele><time>2026-05-03T07:22:13Z</time></trkpt><trkpt lat="45.2972568592049" lon="10.665216188790666"><ele>52.0</ele><time>2026-05-03T07:22:14Z</time></trkpt><trkpt lat="45.29714832047647" lon="10.665241224334965"><ele>52.0</ele><time>2026-05-03T07:22:16Z</time></trkpt><trkpt lat="45.29704634191782" lon="10.665231679834518"><ele>52.0</ele><time>2026-05-03T07:22:18Z</time></trkpt><trkpt lat="45.29701009931337" lon="10.665539532743354"><ele>52.0</ele><time>2026-05-03T07:22:20Z</time></trkpt><trkpt lat="45.29698666361087" lon="10.66567969664973"><ele>52.0</ele><time>2026-05-03T07:22:21Z</time></trkpt><trkpt lat="45.2969478298026" lon="10.665826249281688"><ele>52.0</ele><time>2026-05-03T07:22:22Z</time></trkpt><trkpt lat="45.29690302822255" lon="10.665984953790263"><ele>52.0</ele><time>2026-05-03T07:22:23Z</time></trkpt><trkpt lat="45.296854240447765" lon="10.666160455261824"><ele>52.0</ele><time>2026-05-03T07:22:24Z</time></trkpt><trkpt lat="45.296804190450274" lon="10.66633359946479"><ele>52.25</ele><time>2026-05-03T07:22:25Z</time></trkpt><trkpt lat="45.296756936824536" lon="10.666489868815756"><ele>52.5</ele><time>2026-05-03T07:22:26Z</time></trkpt><trkpt lat="45.29672408822068" lon="10.666653233455584"><ele>52.75</ele><time>2026-05-03T07:22:27Z</time></trkpt><trkpt lat="45.296716640906816" lon="10.666843174941299"><ele>53.0</ele><time>2026-05-03T07:22:28Z</time></trkpt><trkpt lat="45.2967195529253" lon="10.667036308611756"><ele>52.5</ele><time>2026-05-03T07:22:29Z</time></trkpt><trkpt lat="45.29672122922052" lon="10.66723402358439"><ele>52.0</ele><time>2026-05-03T07:22:30Z</time></trkpt><trkpt lat="45.29672269050194" lon="10.667438869980518"><ele>51.5</ele><time>2026-05-03T07:22:31Z</time></trkpt><trkpt lat="45.29672282456316" lon="10.667646360677757"><ele>51.0</ele><time>2026-05-03T07:22:32Z</time></trkpt><trkpt lat="45.2967237167017" lon="10.667858258728263"><ele>51.0</ele><time>2026-05-03T07:22:33Z</time></trkpt><trkpt lat="45.2967256195262" lon="10.668075489305247"><ele>51.0</ele><time>2026-05-03T07:22:34Z</time></trkpt><trkpt lat="45.296727537607914" lon="10.668296616430496"><ele>51.0</ele><time>2026-05-03T07:22:35Z</time></trkpt><trkpt lat="45.29672321675752" lon="10.66851661349757"><ele>50.66666666666667</ele><time>2026-05-03T07:22:36Z</time></trkpt><trkpt lat="45.29672053498374" lon="10.668740860524743"><ele>50.333333333333336</ele><time>2026-05-03T07:22:37Z</time></trkpt><trkpt lat="45.29672047890563" lon="10.668965207574997"><ele>50.0</ele><time>2026-05-03T07:22:38Z</time></trkpt><trkpt lat="45.29672152116899" lon="10.669188116096537"><ele>50.0</ele><time>2026-05-03T07:22:39Z</time></trkpt><trkpt lat="45.29673146230009" lon="10.669410760629559"><ele>50.0</ele><time>2026-05-03T07:22:40Z</time></trkpt><trkpt lat="45.29674939350697" lon="10.669632227735844"><ele>50.0</ele><time>2026-05-03T07:22:41Z</time></trkpt><trkpt lat="45.29677682224587" lon="10.669854079466129"><ele>50.25</ele><time>2026-05-03T07:22:42Z</time></trkpt><trkpt lat="45.29680471119142" lon="10.670063343897608"><ele>50.5</ele><time>2026-05-03T07:22:43Z</time></trkpt><trkpt lat="45.296837369779524" lon="10.670254862797849"><ele>50.75</ele><time>2026-05-03T07:22:44Z</time></trkpt><trkpt lat="45.29687411090292" lon="10.670438155469311"><ele>51.0</ele><time>2026-05-03T07:22:45Z</time></trkpt><trkpt lat="45.29691888748464" lon="10.670627031777107"><ele>51.75</ele><time>2026-05-03T07:22:46Z</time></trkpt><trkpt lat="45.296966443864484" lon="10.670820224130201"><ele>52.5</ele><time>2026-05-03T07:22:47Z</time></trkpt><trkpt lat="45.297010523782596" lon="10.67101856323281"><ele>53.25</ele><time>2026-05-03T07:22:48Z</time></trkpt><trkpt lat="45.29704619747463" lon="10.671230128502085"><ele>54.0</ele><time>2026-05-03T07:22:49Z</time></trkpt><trkpt lat="45.29707041891489" lon="10.671446729287313"><ele>54.0</ele><time>2026-05-03T07:22:50Z</time></trkpt><trkpt lat="45.29707845223226" lon="10.671670748840324"><ele>54.0</ele><time>2026-05-03T07:22:51Z</time></trkpt><trkpt lat="45.29706804031818" lon="10.671900274724686"><ele>54.0</ele><time>2026-05-03T07:22:52Z</time></trkpt><trkpt lat="45.297039991963615" lon="10.672128325872686"><ele>53.33333333333333</ele><time>2026-05-03T07:22:53Z</time></trkpt><trkpt lat="45.297000323417144" lon="10.672354068042694"><ele>52.666666666666664</ele><time>2026-05-03T07:22:54Z</time></trkpt><trkpt lat="45.296964751564886" lon="10.672571174831793"><ele>52.0</ele><time>2026-05-03T07:22:55Z</time></trkpt><trkpt lat="45.2969276927382" lon="10.67277153594543"><ele>52.25</ele><time>2026-05-03T07:22:56Z</time></trkpt><trkpt lat="45.29689209712271" lon="10.672975647443105"><ele>52.5</ele><time>2026-05-03T07:22:57Z</time></trkpt><trkpt lat="45.29687081652671" lon="10.67316679387202"><ele>52.75</ele><time>2026-05-03T07:22:58Z</time></trkpt><trkpt lat="45.29684365228379" lon="10.673349671655789"><ele>53.0</ele><time>2026-05-03T07:22:59Z</time></trkpt><trkpt lat="45.29681661285834" lon="10.673522468970805"><ele>53.25</ele><time>2026-05-03T07:23:00Z</time></trkpt><trkpt lat="45.29677674201349" lon="10.673684283453012"><ele>53.5</ele><time>2026-05-03T07:23:01Z</time></trkpt><trkpt lat="45.29677139655027" lon="10.67384782160032"><ele>53.75</ele><time>2026-05-03T07:23:02Z</time></trkpt><trkpt lat="45.29674613773251" lon="10.674009511137232"><ele>54.0</ele><time>2026-05-03T07:23:03Z</time></trkpt><trkpt lat="45.29671829192701" lon="10.674167937197858"><ele>54.0</ele><time>2026-05-03T07:23:04Z</time></trkpt><trkpt lat="45.29669236074537" lon="10.674335327288674"><ele>54.0</ele><time>2026-05-03T07:23:05Z</time></trkpt><trkpt lat="45.29667416463195" lon="10.67449465260416"><ele>54.0</ele><time>2026-05-03T07:23:06Z</time></trkpt><trkpt lat="45.29663114388127" lon="10.674645522541281"><ele>54.0</ele><time>2026-05-03T07:23:07Z</time></trkpt><trkpt lat="45.296615103510035" lon="10.674813992381353"><ele>54.0</ele><time>2026-05-03T07:23:08Z</time></trkpt><trkpt lat="45.29658262965033" lon="10.674976900412712"><ele>54.0</ele><time>2026-05-03T07:23:09Z</time></trkpt><trkpt lat="45.29655538896454" lon="10.675152010729953"><ele>54.0</ele><time>2026-05-03T07:23:10Z</time></trkpt><trkpt lat="45.29652955324614" lon="10.675320686222676"><ele>54.0</ele><time>2026-05-03T07:23:11Z</time></trkpt><trkpt lat="45.29648739422681" lon="10.675475220965732"><ele>54.0</ele><time>2026-05-03T07:23:12Z</time></trkpt><trkpt lat="45.296459922069126" lon="10.675626722800017"><ele>54.0</ele><time>2026-05-03T07:23:13Z</time></trkpt><trkpt lat="45.29643068548295" lon="10.675787955000402"><ele>54.0</ele><time>2026-05-03T07:23:14Z</time></trkpt><trkpt lat="45.29640120563308" lon="10.675950538598219"><ele>54.0</ele><time>2026-05-03T07:23:15Z</time></trkpt><trkpt lat="45.29637568102161" lon="10.676109833007368"><ele>54.25</ele><time>2026-05-03T07:23:16Z</time></trkpt><trkpt lat="45.29635241561285" lon="10.676286175326288"><ele>54.5</ele><time>2026-05-03T07:23:17Z</time></trkpt><trkpt lat="45.29635522373087" lon="10.676468552092885"><ele>54.75</ele><time>2026-05-03T07:23:18Z</time></trkpt><trkpt lat="45.29635040826705" lon="10.676644988416243"><ele>55.0</ele><time>2026-05-03T07:23:19Z</time></trkpt><trkpt lat="45.29635081738559" lon="10.676793511571766"><ele>54.99999999999999</ele><time>2026-05-03T07:23:20Z</time></trkpt><trkpt lat="45.296350380394635" lon="10.676927737199"><ele>55.0</ele><time>2026-05-03T07:23:21Z</time></trkpt><trkpt lat="45.29634934907352" lon="10.677040415442828"><ele>55.0</ele><time>2026-05-03T07:23:22Z</time></trkpt><trkpt lat="45.29633195411078" lon="10.67713824253462"><ele>55.0</ele><time>2026-05-03T07:23:23Z</time></trkpt><trkpt lat="45.29634402983024" lon="10.677284924325336"><ele>54.99999999999999</ele><time>2026-05-03T07:23:25Z</time></trkpt><trkpt lat="45.29639578583321" lon="10.677336243985112"><ele>55.0</ele><time>2026-05-03T07:23:26Z</time></trkpt><trkpt lat="45.29647344057295" lon="10.677329701181293"><ele>54.75</ele><time>2026-05-03T07:23:27Z</time></trkpt><trkpt lat="45.29657971357718" lon="10.67736406955824"><ele>54.5</ele><time>2026-05-03T07:23:28Z</time></trkpt><trkpt lat="45.29670290245529" lon="10.677387230508373"><ele>54.25</ele><time>2026-05-03T07:23:29Z</time></trkpt><trkpt lat="45.296831023626865" lon="10.677427127718872"><ele>54.0</ele><time>2026-05-03T07:23:30Z</time></trkpt><trkpt lat="45.29696698738866" lon="10.677473364293004"><ele>54.0</ele><time>2026-05-03T07:23:31Z</time></trkpt><trkpt lat="45.29711123201847" lon="10.677526389066335"><ele>54.0</ele><time>2026-05-03T07:23:32Z</time></trkpt><trkpt lat="45.2972571798958" lon="10.67757180070549"><ele>54.0</ele><time>2026-05-03T07:23:33Z</time></trkpt><trkpt lat="45.29740760081235" lon="10.677623884293054"><ele>54.0</ele><time>2026-05-03T07:23:34Z</time></trkpt><trkpt lat="45.297564359892334" lon="10.677681812185613"><ele>54.0</ele><time>2026-05-03T07:23:35Z</time></trkpt><trkpt lat="45.297722504604685" lon="10.677740476634085"><ele>54.0</ele><time>2026-05-03T07:23:36Z</time></trkpt><trkpt lat="45.29788326319671" lon="10.677797852758653"><ele>54.0</ele><time>2026-05-03T07:23:37Z</time></trkpt><trkpt lat="45.298045761663445" lon="10.67785971227411"><ele>54.0</ele><time>2026-05-03T07:23:38Z</time></trkpt><trkpt lat="45.29820460691723" lon="10.677917889675275"><ele>54.0</ele><time>2026-05-03T07:23:39Z</time></trkpt><trkpt lat="45.29836058430238" lon="10.677973789988311"><ele>54.33333333333333</ele><time>2026-05-03T07:23:40Z</time></trkpt><trkpt lat="45.298514488284944" lon="10.678033467549925"><ele>54.666666666666664</ele><time>2026-05-03T07:23:41Z</time></trkpt><trkpt lat="45.29866154294321" lon="10.678091335527872"><ele>55.0</ele><time>2026-05-03T07:23:42Z</time></trkpt><trkpt lat="45.298812864681445" lon="10.67815093426083"><ele>55.0</ele><time>2026-05-03T07:23:43Z</time></trkpt><trkpt lat="45.29896062605903" lon="10.678210513250761"><ele>55.0</ele><time>2026-05-03T07:23:44Z</time></trkpt><trkpt lat="45.29910840676937" lon="10.678273420078842"><ele>55.0</ele><time>2026-05-03T07:23:45Z</time></trkpt><trkpt lat="45.299255895901226" lon="10.67833833912326"><ele>55.0</ele><time>2026-05-03T07:23:46Z</time></trkpt><trkpt lat="45.29940044298751" lon="10.678398888379943"><ele>55.0</ele><time>2026-05-03T07:23:47Z</time></trkpt><trkpt lat="45.29954585716805" lon="10.67845551860133"><ele>55.0</ele><time>2026-05-03T07:23:48Z</time></trkpt><trkpt lat="45.29969420401438" lon="10.678514915785186"><ele>55.0</ele><time>2026-05-03T07:23:49Z</time></trkpt><trkpt lat="45.29984620067876" lon="10.678575648004257"><ele>55.0</ele><time>2026-05-03T07:23:50Z</time></trkpt><trkpt lat="45.299999113365836" lon="10.678637751658258"><ele>55.0</ele><time>2026-05-03T07:23:51Z</time></trkpt><trkpt lat="45.30015146906095" lon="10.678703814556874"><ele>55.25</ele><time>2026-05-03T07:23:52Z</time></trkpt><trkpt lat="45.30030104289222" lon="10.67876549313399"><ele>55.5</ele><time>2026-05-03T07:23:53Z</time></trkpt><trkpt lat="45.30044098079956" lon="10.678819789812447"><ele>55.75</ele><time>2026-05-03T07:23:54Z</time></trkpt><trkpt lat="45.30056410842771" lon="10.678869796599907"><ele>56.0</ele><time>2026-05-03T07:23:55Z</time></trkpt><trkpt lat="45.30067109836267" lon="10.678917012718513"><ele>56.0</ele><time>2026-05-03T07:23:56Z</time></trkpt><trkpt lat="45.3007652986194" lon="10.678956498602837"><ele>55.99999999999999</ele><time>2026-05-03T07:23:57Z</time></trkpt><trkpt lat="45.30084958058854" lon="10.67899186712253"><ele>55.99999999999999</ele><time>2026-05-03T07:23:58Z</time></trkpt><trkpt lat="45.30091704820177" lon="10.679017417302681"><ele>56.0</ele><time>2026-05-03T07:23:59Z</time></trkpt><trkpt lat="45.30102750495446" lon="10.679047665017125"><ele>56.0</ele><time>2026-05-03T07:24:01Z</time></trkpt><trkpt lat="45.30117725555957" lon="10.679009074895529"><ele>56.00000000000001</ele><time>2026-05-03T07:24:03Z</time></trkpt><trkpt lat="45.301250707535466" lon="10.678931950239583"><ele>56.0</ele><time>2026-05-03T07:24:04Z</time></trkpt><trkpt lat="45.301324516394295" lon="10.678924543198834"><ele>56.0</ele><time>2026-05-03T07:24:05Z</time></trkpt><trkpt lat="45.301391030852834" lon="10.67898726028212"><ele>56.0</ele><time>2026-05-03T07:24:06Z</time></trkpt><trkpt lat="45.30143090846758" lon="10.67910792875713"><ele>56.00000000000001</ele><time>2026-05-03T07:24:07Z</time></trkpt><trkpt lat="45.30145607921838" lon="10.679241981361125"><ele>56.0</ele><time>2026-05-03T07:24:08Z</time></trkpt><trkpt lat="45.301494173020295" lon="10.679390200223875"><ele>56.25</ele><time>2026-05-03T07:24:09Z</time></trkpt><trkpt lat="45.30153996357483" lon="10.679564813655562"><ele>56.5</ele><time>2026-05-03T07:24:10Z</time></trkpt><trkpt lat="45.301581146823935" lon="10.679764754845108"><ele>56.75</ele><time>2026-05-03T07:24:11Z</time></trkpt><trkpt lat="45.30162603597827" lon="10.679977083760825"><ele>57.0</ele><time>2026-05-03T07:24:12Z</time></trkpt><trkpt lat="45.3016707231229" lon="10.680163385926393"><ele>57.25</ele><time>2026-05-03T07:24:13Z</time></trkpt><trkpt lat="45.301713833871204" lon="10.680322648154588"><ele>57.5</ele><time>2026-05-03T07:24:14Z</time></trkpt><trkpt lat="45.30177603747938" lon="10.680449877137708"><ele>57.75</ele><time>2026-05-03T07:24:15Z</time></trkpt><trkpt lat="45.30185829726036" lon="10.680559855056407"><ele>58.0</ele><time>2026-05-03T07:24:16Z</time></trkpt><trkpt lat="45.30196560694352" lon="10.6806725440539"><ele>58.0</ele><time>2026-05-03T07:24:17Z</time></trkpt><trkpt lat="45.30209154134495" lon="10.680805098209584"><ele>58.0</ele><time>2026-05-03T07:24:18Z</time></trkpt><trkpt lat="45.302221109536355" lon="10.680934604451096"><ele>58.0</ele><time>2026-05-03T07:24:19Z</time></trkpt><trkpt lat="45.30235705111919" lon="10.681070547120344"><ele>57.0</ele><time>2026-05-03T07:24:20Z</time></trkpt><trkpt lat="45.30250199399382" lon="10.681207456923866"><ele>56.0</ele><time>2026-05-03T07:24:21Z</time></trkpt><trkpt lat="45.30264392743044" lon="10.681354481255411"><ele>55.0</ele><time>2026-05-03T07:24:22Z</time></trkpt><trkpt lat="45.30277882866539" lon="10.681501664839738"><ele>55.0</ele><time>2026-05-03T07:24:23Z</time></trkpt><trkpt lat="45.302911426417516" lon="10.681635937350652"><ele>55.0</ele><time>2026-05-03T07:24:24Z</time></trkpt><trkpt lat="45.30304511009807" lon="10.681771907337529"><ele>55.0</ele><time>2026-05-03T07:24:25Z</time></trkpt><trkpt lat="45.30317239792389" lon="10.681909116985937"><ele>55.75</ele><time>2026-05-03T07:24:26Z</time></trkpt><trkpt lat="45.30328610951228" lon="10.682025934217727"><ele>56.5</ele><time>2026-05-03T07:24:27Z</time></trkpt><trkpt lat="45.303382553845886" lon="10.682120094210385"><ele>57.25</ele><time>2026-05-03T07:24:28Z</time></trkpt><trkpt lat="45.30346881461679" lon="10.68220831987366"><ele>58.0</ele><time>2026-05-03T07:24:29Z</time></trkpt><trkpt lat="45.30354603323556" lon="10.6822948254522"><ele>57.99999999999999</ele><time>2026-05-03T07:24:30Z</time></trkpt><trkpt lat="45.303614408778216" lon="10.682370653016479"><ele>58.0</ele><time>2026-05-03T07:24:31Z</time></trkpt><trkpt lat="45.30367286689389" lon="10.682438520785258"><ele>58.0</ele><time>2026-05-03T07:24:32Z</time></trkpt><trkpt lat="45.30371492977556" lon="10.682510809550308"><ele>58.0</ele><time>2026-05-03T07:24:33Z</time></trkpt><trkpt lat="45.30371619285519" lon="10.682675411972799"><ele>57.99999999999999</ele><time>2026-05-03T07:24:35Z</time></trkpt><trkpt lat="45.30369571432653" lon="10.682762977095184"><ele>58.0</ele><time>2026-05-03T07:24:36Z</time></trkpt><trkpt lat="45.30365490226522" lon="10.682852865690467"><ele>58.2</ele><time>2026-05-03T07:24:37Z</time></trkpt><trkpt lat="45.30359589974315" lon="10.682965817948102"><ele>58.4</ele><time>2026-05-03T07:24:38Z</time></trkpt><trkpt lat="45.303537829010594" lon="10.683095404396314"><ele>58.60000000000001</ele><time>2026-05-03T07:24:39Z</time></trkpt><trkpt lat="45.30348490547143" lon="10.683219982572144"><ele>58.800000000000004</ele><time>2026-05-03T07:24:40Z</time></trkpt><trkpt lat="45.30343679934824" lon="10.683334104225068"><ele>59.0</ele><time>2026-05-03T07:24:41Z</time></trkpt><trkpt lat="45.30338490755506" lon="10.683436997008767"><ele>59.0</ele><time>2026-05-03T07:24:42Z</time></trkpt><trkpt lat="45.303330073438495" lon="10.683543246971874"><ele>59.00000000000001</ele><time>2026-05-03T07:24:43Z</time></trkpt><trkpt lat="45.303267952704516" lon="10.683656373501861"><ele>59.00000000000001</ele><time>2026-05-03T07:24:44Z</time></trkpt><trkpt lat="45.30319774275136" lon="10.683763083084983"><ele>59.0</ele><time>2026-05-03T07:24:45Z</time></trkpt><trkpt lat="45.303098745941824" lon="10.68385563945634"><ele>59.0</ele><time>2026-05-03T07:24:46Z</time></trkpt><trkpt lat="45.303023154169615" lon="10.683988333006155"><ele>58.25</ele><time>2026-05-03T07:24:47Z</time></trkpt><trkpt lat="45.30294784145609" lon="10.684131725493733"><ele>57.5</ele><time>2026-05-03T07:24:48Z</time></trkpt><trkpt lat="45.30287321119579" lon="10.684282170710938"><ele>56.75</ele><time>2026-05-03T07:24:49Z</time></trkpt><trkpt lat="45.30279924560249" lon="10.684436368188166"><ele>56.0</ele><time>2026-05-03T07:24:50Z</time></trkpt><trkpt lat="45.30272597690096" lon="10.684589112874793"><ele>56.0</ele><time>2026-05-03T07:24:51Z</time></trkpt><trkpt lat="45.302656181924476" lon="10.684730492650731"><ele>55.99999999999999</ele><time>2026-05-03T07:24:52Z</time></trkpt><trkpt lat="45.302591993557904" lon="10.684858012443671"><ele>55.99999999999999</ele><time>2026-05-03T07:24:53Z</time></trkpt><trkpt lat="45.30254019046836" lon="10.684995171636658"><ele>56.0</ele><time>2026-05-03T07:24:54Z</time></trkpt><trkpt lat="45.30247536158756" lon="10.685114737952746"><ele>56.0</ele><time>2026-05-03T07:24:55Z</time></trkpt><trkpt lat="45.302409449539965" lon="10.685240138401774"><ele>56.25</ele><time>2026-05-03T07:24:56Z</time></trkpt><trkpt lat="45.302330597464405" lon="10.68535290670507"><ele>56.5</ele><time>2026-05-03T07:24:57Z</time></trkpt><trkpt lat="45.302262725851875" lon="10.68548189372966"><ele>56.75</ele><time>2026-05-03T07:24:58Z</time></trkpt><trkpt lat="45.30220528121368" lon="10.685630499608646"><ele>57.0</ele><time>2026-05-03T07:24:59Z</time></trkpt><trkpt lat="45.30212483285788" lon="10.685743953295802"><ele>57.0</ele><time>2026-05-03T07:25:00Z</time></trkpt><trkpt lat="45.30207985195167" lon="10.685868440351378"><ele>57.0</ele><time>2026-05-03T07:25:01Z</time></trkpt><trkpt lat="45.30201146392212" lon="10.685959405968145"><ele>57.0</ele><time>2026-05-03T07:25:02Z</time></trkpt><trkpt lat="45.301968174343635" lon="10.686080072452114"><ele>57.0</ele><time>2026-05-03T07:25:03Z</time></trkpt><trkpt lat="45.30190928853188" lon="10.686192103992244"><ele>57.0</ele><time>2026-05-03T07:25:04Z</time></trkpt><trkpt lat="45.30184606102695" lon="10.686306302203924"><ele>57.0</ele><time>2026-05-03T07:25:05Z</time></trkpt><trkpt lat="45.30178246345756" lon="10.686423331454394"><ele>57.0</ele><time>2026-05-03T07:25:06Z</time></trkpt><trkpt lat="45.30171912278271" lon="10.686544223947008"><ele>57.0</ele><time>2026-05-03T07:25:07Z</time></trkpt><trkpt lat="45.30165510271398" lon="10.68666341324488"><ele>57.0</ele><time>2026-05-03T07:25:08Z</time></trkpt><trkpt lat="45.30159369983783" lon="10.686780855558018"><ele>57.0</ele><time>2026-05-03T07:25:09Z</time></trkpt><trkpt lat="45.30153633020263" lon="10.686881839052031"><ele>57.0</ele><time>2026-05-03T07:25:10Z</time></trkpt><trkpt lat="45.301478440648836" lon="10.686989933930665"><ele>57.0</ele><time>2026-05-03T07:25:11Z</time></trkpt><trkpt lat="45.30141718831611" lon="10.68709370415793"><ele>57.0</ele><time>2026-05-03T07:25:12Z</time></trkpt><trkpt lat="45.30136014885855" lon="10.687194543182638"><ele>57.0</ele><time>2026-05-03T07:25:13Z</time></trkpt><trkpt lat="45.301301505841735" lon="10.68730567330816"><ele>57.0</ele><time>2026-05-03T07:25:14Z</time></trkpt><trkpt lat="45.30124771065682" lon="10.687408597019118"><ele>57.0</ele><time>2026-05-03T07:25:15Z</time></trkpt><trkpt lat="45.30118828351973" lon="10.687503196651756"><ele>57.0</ele><time>2026-05-03T07:25:16Z</time></trkpt><trkpt lat="45.3011392097189" lon="10.687593188914596"><ele>57.0</ele><time>2026-05-03T07:25:17Z</time></trkpt><trkpt lat="45.30108967937199" lon="10.687685408217519"><ele>57.0</ele><time>2026-05-03T07:25:18Z</time></trkpt><trkpt lat="45.30103061763186" lon="10.687786547768372"><ele>57.0</ele><time>2026-05-03T07:25:19Z</time></trkpt><trkpt lat="45.300961621236205" lon="10.687881081201933"><ele>57.0</ele><time>2026-05-03T07:25:20Z</time></trkpt><trkpt lat="45.300887242381236" lon="10.687963726136216"><ele>57.0</ele><time>2026-05-03T07:25:21Z</time></trkpt><trkpt lat="45.300805014335474" lon="10.688050534983006"><ele>57.0</ele><time>2026-05-03T07:25:22Z</time></trkpt><trkpt lat="45.30072755785601" lon="10.688126879484935"><ele>57.0</ele><time>2026-05-03T07:25:23Z</time></trkpt><trkpt lat="45.300654451919655" lon="10.688210697236391"><ele>57.0</ele><time>2026-05-03T07:25:24Z</time></trkpt><trkpt lat="45.30059172842763" lon="10.68828634583078"><ele>57.0</ele><time>2026-05-03T07:25:25Z</time></trkpt><trkpt lat="45.30053704611813" lon="10.688356937369974"><ele>57.0</ele><time>2026-05-03T07:25:26Z</time></trkpt><trkpt lat="45.30048354717804" lon="10.6884108547459"><ele>57.0</ele><time>2026-05-03T07:25:27Z</time></trkpt><trkpt lat="45.30043372086451" lon="10.688466687250058"><ele>57.0</ele><time>2026-05-03T07:25:28Z</time></trkpt><trkpt lat="45.30035507669093" lon="10.688457283517433"><ele>57.0</ele><time>2026-05-03T07:25:29Z</time></trkpt><trkpt lat="45.30029593220351" lon="10.688519451143623"><ele>57.0</ele><time>2026-05-03T07:25:30Z</time></trkpt><trkpt lat="45.300237734092356" lon="10.688591533249932"><ele>57.0</ele><time>2026-05-03T07:25:31Z</time></trkpt><trkpt lat="45.30018069214472" lon="10.688686148825221"><ele>57.0</ele><time>2026-05-03T07:25:32Z</time></trkpt><trkpt lat="45.30012035039875" lon="10.688796209993347"><ele>56.75</ele><time>2026-05-03T07:25:33Z</time></trkpt><trkpt lat="45.30005695597923" lon="10.688914872967892"><ele>56.5</ele><time>2026-05-03T07:25:34Z</time></trkpt><trkpt lat="45.29996748036336" lon="10.689014079570065"><ele>56.25</ele><time>2026-05-03T07:25:35Z</time></trkpt><trkpt lat="45.299886103153334" lon="10.689131536967851"><ele>56.0</ele><time>2026-05-03T07:25:36Z</time></trkpt><trkpt lat="45.29980378428814" lon="10.689250353517243"><ele>56.0</ele><time>2026-05-03T07:25:37Z</time></trkpt><trkpt lat="45.29973541476305" lon="10.689381517524762"><ele>55.99999999999999</ele><time>2026-05-03T07:25:38Z</time></trkpt><trkpt lat="45.299656256720944" lon="10.689502452126995"><ele>55.99999999999999</ele><time>2026-05-03T07:25:39Z</time></trkpt><trkpt lat="45.29958647379635" lon="10.689613277625709"><ele>56.0</ele><time>2026-05-03T07:25:40Z</time></trkpt><trkpt lat="45.299525531415796" lon="10.689709066200821"><ele>56.0</ele><time>2026-05-03T07:25:41Z</time></trkpt><trkpt lat="45.299465588914536" lon="10.689803769449819"><ele>56.199999999999996</ele><time>2026-05-03T07:25:42Z</time></trkpt><trkpt lat="45.29938890482877" lon="10.689875749287213"><ele>56.39999999999999</ele><time>2026-05-03T07:25:43Z</time></trkpt><trkpt lat="45.29934991855465" lon="10.69003546147011"><ele>56.6</ele><time>2026-05-03T07:25:44Z</time></trkpt><trkpt lat="45.29929153354434" lon="10.690147955898073"><ele>56.8</ele><time>2026-05-03T07:25:45Z</time></trkpt><trkpt lat="45.2992232679127" lon="10.690248100268011"><ele>57.0</ele><time>2026-05-03T07:25:46Z</time></trkpt><trkpt lat="45.299170488760566" lon="10.690354733220998"><ele>57.0</ele><time>2026-05-03T07:25:47Z</time></trkpt><trkpt lat="45.29910991324788" lon="10.690466931534951"><ele>57.0</ele><time>2026-05-03T07:25:48Z</time></trkpt><trkpt lat="45.2989934830538" lon="10.690527098830735"><ele>57.0</ele><time>2026-05-03T07:25:49Z</time></trkpt><trkpt lat="45.29891049286486" lon="10.690633843656398"><ele>57.0</ele><time>2026-05-03T07:25:50Z</time></trkpt><trkpt lat="45.298818362634705" lon="10.690745171051129"><ele>56.75</ele><time>2026-05-03T07:25:51Z</time></trkpt><trkpt lat="45.298723196989734" lon="10.69086169468012"><ele>56.5</ele><time>2026-05-03T07:25:52Z</time></trkpt><trkpt lat="45.29862622658982" lon="10.690982009994135"><ele>56.25</ele><time>2026-05-03T07:25:53Z</time></trkpt><trkpt lat="45.29852912910264" lon="10.691102825096152"><ele>56.0</ele><time>2026-05-03T07:25:54Z</time></trkpt><trkpt lat="45.29843594241024" lon="10.691218858018198"><ele>56.0</ele><time>2026-05-03T07:25:55Z</time></trkpt><trkpt lat="45.29833808003256" lon="10.69133761478472"><ele>56.0</ele><time>2026-05-03T07:25:56Z</time></trkpt><trkpt lat="45.29823759684801" lon="10.691454975139829"><ele>56.0</ele><time>2026-05-03T07:25:57Z</time></trkpt><trkpt lat="45.2981473566883" lon="10.691566135345797"><ele>56.0</ele><time>2026-05-03T07:25:58Z</time></trkpt><trkpt lat="45.298056000069906" lon="10.691673180375922"><ele>55.5</ele><time>2026-05-03T07:25:59Z</time></trkpt><trkpt lat="45.29796249973021" lon="10.691793866810135"><ele>55.0</ele><time>2026-05-03T07:26:00Z</time></trkpt><trkpt lat="45.29786801607631" lon="10.691908785869987"><ele>54.5</ele><time>2026-05-03T07:26:01Z</time></trkpt><trkpt lat="45.29777903430676" lon="10.692021445299272"><ele>54.0</ele><time>2026-05-03T07:26:02Z</time></trkpt><trkpt lat="45.297690926371324" lon="10.692136220269127"><ele>53.75</ele><time>2026-05-03T07:26:03Z</time></trkpt><trkpt lat="45.29760119340291" lon="10.69224944425675"><ele>53.5</ele><time>2026-05-03T07:26:04Z</time></trkpt><trkpt lat="45.2975100133697" lon="10.692368817267536"><ele>53.25</ele><time>2026-05-03T07:26:05Z</time></trkpt><trkpt lat="45.297417526808715" lon="10.692495045393022"><ele>53.0</ele><time>2026-05-03T07:26:06Z</time></trkpt><trkpt lat="45.29732212390073" lon="10.692627878605817"><ele>53.0</ele><time>2026-05-03T07:26:07Z</time></trkpt><trkpt lat="45.29723865102089" lon="10.692756286980835"><ele>53.0</ele><time>2026-05-03T07:26:08Z</time></trkpt><trkpt lat="45.297156814929075" lon="10.692882511541955"><ele>53.0</ele><time>2026-05-03T07:26:09Z</time></trkpt><trkpt lat="45.29707703073873" lon="10.69300263898858"><ele>53.0</ele><time>2026-05-03T07:26:10Z</time></trkpt><trkpt lat="45.297000513086445" lon="10.69312114184164"><ele>53.0</ele><time>2026-05-03T07:26:11Z</time></trkpt><trkpt lat="45.29692083388381" lon="10.693238087597873"><ele>53.0</ele><time>2026-05-03T07:26:12Z</time></trkpt><trkpt lat="45.29684215840624" lon="10.693358382946041"><ele>53.0</ele><time>2026-05-03T07:26:13Z</time></trkpt><trkpt lat="45.29676193619732" lon="10.693480327464163"><ele>53.0</ele><time>2026-05-03T07:26:14Z</time></trkpt><trkpt lat="45.296679977539405" lon="10.693604160333544"><ele>53.25</ele><time>2026-05-03T07:26:15Z</time></trkpt><trkpt lat="45.296598270952515" lon="10.693729345143566"><ele>53.5</ele><time>2026-05-03T07:26:16Z</time></trkpt><trkpt lat="45.29651479014602" lon="10.693849774312897"><ele>53.75</ele><time>2026-05-03T07:26:17Z</time></trkpt><trkpt lat="45.29643592546265" lon="10.693975777385752"><ele>54.0</ele><time>2026-05-03T07:26:18Z</time></trkpt><trkpt lat="45.296358505871275" lon="10.694101907555021"><ele>54.25</ele><time>2026-05-03T07:26:19Z</time></trkpt><trkpt lat="45.296280373529356" lon="10.69423158489997"><ele>54.5</ele><time>2026-05-03T07:26:20Z</time></trkpt><trkpt lat="45.29620142474254" lon="10.694348949950367"><ele>54.75</ele><time>2026-05-03T07:26:21Z</time></trkpt><trkpt lat="45.29611474027079" lon="10.694478310090469"><ele>55.0</ele><time>2026-05-03T07:26:22Z</time></trkpt><trkpt lat="45.29603166736551" lon="10.694601753498388"><ele>55.2</ele><time>2026-05-03T07:26:23Z</time></trkpt><trkpt lat="45.29595674201994" lon="10.694711616826902"><ele>55.4</ele><time>2026-05-03T07:26:24Z</time></trkpt><trkpt lat="45.29588644749043" lon="10.694822449322405"><ele>55.599999999999994</ele><time>2026-05-03T07:26:25Z</time></trkpt><trkpt lat="45.29582561495755" lon="10.69492076187061"><ele>55.8</ele><time>2026-05-03T07:26:26Z</time></trkpt><trkpt lat="45.29575551586482" lon="10.69502950119168"><ele>56.0</ele><time>2026-05-03T07:26:27Z</time></trkpt><trkpt lat="45.29567637203712" lon="10.695135824699895"><ele>56.0</ele><time>2026-05-03T07:26:28Z</time></trkpt><trkpt lat="45.29559633064878" lon="10.695245334219168"><ele>55.99999999999999</ele><time>2026-05-03T07:26:29Z</time></trkpt><trkpt lat="45.29551879476411" lon="10.695364439809977"><ele>55.99999999999999</ele><time>2026-05-03T07:26:30Z</time></trkpt><trkpt lat="45.29544596296742" lon="10.695480633178569"><ele>56.0</ele><time>2026-05-03T07:26:31Z</time></trkpt><trkpt lat="45.29537574490591" lon="10.695586147923462"><ele>56.0</ele><time>2026-05-03T07:26:32Z</time></trkpt><trkpt lat="45.295307026425995" lon="10.695681023931417"><ele>55.599999999999994</ele><time>2026-05-03T07:26:33Z</time></trkpt><trkpt lat="45.2952467746804" lon="10.695768402655077"><ele>55.199999999999996</ele><time>2026-05-03T07:26:34Z</time></trkpt><trkpt lat="45.295182674529904" lon="10.695861613809166"><ele>54.800000000000004</ele><time>2026-05-03T07:26:35Z</time></trkpt><trkpt lat="45.29511452865467" lon="10.695965139535211"><ele>54.400000000000006</ele><time>2026-05-03T07:26:36Z</time></trkpt><trkpt lat="45.29504338824622" lon="10.696071732819766"><ele>54.0</ele><time>2026-05-03T07:26:37Z</time></trkpt><trkpt lat="45.29496985695552" lon="10.696177821420408"><ele>54.0</ele><time>2026-05-03T07:26:38Z</time></trkpt><trkpt lat="45.29489325430629" lon="10.696291246696013"><ele>54.00000000000001</ele><time>2026-05-03T07:26:39Z</time></trkpt><trkpt lat="45.29481957018239" lon="10.696402653799462"><ele>54.00000000000001</ele><time>2026-05-03T07:26:40Z</time></trkpt><trkpt lat="45.294739127074806" lon="10.696520711080048"><ele>54.0</ele><time>2026-05-03T07:26:41Z</time></trkpt><trkpt lat="45.2946668709707" lon="10.69664807538913"><ele>54.0</ele><time>2026-05-03T07:26:42Z</time></trkpt><trkpt lat="45.294596358633946" lon="10.69677807350479"><ele>53.800000000000004</ele><time>2026-05-03T07:26:43Z</time></trkpt><trkpt lat="45.294531037464466" lon="10.69689975836393"><ele>53.60000000000001</ele><time>2026-05-03T07:26:44Z</time></trkpt><trkpt lat="45.29447361943823" lon="10.697009024257552"><ele>53.4</ele><time>2026-05-03T07:26:45Z</time></trkpt><trkpt lat="45.29441409690568" lon="10.697124538110186"><ele>53.2</ele><time>2026-05-03T07:26:46Z</time></trkpt><trkpt lat="45.29435872095309" lon="10.697244403489513"><ele>53.0</ele><time>2026-05-03T07:26:47Z</time></trkpt><trkpt lat="45.29430406285321" lon="10.697361196240214"><ele>53.0</ele><time>2026-05-03T07:26:48Z</time></trkpt><trkpt lat="45.29425360960359" lon="10.697469254216573"><ele>53.0</ele><time>2026-05-03T07:26:49Z</time></trkpt><trkpt lat="45.294202686751966" lon="10.697590150281798"><ele>53.0</ele><time>2026-05-03T07:26:50Z</time></trkpt><trkpt lat="45.29414894401061" lon="10.69772043108429"><ele>53.0</ele><time>2026-05-03T07:26:51Z</time></trkpt><trkpt lat="45.29409631893575" lon="10.69784821522075"><ele>53.0</ele><time>2026-05-03T07:26:52Z</time></trkpt><trkpt lat="45.29404512738109" lon="10.69797700046528"><ele>53.0</ele><time>2026-05-03T07:26:53Z</time></trkpt><trkpt lat="45.29398979534299" lon="10.698103431657959"><ele>53.0</ele><time>2026-05-03T07:26:54Z</time></trkpt><trkpt lat="45.29393857205891" lon="10.698243112170134"><ele>53.0</ele><time>2026-05-03T07:26:55Z</time></trkpt><trkpt lat="45.29389296221839" lon="10.698383610654412"><ele>53.0</ele><time>2026-05-03T07:26:56Z</time></trkpt><trkpt lat="45.293841035172015" lon="10.69852892487718"><ele>53.0</ele><time>2026-05-03T07:26:57Z</time></trkpt><trkpt lat="45.2937842167811" lon="10.698675119913224"><ele>53.0</ele><time>2026-05-03T07:26:58Z</time></trkpt><trkpt lat="45.29371470458647" lon="10.698821663252158"><ele>53.0</ele><time>2026-05-03T07:26:59Z</time></trkpt><trkpt lat="45.2936372346816" lon="10.698948820326128"><ele>53.0</ele><time>2026-05-03T07:27:00Z</time></trkpt><trkpt lat="45.29354324159749" lon="10.699056808117836"><ele>53.0</ele><time>2026-05-03T07:27:01Z</time></trkpt><trkpt lat="45.29344130842979" lon="10.699152807854153"><ele>53.0</ele><time>2026-05-03T07:27:02Z</time></trkpt><trkpt lat="45.293349255008" lon="10.699212928297065"><ele>53.0</ele><time>2026-05-03T07:27:03Z</time></trkpt><trkpt lat="45.29324612956533" lon="10.699264232728119"><ele>53.0</ele><time>2026-05-03T07:27:04Z</time></trkpt><trkpt lat="45.29315679388733" lon="10.699317868458188"><ele>53.0</ele><time>2026-05-03T07:27:05Z</time></trkpt><trkpt lat="45.29307198644695" lon="10.699368642034907"><ele>53.0</ele><time>2026-05-03T07:27:06Z</time></trkpt><trkpt lat="45.29298676236077" lon="10.699419277646479"><ele>52.8</ele><time>2026-05-03T07:27:07Z</time></trkpt><trkpt lat="45.292901800673725" lon="10.699471614672747"><ele>52.599999999999994</ele><time>2026-05-03T07:27:08Z</time></trkpt><trkpt lat="45.2928166097462" lon="10.699529540244805"><ele>52.400000000000006</ele><time>2026-05-03T07:27:09Z</time></trkpt><trkpt lat="45.292730409733565" lon="10.699592618036673"><ele>52.2</ele><time>2026-05-03T07:27:10Z</time></trkpt><trkpt lat="45.29264627393836" lon="10.69966746511248"><ele>52.0</ele><time>2026-05-03T07:27:11Z</time></trkpt><trkpt lat="45.29256991204155" lon="10.699746423224077"><ele>51.99999999999999</ele><time>2026-05-03T07:27:12Z</time></trkpt><trkpt lat="45.29250944472272" lon="10.699816762946053"><ele>52.0</ele><time>2026-05-03T07:27:13Z</time></trkpt><trkpt lat="45.2924506070374" lon="10.699889900474526"><ele>52.0</ele><time>2026-05-03T07:27:14Z</time></trkpt><trkpt lat="45.2923862090372" lon="10.699969270163784"><ele>52.0</ele><time>2026-05-03T07:27:15Z</time></trkpt><trkpt lat="45.292339091202834" lon="10.700031974093381"><ele>51.99999999999999</ele><time>2026-05-03T07:27:16Z</time></trkpt><trkpt lat="45.29227942669314" lon="10.700119949721753"><ele>52.0</ele><time>2026-05-03T07:27:19Z</time></trkpt><trkpt lat="45.292203005386725" lon="10.700153112290385"><ele>51.49999999999999</ele><time>2026-05-03T07:27:21Z</time></trkpt><trkpt lat="45.292129420802276" lon="10.700178164831556"><ele>51.0</ele><time>2026-05-03T07:27:23Z</time></trkpt><trkpt lat="45.29208413686306" lon="10.700298848854542"><ele>50.5</ele><time>2026-05-03T07:27:25Z</time></trkpt><trkpt lat="45.29198946831361" lon="10.700381657791564"><ele>50.0</ele><time>2026-05-03T07:27:27Z</time></trkpt><trkpt lat="45.29192431950106" lon="10.700413151167403"><ele>49.49999999999999</ele><time>2026-05-03T07:27:28Z</time></trkpt><trkpt lat="45.29185394978186" lon="10.700458966748348"><ele>49.0</ele><time>2026-05-03T07:27:29Z</time></trkpt><trkpt lat="45.29179312122862" lon="10.700527926874706"><ele>48.6</ele><time>2026-05-03T07:27:30Z</time></trkpt><trkpt lat="45.2917297434651" lon="10.700608286647322"><ele>48.2</ele><time>2026-05-03T07:27:31Z</time></trkpt><trkpt lat="45.29164734842977" lon="10.700694467786505"><ele>47.800000000000004</ele><time>2026-05-03T07:27:32Z</time></trkpt><trkpt lat="45.29156909834359" lon="10.700795145704967"><ele>47.400000000000006</ele><time>2026-05-03T07:27:33Z</time></trkpt><trkpt lat="45.29148704155812" lon="10.700899828163399"><ele>47.0</ele><time>2026-05-03T07:27:34Z</time></trkpt><trkpt lat="45.29142138153554" lon="10.701020323604604"><ele>46.6</ele><time>2026-05-03T07:27:35Z</time></trkpt><trkpt lat="45.2913646953029" lon="10.70115821079119"><ele>46.2</ele><time>2026-05-03T07:27:36Z</time></trkpt><trkpt lat="45.291315595415654" lon="10.701308550646173"><ele>45.8</ele><time>2026-05-03T07:27:37Z</time></trkpt><trkpt lat="45.29126309513891" lon="10.701451012870688"><ele>45.4</ele><time>2026-05-03T07:27:38Z</time></trkpt><trkpt lat="45.291218502351256" lon="10.701585128878829"><ele>45.0</ele><time>2026-05-03T07:27:39Z</time></trkpt><trkpt lat="45.29117305514631" lon="10.70171683045765"><ele>45.0</ele><time>2026-05-03T07:27:40Z</time></trkpt><trkpt lat="45.29113603014372" lon="10.701838908929581"><ele>45.0</ele><time>2026-05-03T07:27:41Z</time></trkpt><trkpt lat="45.29110322140537" lon="10.70195677026968"><ele>45.0</ele><time>2026-05-03T07:27:42Z</time></trkpt><trkpt lat="45.29106788635571" lon="10.70208360036888"><ele>45.0</ele><time>2026-05-03T07:27:43Z</time></trkpt><trkpt lat="45.29102809844836" lon="10.70222272969265"><ele>45.0</ele><time>2026-05-03T07:27:44Z</time></trkpt><trkpt lat="45.29098156000805" lon="10.702366189145568"><ele>45.0</ele><time>2026-05-03T07:27:45Z</time></trkpt><trkpt lat="45.29093064439402" lon="10.70251261167519"><ele>45.0</ele><time>2026-05-03T07:27:46Z</time></trkpt><trkpt lat="45.29087967107631" lon="10.702664715702259"><ele>45.0</ele><time>2026-05-03T07:27:47Z</time></trkpt><trkpt lat="45.290833380492224" lon="10.702823332916319"><ele>45.0</ele><time>2026-05-03T07:27:48Z</time></trkpt><trkpt lat="45.290781005288906" lon="10.702980525599633"><ele>45.0</ele><time>2026-05-03T07:27:49Z</time></trkpt><trkpt lat="45.29073677295121" lon="10.703145417014053"><ele>45.0</ele><time>2026-05-03T07:27:50Z</time></trkpt><trkpt lat="45.29069381748378" lon="10.703315914375887"><ele>45.0</ele><time>2026-05-03T07:27:51Z</time></trkpt><trkpt lat="45.29065013702249" lon="10.703492718030885"><ele>45.0</ele><time>2026-05-03T07:27:52Z</time></trkpt><trkpt lat="45.290613355502394" lon="10.703670046745906"><ele>44.75</ele><time>2026-05-03T07:27:53Z</time></trkpt><trkpt lat="45.29058225428659" lon="10.703849124126144"><ele>44.5</ele><time>2026-05-03T07:27:54Z</time></trkpt><trkpt lat="45.29055986588445" lon="10.704033484875083"><ele>44.25</ele><time>2026-05-03T07:27:55Z</time></trkpt><trkpt lat="45.290537360719696" lon="10.70422362265887"><ele>44.0</ele><time>2026-05-03T07:27:56Z</time></trkpt><trkpt lat="45.2905141585978" lon="10.704410218763003"><ele>44.0</ele><time>2026-05-03T07:27:57Z</time></trkpt><trkpt lat="45.290492315575754" lon="10.704597425736203"><ele>44.0</ele><time>2026-05-03T07:27:58Z</time></trkpt><trkpt lat="45.29047232292086" lon="10.704771960767346"><ele>44.0</ele><time>2026-05-03T07:27:59Z</time></trkpt><trkpt lat="45.29045177556658" lon="10.704938916267544"><ele>44.0</ele><time>2026-05-03T07:28:00Z</time></trkpt><trkpt lat="45.290435239775434" lon="10.705112351044352"><ele>44.0</ele><time>2026-05-03T07:28:01Z</time></trkpt><trkpt lat="45.290418774246426" lon="10.70528975502426"><ele>44.0</ele><time>2026-05-03T07:28:02Z</time></trkpt><trkpt lat="45.29039991513573" lon="10.705463181745984"><ele>44.0</ele><time>2026-05-03T07:28:03Z</time></trkpt><trkpt lat="45.290381405898295" lon="10.70561714114951"><ele>44.0</ele><time>2026-05-03T07:28:04Z</time></trkpt><trkpt lat="45.29036346661368" lon="10.705757876572894"><ele>44.0</ele><time>2026-05-03T07:28:05Z</time></trkpt><trkpt lat="45.290348964095664" lon="10.705896797875239"><ele>44.0</ele><time>2026-05-03T07:28:06Z</time></trkpt><trkpt lat="45.290329717873156" lon="10.706045707775072"><ele>44.0</ele><time>2026-05-03T07:28:07Z</time></trkpt><trkpt lat="45.29030317878783" lon="10.70619096291663"><ele>44.0</ele><time>2026-05-03T07:28:08Z</time></trkpt><trkpt lat="45.29027405146868" lon="10.706345461180877"><ele>44.0</ele><time>2026-05-03T07:28:09Z</time></trkpt><trkpt lat="45.29023824893139" lon="10.706507914193386"><ele>43.75</ele><time>2026-05-03T07:28:10Z</time></trkpt><trkpt lat="45.290198437838235" lon="10.706673986351932"><ele>43.5</ele><time>2026-05-03T07:28:11Z</time></trkpt><trkpt lat="45.29016621042427" lon="10.706846119090224"><ele>43.25</ele><time>2026-05-03T07:28:12Z</time></trkpt><trkpt lat="45.29012872800363" lon="10.707023723853663"><ele>43.0</ele><time>2026-05-03T07:28:13Z</time></trkpt><trkpt lat="45.290090926928606" lon="10.707199219088373"><ele>42.75</ele><time>2026-05-03T07:28:14Z</time></trkpt><trkpt lat="45.290062735956376" lon="10.707373782496152"><ele>42.5</ele><time>2026-05-03T07:28:15Z</time></trkpt><trkpt lat="45.29003038854805" lon="10.70755774324093"><ele>42.25</ele><time>2026-05-03T07:28:16Z</time></trkpt><trkpt lat="45.289993412975385" lon="10.707747274251895"><ele>42.0</ele><time>2026-05-03T07:28:17Z</time></trkpt><trkpt lat="45.28995569686595" lon="10.707939385830295"><ele>42.25</ele><time>2026-05-03T07:28:18Z</time></trkpt><trkpt lat="45.289915997502426" lon="10.708125974262108"><ele>42.5</ele><time>2026-05-03T07:28:19Z</time></trkpt><trkpt lat="45.28987311965233" lon="10.708308682372548"><ele>42.75</ele><time>2026-05-03T07:28:20Z</time></trkpt><trkpt lat="45.28983260050354" lon="10.708490293873655"><ele>43.0</ele><time>2026-05-03T07:28:21Z</time></trkpt><trkpt lat="45.289792793685535" lon="10.708680102787188"><ele>42.75</ele><time>2026-05-03T07:28:22Z</time></trkpt><trkpt lat="45.289746317502214" lon="10.708872206793309"><ele>42.5</ele><time>2026-05-03T07:28:23Z</time></trkpt><trkpt lat="45.2896922049831" lon="10.709063920382366"><ele>42.25</ele><time>2026-05-03T07:28:24Z</time></trkpt><trkpt lat="45.28963763231253" lon="10.709257498655269"><ele>42.0</ele><time>2026-05-03T07:28:25Z</time></trkpt><trkpt lat="45.28957775239738" lon="10.709452528994728"><ele>41.666666666666664</ele><time>2026-05-03T07:28:26Z</time></trkpt><trkpt lat="45.28951431959409" lon="10.709652663854818"><ele>41.33333333333333</ele><time>2026-05-03T07:28:27Z</time></trkpt><trkpt lat="45.28944851980852" lon="10.709857166588124"><ele>41.0</ele><time>2026-05-03T07:28:28Z</time></trkpt><trkpt lat="45.28938149527565" lon="10.710059948980978"><ele>41.0</ele><time>2026-05-03T07:28:29Z</time></trkpt><trkpt lat="45.28931372416691" lon="10.710265985853846"><ele>41.0</ele><time>2026-05-03T07:28:30Z</time></trkpt><trkpt lat="45.28924521217441" lon="10.710469508366405"><ele>41.0</ele><time>2026-05-03T07:28:31Z</time></trkpt><trkpt lat="45.28917994276403" lon="10.710667356374888"><ele>41.0</ele><time>2026-05-03T07:28:32Z</time></trkpt><trkpt lat="45.289117199259046" lon="10.710852986543207"><ele>41.0</ele><time>2026-05-03T07:28:33Z</time></trkpt><trkpt lat="45.28905760074234" lon="10.71104065903445"><ele>41.0</ele><time>2026-05-03T07:28:34Z</time></trkpt><trkpt lat="45.288999912382764" lon="10.711233000506928"><ele>41.0</ele><time>2026-05-03T07:28:35Z</time></trkpt><trkpt lat="45.288942957158575" lon="10.711426787583214"><ele>41.0</ele><time>2026-05-03T07:28:36Z</time></trkpt><trkpt lat="45.28888308644566" lon="10.711607420801444"><ele>41.0</ele><time>2026-05-03T07:28:37Z</time></trkpt><trkpt lat="45.28882012962409" lon="10.711787887832422"><ele>41.0</ele><time>2026-05-03T07:28:38Z</time></trkpt><trkpt lat="45.288756536389755" lon="10.711965440944942"><ele>41.0</ele><time>2026-05-03T07:28:39Z</time></trkpt><trkpt lat="45.28869831699129" lon="10.712147610052998"><ele>41.0</ele><time>2026-05-03T07:28:40Z</time></trkpt><trkpt lat="45.2886398302785" lon="10.712332595586465"><ele>41.0</ele><time>2026-05-03T07:28:41Z</time></trkpt><trkpt lat="45.28857398509413" lon="10.71251977594747"><ele>41.0</ele><time>2026-05-03T07:28:42Z</time></trkpt><trkpt lat="45.288512775079184" lon="10.712710343979616"><ele>41.0</ele><time>2026-05-03T07:28:43Z</time></trkpt><trkpt lat="45.28845885447526" lon="10.712902035063466"><ele>41.5</ele><time>2026-05-03T07:28:44Z</time></trkpt><trkpt lat="45.28841285295666" lon="10.713083939490888"><ele>42.0</ele><time>2026-05-03T07:28:45Z</time></trkpt><trkpt lat="45.288359248580186" lon="10.713281748549914"><ele>42.5</ele><time>2026-05-03T07:28:46Z</time></trkpt><trkpt lat="45.288307287577844" lon="10.713472714346947"><ele>43.0</ele><time>2026-05-03T07:28:47Z</time></trkpt><trkpt lat="45.28825700838507" lon="10.71366994545505"><ele>43.0</ele><time>2026-05-03T07:28:48Z</time></trkpt><trkpt lat="45.28820715409788" lon="10.713876454224419"><ele>43.0</ele><time>2026-05-03T07:28:49Z</time></trkpt><trkpt lat="45.28816450774446" lon="10.714065951582008"><ele>43.0</ele><time>2026-05-03T07:28:50Z</time></trkpt><trkpt lat="45.28811563628672" lon="10.714249517494677"><ele>43.0</ele><time>2026-05-03T07:28:51Z</time></trkpt><trkpt lat="45.28807620127104" lon="10.714421262112236"><ele>42.4</ele><time>2026-05-03T07:28:52Z</time></trkpt><trkpt lat="45.288048608955016" lon="10.714576163176067"><ele>41.8</ele><time>2026-05-03T07:28:53Z</time></trkpt><trkpt lat="45.28801798090998" lon="10.714718520911639"><ele>41.2</ele><time>2026-05-03T07:28:54Z</time></trkpt><trkpt lat="45.287990248170544" lon="10.714833628164335"><ele>40.6</ele><time>2026-05-03T07:28:55Z</time></trkpt><trkpt lat="45.28796552276812" lon="10.714925231433178"><ele>40.0</ele><time>2026-05-03T07:28:56Z</time></trkpt><trkpt lat="45.28792330572625" lon="10.71504931301372"><ele>40.0</ele><time>2026-05-03T07:28:58Z</time></trkpt><trkpt lat="45.287911382558484" lon="10.71514731586158"><ele>40.0</ele><time>2026-05-03T07:29:00Z</time></trkpt><trkpt lat="45.28788546807795" lon="10.715236942303546"><ele>40.0</ele><time>2026-05-03T07:29:14Z</time></trkpt><trkpt lat="45.287849682412215" lon="10.71536512344308"><ele>40.0</ele><time>2026-05-03T07:29:16Z</time></trkpt><trkpt lat="45.2878186693975" lon="10.715455747183563"><ele>40.0</ele><time>2026-05-03T07:29:17Z</time></trkpt><trkpt lat="45.28778710433505" lon="10.715566057491683"><ele>40.0</ele><time>2026-05-03T07:29:18Z</time></trkpt><trkpt lat="45.28772456074608" lon="10.715713483368232"><ele>40.0</ele><time>2026-05-03T07:29:20Z</time></trkpt><trkpt lat="45.28767858618678" lon="10.715820642683276"><ele>40.0</ele><time>2026-05-03T07:29:21Z</time></trkpt><trkpt lat="45.287623814734566" lon="10.71596142208966"><ele>40.0</ele><time>2026-05-03T07:29:22Z</time></trkpt><trkpt lat="45.287563780866066" lon="10.716119780104714"><ele>40.0</ele><time>2026-05-03T07:29:23Z</time></trkpt><trkpt lat="45.28748968054809" lon="10.716271747097696"><ele>40.0</ele><time>2026-05-03T07:29:24Z</time></trkpt><trkpt lat="45.28743412705064" lon="10.716420177079865"><ele>40.0</ele><time>2026-05-03T07:29:25Z</time></trkpt><trkpt lat="45.287389289987615" lon="10.716583552121007"><ele>40.0</ele><time>2026-05-03T07:29:26Z</time></trkpt><trkpt lat="45.28733109592724" lon="10.716724877075091"><ele>40.0</ele><time>2026-05-03T07:29:27Z</time></trkpt><trkpt lat="45.28726071349637" lon="10.716855105840354"><ele>40.0</ele><time>2026-05-03T07:29:28Z</time></trkpt><trkpt lat="45.28718204628458" lon="10.716982908773957"><ele>40.0</ele><time>2026-05-03T07:29:29Z</time></trkpt><trkpt lat="45.287105003665026" lon="10.717116538556576"><ele>40.0</ele><time>2026-05-03T07:29:30Z</time></trkpt><trkpt lat="45.28704882942641" lon="10.71724252376042"><ele>40.0</ele><time>2026-05-03T07:29:31Z</time></trkpt><trkpt lat="45.286981597760445" lon="10.717334690032786"><ele>40.0</ele><time>2026-05-03T07:29:32Z</time></trkpt><trkpt lat="45.28691154205096" lon="10.717419531463868"><ele>40.0</ele><time>2026-05-03T07:29:33Z</time></trkpt><trkpt lat="45.28684493286098" lon="10.71748920264351"><ele>40.0</ele><time>2026-05-03T07:29:34Z</time></trkpt><trkpt lat="45.286786400696265" lon="10.71753928377013"><ele>40.0</ele><time>2026-05-03T07:29:35Z</time></trkpt><trkpt lat="45.28671831628699" lon="10.717578015903518"><ele>40.0</ele><time>2026-05-03T07:29:37Z</time></trkpt><trkpt lat="45.286660744683985" lon="10.71761524590953"><ele>40.0</ele><time>2026-05-03T07:29:42Z</time></trkpt><trkpt lat="45.28696044089333" lon="10.718024625478634"><ele>40.0</ele><time>2026-05-03T07:29:51Z</time></trkpt><trkpt lat="45.287041609176896" lon="10.718103951065851"><ele>40.0</ele><time>2026-05-03T07:29:52Z</time></trkpt><trkpt lat="45.287119786864395" lon="10.718177662991856"><ele>40.0</ele><time>2026-05-03T07:29:53Z</time></trkpt><trkpt lat="45.28718862925659" lon="10.718284509872792"><ele>40.0</ele><time>2026-05-03T07:29:54Z</time></trkpt><trkpt lat="45.287281295326544" lon="10.71835122711425"><ele>40.0</ele><time>2026-05-03T07:29:55Z</time></trkpt><trkpt lat="45.28735129647019" lon="10.718436681134687"><ele>40.0</ele><time>2026-05-03T07:29:56Z</time></trkpt><trkpt lat="45.287423897875186" lon="10.718527904697732"><ele>40.0</ele><time>2026-05-03T07:29:57Z</time></trkpt><trkpt lat="45.2874984788622" lon="10.718616229265969"><ele>40.0</ele><time>2026-05-03T07:29:58Z</time></trkpt><trkpt lat="45.287563020165216" lon="10.718696687412931"><ele>40.0</ele><time>2026-05-03T07:29:59Z</time></trkpt><trkpt lat="45.28763435650865" lon="10.718779581022595"><ele>40.0</ele><time>2026-05-03T07:30:00Z</time></trkpt><trkpt lat="45.28770227292656" lon="10.718859641187414"><ele>40.2</ele><time>2026-05-03T07:30:01Z</time></trkpt><trkpt lat="45.28777448095437" lon="10.718946093336502"><ele>40.4</ele><time>2026-05-03T07:30:02Z</time></trkpt><trkpt lat="45.287851455064676" lon="10.719035504134993"><ele>40.599999999999994</ele><time>2026-05-03T07:30:03Z</time></trkpt><trkpt lat="45.28793377799185" lon="10.719134284860937"><ele>40.8</ele><time>2026-05-03T07:30:04Z</time></trkpt><trkpt lat="45.288018119387715" lon="10.719219224241684"><ele>41.0</ele><time>2026-05-03T07:30:05Z</time></trkpt><trkpt lat="45.28810843003053" lon="10.719289214742533"><ele>41.0</ele><time>2026-05-03T07:30:06Z</time></trkpt><trkpt lat="45.288192850133214" lon="10.719364813930913"><ele>41.0</ele><time>2026-05-03T07:30:07Z</time></trkpt><trkpt lat="45.28828417455251" lon="10.719444023132843"><ele>41.0</ele><time>2026-05-03T07:30:08Z</time></trkpt><trkpt lat="45.28837996221904" lon="10.719528624600862"><ele>41.0</ele><time>2026-05-03T07:30:09Z</time></trkpt><trkpt lat="45.28847392247602" lon="10.719624738445846"><ele>41.0</ele><time>2026-05-03T07:30:10Z</time></trkpt><trkpt lat="45.2885699237787" lon="10.719727281153006"><ele>41.199999999999996</ele><time>2026-05-03T07:30:11Z</time></trkpt><trkpt lat="45.28865386860463" lon="10.719821536779216"><ele>41.4</ele><time>2026-05-03T07:30:12Z</time></trkpt><trkpt lat="45.28873505788439" lon="10.719916742703058"><ele>41.6</ele><time>2026-05-03T07:30:13Z</time></trkpt><trkpt lat="45.28881201031384" lon="10.720013959325467"><ele>41.8</ele><time>2026-05-03T07:30:14Z</time></trkpt><trkpt lat="45.28888134645529" lon="10.720097602327325"><ele>42.0</ele><time>2026-05-03T07:30:15Z</time></trkpt><trkpt lat="45.28893855091172" lon="10.720171167898295"><ele>41.6</ele><time>2026-05-03T07:30:16Z</time></trkpt><trkpt lat="45.28902670255447" lon="10.720286757766756"><ele>41.2</ele><time>2026-05-03T07:30:18Z</time></trkpt><trkpt lat="45.289106087372296" lon="10.720330350390373"><ele>40.8</ele><time>2026-05-03T07:30:20Z</time></trkpt><trkpt lat="45.289184164750445" lon="10.720207648494336"><ele>40.4</ele><time>2026-05-03T07:30:22Z</time></trkpt><trkpt lat="45.28920018799867" lon="10.720079996696604"><ele>40.0</ele><time>2026-05-03T07:30:23Z</time></trkpt><trkpt lat="45.28923401703896" lon="10.719943219593791"><ele>40.0</ele><time>2026-05-03T07:30:24Z</time></trkpt><trkpt lat="45.289269043948025" lon="10.71980145975146"><ele>40.0</ele><time>2026-05-03T07:30:25Z</time></trkpt><trkpt lat="45.289308803313595" lon="10.719663754111911"><ele>40.0</ele><time>2026-05-03T07:30:26Z</time></trkpt><trkpt lat="45.28933713659894" lon="10.719554681823704"><ele>40.0</ele><time>2026-05-03T07:30:27Z</time></trkpt><trkpt lat="45.28938783072029" lon="10.71939747545825"><ele>40.0</ele><time>2026-05-03T07:30:29Z</time></trkpt><trkpt lat="45.28943839292137" lon="10.719333548184808"><ele>40.0</ele><time>2026-05-03T07:30:30Z</time></trkpt><trkpt lat="45.28950978907117" lon="10.71930394636784"><ele>40.0</ele><time>2026-05-03T07:30:31Z</time></trkpt><trkpt lat="45.28959605495925" lon="10.719320964395305"><ele>40.0</ele><time>2026-05-03T07:30:32Z</time></trkpt><trkpt lat="45.289702597397685" lon="10.719355801322283"><ele>40.0</ele><time>2026-05-03T07:30:33Z</time></trkpt><trkpt lat="45.289815205733014" lon="10.719390667067872"><ele>40.0</ele><time>2026-05-03T07:30:34Z</time></trkpt><trkpt lat="45.289932173237034" lon="10.719441057472794"><ele>40.0</ele><time>2026-05-03T07:30:35Z</time></trkpt><trkpt lat="45.29003902010903" lon="10.71952079894581"><ele>40.0</ele><time>2026-05-03T07:30:36Z</time></trkpt><trkpt lat="45.29015374391109" lon="10.71960538240373"><ele>40.0</ele><time>2026-05-03T07:30:37Z</time></trkpt><trkpt lat="45.29026721120461" lon="10.719703303085536"><ele>40.0</ele><time>2026-05-03T07:30:38Z</time></trkpt><trkpt lat="45.29035882409033" lon="10.719817723508951"><ele>40.0</ele><time>2026-05-03T07:30:39Z</time></trkpt><trkpt lat="45.29045529315271" lon="10.719888797860847"><ele>40.0</ele><time>2026-05-03T07:30:40Z</time></trkpt><trkpt lat="45.29055443636661" lon="10.71995842467315"><ele>40.0</ele><time>2026-05-03T07:30:41Z</time></trkpt><trkpt lat="45.29065519266408" lon="10.720036968323504"><ele>40.0</ele><time>2026-05-03T07:30:42Z</time></trkpt><trkpt lat="45.29076159829697" lon="10.72010651115867"><ele>40.0</ele><time>2026-05-03T07:30:43Z</time></trkpt><trkpt lat="45.29086309445417" lon="10.720169237858137"><ele>40.0</ele><time>2026-05-03T07:30:44Z</time></trkpt><trkpt lat="45.29094763403242" lon="10.720225097141222"><ele>40.0</ele><time>2026-05-03T07:30:45Z</time></trkpt><trkpt lat="45.29103135778224" lon="10.720272044926993"><ele>40.0</ele><time>2026-05-03T07:30:46Z</time></trkpt><trkpt lat="45.291113936919025" lon="10.720337433128412"><ele>40.0</ele><time>2026-05-03T07:30:47Z</time></trkpt><trkpt lat="45.291218089021385" lon="10.720340682129839"><ele>40.0</ele><time>2026-05-03T07:30:48Z</time></trkpt><trkpt lat="45.2913253961795" lon="10.720340682130047"><ele>40.0</ele><time>2026-05-03T07:30:49Z</time></trkpt><trkpt lat="45.29141896570577" lon="10.720234764099722"><ele>40.0</ele><time>2026-05-03T07:30:50Z</time></trkpt><trkpt lat="45.29155211548837" lon="10.720288151156815"><ele>40.0</ele><time>2026-05-03T07:30:51Z</time></trkpt><trkpt lat="45.29167984196983" lon="10.720274211655223"><ele>40.25</ele><time>2026-05-03T07:30:52Z</time></trkpt><trkpt lat="45.29180843582279" lon="10.72026259642365"><ele>40.5</ele><time>2026-05-03T07:30:53Z</time></trkpt><trkpt lat="45.29193328143076" lon="10.720249097814323"><ele>40.75</ele><time>2026-05-03T07:30:54Z</time></trkpt><trkpt lat="45.292057447302305" lon="10.720261737354251"><ele>41.0</ele><time>2026-05-03T07:30:55Z</time></trkpt><trkpt lat="45.29218009420985" lon="10.720213140927436"><ele>41.4</ele><time>2026-05-03T07:30:56Z</time></trkpt><trkpt lat="45.29229769009628" lon="10.720181179175583"><ele>41.8</ele><time>2026-05-03T07:30:57Z</time></trkpt><trkpt lat="45.292397802840654" lon="10.72015536576411"><ele>42.199999999999996</ele><time>2026-05-03T07:30:58Z</time></trkpt><trkpt lat="45.29249346829074" lon="10.720128056094653"><ele>42.599999999999994</ele><time>2026-05-03T07:30:59Z</time></trkpt><trkpt lat="45.2925937183328" lon="10.720121535951574"><ele>43.0</ele><time>2026-05-03T07:31:00Z</time></trkpt><trkpt lat="45.29267496553955" lon="10.720072730964132"><ele>43.0</ele><time>2026-05-03T07:31:01Z</time></trkpt><trkpt lat="45.29274608025486" lon="10.720055648481456"><ele>43.0</ele><time>2026-05-03T07:31:02Z</time></trkpt><trkpt lat="45.29285325177924" lon="10.71993348510022"><ele>43.0</ele><time>2026-05-03T07:31:04Z</time></trkpt><trkpt lat="45.292863159760024" lon="10.719800838465979"><ele>43.0</ele><time>2026-05-03T07:31:05Z</time></trkpt><trkpt lat="45.29289168061356" lon="10.719688299769428"><ele>43.0</ele><time>2026-05-03T07:31:06Z</time></trkpt><trkpt lat="45.29291481445541" lon="10.719591969856339"><ele>43.0</ele><time>2026-05-03T07:31:07Z</time></trkpt><trkpt lat="45.29301335399894" lon="10.71952437259303"><ele>43.0</ele><time>2026-05-03T07:31:08Z</time></trkpt><trkpt lat="45.29309729665025" lon="10.719530328928519"><ele>43.0</ele><time>2026-05-03T07:31:09Z</time></trkpt><trkpt lat="45.29317017963374" lon="10.719565602670547"><ele>43.0</ele><time>2026-05-03T07:31:10Z</time></trkpt><trkpt lat="45.29327180010629" lon="10.719637411922342"><ele>43.0</ele><time>2026-05-03T07:31:11Z</time></trkpt><trkpt lat="45.29337642721767" lon="10.71969233758444"><ele>43.0</ele><time>2026-05-03T07:31:12Z</time></trkpt><trkpt lat="45.29344798879201" lon="10.719765739928658"><ele>43.0</ele><time>2026-05-03T07:31:13Z</time></trkpt><trkpt lat="45.293519855668045" lon="10.719822314524075"><ele>43.0</ele><time>2026-05-03T07:31:14Z</time></trkpt><trkpt lat="45.29359557348033" lon="10.71981907588704"><ele>43.0</ele><time>2026-05-03T07:31:15Z</time></trkpt><trkpt lat="45.29367859497805" lon="10.719791759343604"><ele>43.0</ele><time>2026-05-03T07:31:16Z</time></trkpt><trkpt lat="45.29375809367866" lon="10.71973882475508"><ele>43.0</ele><time>2026-05-03T07:31:17Z</time></trkpt><trkpt lat="45.29384562050841" lon="10.719692104557913"><ele>42.8</ele><time>2026-05-03T07:31:18Z</time></trkpt><trkpt lat="45.29393943639754" lon="10.71964419669389"><ele>42.599999999999994</ele><time>2026-05-03T07:31:19Z</time></trkpt><trkpt lat="45.29403294700667" lon="10.719589273702864"><ele>42.400000000000006</ele><time>2026-05-03T07:31:20Z</time></trkpt><trkpt lat="45.29412178950527" lon="10.719527032180382"><ele>42.2</ele><time>2026-05-03T07:31:21Z</time></trkpt><trkpt lat="45.29419513497744" lon="10.719492273640892"><ele>42.0</ele><time>2026-05-03T07:31:22Z</time></trkpt><trkpt lat="45.29425890321943" lon="10.719442005716516"><ele>42.400000000000006</ele><time>2026-05-03T07:31:23Z</time></trkpt><trkpt lat="45.29432413159667" lon="10.719361561156598"><ele>42.800000000000004</ele><time>2026-05-03T07:31:24Z</time></trkpt><trkpt lat="45.29441453387999" lon="10.719297820284266"><ele>43.2</ele><time>2026-05-03T07:31:25Z</time></trkpt><trkpt lat="45.29449854184341" lon="10.719223070574346"><ele>43.6</ele><time>2026-05-03T07:31:26Z</time></trkpt><trkpt lat="45.294578108860016" lon="10.719136324352855"><ele>44.0</ele><time>2026-05-03T07:31:27Z</time></trkpt><trkpt lat="45.294670615763195" lon="10.719074851379332"><ele>44.0</ele><time>2026-05-03T07:31:28Z</time></trkpt><trkpt lat="45.29476969487032" lon="10.719022136035004"><ele>44.0</ele><time>2026-05-03T07:31:29Z</time></trkpt><trkpt lat="45.29486425093879" lon="10.718957164711073"><ele>44.0</ele><time>2026-05-03T07:31:30Z</time></trkpt><trkpt lat="45.29495546275857" lon="10.718877794228169"><ele>44.0</ele><time>2026-05-03T07:31:31Z</time></trkpt><trkpt lat="45.295062668447194" lon="10.718802697099262"><ele>44.0</ele><time>2026-05-03T07:31:32Z</time></trkpt><trkpt lat="45.295154795611424" lon="10.718736719043143"><ele>44.0</ele><time>2026-05-03T07:31:33Z</time></trkpt><trkpt lat="45.29523635827451" lon="10.718642274408692"><ele>44.0</ele><time>2026-05-03T07:31:34Z</time></trkpt><trkpt lat="45.295330834936166" lon="10.71855744280551"><ele>44.0</ele><time>2026-05-03T07:31:35Z</time></trkpt><trkpt lat="45.2952750026909" lon="10.718341474310476"><ele>44.0</ele><time>2026-05-03T07:31:36Z</time></trkpt><trkpt lat="45.295346712601436" lon="10.718217672215015"><ele>44.0</ele><time>2026-05-03T07:31:37Z</time></trkpt><trkpt lat="45.29541954528893" lon="10.71809850044177"><ele>44.0</ele><time>2026-05-03T07:31:38Z</time></trkpt><trkpt lat="45.29549384563063" lon="10.717983142273807"><ele>44.0</ele><time>2026-05-03T07:31:39Z</time></trkpt><trkpt lat="45.29588611791859" lon="10.718195425186515"><ele>44.0</ele><time>2026-05-03T07:31:40Z</time></trkpt><trkpt lat="45.295979901917285" lon="10.718124476061606"><ele>44.0</ele><time>2026-05-03T07:31:41Z</time></trkpt><trkpt lat="45.29607959401531" lon="10.718053043829094"><ele>44.0</ele><time>2026-05-03T07:31:42Z</time></trkpt><trkpt lat="45.29617727444111" lon="10.717975975014816"><ele>44.0</ele><time>2026-05-03T07:31:43Z</time></trkpt><trkpt lat="45.29627698629312" lon="10.717895373803119"><ele>44.0</ele><time>2026-05-03T07:31:44Z</time></trkpt><trkpt lat="45.29637719810895" lon="10.717812324404765"><ele>44.0</ele><time>2026-05-03T07:31:45Z</time></trkpt><trkpt lat="45.29647527897653" lon="10.717726172536077"><ele>44.0</ele><time>2026-05-03T07:31:46Z</time></trkpt><trkpt lat="45.29658087181966" lon="10.717635704888679"><ele>44.0</ele><time>2026-05-03T07:31:47Z</time></trkpt><trkpt lat="45.29669001004028" lon="10.717536322045795"><ele>44.0</ele><time>2026-05-03T07:31:48Z</time></trkpt><trkpt lat="45.2968004638711" lon="10.71743633257593"><ele>44.0</ele><time>2026-05-03T07:31:49Z</time></trkpt><trkpt lat="45.29690961051427" lon="10.71734493709712"><ele>44.0</ele><time>2026-05-03T07:31:50Z</time></trkpt><trkpt lat="45.297014986227204" lon="10.717263139085933"><ele>44.0</ele><time>2026-05-03T07:31:51Z</time></trkpt><trkpt lat="45.29712371953265" lon="10.71718070986283"><ele>44.0</ele><time>2026-05-03T07:31:52Z</time></trkpt><trkpt lat="45.29723296375745" lon="10.717100703081494"><ele>44.0</ele><time>2026-05-03T07:31:53Z</time></trkpt><trkpt lat="45.29734585957113" lon="10.71702055346696"><ele>44.0</ele><time>2026-05-03T07:31:54Z</time></trkpt><trkpt lat="45.29746626292912" lon="10.71693921964995"><ele>44.0</ele><time>2026-05-03T07:31:55Z</time></trkpt><trkpt lat="45.297579049766576" lon="10.71686804980635"><ele>44.0</ele><time>2026-05-03T07:31:56Z</time></trkpt><trkpt lat="45.29768652274517" lon="10.716796350484481"><ele>44.0</ele><time>2026-05-03T07:31:57Z</time></trkpt><trkpt lat="45.29779625970049" lon="10.716729320794952"><ele>44.0</ele><time>2026-05-03T07:31:58Z</time></trkpt><trkpt lat="45.29790537107484" lon="10.716661491458481"><ele>44.0</ele><time>2026-05-03T07:31:59Z</time></trkpt><trkpt lat="45.297989943115034" lon="10.716606395105256"><ele>44.0</ele><time>2026-05-03T07:32:00Z</time></trkpt><trkpt lat="45.29807003879243" lon="10.716555999982116"><ele>44.0</ele><time>2026-05-03T07:32:01Z</time></trkpt><trkpt lat="45.2981413392862" lon="10.716509512436229"><ele>44.0</ele><time>2026-05-03T07:32:02Z</time></trkpt><trkpt lat="45.29823537694458" lon="10.716451257147465"><ele>44.0</ele><time>2026-05-03T07:32:04Z</time></trkpt><trkpt lat="45.29830286730792" lon="10.716489370542044"><ele>44.0</ele><time>2026-05-03T07:32:23Z</time></trkpt><trkpt lat="45.298329043972196" lon="10.716615929528562"><ele>44.0</ele><time>2026-05-03T07:32:25Z</time></trkpt><trkpt lat="45.29837169234332" lon="10.716740510383687"><ele>44.0</ele><time>2026-05-03T07:32:27Z</time></trkpt><trkpt lat="45.29842172584235" lon="10.716858488237406"><ele>44.0</ele><time>2026-05-03T07:32:29Z</time></trkpt><trkpt lat="45.2984887741692" lon="10.716945701933804"><ele>44.0</ele><time>2026-05-03T07:32:31Z</time></trkpt><trkpt lat="45.29858557719619" lon="10.716956536870583"><ele>44.0</ele><time>2026-05-03T07:32:34Z</time></trkpt><trkpt lat="45.29865923214352" lon="10.716897027529729"><ele>44.0</ele><time>2026-05-03T07:32:36Z</time></trkpt><trkpt lat="45.29872190540037" lon="10.71682267149577"><ele>44.0</ele><time>2026-05-03T07:32:38Z</time></trkpt><trkpt lat="45.29881555751551" lon="10.716761659036013"><ele>44.0</ele><time>2026-05-03T07:32:40Z</time></trkpt><trkpt lat="45.298886683675974" lon="10.716701176583186"><ele>44.0</ele><time>2026-05-03T07:32:42Z</time></trkpt><trkpt lat="45.29894603213816" lon="10.716665352197483"><ele>44.0</ele><time>2026-05-03T07:32:43Z</time></trkpt><trkpt lat="45.299013150135316" lon="10.716633862010134"><ele>44.0</ele><time>2026-05-03T07:32:44Z</time></trkpt><trkpt lat="45.2991172677925" lon="10.716579782836144"><ele>44.0</ele><time>2026-05-03T07:32:46Z</time></trkpt><trkpt lat="45.2991920371364" lon="10.716503288553145"><ele>44.0</ele><time>2026-05-03T07:32:48Z</time></trkpt><trkpt lat="45.2992612063151" lon="10.716406650334074"><ele>43.75</ele><time>2026-05-03T07:32:50Z</time></trkpt><trkpt lat="45.299372279581114" lon="10.716305949871536"><ele>43.5</ele><time>2026-05-03T07:32:52Z</time></trkpt><trkpt lat="45.29947520091701" lon="10.716199725229746"><ele>43.25</ele><time>2026-05-03T07:32:54Z</time></trkpt><trkpt lat="45.2995482938337" lon="10.716099180419487"><ele>43.0</ele><time>2026-05-03T07:32:56Z</time></trkpt><trkpt lat="45.29962689604097" lon="10.71599112784609"><ele>43.16666666666667</ele><time>2026-05-03T07:32:58Z</time></trkpt><trkpt lat="45.29970963453305" lon="10.715935384175848"><ele>43.333333333333336</ele><time>2026-05-03T07:33:00Z</time></trkpt><trkpt lat="45.299781031743294" lon="10.71589394574499"><ele>43.5</ele><time>2026-05-03T07:33:02Z</time></trkpt><trkpt lat="45.29985824733853" lon="10.715863905669535"><ele>43.666666666666664</ele><time>2026-05-03T07:33:09Z</time></trkpt><trkpt lat="45.29991403952095" lon="10.715795621231358"><ele>43.83333333333333</ele><time>2026-05-03T07:33:11Z</time></trkpt><trkpt lat="45.29998548825699" lon="10.715698940755727"><ele>44.0</ele><time>2026-05-03T07:33:13Z</time></trkpt><trkpt lat="45.30006775499388" lon="10.715604904968226"><ele>44.0</ele><time>2026-05-03T07:33:15Z</time></trkpt><trkpt lat="45.300128921593846" lon="10.715519269477122"><ele>44.0</ele><time>2026-05-03T07:33:17Z</time></trkpt><trkpt lat="45.300202848969896" lon="10.715450464387214"><ele>44.0</ele><time>2026-05-03T07:33:20Z</time></trkpt><trkpt lat="45.30026756001302" lon="10.71538837175167"><ele>44.0</ele><time>2026-05-03T07:33:23Z</time></trkpt><trkpt lat="45.300315833140694" lon="10.715296511889719"><ele>44.0</ele><time>2026-05-03T07:33:25Z</time></trkpt><trkpt lat="45.30036796933006" lon="10.715219297118354"><ele>44.0</ele><time>2026-05-03T07:33:27Z</time></trkpt><trkpt lat="45.30040424730077" lon="10.715135664072822"><ele>44.0</ele><time>2026-05-03T07:33:29Z</time></trkpt><trkpt lat="45.30043727813857" lon="10.715051598187133"><ele>44.0</ele><time>2026-05-03T07:33:33Z</time></trkpt><trkpt lat="45.30050068790508" lon="10.71497104384645"><ele>44.0</ele><time>2026-05-03T07:34:09Z</time></trkpt><trkpt lat="45.300573516529546" lon="10.71487200689468"><ele>44.0</ele><time>2026-05-03T07:34:11Z</time></trkpt><trkpt lat="45.30062612692428" lon="10.714802623471721"><ele>44.0</ele><time>2026-05-03T07:34:12Z</time></trkpt><trkpt lat="45.30068576938212" lon="10.714724170996977"><ele>44.0</ele><time>2026-05-03T07:34:13Z</time></trkpt><trkpt lat="45.30074019967216" lon="10.71463405792461"><ele>44.2</ele><time>2026-05-03T07:34:14Z</time></trkpt><trkpt lat="45.30079383019455" lon="10.714529565282337"><ele>44.400000000000006</ele><time>2026-05-03T07:34:15Z</time></trkpt><trkpt lat="45.30085063800033" lon="10.714441542511416"><ele>44.6</ele><time>2026-05-03T07:34:16Z</time></trkpt><trkpt lat="45.30091431567858" lon="10.714366137737688"><ele>44.8</ele><time>2026-05-03T07:34:17Z</time></trkpt><trkpt lat="45.300984801811204" lon="10.714274005411243"><ele>45.0</ele><time>2026-05-03T07:34:18Z</time></trkpt><trkpt lat="45.30104505970329" lon="10.714149665639013"><ele>44.5</ele><time>2026-05-03T07:34:19Z</time></trkpt><trkpt lat="45.30112074929817" lon="10.714021068859456"><ele>44.0</ele><time>2026-05-03T07:34:20Z</time></trkpt><trkpt lat="45.30119356880182" lon="10.713881902980324"><ele>43.5</ele><time>2026-05-03T07:34:21Z</time></trkpt><trkpt lat="45.3012653798282" lon="10.713733440476735"><ele>43.0</ele><time>2026-05-03T07:34:22Z</time></trkpt><trkpt lat="45.30133073011586" lon="10.713607617548304"><ele>42.833333333333336</ele><time>2026-05-03T07:34:23Z</time></trkpt><trkpt lat="45.30137559277342" lon="10.713498415194756"><ele>42.66666666666667</ele><time>2026-05-03T07:34:24Z</time></trkpt><trkpt lat="45.30141670468703" lon="10.713410872571554"><ele>42.5</ele><time>2026-05-03T07:34:25Z</time></trkpt><trkpt lat="45.30143621103313" lon="10.713319069602369"><ele>42.333333333333336</ele><time>2026-05-03T07:34:26Z</time></trkpt><trkpt lat="45.301464133419906" lon="10.713181117956875"><ele>42.166666666666664</ele><time>2026-05-03T07:34:28Z</time></trkpt><trkpt lat="45.301497525798446" lon="10.713091859513408"><ele>42.0</ele><time>2026-05-03T07:34:29Z</time></trkpt><trkpt lat="45.301547848401995" lon="10.712996606333114"><ele>42.0</ele><time>2026-05-03T07:34:30Z</time></trkpt><trkpt lat="45.30161112140103" lon="10.7128909764549"><ele>42.0</ele><time>2026-05-03T07:34:31Z</time></trkpt><trkpt lat="45.301688471439476" lon="10.712774227437277"><ele>42.0</ele><time>2026-05-03T07:34:32Z</time></trkpt><trkpt lat="45.301776073253166" lon="10.71264005879954"><ele>42.0</ele><time>2026-05-03T07:34:33Z</time></trkpt><trkpt lat="45.3018786888724" lon="10.712478933287501"><ele>43.0</ele><time>2026-05-03T07:34:34Z</time></trkpt><trkpt lat="45.301982914040536" lon="10.712310428981509"><ele>44.0</ele><time>2026-05-03T07:34:35Z</time></trkpt><trkpt lat="45.302088953408806" lon="10.71211913070747"><ele>45.0</ele><time>2026-05-03T07:34:36Z</time></trkpt><trkpt lat="45.30220013951982" lon="10.711919710086049"><ele>44.0</ele><time>2026-05-03T07:34:37Z</time></trkpt><trkpt lat="45.302303077316445" lon="10.711726196689762"><ele>43.0</ele><time>2026-05-03T07:34:38Z</time></trkpt><trkpt lat="45.30239657277166" lon="10.711545332091513"><ele>42.0</ele><time>2026-05-03T07:34:39Z</time></trkpt><trkpt lat="45.30249419114207" lon="10.71136779204356"><ele>42.0</ele><time>2026-05-03T07:34:40Z</time></trkpt><trkpt lat="45.30259235143823" lon="10.711182267510564"><ele>42.0</ele><time>2026-05-03T07:34:41Z</time></trkpt><trkpt lat="45.302673959619575" lon="10.711005636535258"><ele>42.0</ele><time>2026-05-03T07:34:42Z</time></trkpt><trkpt lat="45.302740428455266" lon="10.710835493687831"><ele>42.0</ele><time>2026-05-03T07:34:43Z</time></trkpt><trkpt lat="45.30279315737151" lon="10.710671195274568"><ele>42.400000000000006</ele><time>2026-05-03T07:34:44Z</time></trkpt><trkpt lat="45.30283912416849" lon="10.710521582339362"><ele>42.800000000000004</ele><time>2026-05-03T07:34:45Z</time></trkpt><trkpt lat="45.30287501312219" lon="10.710384479839764"><ele>43.2</ele><time>2026-05-03T07:34:46Z</time></trkpt><trkpt lat="45.30290407717722" lon="10.710262202008217"><ele>43.6</ele><time>2026-05-03T07:34:47Z</time></trkpt><trkpt lat="45.30293220964981" lon="10.710142461752103"><ele>44.0</ele><time>2026-05-03T07:34:48Z</time></trkpt><trkpt lat="45.30296283348737" lon="10.710009336102578"><ele>44.0</ele><time>2026-05-03T07:34:49Z</time></trkpt><trkpt lat="45.30297580508414" lon="10.709855008394982"><ele>44.0</ele><time>2026-05-03T07:34:50Z</time></trkpt><trkpt lat="45.30300085544863" lon="10.70968658361638"><ele>44.0</ele><time>2026-05-03T07:34:51Z</time></trkpt><trkpt lat="45.30303788265163" lon="10.709508857058998"><ele>44.0</ele><time>2026-05-03T07:34:52Z</time></trkpt><trkpt lat="45.303067409705726" lon="10.7093218849814"><ele>44.2</ele><time>2026-05-03T07:34:53Z</time></trkpt><trkpt lat="45.30307962072946" lon="10.709129093866073"><ele>44.400000000000006</ele><time>2026-05-03T07:34:54Z</time></trkpt><trkpt lat="45.30308105233134" lon="10.708961305560738"><ele>44.6</ele><time>2026-05-03T07:34:55Z</time></trkpt><trkpt lat="45.303083446524624" lon="10.70882433234046"><ele>44.8</ele><time>2026-05-03T07:34:56Z</time></trkpt><trkpt lat="45.303085210867025" lon="10.708700274889358"><ele>45.0</ele><time>2026-05-03T07:34:57Z</time></trkpt><trkpt lat="45.30308740261416" lon="10.7085938857871"><ele>45.0</ele><time>2026-05-03T07:34:58Z</time></trkpt><trkpt lat="45.303085061343495" lon="10.708498114537251"><ele>45.0</ele><time>2026-05-03T07:34:59Z</time></trkpt><trkpt lat="45.30307827566031" lon="10.70833301615359"><ele>45.0</ele><time>2026-05-03T07:35:01Z</time></trkpt><trkpt lat="45.303072636744744" lon="10.708194657870065"><ele>45.0</ele><time>2026-05-03T07:35:03Z</time></trkpt><trkpt lat="45.30306883081543" lon="10.708096876240715"><ele>45.0</ele><time>2026-05-03T07:35:06Z</time></trkpt><trkpt lat="45.30308617123922" lon="10.707949183381077"><ele>45.166666666666664</ele><time>2026-05-03T07:35:08Z</time></trkpt><trkpt lat="45.30306921492127" lon="10.707851917244009"><ele>45.333333333333336</ele><time>2026-05-03T07:35:09Z</time></trkpt><trkpt lat="45.30306415406291" lon="10.707746525348789"><ele>45.5</ele><time>2026-05-03T07:35:10Z</time></trkpt><trkpt lat="45.30311487556049" lon="10.707666203088154"><ele>45.66666666666667</ele><time>2026-05-03T07:35:11Z</time></trkpt><trkpt lat="45.3031271302051" lon="10.707560313590774"><ele>45.833333333333336</ele><time>2026-05-03T07:35:12Z</time></trkpt><trkpt lat="45.303140867991466" lon="10.707432192251416"><ele>46.0</ele><time>2026-05-03T07:35:13Z</time></trkpt><trkpt lat="45.30313582870351" lon="10.707294854905577"><ele>45.4</ele><time>2026-05-03T07:35:14Z</time></trkpt><trkpt lat="45.30312732352921" lon="10.707149412634005"><ele>44.8</ele><time>2026-05-03T07:35:15Z</time></trkpt><trkpt lat="45.30312594530575" lon="10.706996690624472"><ele>44.199999999999996</ele><time>2026-05-03T07:35:16Z</time></trkpt><trkpt lat="45.303121912471894" lon="10.706832441186684"><ele>43.599999999999994</ele><time>2026-05-03T07:35:17Z</time></trkpt><trkpt lat="45.30310650736758" lon="10.706691765950966"><ele>43.0</ele><time>2026-05-03T07:35:18Z</time></trkpt><trkpt lat="45.30309278097552" lon="10.706533316377861"><ele>42.75</ele><time>2026-05-03T07:35:19Z</time></trkpt><trkpt lat="45.303088398988706" lon="10.706365401584257"><ele>42.5</ele><time>2026-05-03T07:35:20Z</time></trkpt><trkpt lat="45.30306927605099" lon="10.706202669635315"><ele>42.25</ele><time>2026-05-03T07:35:21Z</time></trkpt><trkpt lat="45.30305740430695" lon="10.706038518480652"><ele>42.0</ele><time>2026-05-03T07:35:22Z</time></trkpt><trkpt lat="45.30305333755104" lon="10.705884840050851"><ele>42.666666666666664</ele><time>2026-05-03T07:35:23Z</time></trkpt><trkpt lat="45.303054493107474" lon="10.705746969864185"><ele>43.333333333333336</ele><time>2026-05-03T07:35:24Z</time></trkpt><trkpt lat="45.303050709382305" lon="10.70561719648722"><ele>44.0</ele><time>2026-05-03T07:35:25Z</time></trkpt><trkpt lat="45.30305329824609" lon="10.705505544490567"><ele>44.66666666666667</ele><time>2026-05-03T07:35:26Z</time></trkpt><trkpt lat="45.30304647545546" lon="10.705389636189283"><ele>45.333333333333336</ele><time>2026-05-03T07:35:27Z</time></trkpt><trkpt lat="45.3030386317836" lon="10.705284290774598"><ele>46.0</ele><time>2026-05-03T07:35:28Z</time></trkpt><trkpt lat="45.303036308329304" lon="10.705189784547796"><ele>46.199999999999996</ele><time>2026-05-03T07:35:29Z</time></trkpt><trkpt lat="45.30303180942635" lon="10.70505237823973"><ele>46.4</ele><time>2026-05-03T07:35:31Z</time></trkpt><trkpt lat="45.302983979075705" lon="10.704929373493723"><ele>46.6</ele><time>2026-05-03T07:35:33Z</time></trkpt><trkpt lat="45.302943657490104" lon="10.704858042616443"><ele>46.8</ele><time>2026-05-03T07:35:34Z</time></trkpt><trkpt lat="45.30288946048605" lon="10.704741261478892"><ele>47.0</ele><time>2026-05-03T07:35:36Z</time></trkpt><trkpt lat="45.3027103856221" lon="10.704605007146643"><ele>47.0</ele><time>2026-05-03T07:35:39Z</time></trkpt><trkpt lat="45.302729513961395" lon="10.704486173384455"><ele>47.0</ele><time>2026-05-03T07:35:58Z</time></trkpt><trkpt lat="45.30273333094232" lon="10.704374734091243"><ele>47.0</ele><time>2026-05-03T07:36:02Z</time></trkpt><trkpt lat="45.30274276341562" lon="10.70425709351153"><ele>47.0</ele><time>2026-05-03T07:36:04Z</time></trkpt><trkpt lat="45.30276260343026" lon="10.704158414622077"><ele>47.0</ele><time>2026-05-03T07:36:06Z</time></trkpt><trkpt lat="45.30274716804688" lon="10.7040698747473"><ele>47.0</ele><time>2026-05-03T07:37:41Z</time></trkpt><trkpt lat="45.302732572925116" lon="10.703967567173978"><ele>47.6</ele><time>2026-05-03T07:38:20Z</time></trkpt><trkpt lat="45.3028313963415" lon="10.70392360755948"><ele>48.2</ele><time>2026-05-03T07:38:21Z</time></trkpt><trkpt lat="45.302867820736225" lon="10.703770984246951"><ele>48.8</ele><time>2026-05-03T07:39:07Z</time></trkpt><trkpt lat="45.30291674466431" lon="10.703659814430196"><ele>49.4</ele><time>2026-05-03T07:39:09Z</time></trkpt><trkpt lat="45.30294075664835" lon="10.703547863636082"><ele>50.0</ele><time>2026-05-03T07:39:11Z</time></trkpt><trkpt lat="45.302975306606406" lon="10.703424482004172"><ele>51.5</ele><time>2026-05-03T07:39:13Z</time></trkpt><trkpt lat="45.303005210742526" lon="10.70328160589151"><ele>53.0</ele><time>2026-05-03T07:39:15Z</time></trkpt><trkpt lat="45.30303287035339" lon="10.703121889881082"><ele>54.5</ele><time>2026-05-03T07:39:17Z</time></trkpt><trkpt lat="45.30305853408198" lon="10.702961681175957"><ele>56.0</ele><time>2026-05-03T07:39:19Z</time></trkpt><trkpt lat="45.30304772138302" lon="10.702777773961008"><ele>55.833333333333336</ele><time>2026-05-03T07:39:21Z</time></trkpt><trkpt lat="45.30304750857909" lon="10.702670430302675"><ele>55.66666666666667</ele><time>2026-05-03T07:39:22Z</time></trkpt><trkpt lat="45.303062899649454" lon="10.702565257419021"><ele>55.5</ele><time>2026-05-03T07:39:23Z</time></trkpt><trkpt lat="45.303090790310605" lon="10.702477032426284"><ele>55.33333333333333</ele><time>2026-05-03T07:39:24Z</time></trkpt><trkpt lat="45.30312891807479" lon="10.702367718523154"><ele>55.166666666666664</ele><time>2026-05-03T07:39:25Z</time></trkpt><trkpt lat="45.30316727913203" lon="10.702261649619963"><ele>55.0</ele><time>2026-05-03T07:39:26Z</time></trkpt><trkpt lat="45.3032009968779" lon="10.702176863974099"><ele>55.0</ele><time>2026-05-03T07:39:27Z</time></trkpt><trkpt lat="45.30323996840388" lon="10.702091650191367"><ele>55.0</ele><time>2026-05-03T07:39:28Z</time></trkpt><trkpt lat="45.30328412457341" lon="10.702003441280398"><ele>55.0</ele><time>2026-05-03T07:39:29Z</time></trkpt><trkpt lat="45.3033449173248" lon="10.70185673343717"><ele>55.0</ele><time>2026-05-03T07:39:31Z</time></trkpt><trkpt lat="45.3033990405213" lon="10.701711741704676"><ele>55.0</ele><time>2026-05-03T07:39:33Z</time></trkpt><trkpt lat="45.30345073076793" lon="10.701602254475912"><ele>56.0</ele><time>2026-05-03T07:39:35Z</time></trkpt><trkpt lat="45.303504598677854" lon="10.701526630134238"><ele>57.0</ele><time>2026-05-03T07:39:38Z</time></trkpt><trkpt lat="45.303574986447146" lon="10.701462856372046"><ele>58.0</ele><time>2026-05-03T07:40:08.999Z</time></trkpt><trkpt lat="45.303627746263125" lon="10.701405218320183"><ele>59.0</ele><time>2026-05-03T07:40:09.999Z</time></trkpt><trkpt lat="45.30368794135314" lon="10.701332319777832"><ele>60.00000000000001</ele><time>2026-05-03T07:40:10.999Z</time></trkpt><trkpt lat="45.30374534004119" lon="10.701260991877943"><ele>61.0</ele><time>2026-05-03T07:40:11.999Z</time></trkpt><trkpt lat="45.30378729685535" lon="10.701189930178634"><ele>62.0</ele><time>2026-05-03T07:40:12.999Z</time></trkpt><trkpt lat="45.30381840512493" lon="10.701100805608265"><ele>62.16666666666667</ele><time>2026-05-03T07:40:13.999Z</time></trkpt><trkpt lat="45.303824837643276" lon="10.701008811528261"><ele>62.333333333333336</ele><time>2026-05-03T07:40:14.999Z</time></trkpt><trkpt lat="45.3038159944931" lon="10.70089373176008"><ele>62.5</ele><time>2026-05-03T07:40:16.999Z</time></trkpt><trkpt lat="45.303820824072965" lon="10.700803904949916"><ele>62.66666666666667</ele><time>2026-05-03T07:40:19.999Z</time></trkpt><trkpt lat="45.30390080004559" lon="10.700671871415478"><ele>62.833333333333336</ele><time>2026-05-03T07:40:26.999Z</time></trkpt><trkpt lat="45.30397100711986" lon="10.700601423291285"><ele>63.0</ele><time>2026-05-03T07:40:27.999Z</time></trkpt><trkpt lat="45.304052016494246" lon="10.700514239473089"><ele>62.5</ele><time>2026-05-03T07:40:28.999Z</time></trkpt><trkpt lat="45.30415384455591" lon="10.700421389543202"><ele>62.0</ele><time>2026-05-03T07:40:29.999Z</time></trkpt><trkpt lat="45.30426896375795" lon="10.700314195659763"><ele>61.5</ele><time>2026-05-03T07:40:30.999Z</time></trkpt><trkpt lat="45.30440203844507" lon="10.700186395669611"><ele>61.0</ele><time>2026-05-03T07:40:31.999Z</time></trkpt><trkpt lat="45.30454198274831" lon="10.700050324816736"><ele>61.0</ele><time>2026-05-03T07:40:32.999Z</time></trkpt><trkpt lat="45.304692392643986" lon="10.699904848204346"><ele>61.0</ele><time>2026-05-03T07:40:33.999Z</time></trkpt><trkpt lat="45.304847681866946" lon="10.69975698951885"><ele>61.0</ele><time>2026-05-03T07:40:34.999Z</time></trkpt><trkpt lat="45.30500559090306" lon="10.699606347884425"><ele>62.0</ele><time>2026-05-03T07:40:35.999Z</time></trkpt><trkpt lat="45.305151610769656" lon="10.69947108732821"><ele>63.0</ele><time>2026-05-03T07:40:36.999Z</time></trkpt><trkpt lat="45.305288914765356" lon="10.699364027285023"><ele>64.0</ele><time>2026-05-03T07:40:37.999Z</time></trkpt><trkpt lat="45.305429102857225" lon="10.699269387554992"><ele>64.0</ele><time>2026-05-03T07:40:38.999Z</time></trkpt><trkpt lat="45.30556268003248" lon="10.699192982456115"><ele>64.0</ele><time>2026-05-03T07:40:39.999Z</time></trkpt><trkpt lat="45.305687943765" lon="10.699142935594628"><ele>64.0</ele><time>2026-05-03T07:40:40.999Z</time></trkpt><trkpt lat="45.305814062792194" lon="10.69910210932208"><ele>64.0</ele><time>2026-05-03T07:40:41.999Z</time></trkpt><trkpt lat="45.30595375580254" lon="10.699048170538086"><ele>62.666666666666664</ele><time>2026-05-03T07:40:42.999Z</time></trkpt><trkpt lat="45.30609770917644" lon="10.698998239541742"><ele>61.33333333333333</ele><time>2026-05-03T07:40:43.999Z</time></trkpt><trkpt lat="45.30624361071621" lon="10.698947802507348"><ele>60.0</ele><time>2026-05-03T07:40:44.999Z</time></trkpt><trkpt lat="45.306396783632195" lon="10.69889840514878"><ele>59.33333333333333</ele><time>2026-05-03T07:40:45.999Z</time></trkpt><trkpt lat="45.306564145306304" lon="10.698846699766564"><ele>58.666666666666664</ele><time>2026-05-03T07:40:46.999Z</time></trkpt><trkpt lat="45.30673805142635" lon="10.698791048789666"><ele>58.0</ele><time>2026-05-03T07:40:47.999Z</time></trkpt><trkpt lat="45.306917125166805" lon="10.698735988597607"><ele>58.0</ele><time>2026-05-03T07:40:48.999Z</time></trkpt><trkpt lat="45.30709501585732" lon="10.698674243372283"><ele>58.0</ele><time>2026-05-03T07:40:49.999Z</time></trkpt><trkpt lat="45.307251889612935" lon="10.698620380128036"><ele>58.0</ele><time>2026-05-03T07:40:50.999Z</time></trkpt><trkpt lat="45.30739628535269" lon="10.698571572850101"><ele>58.75</ele><time>2026-05-03T07:40:51.999Z</time></trkpt><trkpt lat="45.30752272223631" lon="10.698533747896679"><ele>59.5</ele><time>2026-05-03T07:40:52.999Z</time></trkpt><trkpt lat="45.30764842811174" lon="10.698485789721616"><ele>60.25</ele><time>2026-05-03T07:40:53.999Z</time></trkpt><trkpt lat="45.30778073567356" lon="10.698418017611065"><ele>61.0</ele><time>2026-05-03T07:40:54.999Z</time></trkpt><trkpt lat="45.30790878633328" lon="10.698325153438853"><ele>61.0</ele><time>2026-05-03T07:40:55.999Z</time></trkpt><trkpt lat="45.30803277390225" lon="10.69821554518148"><ele>61.0</ele><time>2026-05-03T07:40:56.999Z</time></trkpt><trkpt lat="45.30815140214885" lon="10.698094534552409"><ele>61.0</ele><time>2026-05-03T07:40:57.999Z</time></trkpt><trkpt lat="45.30826829659035" lon="10.697971587189262"><ele>61.0</ele><time>2026-05-03T07:40:58.999Z</time></trkpt><trkpt lat="45.30838936918701" lon="10.69784458113892"><ele>62.0</ele><time>2026-05-03T07:40:59.999Z</time></trkpt><trkpt lat="45.30852126930541" lon="10.697706783377768"><ele>63.0</ele><time>2026-05-03T07:41:00.999Z</time></trkpt><trkpt lat="45.30867104635013" lon="10.697560093582666"><ele>64.0</ele><time>2026-05-03T07:41:01.999Z</time></trkpt><trkpt lat="45.308830097147016" lon="10.697397922602125"><ele>64.0</ele><time>2026-05-03T07:41:02.999Z</time></trkpt><trkpt lat="45.30900312080683" lon="10.697220914012401"><ele>64.0</ele><time>2026-05-03T07:41:03.999Z</time></trkpt><trkpt lat="45.30918449176265" lon="10.69702745638848"><ele>64.0</ele><time>2026-05-03T07:41:04.999Z</time></trkpt><trkpt lat="45.309370888096616" lon="10.69683725907365"><ele>64.5</ele><time>2026-05-03T07:41:05.999Z</time></trkpt><trkpt lat="45.30956441953461" lon="10.696637660197833"><ele>65.0</ele><time>2026-05-03T07:41:06.999Z</time></trkpt><trkpt lat="45.3097702133449" lon="10.696418822124164"><ele>64.5</ele><time>2026-05-03T07:41:07.999Z</time></trkpt><trkpt lat="45.309971068607354" lon="10.696213899618767"><ele>64.0</ele><time>2026-05-03T07:41:08.999Z</time></trkpt><trkpt lat="45.31014892810866" lon="10.69604119077135"><ele>64.0</ele><time>2026-05-03T07:41:09.999Z</time></trkpt><trkpt lat="45.31031030579472" lon="10.695872324288064"><ele>64.0</ele><time>2026-05-03T07:41:10.999Z</time></trkpt><trkpt lat="45.310467445425346" lon="10.695686605996853"><ele>64.0</ele><time>2026-05-03T07:41:11.999Z</time></trkpt><trkpt lat="45.310622637366585" lon="10.695501883199565"><ele>64.0</ele><time>2026-05-03T07:41:12.999Z</time></trkpt><trkpt lat="45.310767952034674" lon="10.69533609446517"><ele>64.0</ele><time>2026-05-03T07:41:13.999Z</time></trkpt><trkpt lat="45.31090196451968" lon="10.695183899471578"><ele>64.0</ele><time>2026-05-03T07:41:14.999Z</time></trkpt><trkpt lat="45.31102127032061" lon="10.69504311472003"><ele>64.0</ele><time>2026-05-03T07:41:15.999Z</time></trkpt><trkpt lat="45.31113220985355" lon="10.69491474582959"><ele>64.0</ele><time>2026-05-03T07:41:16.999Z</time></trkpt><trkpt lat="45.31123629992794" lon="10.694800205257287"><ele>64.0</ele><time>2026-05-03T07:41:17.999Z</time></trkpt><trkpt lat="45.31132894116574" lon="10.694690394962095"><ele>64.0</ele><time>2026-05-03T07:41:18.999Z</time></trkpt><trkpt lat="45.31141592125572" lon="10.694586670822964"><ele>63.99999999999999</ele><time>2026-05-03T07:41:19.999Z</time></trkpt><trkpt lat="45.311491506276404" lon="10.694501130479683"><ele>64.0</ele><time>2026-05-03T07:41:20.999Z</time></trkpt><trkpt lat="45.31154155072747" lon="10.694446597895599"><ele>64.0</ele><time>2026-05-03T07:41:21.999Z</time></trkpt><trkpt lat="45.31158049967043" lon="10.694371794336275"><ele>64.0</ele><time>2026-05-03T07:41:30.999Z</time></trkpt><trkpt lat="45.31151726317421" lon="10.694460941718296"><ele>63.99999999999999</ele><time>2026-05-03T07:41:48.999Z</time></trkpt><trkpt lat="45.31141747083615" lon="10.694569625146615"><ele>64.0</ele><time>2026-05-03T07:41:50.999Z</time></trkpt><trkpt lat="45.3113290489147" lon="10.694634723046567"><ele>64.0</ele><time>2026-05-03T07:41:51.999Z</time></trkpt><trkpt lat="45.31126858161811" lon="10.694725298559623"><ele>64.0</ele><time>2026-05-03T07:41:52.999Z</time></trkpt><trkpt lat="45.31118368626463" lon="10.694806155707342"><ele>64.0</ele><time>2026-05-03T07:41:53.999Z</time></trkpt><trkpt lat="45.31108795662898" lon="10.694916784975327"><ele>64.0</ele><time>2026-05-03T07:41:54.999Z</time></trkpt><trkpt lat="45.310987303996804" lon="10.695037549566813"><ele>64.0</ele><time>2026-05-03T07:41:55.999Z</time></trkpt><trkpt lat="45.31087164889919" lon="10.695175949210398"><ele>64.0</ele><time>2026-05-03T07:41:56.999Z</time></trkpt><trkpt lat="45.31074667963471" lon="10.695316279066436"><ele>64.0</ele><time>2026-05-03T07:41:57.999Z</time></trkpt><trkpt lat="45.31061714686355" lon="10.695466328939226"><ele>64.0</ele><time>2026-05-03T07:41:58.999Z</time></trkpt><trkpt lat="45.31048101664897" lon="10.695627531568617"><ele>64.0</ele><time>2026-05-03T07:41:59.999Z</time></trkpt><trkpt lat="45.31033933547043" lon="10.695791540973397"><ele>64.0</ele><time>2026-05-03T07:42:00.999Z</time></trkpt><trkpt lat="45.310196605928724" lon="10.695958093232885"><ele>64.0</ele><time>2026-05-03T07:42:01.999Z</time></trkpt><trkpt lat="45.310040015207996" lon="10.696121512834667"><ele>63.666666666666664</ele><time>2026-05-03T07:42:02.999Z</time></trkpt><trkpt lat="45.30988519884832" lon="10.696282347955496"><ele>63.33333333333333</ele><time>2026-05-03T07:42:03.999Z</time></trkpt><trkpt lat="45.3097297784702" lon="10.696444355991575"><ele>63.0</ele><time>2026-05-03T07:42:04.999Z</time></trkpt><trkpt lat="45.30957510769889" lon="10.696603959856372"><ele>63.33333333333333</ele><time>2026-05-03T07:42:05.999Z</time></trkpt><trkpt lat="45.30943129324837" lon="10.69675001827142"><ele>63.666666666666664</ele><time>2026-05-03T07:42:06.999Z</time></trkpt><trkpt lat="45.309302845363135" lon="10.696881565239806"><ele>64.0</ele><time>2026-05-03T07:42:07.999Z</time></trkpt><trkpt lat="45.3091755957689" lon="10.697009428249164"><ele>64.0</ele><time>2026-05-03T07:42:08.999Z</time></trkpt><trkpt lat="45.30904811922197" lon="10.697139231016243"><ele>64.0</ele><time>2026-05-03T07:42:09.999Z</time></trkpt><trkpt lat="45.30892040730742" lon="10.697266017169644"><ele>64.0</ele><time>2026-05-03T07:42:10.999Z</time></trkpt><trkpt lat="45.3087912485881" lon="10.697391126220545"><ele>64.0</ele><time>2026-05-03T07:42:11.999Z</time></trkpt><trkpt lat="45.30865969785025" lon="10.697516649278088"><ele>64.0</ele><time>2026-05-03T07:42:12.999Z</time></trkpt><trkpt lat="45.30852973200407" lon="10.697652488754937"><ele>64.0</ele><time>2026-05-03T07:42:13.999Z</time></trkpt><trkpt lat="45.30839892954819" lon="10.697794777836117"><ele>63.33333333333333</ele><time>2026-05-03T07:42:14.999Z</time></trkpt><trkpt lat="45.30826707792463" lon="10.697930018211212"><ele>62.66666666666667</ele><time>2026-05-03T07:42:15.999Z</time></trkpt><trkpt lat="45.30813867840838" lon="10.698061093824371"><ele>62.0</ele><time>2026-05-03T07:42:16.999Z</time></trkpt><trkpt lat="45.30802223772325" lon="10.698175443942205"><ele>61.75</ele><time>2026-05-03T07:42:17.999Z</time></trkpt><trkpt lat="45.30791352109692" lon="10.69827504623348"><ele>61.5</ele><time>2026-05-03T07:42:18.999Z</time></trkpt><trkpt lat="45.30780654098253" lon="10.698353017394323"><ele>61.25</ele><time>2026-05-03T07:42:20Z</time></trkpt><trkpt lat="45.3077000494421" lon="10.698415008256756"><ele>61.0</ele><time>2026-05-03T07:42:21Z</time></trkpt><trkpt lat="45.30758593415306" lon="10.69847067132847"><ele>60.99999999999999</ele><time>2026-05-03T07:42:22Z</time></trkpt><trkpt lat="45.30746543410797" lon="10.698515302151462"><ele>61.0</ele><time>2026-05-03T07:42:23Z</time></trkpt><trkpt lat="45.307357219392834" lon="10.698550157204886"><ele>61.0</ele><time>2026-05-03T07:42:24Z</time></trkpt><trkpt lat="45.30728151102456" lon="10.698575437995574"><ele>61.0</ele><time>2026-05-03T07:42:25Z</time></trkpt><trkpt lat="45.307212161047545" lon="10.698581861993977"><ele>60.99999999999999</ele><time>2026-05-03T07:42:27Z</time></trkpt><trkpt lat="45.30727750231782" lon="10.698580143191569"><ele>61.0</ele><time>2026-05-03T07:42:31Z</time></trkpt><trkpt lat="45.307346563575166" lon="10.698737240277547"><ele>59.99999999999999</ele><time>2026-05-03T07:42:32Z</time></trkpt><trkpt lat="45.307421088918225" lon="10.698731675032882"><ele>59.0</ele><time>2026-05-03T07:42:34Z</time></trkpt><trkpt lat="45.30751244557947" lon="10.698737299956239"><ele>58.0</ele><time>2026-05-03T07:42:36Z</time></trkpt><trkpt lat="45.307593575775314" lon="10.698744625837906"><ele>57.0</ele><time>2026-05-03T07:42:38Z</time></trkpt><trkpt lat="45.30767517488494" lon="10.698749285113866"><ele>55.99999999999999</ele><time>2026-05-03T07:42:40Z</time></trkpt><trkpt lat="45.3077545159728" lon="10.698760265268405"><ele>55.0</ele><time>2026-05-03T07:42:42Z</time></trkpt><trkpt lat="45.3078332800742" lon="10.698774959888167"><ele>54.99999999999999</ele><time>2026-05-03T07:42:44Z</time></trkpt><trkpt lat="45.30790359919626" lon="10.698795476350805"><ele>55.0</ele><time>2026-05-03T07:42:48Z</time></trkpt><trkpt lat="45.30797311913774" lon="10.698806368037639"><ele>55.0</ele><time>2026-05-03T07:42:51Z</time></trkpt><trkpt lat="45.307911927737955" lon="10.698774218757151"><ele>55.0</ele><time>2026-05-03T07:43:15Z</time></trkpt><trkpt lat="45.307887288672916" lon="10.698685183924018"><ele>55.0</ele><time>2026-05-03T07:43:32Z</time></trkpt><trkpt lat="45.30788582666182" lon="10.698585484300368"><ele>54.99999999999999</ele><time>2026-05-03T07:43:33Z</time></trkpt><trkpt lat="45.307878895547795" lon="10.69849365071803"><ele>55.0</ele><time>2026-05-03T07:43:35Z</time></trkpt><trkpt lat="45.307805216234485" lon="10.698524217022406"><ele>55.0</ele><time>2026-05-03T07:43:39Z</time></trkpt><trkpt lat="45.30783052640074" lon="10.69867326964321"><ele>55.0</ele><time>2026-05-03T07:43:42Z</time></trkpt><trkpt lat="45.30785948802138" lon="10.698779757913446"><ele>55.0</ele><time>2026-05-03T07:43:44Z</time></trkpt><trkpt lat="45.30792068367285" lon="10.69880277238285"><ele>55.0</ele><time>2026-05-03T07:44:04Z</time></trkpt><trkpt lat="45.30796621616231" lon="10.699044757764726"><ele>55.0</ele><time>2026-05-03T07:44:06Z</time></trkpt><trkpt lat="45.30798030122158" lon="10.698540362660108"><ele>55.99999999999999</ele><time>2026-05-03T07:44:10Z</time></trkpt><trkpt lat="45.307946012948165" lon="10.69840591875595"><ele>57.0</ele><time>2026-05-03T07:44:13Z</time></trkpt><trkpt lat="45.30786918638315" lon="10.698413130394236"><ele>58.0</ele><time>2026-05-03T07:44:15Z</time></trkpt><trkpt lat="45.3078114025356" lon="10.698494795353946"><ele>59.0</ele><time>2026-05-03T07:44:18Z</time></trkpt><trkpt lat="45.30782954269918" lon="10.698581100470385"><ele>59.99999999999999</ele><time>2026-05-03T07:47:14Z</time></trkpt><trkpt lat="45.307766547278824" lon="10.69858044597122"><ele>61.0</ele><time>2026-05-03T07:48:20Z</time></trkpt><trkpt lat="45.30771865838561" lon="10.69851739052227"><ele>60.99999999999999</ele><time>2026-05-03T07:48:24Z</time></trkpt><trkpt lat="45.307783602552924" lon="10.698546674451487"><ele>61.0</ele><time>2026-05-03T07:51:46Z</time></trkpt><trkpt lat="45.3078528927436" lon="10.698538167779455"><ele>60.99999999999999</ele><time>2026-05-03T07:52:11Z</time></trkpt><trkpt lat="45.30792204357697" lon="10.698555047717218"><ele>60.99999999999999</ele><time>2026-05-03T07:57:18Z</time></trkpt><trkpt lat="45.30793631100782" lon="10.698459191914674"><ele>61.0</ele><time>2026-05-03T07:59:09Z</time></trkpt><trkpt lat="45.30796792494011" lon="10.698544673999205"><ele>60.99999999999999</ele><time>2026-05-03T08:01:16Z</time></trkpt><trkpt lat="45.30794783927486" lon="10.698451188150251"><ele>60.99999999999999</ele><time>2026-05-03T08:01:40Z</time></trkpt><trkpt lat="45.307881523134625" lon="10.698443279733244"><ele>60.99999999999999</ele><time>2026-05-03T08:02:25Z</time></trkpt><trkpt lat="45.307829754927354" lon="10.698497390856101"><ele>61.0</ele><time>2026-05-03T08:02:33Z</time></trkpt><trkpt lat="45.3078965243121" lon="10.698535242990957"><ele>60.99999999999999</ele><time>2026-05-03T08:06:28Z</time></trkpt><trkpt lat="45.30794143802178" lon="10.698469406636889"><ele>60.99999999999999</ele><time>2026-05-03T08:06:36Z</time></trkpt><trkpt lat="45.30790274619609" lon="10.698544676208826"><ele>61.0</ele><time>2026-05-03T08:11:09Z</time></trkpt><trkpt lat="45.30783500856527" lon="10.698550309391532"><ele>60.99999999999999</ele><time>2026-05-03T08:11:14Z</time></trkpt><trkpt lat="45.30787547789263" lon="10.698447623383304"><ele>60.99999999999999</ele><time>2026-05-03T08:15:28Z</time></trkpt><trkpt lat="45.30791215909469" lon="10.69833821891665"><ele>61.0</ele><time>2026-05-03T08:15:31Z</time></trkpt><trkpt lat="45.307863681700496" lon="10.698251220237358"><ele>60.99999999999999</ele><time>2026-05-03T08:15:33Z</time></trkpt><trkpt lat="45.30778516544499" lon="10.698106563188125"><ele>60.99999999999999</ele><time>2026-05-03T08:15:35Z</time></trkpt><trkpt lat="45.307746909169566" lon="10.69800858030463"><ele>61.0</ele><time>2026-05-03T08:15:36Z</time></trkpt><trkpt lat="45.30771185903944" lon="10.697847787318308"><ele>61.0</ele><time>2026-05-03T08:15:38Z</time></trkpt><trkpt lat="45.30767249390775" lon="10.697768522349138"><ele>61.166666666666664</ele><time>2026-05-03T08:15:39Z</time></trkpt><trkpt lat="45.30762485328282" lon="10.697672594645256"><ele>61.33333333333333</ele><time>2026-05-03T08:15:40Z</time></trkpt><trkpt lat="45.307577287310515" lon="10.697577350566604"><ele>61.5</ele><time>2026-05-03T08:15:41Z</time></trkpt><trkpt lat="45.30753157178759" lon="10.697487443403055"><ele>61.66666666666667</ele><time>2026-05-03T08:15:42Z</time></trkpt><trkpt lat="45.307489446541446" lon="10.697404597115925"><ele>61.833333333333336</ele><time>2026-05-03T08:15:43Z</time></trkpt><trkpt lat="45.307445870125484" lon="10.697318896698896"><ele>62.0</ele><time>2026-05-03T08:15:44Z</time></trkpt><trkpt lat="45.30740271602931" lon="10.697232977977503"><ele>62.0</ele><time>2026-05-03T08:15:45Z</time></trkpt><trkpt lat="45.30731982330589" lon="10.69706545777742"><ele>62.0</ele><time>2026-05-03T08:15:47Z</time></trkpt><trkpt lat="45.307275958755" lon="10.69697594176201"><ele>62.0</ele><time>2026-05-03T08:15:48Z</time></trkpt><trkpt lat="45.30723116651371" lon="10.696884532977181"><ele>62.0</ele><time>2026-05-03T08:15:49Z</time></trkpt><trkpt lat="45.307189825861066" lon="10.69680016792434"><ele>62.0</ele><time>2026-05-03T08:15:50Z</time></trkpt><trkpt lat="45.307144943027865" lon="10.696708573763988"><ele>62.0</ele><time>2026-05-03T08:15:51Z</time></trkpt><trkpt lat="45.307095194298086" lon="10.696607049976704"><ele>62.0</ele><time>2026-05-03T08:15:52Z</time></trkpt><trkpt lat="45.30704291407701" lon="10.696500359780819"><ele>62.0</ele><time>2026-05-03T08:15:53Z</time></trkpt><trkpt lat="45.306988663884766" lon="10.696389345817558"><ele>62.0</ele><time>2026-05-03T08:15:54Z</time></trkpt><trkpt lat="45.30693593396197" lon="10.696279401467917"><ele>62.0</ele><time>2026-05-03T08:15:55Z</time></trkpt><trkpt lat="45.30688830072274" lon="10.696180083931145"><ele>61.833333333333336</ele><time>2026-05-03T08:15:56Z</time></trkpt><trkpt lat="45.3068433557563" lon="10.696086371512806"><ele>61.66666666666667</ele><time>2026-05-03T08:15:57Z</time></trkpt><trkpt lat="45.30679280407387" lon="10.695980968884138"><ele>61.5</ele><time>2026-05-03T08:15:58Z</time></trkpt><trkpt lat="45.30674166168718" lon="10.695874415965752"><ele>61.33333333333333</ele><time>2026-05-03T08:15:59Z</time></trkpt><trkpt lat="45.30669806386572" lon="10.695786995342209"><ele>61.166666666666664</ele><time>2026-05-03T08:16:00Z</time></trkpt><trkpt lat="45.30665810549731" lon="10.695706873023925"><ele>61.0</ele><time>2026-05-03T08:16:01Z</time></trkpt><trkpt lat="45.306612349517906" lon="10.69561512511442"><ele>60.99999999999999</ele><time>2026-05-03T08:16:02Z</time></trkpt><trkpt lat="45.30656148261107" lon="10.695512443445239"><ele>61.0</ele><time>2026-05-03T08:16:03Z</time></trkpt><trkpt lat="45.3065033449035" lon="10.695389851055621"><ele>61.0</ele><time>2026-05-03T08:16:04Z</time></trkpt><trkpt lat="45.306451969863865" lon="10.69528132351789"><ele>61.0</ele><time>2026-05-03T08:16:05Z</time></trkpt><trkpt lat="45.30640984765065" lon="10.695189856889883"><ele>60.99999999999999</ele><time>2026-05-03T08:16:06Z</time></trkpt><trkpt lat="45.30637322933708" lon="10.695110341674315"><ele>61.0</ele><time>2026-05-03T08:16:07Z</time></trkpt><trkpt lat="45.30632058550241" lon="10.694996027426074"><ele>60.49999999999999</ele><time>2026-05-03T08:16:09Z</time></trkpt><trkpt lat="45.3062860312903" lon="10.694920994354762"><ele>60.0</ele><time>2026-05-03T08:16:11Z</time></trkpt><trkpt lat="45.306249928866585" lon="10.694845619672538"><ele>59.5</ele><time>2026-05-03T08:16:15Z</time></trkpt><trkpt lat="45.306227863560906" lon="10.694758442610748"><ele>59.0</ele><time>2026-05-03T08:16:33Z</time></trkpt><trkpt lat="45.30618212921358" lon="10.694664100452036"><ele>58.49999999999999</ele><time>2026-05-03T08:16:35Z</time></trkpt><trkpt lat="45.306133451690215" lon="10.694563455481967"><ele>58.0</ele><time>2026-05-03T08:16:36Z</time></trkpt><trkpt lat="45.30607342642227" lon="10.694436951113733"><ele>58.33333333333333</ele><time>2026-05-03T08:16:37Z</time></trkpt><trkpt lat="45.30600353825789" lon="10.694289768054025"><ele>58.66666666666667</ele><time>2026-05-03T08:16:38Z</time></trkpt><trkpt lat="45.305913805897" lon="10.694105292562941"><ele>59.0</ele><time>2026-05-03T08:16:39Z</time></trkpt><trkpt lat="45.30581725661032" lon="10.69390750798298"><ele>59.0</ele><time>2026-05-03T08:16:40Z</time></trkpt><trkpt lat="45.305715045721115" lon="10.69370321618866"><ele>59.0</ele><time>2026-05-03T08:16:41Z</time></trkpt><trkpt lat="45.305618778565986" lon="10.693516101099087"><ele>59.0</ele><time>2026-05-03T08:16:42Z</time></trkpt><trkpt lat="45.30552818727589" lon="10.693356327096094"><ele>59.0</ele><time>2026-05-03T08:16:43Z</time></trkpt><trkpt lat="45.30543873602332" lon="10.693182304244372"><ele>59.0</ele><time>2026-05-03T08:16:44Z</time></trkpt><trkpt lat="45.3053614935533" lon="10.693015473894349"><ele>59.0</ele><time>2026-05-03T08:16:45Z</time></trkpt><trkpt lat="45.30542671938664" lon="10.69276359506843"><ele>58.833333333333336</ele><time>2026-05-03T08:16:46Z</time></trkpt><trkpt lat="45.305364966081996" lon="10.692645508856518"><ele>58.66666666666667</ele><time>2026-05-03T08:16:47Z</time></trkpt><trkpt lat="45.30531296774906" lon="10.692541001870902"><ele>58.5</ele><time>2026-05-03T08:16:48Z</time></trkpt><trkpt lat="45.30527511206" lon="10.692441185532282"><ele>58.33333333333333</ele><time>2026-05-03T08:16:49Z</time></trkpt><trkpt lat="45.30526931617254" lon="10.692341938439506"><ele>58.166666666666664</ele><time>2026-05-03T08:16:50Z</time></trkpt><trkpt lat="45.30529822529894" lon="10.69225653751525"><ele>58.0</ele><time>2026-05-03T08:16:51Z</time></trkpt><trkpt lat="45.305283038730394" lon="10.692113023821847"><ele>58.0</ele><time>2026-05-03T08:16:53Z</time></trkpt><trkpt lat="45.305244821013595" lon="10.692012865390634"><ele>58.0</ele><time>2026-05-03T08:16:54Z</time></trkpt><trkpt lat="45.30522040860066" lon="10.691911264528642"><ele>58.0</ele><time>2026-05-03T08:16:55Z</time></trkpt><trkpt lat="45.30519394758852" lon="10.691800946787867"><ele>58.0</ele><time>2026-05-03T08:16:56Z</time></trkpt><trkpt lat="45.305207540285814" lon="10.69168097967929"><ele>58.0</ele><time>2026-05-03T08:16:57Z</time></trkpt><trkpt lat="45.305595399884986" lon="10.691394505396653"><ele>58.25</ele><time>2026-05-03T08:16:58Z</time></trkpt><trkpt lat="45.30565078663944" lon="10.691257674663678"><ele>58.5</ele><time>2026-05-03T08:16:59Z</time></trkpt><trkpt lat="45.30571097412639" lon="10.691116530570508"><ele>58.75</ele><time>2026-05-03T08:17:00Z</time></trkpt><trkpt lat="45.30576607582021" lon="10.690979975639438"><ele>59.0</ele><time>2026-05-03T08:17:01Z</time></trkpt><trkpt lat="45.30581895235863" lon="10.690832595351626"><ele>59.0</ele><time>2026-05-03T08:17:02Z</time></trkpt><trkpt lat="45.30587137442297" lon="10.690671870154711"><ele>59.0</ele><time>2026-05-03T08:17:03Z</time></trkpt><trkpt lat="45.30592772619053" lon="10.69050291613135"><ele>59.0</ele><time>2026-05-03T08:17:04Z</time></trkpt><trkpt lat="45.30598199381024" lon="10.690332662539124"><ele>59.0</ele><time>2026-05-03T08:17:05Z</time></trkpt><trkpt lat="45.30603966866434" lon="10.690162009253847"><ele>59.25</ele><time>2026-05-03T08:17:06Z</time></trkpt><trkpt lat="45.30609309832445" lon="10.68999135731956"><ele>59.5</ele><time>2026-05-03T08:17:07Z</time></trkpt><trkpt lat="45.30614801557092" lon="10.689822703089055"><ele>59.75</ele><time>2026-05-03T08:17:08Z</time></trkpt><trkpt lat="45.30620913917989" lon="10.68965701399759"><ele>60.0</ele><time>2026-05-03T08:17:09Z</time></trkpt><trkpt lat="45.30627501284468" lon="10.689488699362082"><ele>60.0</ele><time>2026-05-03T08:17:10Z</time></trkpt><trkpt lat="45.30633526817872" lon="10.68934695406153"><ele>60.0</ele><time>2026-05-03T08:17:11Z</time></trkpt><trkpt lat="45.30639505707736" lon="10.689202820125825"><ele>60.0</ele><time>2026-05-03T08:17:12Z</time></trkpt><trkpt lat="45.30646303884657" lon="10.689050643309846"><ele>60.0</ele><time>2026-05-03T08:17:13Z</time></trkpt><trkpt lat="45.30653296198914" lon="10.688894615501113"><ele>60.0</ele><time>2026-05-03T08:17:14Z</time></trkpt><trkpt lat="45.30660647594383" lon="10.68873457965068"><ele>60.0</ele><time>2026-05-03T08:17:15Z</time></trkpt><trkpt lat="45.3066758728499" lon="10.688581680065544"><ele>60.0</ele><time>2026-05-03T08:17:16Z</time></trkpt><trkpt lat="45.306739490398776" lon="10.688441006810727"><ele>60.0</ele><time>2026-05-03T08:17:17Z</time></trkpt><trkpt lat="45.306798772387864" lon="10.68830455343337"><ele>60.0</ele><time>2026-05-03T08:17:18Z</time></trkpt><trkpt lat="45.30685953389521" lon="10.688168586483387"><ele>60.0</ele><time>2026-05-03T08:17:19Z</time></trkpt><trkpt lat="45.306918622995624" lon="10.688043898190937"><ele>60.0</ele><time>2026-05-03T08:17:20Z</time></trkpt><trkpt lat="45.306970138685514" lon="10.687936078876417"><ele>60.0</ele><time>2026-05-03T08:17:21Z</time></trkpt><trkpt lat="45.307012083304635" lon="10.68785105034777"><ele>60.0</ele><time>2026-05-03T08:17:22Z</time></trkpt><trkpt lat="45.30705097681649" lon="10.687770864840163"><ele>60.0</ele><time>2026-05-03T08:17:23Z</time></trkpt><trkpt lat="45.307122916348135" lon="10.687669858098733"><ele>60.0</ele><time>2026-05-03T08:17:25Z</time></trkpt><trkpt lat="45.30725611299969" lon="10.687707158069307"><ele>60.0</ele><time>2026-05-03T08:17:27Z</time></trkpt><trkpt lat="45.30733139163082" lon="10.687791831628065"><ele>60.0</ele><time>2026-05-03T08:17:28Z</time></trkpt><trkpt lat="45.3074143163697" lon="10.687896912226998"><ele>60.0</ele><time>2026-05-03T08:17:29Z</time></trkpt><trkpt lat="45.3075091005982" lon="10.687976146275457"><ele>60.0</ele><time>2026-05-03T08:17:30Z</time></trkpt><trkpt lat="45.30760394775816" lon="10.688058434380832"><ele>60.0</ele><time>2026-05-03T08:17:31Z</time></trkpt><trkpt lat="45.30769906422738" lon="10.688136825479681"><ele>60.0</ele><time>2026-05-03T08:17:32Z</time></trkpt><trkpt lat="45.3077980476189" lon="10.688213582864748"><ele>60.0</ele><time>2026-05-03T08:17:33Z</time></trkpt><trkpt lat="45.30790284034198" lon="10.688294820188037"><ele>60.0</ele><time>2026-05-03T08:17:34Z</time></trkpt><trkpt lat="45.308008511258585" lon="10.688375935148754"><ele>60.0</ele><time>2026-05-03T08:17:35Z</time></trkpt><trkpt lat="45.30812094473746" lon="10.688456902360835"><ele>60.0</ele><time>2026-05-03T08:17:36Z</time></trkpt><trkpt lat="45.30822694024019" lon="10.688539421456477"><ele>60.0</ele><time>2026-05-03T08:17:37Z</time></trkpt><trkpt lat="45.308331023007035" lon="10.688616598358687"><ele>60.0</ele><time>2026-05-03T08:17:38Z</time></trkpt><trkpt lat="45.308419696647334" lon="10.68868075650061"><ele>60.0</ele><time>2026-05-03T08:17:39Z</time></trkpt><trkpt lat="45.30850231079058" lon="10.688743688874041"><ele>60.0</ele><time>2026-05-03T08:17:40Z</time></trkpt><trkpt lat="45.3085680082053" lon="10.688790663843625"><ele>60.0</ele><time>2026-05-03T08:17:41Z</time></trkpt><trkpt lat="45.30866528504066" lon="10.688838979499105"><ele>60.0</ele><time>2026-05-03T08:17:43Z</time></trkpt><trkpt lat="45.30878446358667" lon="10.688631810746266"><ele>60.0</ele><time>2026-05-03T08:17:46Z</time></trkpt><trkpt lat="45.30883895463998" lon="10.688515298923134"><ele>60.0</ele><time>2026-05-03T08:17:47Z</time></trkpt><trkpt lat="45.30890839613339" lon="10.68839242699582"><ele>60.0</ele><time>2026-05-03T08:17:48Z</time></trkpt><trkpt lat="45.308974461277835" lon="10.688263227048916"><ele>60.0</ele><time>2026-05-03T08:17:49Z</time></trkpt><trkpt lat="45.30904213426406" lon="10.688137153682746"><ele>60.0</ele><time>2026-05-03T08:17:50Z</time></trkpt><trkpt lat="45.30910139508174" lon="10.688017870225202"><ele>60.25</ele><time>2026-05-03T08:17:51Z</time></trkpt><trkpt lat="45.30914855875967" lon="10.687879553884397"><ele>60.5</ele><time>2026-05-03T08:17:52Z</time></trkpt><trkpt lat="45.30919920504847" lon="10.687736645511977"><ele>60.75</ele><time>2026-05-03T08:17:53Z</time></trkpt><trkpt lat="45.3092584336902" lon="10.68757482168598"><ele>61.0</ele><time>2026-05-03T08:17:54Z</time></trkpt><trkpt lat="45.30930664220932" lon="10.68741393172748"><ele>61.0</ele><time>2026-05-03T08:17:55Z</time></trkpt><trkpt lat="45.30935041369716" lon="10.687236259311033"><ele>61.0</ele><time>2026-05-03T08:17:56Z</time></trkpt><trkpt lat="45.309394863830676" lon="10.687055826784439"><ele>61.0</ele><time>2026-05-03T08:17:57Z</time></trkpt><trkpt lat="45.30944438225071" lon="10.686873831891655"><ele>61.0</ele><time>2026-05-03T08:17:58Z</time></trkpt><trkpt lat="45.30949036492634" lon="10.68669869012941"><ele>61.0</ele><time>2026-05-03T08:17:59Z</time></trkpt><trkpt lat="45.309542861140145" lon="10.686521505626636"><ele>61.0</ele><time>2026-05-03T08:18:00Z</time></trkpt><trkpt lat="45.309596434407155" lon="10.686343495178907"><ele>61.0</ele><time>2026-05-03T08:18:01Z</time></trkpt><trkpt lat="45.30964881700331" lon="10.686154948532463"><ele>61.0</ele><time>2026-05-03T08:18:02Z</time></trkpt><trkpt lat="45.30969786148045" lon="10.685963281881344"><ele>61.0</ele><time>2026-05-03T08:18:03Z</time></trkpt><trkpt lat="45.30974540678898" lon="10.685770706234546"><ele>61.0</ele><time>2026-05-03T08:18:04Z</time></trkpt><trkpt lat="45.309787909780276" lon="10.685586149154291"><ele>61.0</ele><time>2026-05-03T08:18:05Z</time></trkpt><trkpt lat="45.30982664734462" lon="10.685412406542671"><ele>61.0</ele><time>2026-05-03T08:18:06Z</time></trkpt><trkpt lat="45.30986856256377" lon="10.685232367474258"><ele>61.0</ele><time>2026-05-03T08:18:07Z</time></trkpt><trkpt lat="45.30991849258092" lon="10.685050310222525"><ele>61.0</ele><time>2026-05-03T08:18:08Z</time></trkpt><trkpt lat="45.30997785410646" lon="10.684875021355834"><ele>61.0</ele><time>2026-05-03T08:18:09Z</time></trkpt><trkpt lat="45.3100424904654" lon="10.684710970277568"><ele>61.0</ele><time>2026-05-03T08:18:10Z</time></trkpt><trkpt lat="45.31010159622756" lon="10.684556049365415"><ele>61.0</ele><time>2026-05-03T08:18:11Z</time></trkpt><trkpt lat="45.31016039366267" lon="10.684389644898964"><ele>61.0</ele><time>2026-05-03T08:18:12Z</time></trkpt><trkpt lat="45.31022337796856" lon="10.68421195245933"><ele>61.0</ele><time>2026-05-03T08:18:13Z</time></trkpt><trkpt lat="45.310288867058546" lon="10.684038418270298"><ele>61.0</ele><time>2026-05-03T08:18:14Z</time></trkpt><trkpt lat="45.3103613224709" lon="10.683881616580807"><ele>61.0</ele><time>2026-05-03T08:18:15Z</time></trkpt><trkpt lat="45.31043040241915" lon="10.683720533519617"><ele>61.0</ele><time>2026-05-03T08:18:16Z</time></trkpt><trkpt lat="45.310490583073886" lon="10.683564878329486"><ele>61.0</ele><time>2026-05-03T08:18:17Z</time></trkpt><trkpt lat="45.310542639468025" lon="10.683421803886548"><ele>61.0</ele><time>2026-05-03T08:18:18Z</time></trkpt><trkpt lat="45.310593248183196" lon="10.683303633190441"><ele>60.99999999999999</ele><time>2026-05-03T08:18:19Z</time></trkpt><trkpt lat="45.310646966218805" lon="10.683207360053729"><ele>61.0</ele><time>2026-05-03T08:18:20Z</time></trkpt><trkpt lat="45.31070836192883" lon="10.683142228518797"><ele>61.0</ele><time>2026-05-03T08:18:21Z</time></trkpt><trkpt lat="45.31077655509136" lon="10.683140793360486"><ele>61.0</ele><time>2026-05-03T08:18:22Z</time></trkpt><trkpt lat="45.3108354272177" lon="10.683182800601337"><ele>60.99999999999999</ele><time>2026-05-03T08:18:23Z</time></trkpt><trkpt lat="45.31091958506179" lon="10.68328381991033"><ele>61.0</ele><time>2026-05-03T08:18:24Z</time></trkpt><trkpt lat="45.311008482615" lon="10.683364143445088"><ele>61.0</ele><time>2026-05-03T08:18:25Z</time></trkpt><trkpt lat="45.31110532606988" lon="10.683429317159819"><ele>60.99999999999999</ele><time>2026-05-03T08:18:26Z</time></trkpt><trkpt lat="45.3111944791431" lon="10.683479247260388"><ele>60.99999999999999</ele><time>2026-05-03T08:18:27Z</time></trkpt><trkpt lat="45.31128574822965" lon="10.68354616153351"><ele>61.0</ele><time>2026-05-03T08:18:28Z</time></trkpt><trkpt lat="45.3113791427966" lon="10.683618972879646"><ele>61.0</ele><time>2026-05-03T08:18:29Z</time></trkpt><trkpt lat="45.31147459113752" lon="10.683692863866792"><ele>61.199999999999996</ele><time>2026-05-03T08:18:30Z</time></trkpt><trkpt lat="45.31157189127771" lon="10.683760246378114"><ele>61.39999999999999</ele><time>2026-05-03T08:18:31Z</time></trkpt><trkpt lat="45.31166237834809" lon="10.68382623278465"><ele>61.6</ele><time>2026-05-03T08:18:32Z</time></trkpt><trkpt lat="45.3117511767149" lon="10.683885450096883"><ele>61.8</ele><time>2026-05-03T08:18:33Z</time></trkpt><trkpt lat="45.31182414128954" lon="10.683950712490992"><ele>62.0</ele><time>2026-05-03T08:18:34Z</time></trkpt><trkpt lat="45.31189241475936" lon="10.684028767511245"><ele>62.0</ele><time>2026-05-03T08:18:35Z</time></trkpt><trkpt lat="45.31196261880533" lon="10.684104536860994"><ele>62.00000000000001</ele><time>2026-05-03T08:18:36Z</time></trkpt><trkpt lat="45.3120249116385" lon="10.684177611428264"><ele>62.0</ele><time>2026-05-03T08:18:37Z</time></trkpt><trkpt lat="45.31207313480339" lon="10.684261549239386"><ele>62.0</ele><time>2026-05-03T08:18:38Z</time></trkpt><trkpt lat="45.31209902001031" lon="10.684344214745163"><ele>62.00000000000001</ele><time>2026-05-03T08:18:39Z</time></trkpt><trkpt lat="45.312099646903185" lon="10.684435507159979"><ele>62.0</ele><time>2026-05-03T08:18:40Z</time></trkpt><trkpt lat="45.3121037470286" lon="10.684532148224942"><ele>62.0</ele><time>2026-05-03T08:18:41Z</time></trkpt><trkpt lat="45.31218486247039" lon="10.684634613248061"><ele>62.2</ele><time>2026-05-03T08:18:43Z</time></trkpt><trkpt lat="45.31226413498696" lon="10.684664850429737"><ele>62.400000000000006</ele><time>2026-05-03T08:18:44Z</time></trkpt><trkpt lat="45.31235066743422" lon="10.684721634802457"><ele>62.599999999999994</ele><time>2026-05-03T08:18:45Z</time></trkpt><trkpt lat="45.312440298160695" lon="10.684788206470403"><ele>62.8</ele><time>2026-05-03T08:18:46Z</time></trkpt><trkpt lat="45.31253522343927" lon="10.684852682765934"><ele>63.0</ele><time>2026-05-03T08:18:47Z</time></trkpt><trkpt lat="45.31263606263313" lon="10.684920718607266"><ele>63.0</ele><time>2026-05-03T08:18:48Z</time></trkpt><trkpt lat="45.31274870348051" lon="10.684992604465474"><ele>63.0</ele><time>2026-05-03T08:18:49Z</time></trkpt><trkpt lat="45.312867993645995" lon="10.685066502207706"><ele>63.0</ele><time>2026-05-03T08:18:50Z</time></trkpt><trkpt lat="45.31298708964876" lon="10.685141794609661"><ele>63.0</ele><time>2026-05-03T08:18:51Z</time></trkpt><trkpt lat="45.31310805632364" lon="10.685216645541752"><ele>63.25</ele><time>2026-05-03T08:18:52Z</time></trkpt><trkpt lat="45.31323483443946" lon="10.685300164320743"><ele>63.5</ele><time>2026-05-03T08:18:53Z</time></trkpt><trkpt lat="45.31335634213309" lon="10.685375175251572"><ele>63.75</ele><time>2026-05-03T08:18:54Z</time></trkpt><trkpt lat="45.31345628887211" lon="10.685440762098441"><ele>64.0</ele><time>2026-05-03T08:18:55Z</time></trkpt><trkpt lat="45.313526836991535" lon="10.68549179232906"><ele>63.99999999999999</ele><time>2026-05-03T08:18:56Z</time></trkpt><trkpt lat="45.313582516304166" lon="10.685538654360434"><ele>64.0</ele><time>2026-05-03T08:18:57Z</time></trkpt><trkpt lat="45.31368462600956" lon="10.685609921809078"><ele>64.0</ele><time>2026-05-03T08:18:59Z</time></trkpt><trkpt lat="45.31376329185815" lon="10.685663890775983"><ele>64.0</ele><time>2026-05-03T08:19:01Z</time></trkpt><trkpt lat="45.31383273584808" lon="10.685712123119254"><ele>63.99999999999999</ele><time>2026-05-03T08:19:03Z</time></trkpt><trkpt lat="45.31390176375849" lon="10.685754577417487"><ele>64.0</ele><time>2026-05-03T08:19:05Z</time></trkpt><trkpt lat="45.31396626387532" lon="10.685794870955482"><ele>63.99999999999999</ele><time>2026-05-03T08:19:07Z</time></trkpt><trkpt lat="45.31402544719026" lon="10.685836058380474"><ele>64.0</ele><time>2026-05-03T08:19:11Z</time></trkpt><trkpt lat="45.314099790618016" lon="10.685891927432234"><ele>64.0</ele><time>2026-05-03T08:19:24Z</time></trkpt><trkpt lat="45.314167778162464" lon="10.685951745812318"><ele>64.0</ele><time>2026-05-03T08:19:27Z</time></trkpt><trkpt lat="45.314262407745" lon="10.686035152888982"><ele>63.99999999999999</ele><time>2026-05-03T08:19:30Z</time></trkpt><trkpt lat="45.314324578436796" lon="10.686074557318735"><ele>64.0</ele><time>2026-05-03T08:19:33Z</time></trkpt><trkpt lat="45.31439304869858" lon="10.686120164642956"><ele>64.5</ele><time>2026-05-03T08:19:42Z</time></trkpt><trkpt lat="45.31447289229562" lon="10.686003562252056"><ele>65.0</ele><time>2026-05-03T08:19:44Z</time></trkpt><trkpt lat="45.31452273153452" lon="10.685888429042942"><ele>65.5</ele><time>2026-05-03T08:19:45Z</time></trkpt><trkpt lat="45.31458197179825" lon="10.68573772849457"><ele>66.0</ele><time>2026-05-03T08:19:46Z</time></trkpt><trkpt lat="45.31464888666588" lon="10.685567504490061"><ele>66.0</ele><time>2026-05-03T08:19:47Z</time></trkpt><trkpt lat="45.31473213057303" lon="10.685358626959568"><ele>66.0</ele><time>2026-05-03T08:19:48Z</time></trkpt><trkpt lat="45.3148093365391" lon="10.68517139530926"><ele>66.0</ele><time>2026-05-03T08:19:49Z</time></trkpt><trkpt lat="45.31488898995721" lon="10.684983042567497"><ele>66.0</ele><time>2026-05-03T08:19:50Z</time></trkpt><trkpt lat="45.314956651628734" lon="10.684823046054989"><ele>66.0</ele><time>2026-05-03T08:19:51Z</time></trkpt><trkpt lat="45.31502411409977" lon="10.684663521048844"><ele>66.0</ele><time>2026-05-03T08:19:52Z</time></trkpt><trkpt lat="45.3150801723949" lon="10.68452519978364"><ele>66.0</ele><time>2026-05-03T08:19:53Z</time></trkpt><trkpt lat="45.315133184499615" lon="10.684390240931705"><ele>66.0</ele><time>2026-05-03T08:19:54Z</time></trkpt><trkpt lat="45.31519054139923" lon="10.684251146767252"><ele>66.0</ele><time>2026-05-03T08:19:55Z</time></trkpt><trkpt lat="45.315254218011646" lon="10.684099585512916"><ele>66.0</ele><time>2026-05-03T08:19:56Z</time></trkpt><trkpt lat="45.315319718364925" lon="10.68393577782797"><ele>66.0</ele><time>2026-05-03T08:19:57Z</time></trkpt><trkpt lat="45.31538839726554" lon="10.683765724706436"><ele>66.0</ele><time>2026-05-03T08:19:58Z</time></trkpt><trkpt lat="45.31545538970123" lon="10.68360598597333"><ele>66.0</ele><time>2026-05-03T08:19:59Z</time></trkpt><trkpt lat="45.31552501456609" lon="10.683442284427917"><ele>66.0</ele><time>2026-05-03T08:20:00Z</time></trkpt><trkpt lat="45.315599032469635" lon="10.683265953251988"><ele>66.0</ele><time>2026-05-03T08:20:01Z</time></trkpt><trkpt lat="45.3156764346857" lon="10.683075562208156"><ele>66.33333333333333</ele><time>2026-05-03T08:20:02Z</time></trkpt><trkpt lat="45.3157528178498" lon="10.682888601543008"><ele>66.66666666666666</ele><time>2026-05-03T08:20:03Z</time></trkpt><trkpt lat="45.3158338242685" lon="10.682694457241768"><ele>67.0</ele><time>2026-05-03T08:20:04Z</time></trkpt><trkpt lat="45.315907722365466" lon="10.682517348577619"><ele>66.33333333333333</ele><time>2026-05-03T08:20:05Z</time></trkpt><trkpt lat="45.31598505247361" lon="10.682332014148082"><ele>65.66666666666667</ele><time>2026-05-03T08:20:06Z</time></trkpt><trkpt lat="45.31606229882311" lon="10.682146880677623"><ele>65.0</ele><time>2026-05-03T08:20:07Z</time></trkpt><trkpt lat="45.31613921977877" lon="10.681966177263881"><ele>65.0</ele><time>2026-05-03T08:20:08Z</time></trkpt><trkpt lat="45.31621937013897" lon="10.681791968405289"><ele>65.0</ele><time>2026-05-03T08:20:09Z</time></trkpt><trkpt lat="45.316310371352465" lon="10.681636326825727"><ele>65.0</ele><time>2026-05-03T08:20:10Z</time></trkpt><trkpt lat="45.316404601489644" lon="10.681485299667546"><ele>65.0</ele><time>2026-05-03T08:20:11Z</time></trkpt><trkpt lat="45.316499364628385" lon="10.681337188345621"><ele>65.25</ele><time>2026-05-03T08:20:12Z</time></trkpt><trkpt lat="45.31659663387811" lon="10.681185159826722"><ele>65.5</ele><time>2026-05-03T08:20:13Z</time></trkpt><trkpt lat="45.31669618518378" lon="10.6810295647711"><ele>65.75</ele><time>2026-05-03T08:20:14Z</time></trkpt><trkpt lat="45.31679703354376" lon="10.680871942304535"><ele>66.0</ele><time>2026-05-03T08:20:15Z</time></trkpt><trkpt lat="45.3168991439434" lon="10.680710021737065"><ele>66.0</ele><time>2026-05-03T08:20:16Z</time></trkpt><trkpt lat="45.317001424643124" lon="10.680545509356843"><ele>66.0</ele><time>2026-05-03T08:20:17Z</time></trkpt><trkpt lat="45.3170984006548" lon="10.68038357074945"><ele>66.0</ele><time>2026-05-03T08:20:18Z</time></trkpt><trkpt lat="45.31717755837017" lon="10.68024042536825"><ele>66.0</ele><time>2026-05-03T08:20:19Z</time></trkpt><trkpt lat="45.31724368024303" lon="10.680103184479725"><ele>66.83333333333333</ele><time>2026-05-03T08:20:20Z</time></trkpt><trkpt lat="45.317303659525244" lon="10.679966713040665"><ele>67.66666666666667</ele><time>2026-05-03T08:20:21Z</time></trkpt><trkpt lat="45.31735150392442" lon="10.679850540723018"><ele>68.5</ele><time>2026-05-03T08:20:22Z</time></trkpt><trkpt lat="45.31739162764945" lon="10.679745776201127"><ele>69.33333333333334</ele><time>2026-05-03T08:20:23Z</time></trkpt><trkpt lat="45.3174259347227" lon="10.679653172115975"><ele>70.16666666666667</ele><time>2026-05-03T08:20:24Z</time></trkpt><trkpt lat="45.317454228923346" lon="10.679567607182364"><ele>71.0</ele><time>2026-05-03T08:20:25Z</time></trkpt><trkpt lat="45.317485944012326" lon="10.679445742126422"><ele>71.0</ele><time>2026-05-03T08:20:27Z</time></trkpt><trkpt lat="45.31750584335984" lon="10.679353707902218"><ele>71.0</ele><time>2026-05-03T08:20:30Z</time></trkpt><trkpt lat="45.3175361439425" lon="10.679458528682671"><ele>71.0</ele><time>2026-05-03T08:20:33Z</time></trkpt><trkpt lat="45.31763743303175" lon="10.679604406768023"><ele>71.0</ele><time>2026-05-03T08:20:34Z</time></trkpt><trkpt lat="45.317664075749605" lon="10.679714910265854"><ele>71.0</ele><time>2026-05-03T08:20:35Z</time></trkpt><trkpt lat="45.31768952837083" lon="10.679813531192831"><ele>71.0</ele><time>2026-05-03T08:20:36Z</time></trkpt><trkpt lat="45.31770161880411" lon="10.679909959894193"><ele>71.0</ele><time>2026-05-03T08:20:37Z</time></trkpt><trkpt lat="45.317726468982926" lon="10.680005309273122"><ele>71.0</ele><time>2026-05-03T08:20:38Z</time></trkpt><trkpt lat="45.317758787765094" lon="10.680110391922966"><ele>71.0</ele><time>2026-05-03T08:20:39Z</time></trkpt><trkpt lat="45.31778640756916" lon="10.680203038656037"><ele>71.0</ele><time>2026-05-03T08:20:40Z</time></trkpt><trkpt lat="45.31781903096607" lon="10.68029715003565"><ele>71.0</ele><time>2026-05-03T08:20:41Z</time></trkpt><trkpt lat="45.31785399228758" lon="10.680373567082716"><ele>71.0</ele><time>2026-05-03T08:20:42Z</time></trkpt><trkpt lat="45.317900882246164" lon="10.680445490911012"><ele>71.0</ele><time>2026-05-03T08:20:43Z</time></trkpt><trkpt lat="45.317968622036474" lon="10.680507804628041"><ele>71.0</ele><time>2026-05-03T08:20:44Z</time></trkpt><trkpt lat="45.31803810410978" lon="10.680558868908044"><ele>71.0</ele><time>2026-05-03T08:20:45Z</time></trkpt><trkpt lat="45.31809653888105" lon="10.680611705975993"><ele>71.0</ele><time>2026-05-03T08:20:46Z</time></trkpt><trkpt lat="45.3181505663381" lon="10.680677428113894"><ele>71.0</ele><time>2026-05-03T08:20:47Z</time></trkpt><trkpt lat="45.31819747052345" lon="10.680737355947299"><ele>71.0</ele><time>2026-05-03T08:20:48Z</time></trkpt><trkpt lat="45.31825275975689" lon="10.680796532934428"><ele>71.0</ele><time>2026-05-03T08:20:49Z</time></trkpt><trkpt lat="45.318320659475795" lon="10.680871934876079"><ele>71.0</ele><time>2026-05-03T08:20:50Z</time></trkpt><trkpt lat="45.31838779406505" lon="10.680967126692043"><ele>71.0</ele><time>2026-05-03T08:20:51Z</time></trkpt><trkpt lat="45.31845440510181" lon="10.681059898063134"><ele>71.0</ele><time>2026-05-03T08:20:52Z</time></trkpt><trkpt lat="45.318515760152536" lon="10.68115010974127"><ele>71.0</ele><time>2026-05-03T08:20:53Z</time></trkpt><trkpt lat="45.3185747980199" lon="10.681227406184913"><ele>71.0</ele><time>2026-05-03T08:20:54Z</time></trkpt><trkpt lat="45.318631367761306" lon="10.681309771317409"><ele>71.0</ele><time>2026-05-03T08:20:55Z</time></trkpt><trkpt lat="45.318691042450475" lon="10.681402161253974"><ele>71.0</ele><time>2026-05-03T08:20:56Z</time></trkpt><trkpt lat="45.31874783839113" lon="10.681489425317892"><ele>70.5</ele><time>2026-05-03T08:20:57Z</time></trkpt><trkpt lat="45.318804066817826" lon="10.681568294461512"><ele>70.0</ele><time>2026-05-03T08:20:58Z</time></trkpt><trkpt lat="45.3188826991778" lon="10.681673782274045"><ele>69.5</ele><time>2026-05-03T08:21:00Z</time></trkpt><trkpt lat="45.318953708872954" lon="10.681750640907394"><ele>69.0</ele><time>2026-05-03T08:21:02Z</time></trkpt><trkpt lat="45.31903714443212" lon="10.681829126290069"><ele>68.5</ele><time>2026-05-03T08:21:04Z</time></trkpt><trkpt lat="45.319103577422865" lon="10.681848342063251"><ele>68.0</ele><time>2026-05-03T08:21:06Z</time></trkpt><trkpt lat="45.31918125860444" lon="10.681803680715984"><ele>69.0</ele><time>2026-05-03T08:21:09Z</time></trkpt><trkpt lat="45.31924137074971" lon="10.681753003119994"><ele>70.0</ele><time>2026-05-03T08:21:11Z</time></trkpt><trkpt lat="45.319277551076944" lon="10.681598811284024"><ele>71.0</ele><time>2026-05-03T08:21:13Z</time></trkpt><trkpt lat="45.31930540429208" lon="10.68146988832733"><ele>72.0</ele><time>2026-05-03T08:21:15Z</time></trkpt><trkpt lat="45.31932284925812" lon="10.681359998699433"><ele>73.0</ele><time>2026-05-03T08:21:17Z</time></trkpt><trkpt lat="45.319341265603946" lon="10.68126073145756"><ele>74.0</ele><time>2026-05-03T08:21:19Z</time></trkpt><trkpt lat="45.31936316019341" lon="10.681114757515633"><ele>74.16666666666667</ele><time>2026-05-03T08:21:21Z</time></trkpt><trkpt lat="45.31938342174564" lon="10.68101789964083"><ele>74.33333333333334</ele><time>2026-05-03T08:21:23Z</time></trkpt><trkpt lat="45.319424920516354" lon="10.6809040292099"><ele>74.5</ele><time>2026-05-03T08:21:25Z</time></trkpt><trkpt lat="45.31946728763485" lon="10.680801424318133"><ele>74.66666666666667</ele><time>2026-05-03T08:21:27Z</time></trkpt><trkpt lat="45.31952186771296" lon="10.680709319616534"><ele>74.83333333333333</ele><time>2026-05-03T08:21:29Z</time></trkpt><trkpt lat="45.31957563200869" lon="10.680611698241812"><ele>75.0</ele><time>2026-05-03T08:21:31Z</time></trkpt><trkpt lat="45.31962035764448" lon="10.680515937453267"><ele>75.0</ele><time>2026-05-03T08:21:33Z</time></trkpt><trkpt lat="45.31965226695313" lon="10.680433193047476"><ele>75.0</ele><time>2026-05-03T08:21:35Z</time></trkpt><trkpt lat="45.319700832800905" lon="10.680328694498067"><ele>75.0</ele><time>2026-05-03T08:21:37Z</time></trkpt><trkpt lat="45.319740125296384" lon="10.680194351111556"><ele>75.0</ele><time>2026-05-03T08:21:39Z</time></trkpt><trkpt lat="45.31978406875701" lon="10.680071693898986"><ele>75.0</ele><time>2026-05-03T08:21:41Z</time></trkpt><trkpt lat="45.31980934255054" lon="10.679985181885485"><ele>75.0</ele><time>2026-05-03T08:21:43Z</time></trkpt><trkpt lat="45.31983842667423" lon="10.679850459508579"><ele>77.0</ele><time>2026-05-03T08:21:46Z</time></trkpt><trkpt lat="45.3198664087458" lon="10.679729136993954"><ele>79.0</ele><time>2026-05-03T08:21:48Z</time></trkpt><trkpt lat="45.3198837592108" lon="10.67961874965814"><ele>81.0</ele><time>2026-05-03T08:21:50Z</time></trkpt><trkpt lat="45.319893637877975" lon="10.67950608213943"><ele>83.0</ele><time>2026-05-03T08:21:52Z</time></trkpt><trkpt lat="45.31990376144015" lon="10.679381936995457"><ele>85.0</ele><time>2026-05-03T08:21:54Z</time></trkpt><trkpt lat="45.31992216890882" lon="10.679286988446341"><ele>87.0</ele><time>2026-05-03T08:21:56Z</time></trkpt><trkpt lat="45.31993911815734" lon="10.679179371802823"><ele>87.0</ele><time>2026-05-03T08:22:05Z</time></trkpt><trkpt lat="45.32001076287419" lon="10.679165849784114"><ele>87.0</ele><time>2026-05-03T08:23:18Z</time></trkpt><trkpt lat="45.320074979586444" lon="10.679254654005602"><ele>87.0</ele><time>2026-05-03T08:23:22Z</time></trkpt><trkpt lat="45.32010026353713" lon="10.67934022545927"><ele>87.0</ele><time>2026-05-03T08:23:25Z</time></trkpt><trkpt lat="45.320078990585216" lon="10.679474116722002"><ele>87.0</ele><time>2026-05-03T08:25:43Z</time></trkpt><trkpt lat="45.320105555911674" lon="10.679572132389156"><ele>87.0</ele><time>2026-05-03T08:25:57Z</time></trkpt><trkpt lat="45.32009690798855" lon="10.679470999431295"><ele>87.0</ele><time>2026-05-03T08:29:49Z</time></trkpt><trkpt lat="45.320111677700034" lon="10.679627289191647"><ele>87.0</ele><time>2026-05-03T08:30:27Z</time></trkpt><trkpt lat="45.32016311102148" lon="10.679744491488897"><ele>87.0</ele><time>2026-05-03T08:30:28Z</time></trkpt><trkpt lat="45.32018255805058" lon="10.679829932314393"><ele>87.0</ele><time>2026-05-03T08:30:31Z</time></trkpt><trkpt lat="45.32023906014847" lon="10.679905396842342"><ele>87.0</ele><time>2026-05-03T08:30:35Z</time></trkpt><trkpt lat="45.32028839204245" lon="10.679963895465532"><ele>87.0</ele><time>2026-05-03T08:30:38Z</time></trkpt><trkpt lat="45.32029064540289" lon="10.68005418137852"><ele>87.0</ele><time>2026-05-03T08:31:52Z</time></trkpt><trkpt lat="45.32025871625862" lon="10.6801671335852"><ele>87.0</ele><time>2026-05-03T08:32:25Z</time></trkpt><trkpt lat="45.32023084961571" lon="10.680263107563707"><ele>87.0</ele><time>2026-05-03T08:32:28Z</time></trkpt><trkpt lat="45.32020475870222" lon="10.680344935433693"><ele>87.0</ele><time>2026-05-03T08:32:32Z</time></trkpt><trkpt lat="45.32016766402293" lon="10.680441074185742"><ele>87.0</ele><time>2026-05-03T08:32:35Z</time></trkpt><trkpt lat="45.32013210379151" lon="10.680560392308477"><ele>87.0</ele><time>2026-05-03T08:32:38Z</time></trkpt><trkpt lat="45.320072480813955" lon="10.680643363809228"><ele>87.0</ele><time>2026-05-03T08:32:42Z</time></trkpt><trkpt lat="45.32004213419189" lon="10.680727368431988"><ele>87.0</ele><time>2026-05-03T08:32:46Z</time></trkpt><trkpt lat="45.320012507661744" lon="10.680816005759134"><ele>87.0</ele><time>2026-05-03T08:32:49Z</time></trkpt><trkpt lat="45.32000710024955" lon="10.680916771519552"><ele>87.0</ele><time>2026-05-03T08:32:51Z</time></trkpt><trkpt lat="45.32000082902999" lon="10.68102187501141"><ele>87.0</ele><time>2026-05-03T08:32:53Z</time></trkpt><trkpt lat="45.3200251292234" lon="10.681109304233948"><ele>87.0</ele><time>2026-05-03T08:33:24Z</time></trkpt><trkpt lat="45.3200077396037" lon="10.681198143818044"><ele>87.0</ele><time>2026-05-03T08:33:33Z</time></trkpt><trkpt lat="45.32000301016513" lon="10.681298912694267"><ele>86.66666666666667</ele><time>2026-05-03T08:33:36Z</time></trkpt><trkpt lat="45.32005980907965" lon="10.681366521191102"><ele>86.33333333333333</ele><time>2026-05-03T08:33:40Z</time></trkpt><trkpt lat="45.32005905036113" lon="10.681471169429924"><ele>86.0</ele><time>2026-05-03T08:33:47Z</time></trkpt><trkpt lat="45.32003308878378" lon="10.681563193076018"><ele>85.66666666666666</ele><time>2026-05-03T08:33:49Z</time></trkpt><trkpt lat="45.32000802833209" lon="10.681673676189284"><ele>85.33333333333333</ele><time>2026-05-03T08:33:51Z</time></trkpt><trkpt lat="45.31996688680296" lon="10.681782157199512"><ele>85.0</ele><time>2026-05-03T08:33:54Z</time></trkpt><trkpt lat="45.32004587274938" lon="10.681781204387617"><ele>85.0</ele><time>2026-05-03T08:37:29Z</time></trkpt><trkpt lat="45.320126800959635" lon="10.681782689904281"><ele>85.0</ele><time>2026-05-03T08:37:40Z</time></trkpt><trkpt lat="45.32008546038945" lon="10.681706447384443"><ele>85.0</ele><time>2026-05-03T08:38:06Z</time></trkpt><trkpt lat="45.319975091034586" lon="10.681740022484698"><ele>85.0</ele><time>2026-05-03T08:38:25Z</time></trkpt><trkpt lat="45.31991870001213" lon="10.681788315178924"><ele>85.0</ele><time>2026-05-03T08:38:30Z</time></trkpt><trkpt lat="45.319962914742234" lon="10.681710824541879"><ele>85.0</ele><time>2026-05-03T08:42:05.999Z</time></trkpt><trkpt lat="45.320068421491754" lon="10.681684124290324"><ele>85.0</ele><time>2026-05-03T08:42:08.999Z</time></trkpt><trkpt lat="45.32005717091695" lon="10.681782308201685"><ele>85.0</ele><time>2026-05-03T08:42:12.999Z</time></trkpt><trkpt lat="45.319987038502724" lon="10.681842882854681"><ele>85.0</ele><time>2026-05-03T08:42:25Z</time></trkpt><trkpt lat="45.319907168116146" lon="10.681776265386803"><ele>85.0</ele><time>2026-05-03T08:48:40Z</time></trkpt><trkpt lat="45.31984329162077" lon="10.68180796430355"><ele>85.0</ele><time>2026-05-03T08:48:48Z</time></trkpt><trkpt lat="45.31991769696989" lon="10.681823188264481"><ele>85.0</ele><time>2026-05-03T08:49:08.001Z</time></trkpt><trkpt lat="45.319857406458055" lon="10.681783641591695"><ele>85.0</ele><time>2026-05-03T08:50:07.999Z</time></trkpt><trkpt lat="45.31975424491527" lon="10.6817394933189"><ele>85.0</ele><time>2026-05-03T08:50:11.999Z</time></trkpt><trkpt lat="45.31965063183675" lon="10.68174872797324"><ele>85.0</ele><time>2026-05-03T08:50:14.999Z</time></trkpt><trkpt lat="45.31965993755338" lon="10.681846135542386"><ele>85.0</ele><time>2026-05-03T08:50:20Z</time></trkpt><trkpt lat="45.31973598196595" lon="10.681858279405025"><ele>85.0</ele><time>2026-05-03T08:50:24Z</time></trkpt><trkpt lat="45.31982890136906" lon="10.681904176072107"><ele>84.6</ele><time>2026-05-03T08:50:26Z</time></trkpt><trkpt lat="45.319938349261655" lon="10.681957345526081"><ele>84.2</ele><time>2026-05-03T08:50:28Z</time></trkpt><trkpt lat="45.320048545024925" lon="10.681999615281295"><ele>83.80000000000001</ele><time>2026-05-03T08:50:30Z</time></trkpt><trkpt lat="45.32012373911542" lon="10.681975578502485"><ele>83.4</ele><time>2026-05-03T08:50:32Z</time></trkpt><trkpt lat="45.320194386573576" lon="10.681976580105045"><ele>83.0</ele><time>2026-05-03T08:50:34Z</time></trkpt><trkpt lat="45.32028821980336" lon="10.681963109931933"><ele>83.0</ele><time>2026-05-03T08:50:36Z</time></trkpt><trkpt lat="45.32034712465886" lon="10.68199841670645"><ele>83.0</ele><time>2026-05-03T08:50:38Z</time></trkpt><trkpt lat="45.32040118216797" lon="10.682123393474306"><ele>83.0</ele><time>2026-05-03T08:50:40Z</time></trkpt><trkpt lat="45.320472264135454" lon="10.68226245856686"><ele>83.0</ele><time>2026-05-03T08:50:42Z</time></trkpt><trkpt lat="45.32050667237864" lon="10.682351311271418"><ele>83.0</ele><time>2026-05-03T08:50:43Z</time></trkpt><trkpt lat="45.32056185025884" lon="10.682476272614718"><ele>84.33333333333334</ele><time>2026-05-03T08:50:45Z</time></trkpt><trkpt lat="45.32062084143313" lon="10.68256818522194"><ele>85.66666666666667</ele><time>2026-05-03T08:50:47Z</time></trkpt><trkpt lat="45.32066942650808" lon="10.682731110817834"><ele>87.0</ele><time>2026-05-03T08:50:49Z</time></trkpt><trkpt lat="45.32070965207955" lon="10.68284675772291"><ele>88.33333333333333</ele><time>2026-05-03T08:50:51Z</time></trkpt><trkpt lat="45.32071166541443" lon="10.682936455555035"><ele>89.66666666666666</ele><time>2026-05-03T08:50:57Z</time></trkpt><trkpt lat="45.32074731802218" lon="10.68303158974206"><ele>91.0</ele><time>2026-05-03T08:51:01Z</time></trkpt><trkpt lat="45.32078891305116" lon="10.683102699982852"><ele>91.0</ele><time>2026-05-03T08:51:04Z</time></trkpt><trkpt lat="45.32079104234405" lon="10.683215083089557"><ele>91.0</ele><time>2026-05-03T08:51:08Z</time></trkpt><trkpt lat="45.32072977460451" lon="10.68326863136735"><ele>91.0</ele><time>2026-05-03T08:51:11Z</time></trkpt><trkpt lat="45.32066580893003" lon="10.683302814724481"><ele>91.0</ele><time>2026-05-03T08:51:14Z</time></trkpt><trkpt lat="45.320604187161486" lon="10.68334720030262"><ele>91.0</ele><time>2026-05-03T08:51:16Z</time></trkpt><trkpt lat="45.320524379243864" lon="10.683384902933604"><ele>91.0</ele><time>2026-05-03T08:51:18.001Z</time></trkpt><trkpt lat="45.32045225949681" lon="10.683370779100416"><ele>91.0</ele><time>2026-05-03T08:51:20.001Z</time></trkpt><trkpt lat="45.32042132322134" lon="10.683450907073956"><ele>89.0</ele><time>2026-05-03T08:51:28.001Z</time></trkpt><trkpt lat="45.32037336076332" lon="10.683549103655055"><ele>87.0</ele><time>2026-05-03T08:51:31.001Z</time></trkpt><trkpt lat="45.32030712170043" lon="10.68362241662134"><ele>85.0</ele><time>2026-05-03T08:51:33.001Z</time></trkpt><trkpt lat="45.320233590041724" lon="10.68368632181916"><ele>83.0</ele><time>2026-05-03T08:51:34.001Z</time></trkpt><trkpt lat="45.32015929859292" lon="10.68373930781415"><ele>81.0</ele><time>2026-05-03T08:51:35.001Z</time></trkpt><trkpt lat="45.320053204919205" lon="10.683812635777823"><ele>80.39999999999999</ele><time>2026-05-03T08:51:37.001Z</time></trkpt><trkpt lat="45.31997075215751" lon="10.68389057279116"><ele>79.8</ele><time>2026-05-03T08:51:39.001Z</time></trkpt><trkpt lat="45.319950685995025" lon="10.683997400967872"><ele>79.19999999999999</ele><time>2026-05-03T08:51:41.001Z</time></trkpt><trkpt lat="45.3200251782034" lon="10.68411720392155"><ele>78.6</ele><time>2026-05-03T08:51:43.001Z</time></trkpt><trkpt lat="45.32009853152104" lon="10.684260758441564"><ele>78.0</ele><time>2026-05-03T08:51:45.001Z</time></trkpt><trkpt lat="45.320137777036045" lon="10.684354452334611"><ele>77.42857142857143</ele><time>2026-05-03T08:51:46.001Z</time></trkpt><trkpt lat="45.320173810745125" lon="10.684433557566882"><ele>76.85714285714285</ele><time>2026-05-03T08:51:47.001Z</time></trkpt><trkpt lat="45.320205093842354" lon="10.68452235498911"><ele>76.28571428571428</ele><time>2026-05-03T08:51:48.001Z</time></trkpt><trkpt lat="45.32024689504822" lon="10.684609850716152"><ele>75.71428571428572</ele><time>2026-05-03T08:51:49.001Z</time></trkpt><trkpt lat="45.32027935427582" lon="10.68472199443156"><ele>75.14285714285714</ele><time>2026-05-03T08:51:50.001Z</time></trkpt><trkpt lat="45.3203254556618" lon="10.684824470097537"><ele>74.57142857142857</ele><time>2026-05-03T08:51:51.001Z</time></trkpt><trkpt lat="45.3203616577145" lon="10.684904905298694"><ele>74.0</ele><time>2026-05-03T08:51:52.001Z</time></trkpt><trkpt lat="45.32039714236952" lon="10.684980271235368"><ele>74.0</ele><time>2026-05-03T08:51:53.001Z</time></trkpt><trkpt lat="45.32045671424279" lon="10.685089137251245"><ele>74.0</ele><time>2026-05-03T08:51:55.001Z</time></trkpt><trkpt lat="45.32046763492765" lon="10.685197773211065"><ele>74.0</ele><time>2026-05-03T08:51:58.001Z</time></trkpt><trkpt lat="45.32049184211755" lon="10.68528214420929"><ele>74.0</ele><time>2026-05-03T08:52:00.001Z</time></trkpt><trkpt lat="45.32053726831461" lon="10.685405929687224"><ele>74.0</ele><time>2026-05-03T08:52:02.001Z</time></trkpt><trkpt lat="45.32058697071429" lon="10.68548489848747"><ele>74.0</ele><time>2026-05-03T08:52:04.001Z</time></trkpt><trkpt lat="45.32062388535317" lon="10.6855625548623"><ele>75.0</ele><time>2026-05-03T08:52:06.001Z</time></trkpt><trkpt lat="45.32065763058967" lon="10.685639782557228"><ele>76.0</ele><time>2026-05-03T08:52:14.999Z</time></trkpt><trkpt lat="45.32072742600897" lon="10.685707090304101"><ele>77.0</ele><time>2026-05-03T08:52:22.999Z</time></trkpt><trkpt lat="45.32077350215433" lon="10.685799656124075"><ele>78.0</ele><time>2026-05-03T08:52:24.999Z</time></trkpt><trkpt lat="45.32084449899303" lon="10.68591587107264"><ele>79.0</ele><time>2026-05-03T08:52:27.999Z</time></trkpt><trkpt lat="45.32089781634035" lon="10.685992429997839"><ele>80.0</ele><time>2026-05-03T08:52:29.999Z</time></trkpt><trkpt lat="45.32095116949617" lon="10.686073030845149"><ele>79.28571428571428</ele><time>2026-05-03T08:52:32.999Z</time></trkpt><trkpt lat="45.3210032574656" lon="10.686162756170562"><ele>78.57142857142857</ele><time>2026-05-03T08:52:35.999Z</time></trkpt><trkpt lat="45.321051374233285" lon="10.68627255519357"><ele>77.85714285714286</ele><time>2026-05-03T08:52:39Z</time></trkpt><trkpt lat="45.32110917645421" lon="10.686335980582887"><ele>77.14285714285714</ele><time>2026-05-03T08:52:42Z</time></trkpt><trkpt lat="45.32115707020217" lon="10.68639453590926"><ele>76.42857142857143</ele><time>2026-05-03T08:52:45Z</time></trkpt><trkpt lat="45.32119816794498" lon="10.686474664400958"><ele>75.71428571428571</ele><time>2026-05-03T08:53:09Z</time></trkpt><trkpt lat="45.321234071391295" lon="10.686549082242887"><ele>75.0</ele><time>2026-05-03T08:54:31Z</time></trkpt><trkpt lat="45.3213172368533" lon="10.686578957175506"><ele>75.0</ele><time>2026-05-03T08:54:52Z</time></trkpt><trkpt lat="45.32139130032621" lon="10.68663417614109"><ele>75.0</ele><time>2026-05-03T08:54:58Z</time></trkpt><trkpt lat="45.321490301021356" lon="10.686619934798465"><ele>75.0</ele><time>2026-05-03T08:55:04Z</time></trkpt><trkpt lat="45.32173530524548" lon="10.686607451272193"><ele>75.0</ele><time>2026-05-03T08:55:14.001Z</time></trkpt><trkpt lat="45.3217714303883" lon="10.686514683282505"><ele>76.83333333333333</ele><time>2026-05-03T08:55:17.001Z</time></trkpt><trkpt lat="45.32183865427979" lon="10.686506483775233"><ele>78.66666666666667</ele><time>2026-05-03T08:55:29.001Z</time></trkpt><trkpt lat="45.32193070052159" lon="10.686465266227037"><ele>80.5</ele><time>2026-05-03T09:02:08.001Z</time></trkpt><trkpt lat="45.32200620556385" lon="10.686462615412204"><ele>82.33333333333334</ele><time>2026-05-03T09:02:15.002Z</time></trkpt><trkpt lat="45.32211152905549" lon="10.686465364321508"><ele>84.16666666666667</ele><time>2026-05-03T09:02:58Z</time></trkpt><trkpt lat="45.32213159836982" lon="10.686556923675704"><ele>86.0</ele><time>2026-05-03T09:03:06Z</time></trkpt><trkpt lat="45.32219535942222" lon="10.686605670017716"><ele>89.25</ele><time>2026-05-03T09:03:20.001Z</time></trkpt><trkpt lat="45.32226104626487" lon="10.68665197870561"><ele>92.5</ele><time>2026-05-03T09:03:28.001Z</time></trkpt><trkpt lat="45.32242650561543" lon="10.686771035974822"><ele>95.75</ele><time>2026-05-03T09:04:09.001Z</time></trkpt><trkpt lat="45.32247671759879" lon="10.686833001155104"><ele>99.0</ele><time>2026-05-03T09:04:16.001Z</time></trkpt><trkpt lat="45.322627202041254" lon="10.68684754913071"><ele>99.0</ele><time>2026-05-03T09:05:16Z</time></trkpt><trkpt lat="45.322683751518355" lon="10.686897846169321"><ele>99.0</ele><time>2026-05-03T09:05:24Z</time></trkpt><trkpt lat="45.322669191973525" lon="10.686999107297321"><ele>99.0</ele><time>2026-05-03T09:05:30.001Z</time></trkpt><trkpt lat="45.32265750193394" lon="10.687105699518685"><ele>99.0</ele><time>2026-05-03T09:05:34.001Z</time></trkpt><trkpt lat="45.32262647035922" lon="10.687200315772333"><ele>99.0</ele><time>2026-05-03T09:05:40.001Z</time></trkpt><trkpt lat="45.322673614614374" lon="10.687285563557648"><ele>99.0</ele><time>2026-05-03T09:05:45.001Z</time></trkpt><trkpt lat="45.32281039667244" lon="10.687363015068685"><ele>95.80000000000001</ele><time>2026-05-03T09:06:02.001Z</time></trkpt><trkpt lat="45.32287574197226" lon="10.687353966532722"><ele>92.60000000000001</ele><time>2026-05-03T09:06:07.001Z</time></trkpt><trkpt lat="45.323063234786986" lon="10.68735865750835"><ele>89.4</ele><time>2026-05-03T09:06:16.001Z</time></trkpt><trkpt lat="45.32312794949258" lon="10.687331722753367"><ele>86.2</ele><time>2026-05-03T09:06:18.001Z</time></trkpt><trkpt lat="45.32324016672211" lon="10.687325250308023"><ele>83.0</ele><time>2026-05-03T09:06:24.001Z</time></trkpt><trkpt lat="45.32333560015606" lon="10.687311369982314"><ele>83.0</ele><time>2026-05-03T09:06:27.001Z</time></trkpt><trkpt lat="45.32340263487581" lon="10.68729464069763"><ele>83.0</ele><time>2026-05-03T09:06:29.001Z</time></trkpt><trkpt lat="45.32348598749583" lon="10.687310040406434"><ele>83.0</ele><time>2026-05-03T09:06:31.001Z</time></trkpt><trkpt lat="45.3236381086035" lon="10.687311233518928"><ele>83.0</ele><time>2026-05-03T09:06:52.002Z</time></trkpt><trkpt lat="45.32370547502211" lon="10.68735716100939"><ele>83.0</ele><time>2026-05-03T09:06:59Z</time></trkpt><trkpt lat="45.32383380567354" lon="10.68736816528087"><ele>83.0</ele><time>2026-05-03T09:07:09Z</time></trkpt><trkpt lat="45.32388687248469" lon="10.687416899761432"><ele>83.0</ele><time>2026-05-03T09:07:39.001Z</time></trkpt><trkpt lat="45.323962956017795" lon="10.687455203337219"><ele>83.0</ele><time>2026-05-03T09:07:44.001Z</time></trkpt><trkpt lat="45.324008950291024" lon="10.687517080458424"><ele>83.0</ele><time>2026-05-03T09:08:08.001Z</time></trkpt><trkpt lat="45.32410620856282" lon="10.68754567212357"><ele>83.0</ele><time>2026-05-03T09:10:36.001Z</time></trkpt><trkpt lat="45.32414181901618" lon="10.687447447583756"><ele>83.0</ele><time>2026-05-03T09:10:38.001Z</time></trkpt><trkpt lat="45.324306324428974" lon="10.687382211452269"><ele>82.60000000000001</ele><time>2026-05-03T09:12:58.001Z</time></trkpt><trkpt lat="45.3243711234119" lon="10.687481654720353"><ele>82.2</ele><time>2026-05-03T09:13:00.001Z</time></trkpt><trkpt lat="45.324441885908435" lon="10.687574043441623"><ele>81.8</ele><time>2026-05-03T09:13:01.001Z</time></trkpt><trkpt lat="45.32453038036341" lon="10.687694321210943"><ele>81.4</ele><time>2026-05-03T09:13:02.001Z</time></trkpt><trkpt lat="45.32460006120373" lon="10.687758546501597"><ele>81.0</ele><time>2026-05-03T09:13:03.001Z</time></trkpt><trkpt lat="45.32466362424331" lon="10.68779365719902"><ele>79.83333333333333</ele><time>2026-05-03T09:13:04.001Z</time></trkpt><trkpt lat="45.324765206252806" lon="10.68779922469981"><ele>78.66666666666667</ele><time>2026-05-03T09:13:06.001Z</time></trkpt><trkpt lat="45.324841133770015" lon="10.687799597583403"><ele>77.5</ele><time>2026-05-03T09:13:07.001Z</time></trkpt><trkpt lat="45.32490451963185" lon="10.68781347255869"><ele>76.33333333333334</ele><time>2026-05-03T09:13:08.001Z</time></trkpt><trkpt lat="45.32497039121384" lon="10.68782975719669"><ele>75.16666666666667</ele><time>2026-05-03T09:13:09.001Z</time></trkpt><trkpt lat="45.325036266704956" lon="10.687836871654827"><ele>74.0</ele><time>2026-05-03T09:13:10.001Z</time></trkpt><trkpt lat="45.3251515116817" lon="10.68784889822441"><ele>74.0</ele><time>2026-05-03T09:13:12Z</time></trkpt><trkpt lat="45.325214792981086" lon="10.687851119803888"><ele>74.0</ele><time>2026-05-03T09:13:13Z</time></trkpt><trkpt lat="45.32532903637989" lon="10.687850229102617"><ele>74.0</ele><time>2026-05-03T09:13:15Z</time></trkpt><trkpt lat="45.32544391436487" lon="10.687866523015447"><ele>74.0</ele><time>2026-05-03T09:13:17Z</time></trkpt><trkpt lat="45.325510864758755" lon="10.687882510795149"><ele>74.0</ele><time>2026-05-03T09:13:18Z</time></trkpt><trkpt lat="45.32557481599955" lon="10.687895784162968"><ele>74.0</ele><time>2026-05-03T09:13:19Z</time></trkpt><trkpt lat="45.325641247531294" lon="10.68789708426391"><ele>74.5</ele><time>2026-05-03T09:13:20Z</time></trkpt><trkpt lat="45.32570851890062" lon="10.687900867852289"><ele>75.0</ele><time>2026-05-03T09:13:21Z</time></trkpt><trkpt lat="45.325779263960165" lon="10.687907258634153"><ele>75.5</ele><time>2026-05-03T09:13:22Z</time></trkpt><trkpt lat="45.3258755588856" lon="10.687891492165791"><ele>76.0</ele><time>2026-05-03T09:13:24Z</time></trkpt><trkpt lat="45.325966932202306" lon="10.68787913732448"><ele>76.5</ele><time>2026-05-03T09:13:33Z</time></trkpt><trkpt lat="45.32603153460172" lon="10.687897928363487"><ele>77.0</ele><time>2026-05-03T09:13:44Z</time></trkpt><trkpt lat="45.32608881521607" lon="10.687952159508209"><ele>77.0</ele><time>2026-05-03T09:14:18.001Z</time></trkpt><trkpt lat="45.326161232837805" lon="10.687974980988933"><ele>77.0</ele><time>2026-05-03T09:14:30.001Z</time></trkpt><trkpt lat="45.32633094491935" lon="10.688070340844012"><ele>77.0</ele><time>2026-05-03T09:21:24.001Z</time></trkpt><trkpt lat="45.32640275770881" lon="10.688087297807687"><ele>77.0</ele><time>2026-05-03T09:21:25.001Z</time></trkpt><trkpt lat="45.32646504823093" lon="10.688111718610164"><ele>77.0</ele><time>2026-05-03T09:21:26.001Z</time></trkpt><trkpt lat="45.32656820679003" lon="10.688168133544256"><ele>78.0</ele><time>2026-05-03T09:21:28.001Z</time></trkpt><trkpt lat="45.32665477487906" lon="10.688200763315916"><ele>79.0</ele><time>2026-05-03T09:21:30.001Z</time></trkpt><trkpt lat="45.326823185169296" lon="10.688250930360566"><ele>80.0</ele><time>2026-05-03T09:21:34.001Z</time></trkpt><trkpt lat="45.32692469378748" lon="10.688261713020095"><ele>81.0</ele><time>2026-05-03T09:21:36Z</time></trkpt><trkpt lat="45.327010568275874" lon="10.688275602016436"><ele>81.0</ele><time>2026-05-03T09:21:38Z</time></trkpt><trkpt lat="45.32698161934166" lon="10.688187146931554"><ele>81.0</ele><time>2026-05-03T09:21:45Z</time></trkpt><trkpt lat="45.32686014603602" lon="10.688126640949404"><ele>81.0</ele><time>2026-05-03T09:21:47Z</time></trkpt><trkpt lat="45.326786281065544" lon="10.688084587299928"><ele>81.0</ele><time>2026-05-03T09:21:48Z</time></trkpt><trkpt lat="45.32670794183826" lon="10.688034552521517"><ele>81.0</ele><time>2026-05-03T09:21:49Z</time></trkpt><trkpt lat="45.326644765314725" lon="10.687997487403486"><ele>81.0</ele><time>2026-05-03T09:21:50Z</time></trkpt><trkpt lat="45.326553296833374" lon="10.687954589109754"><ele>81.0</ele><time>2026-05-03T09:21:52Z</time></trkpt><trkpt lat="45.32648829238841" lon="10.687934784156027"><ele>81.0</ele><time>2026-05-03T09:21:53Z</time></trkpt><trkpt lat="45.3264026331715" lon="10.687908841399965"><ele>81.0</ele><time>2026-05-03T09:21:54Z</time></trkpt><trkpt lat="45.32633176874126" lon="10.687854427270308"><ele>81.0</ele><time>2026-05-03T09:21:55Z</time></trkpt><trkpt lat="45.326261893542025" lon="10.687840751326387"><ele>81.0</ele><time>2026-05-03T09:21:56Z</time></trkpt><trkpt lat="45.326198373842814" lon="10.687791748132321"><ele>81.0</ele><time>2026-05-03T09:21:58Z</time></trkpt><trkpt lat="45.32613279668546" lon="10.687772694987721"><ele>81.0</ele><time>2026-05-03T09:22:00Z</time></trkpt><trkpt lat="45.32607608224966" lon="10.687721133473516"><ele>81.0</ele><time>2026-05-03T09:22:03Z</time></trkpt><trkpt lat="45.32610778583627" lon="10.687804049659553"><ele>81.0</ele><time>2026-05-03T09:29:17Z</time></trkpt><trkpt lat="45.326181134045505" lon="10.687837587467678"><ele>81.0</ele><time>2026-05-03T09:29:20Z</time></trkpt><trkpt lat="45.326309169502565" lon="10.687897718697036"><ele>81.0</ele><time>2026-05-03T09:29:58Z</time></trkpt><trkpt lat="45.326396591408425" lon="10.68792403691477"><ele>81.0</ele><time>2026-05-03T09:29:59Z</time></trkpt><trkpt lat="45.326482852792644" lon="10.687961362289292"><ele>81.0</ele><time>2026-05-03T09:30:00Z</time></trkpt><trkpt lat="45.32657981982581" lon="10.687998455291607"><ele>81.0</ele><time>2026-05-03T09:30:01Z</time></trkpt><trkpt lat="45.326684116805104" lon="10.68804710033613"><ele>81.0</ele><time>2026-05-03T09:30:02Z</time></trkpt><trkpt lat="45.32676959129315" lon="10.688101929221009"><ele>81.0</ele><time>2026-05-03T09:30:03Z</time></trkpt><trkpt lat="45.326862025384344" lon="10.688155408749413"><ele>81.0</ele><time>2026-05-03T09:30:04Z</time></trkpt><trkpt lat="45.32695129254681" lon="10.68821673448166"><ele>81.0</ele><time>2026-05-03T09:30:05Z</time></trkpt><trkpt lat="45.327038310150314" lon="10.688274391237897"><ele>81.0</ele><time>2026-05-03T09:30:06Z</time></trkpt><trkpt lat="45.32712085260451" lon="10.688325330978456"><ele>81.0</ele><time>2026-05-03T09:30:07Z</time></trkpt><trkpt lat="45.32719740420464" lon="10.688371713536737"><ele>81.0</ele><time>2026-05-03T09:30:08Z</time></trkpt><trkpt lat="45.327274211507024" lon="10.688426391852078"><ele>81.0</ele><time>2026-05-03T09:30:09Z</time></trkpt><trkpt lat="45.327347322905545" lon="10.688498254437073"><ele>81.0</ele><time>2026-05-03T09:30:10Z</time></trkpt><trkpt lat="45.3274170679009" lon="10.688570334920659"><ele>79.39999999999999</ele><time>2026-05-03T09:30:11Z</time></trkpt><trkpt lat="45.32749173510156" lon="10.68864362047509"><ele>77.8</ele><time>2026-05-03T09:30:12Z</time></trkpt><trkpt lat="45.3275736514238" lon="10.688712457663629"><ele>76.19999999999999</ele><time>2026-05-03T09:30:13Z</time></trkpt><trkpt lat="45.32767512654643" lon="10.688746361009382"><ele>74.6</ele><time>2026-05-03T09:30:14Z</time></trkpt><trkpt lat="45.32776287180182" lon="10.688790586542046"><ele>73.0</ele><time>2026-05-03T09:30:15Z</time></trkpt><trkpt lat="45.32784960911447" lon="10.688773020380758"><ele>73.0</ele><time>2026-05-03T09:30:16Z</time></trkpt><trkpt lat="45.32792494003734" lon="10.688797920746726"><ele>73.0</ele><time>2026-05-03T09:30:17Z</time></trkpt><trkpt lat="45.32800920493868" lon="10.688789612307417"><ele>73.0</ele><time>2026-05-03T09:30:18Z</time></trkpt><trkpt lat="45.328128871538546" lon="10.688872087013129"><ele>73.0</ele><time>2026-05-03T09:30:19Z</time></trkpt><trkpt lat="45.32825217768126" lon="10.688833414950095"><ele>73.0</ele><time>2026-05-03T09:30:20Z</time></trkpt><trkpt lat="45.32838421698782" lon="10.688776248658959"><ele>72.75</ele><time>2026-05-03T09:30:21Z</time></trkpt><trkpt lat="45.32851994316171" lon="10.68869523019282"><ele>72.5</ele><time>2026-05-03T09:30:22Z</time></trkpt><trkpt lat="45.32864034270557" lon="10.688610912259595"><ele>72.25</ele><time>2026-05-03T09:30:23Z</time></trkpt><trkpt lat="45.32874472281944" lon="10.688542756731767"><ele>72.0</ele><time>2026-05-03T09:30:24Z</time></trkpt><trkpt lat="45.32883993561071" lon="10.688480587050647"><ele>72.2</ele><time>2026-05-03T09:30:25Z</time></trkpt><trkpt lat="45.32893640689784" lon="10.688417595700178"><ele>72.4</ele><time>2026-05-03T09:30:26Z</time></trkpt><trkpt lat="45.32903437141609" lon="10.688353512944838"><ele>72.6</ele><time>2026-05-03T09:30:27Z</time></trkpt><trkpt lat="45.32913389175351" lon="10.688288292898857"><ele>72.8</ele><time>2026-05-03T09:30:28Z</time></trkpt><trkpt lat="45.32923370788114" lon="10.68822287883353"><ele>73.0</ele><time>2026-05-03T09:30:29Z</time></trkpt><trkpt lat="45.32933411728796" lon="10.688159735793386"><ele>73.0</ele><time>2026-05-03T09:30:30Z</time></trkpt><trkpt lat="45.32942252590497" lon="10.688103992269784"><ele>73.0</ele><time>2026-05-03T09:30:31Z</time></trkpt><trkpt lat="45.32949966918507" lon="10.688055351661854"><ele>73.0</ele><time>2026-05-03T09:30:32Z</time></trkpt><trkpt lat="45.32957050565589" lon="10.688010687741238"><ele>73.0</ele><time>2026-05-03T09:30:33Z</time></trkpt><trkpt lat="45.32963312068401" lon="10.687971207546545"><ele>73.0</ele><time>2026-05-03T09:30:34Z</time></trkpt><trkpt lat="45.32972118209582" lon="10.687941508173788"><ele>73.0</ele><time>2026-05-03T09:30:36Z</time></trkpt><trkpt lat="45.329792638710146" lon="10.688103056885318"><ele>73.25</ele><time>2026-05-03T09:30:38Z</time></trkpt><trkpt lat="45.32981578385834" lon="10.688234560062757"><ele>73.5</ele><time>2026-05-03T09:30:39Z</time></trkpt><trkpt lat="45.32985381327278" lon="10.688384707897423"><ele>73.75</ele><time>2026-05-03T09:30:40Z</time></trkpt><trkpt lat="45.329889995021794" lon="10.688553444638274"><ele>74.0</ele><time>2026-05-03T09:30:41Z</time></trkpt><trkpt lat="45.32993598984854" lon="10.688722457330254"><ele>74.0</ele><time>2026-05-03T09:30:42Z</time></trkpt><trkpt lat="45.329971838240404" lon="10.688877148425808"><ele>74.0</ele><time>2026-05-03T09:30:43Z</time></trkpt><trkpt lat="45.33001023562795" lon="10.689027703821353"><ele>74.0</ele><time>2026-05-03T09:30:44Z</time></trkpt><trkpt lat="45.33003610446654" lon="10.689176069416627"><ele>74.0</ele><time>2026-05-03T09:30:45Z</time></trkpt><trkpt lat="45.330076333350824" lon="10.689325775590628"><ele>74.0</ele><time>2026-05-03T09:30:46Z</time></trkpt><trkpt lat="45.33011516230141" lon="10.689464014597384"><ele>73.83333333333334</ele><time>2026-05-03T09:30:47Z</time></trkpt><trkpt lat="45.3301587426943" lon="10.689576136061083"><ele>73.66666666666667</ele><time>2026-05-03T09:30:48Z</time></trkpt><trkpt lat="45.330200435791554" lon="10.689682784112511"><ele>73.5</ele><time>2026-05-03T09:30:49Z</time></trkpt><trkpt lat="45.33024512992651" lon="10.689793298407846"><ele>73.33333333333333</ele><time>2026-05-03T09:30:50Z</time></trkpt><trkpt lat="45.3302892443628" lon="10.689883610725413"><ele>73.16666666666666</ele><time>2026-05-03T09:30:51Z</time></trkpt><trkpt lat="45.33033412665548" lon="10.689961631015798"><ele>73.0</ele><time>2026-05-03T09:30:52Z</time></trkpt><trkpt lat="45.33038232179914" lon="10.690029180116348"><ele>73.0</ele><time>2026-05-03T09:30:53Z</time></trkpt><trkpt lat="45.330431747228666" lon="10.690133489231545"><ele>73.0</ele><time>2026-05-03T09:30:55Z</time></trkpt><trkpt lat="45.330329283508675" lon="10.690318828066362"><ele>73.0</ele><time>2026-05-03T09:31:02Z</time></trkpt><trkpt lat="45.33025855873627" lon="10.690317908766417"><ele>73.0</ele><time>2026-05-03T09:31:07Z</time></trkpt><trkpt lat="45.33019823007642" lon="10.690282996372522"><ele>73.0</ele><time>2026-05-03T09:32:26Z</time></trkpt><trkpt lat="45.330196459243716" lon="10.690187774003"><ele>73.0</ele><time>2026-05-03T09:32:36Z</time></trkpt><trkpt lat="45.33022862452947" lon="10.690293962732246"><ele>73.0</ele><time>2026-05-03T09:34:39Z</time></trkpt><trkpt lat="45.330301529920796" lon="10.690300249438659"><ele>73.0</ele><time>2026-05-03T10:20:14Z</time></trkpt><trkpt lat="45.33037157437592" lon="10.690307257092515"><ele>73.0</ele><time>2026-05-03T10:20:17Z</time></trkpt><trkpt lat="45.33043315848112" lon="10.690239789380165"><ele>73.0</ele><time>2026-05-03T10:20:25.999Z</time></trkpt><trkpt lat="45.33051925205975" lon="10.690199234777797"><ele>73.0</ele><time>2026-05-03T10:20:27.999Z</time></trkpt><trkpt lat="45.33062988373405" lon="10.690264185129221"><ele>73.8</ele><time>2026-05-03T10:20:29.999Z</time></trkpt><trkpt lat="45.33068692994372" lon="10.690347538070046"><ele>74.6</ele><time>2026-05-03T10:20:30.999Z</time></trkpt><trkpt lat="45.33075068013321" lon="10.690439376111753"><ele>75.4</ele><time>2026-05-03T10:20:31.999Z</time></trkpt><trkpt lat="45.33082197462331" lon="10.690526394801688"><ele>76.2</ele><time>2026-05-03T10:20:32.999Z</time></trkpt><trkpt lat="45.33089814078826" lon="10.690619220541441"><ele>77.0</ele><time>2026-05-03T10:20:33.999Z</time></trkpt><trkpt lat="45.330977010469866" lon="10.690722523628912"><ele>77.0</ele><time>2026-05-03T10:20:34.999Z</time></trkpt><trkpt lat="45.33106288850101" lon="10.690853053176992"><ele>77.0</ele><time>2026-05-03T10:20:35.999Z</time></trkpt><trkpt lat="45.33115291037725" lon="10.690998393968806"><ele>77.0</ele><time>2026-05-03T10:20:36.999Z</time></trkpt><trkpt lat="45.331239231083856" lon="10.691157636891244"><ele>77.0</ele><time>2026-05-03T10:20:37.999Z</time></trkpt><trkpt lat="45.33130294569148" lon="10.691330634102256"><ele>77.0</ele><time>2026-05-03T10:20:38.999Z</time></trkpt><trkpt lat="45.33137600695577" lon="10.691506272522288"><ele>77.0</ele><time>2026-05-03T10:20:39.999Z</time></trkpt><trkpt lat="45.331444485300366" lon="10.691695188768646"><ele>77.0</ele><time>2026-05-03T10:20:40.999Z</time></trkpt><trkpt lat="45.33152115063046" lon="10.691887367271933"><ele>77.0</ele><time>2026-05-03T10:20:41.999Z</time></trkpt><trkpt lat="45.33158062761237" lon="10.692083137902438"><ele>78.25</ele><time>2026-05-03T10:20:42.999Z</time></trkpt><trkpt lat="45.33163514934372" lon="10.692256252140574"><ele>79.5</ele><time>2026-05-03T10:20:43.999Z</time></trkpt><trkpt lat="45.33169168393943" lon="10.692431278502333"><ele>80.75</ele><time>2026-05-03T10:20:44.999Z</time></trkpt><trkpt lat="45.33175561877702" lon="10.692611147374475"><ele>82.0</ele><time>2026-05-03T10:20:45.999Z</time></trkpt><trkpt lat="45.33182291022944" lon="10.692791451709851"><ele>82.25</ele><time>2026-05-03T10:20:46.999Z</time></trkpt><trkpt lat="45.33191591246426" lon="10.692954270258522"><ele>82.5</ele><time>2026-05-03T10:20:47.999Z</time></trkpt><trkpt lat="45.33202575511181" lon="10.693081148564204"><ele>82.75</ele><time>2026-05-03T10:20:48.999Z</time></trkpt><trkpt lat="45.33210274635919" lon="10.693201826992816"><ele>83.0</ele><time>2026-05-03T10:20:49.999Z</time></trkpt><trkpt lat="45.33216788070639" lon="10.693283911027823"><ele>84.33333333333334</ele><time>2026-05-03T10:20:50.999Z</time></trkpt><trkpt lat="45.33222969124316" lon="10.6933387741194"><ele>85.66666666666667</ele><time>2026-05-03T10:20:51.999Z</time></trkpt><trkpt lat="45.33227391964187" lon="10.693406555128622"><ele>87.0</ele><time>2026-05-03T10:20:52.999Z</time></trkpt><trkpt lat="45.33236911001298" lon="10.693515814926068"><ele>88.33333333333333</ele><time>2026-05-03T10:20:54.999Z</time></trkpt><trkpt lat="45.332436559473784" lon="10.693499406883726"><ele>89.66666666666666</ele><time>2026-05-03T10:20:55.999Z</time></trkpt><trkpt lat="45.3325066271501" lon="10.69347176800755"><ele>91.0</ele><time>2026-05-03T10:20:56.999Z</time></trkpt><trkpt lat="45.33257281201115" lon="10.693395586085142"><ele>91.0</ele><time>2026-05-03T10:20:58Z</time></trkpt><trkpt lat="45.33265242759582" lon="10.6933121243036"><ele>91.0</ele><time>2026-05-03T10:20:59Z</time></trkpt><trkpt lat="45.33272393145695" lon="10.69321000401211"><ele>91.0</ele><time>2026-05-03T10:21:00Z</time></trkpt><trkpt lat="45.33279754335791" lon="10.693109512977156"><ele>91.0</ele><time>2026-05-03T10:21:01Z</time></trkpt><trkpt lat="45.33287798310659" lon="10.692992489444661"><ele>91.0</ele><time>2026-05-03T10:21:02Z</time></trkpt><trkpt lat="45.33295819085497" lon="10.692850771330418"><ele>91.5</ele><time>2026-05-03T10:21:03Z</time></trkpt><trkpt lat="45.33304005880244" lon="10.692707441739007"><ele>92.0</ele><time>2026-05-03T10:21:04Z</time></trkpt><trkpt lat="45.33312460608483" lon="10.69255942146755"><ele>92.5</ele><time>2026-05-03T10:21:05Z</time></trkpt><trkpt lat="45.33320694034974" lon="10.692419949431379"><ele>93.0</ele><time>2026-05-03T10:21:06Z</time></trkpt><trkpt lat="45.3332809063939" lon="10.69230412210595"><ele>94.0</ele><time>2026-05-03T10:21:07Z</time></trkpt><trkpt lat="45.333355913286816" lon="10.69218941321066"><ele>95.0</ele><time>2026-05-03T10:21:08Z</time></trkpt><trkpt lat="45.33341042841885" lon="10.692043120331212"><ele>96.0</ele><time>2026-05-03T10:21:09Z</time></trkpt><trkpt lat="45.33348858235612" lon="10.691923570926738"><ele>97.0</ele><time>2026-05-03T10:21:10Z</time></trkpt><trkpt lat="45.33357650673468" lon="10.691818339711421"><ele>98.0</ele><time>2026-05-03T10:21:11Z</time></trkpt><trkpt lat="45.33364407057885" lon="10.69168130015798"><ele>99.0</ele><time>2026-05-03T10:21:12Z</time></trkpt><trkpt lat="45.33370632641376" lon="10.691534627350865"><ele>100.0</ele><time>2026-05-03T10:21:13Z</time></trkpt><trkpt lat="45.3337472670298" lon="10.69136691020797"><ele>101.0</ele><time>2026-05-03T10:21:14Z</time></trkpt><trkpt lat="45.333783050114455" lon="10.691219027080995"><ele>101.4</ele><time>2026-05-03T10:21:15Z</time></trkpt><trkpt lat="45.33381739382992" lon="10.69107123822852"><ele>101.8</ele><time>2026-05-03T10:21:16Z</time></trkpt><trkpt lat="45.33384721881116" lon="10.690939667576153"><ele>102.2</ele><time>2026-05-03T10:21:17Z</time></trkpt><trkpt lat="45.33386961011141" lon="10.690847568999413"><ele>102.60000000000001</ele><time>2026-05-03T10:21:18Z</time></trkpt><trkpt lat="45.3339035588091" lon="10.690678691820896"><ele>103.0</ele><time>2026-05-03T10:21:20Z</time></trkpt><trkpt lat="45.33391053990628" lon="10.690564572704654"><ele>102.33333333333334</ele><time>2026-05-03T10:21:21Z</time></trkpt><trkpt lat="45.33390609202705" lon="10.690444586016493"><ele>101.66666666666667</ele><time>2026-05-03T10:21:22Z</time></trkpt><trkpt lat="45.333891456630624" lon="10.690330136059337"><ele>101.0</ele><time>2026-05-03T10:21:23Z</time></trkpt><trkpt lat="45.33384824297541" lon="10.690224761876461"><ele>100.33333333333334</ele><time>2026-05-03T10:21:24Z</time></trkpt><trkpt lat="45.333820822582474" lon="10.69011073031597"><ele>99.66666666666667</ele><time>2026-05-03T10:21:25Z</time></trkpt><trkpt lat="45.33379410483516" lon="10.690007122152757"><ele>99.0</ele><time>2026-05-03T10:21:26Z</time></trkpt><trkpt lat="45.33376199603343" lon="10.689907096189476"><ele>100.33333333333333</ele><time>2026-05-03T10:21:27Z</time></trkpt><trkpt lat="45.33372949063706" lon="10.689800537207635"><ele>101.66666666666666</ele><time>2026-05-03T10:21:28Z</time></trkpt><trkpt lat="45.3336962528406" lon="10.689680702214922"><ele>103.0</ele><time>2026-05-03T10:21:29Z</time></trkpt><trkpt lat="45.33366502436567" lon="10.689576241273677"><ele>104.33333333333333</ele><time>2026-05-03T10:21:30Z</time></trkpt><trkpt lat="45.333635612895236" lon="10.689480473606263"><ele>105.66666666666666</ele><time>2026-05-03T10:21:31Z</time></trkpt><trkpt lat="45.33360306412382" lon="10.689371351119236"><ele>107.0</ele><time>2026-05-03T10:21:32Z</time></trkpt><trkpt lat="45.33357719459146" lon="10.68927445154037"><ele>107.66666666666666</ele><time>2026-05-03T10:21:33Z</time></trkpt><trkpt lat="45.33353781463285" lon="10.689128781213467"><ele>108.33333333333333</ele><time>2026-05-03T10:21:35Z</time></trkpt><trkpt lat="45.33350985699454" lon="10.689000943023116"><ele>109.0</ele><time>2026-05-03T10:21:37Z</time></trkpt><trkpt lat="45.33348038388091" lon="10.688889017244989"><ele>109.66666666666666</ele><time>2026-05-03T10:21:39Z</time></trkpt><trkpt lat="45.33344506418866" lon="10.688775031252158"><ele>110.33333333333333</ele><time>2026-05-03T10:21:41Z</time></trkpt><trkpt lat="45.33338471671472" lon="10.688718189326636"><ele>111.0</ele><time>2026-05-03T10:21:42Z</time></trkpt><trkpt lat="45.33329403345609" lon="10.688614199034685"><ele>111.6</ele><time>2026-05-03T10:21:44Z</time></trkpt><trkpt lat="45.333218032263304" lon="10.688518540688547"><ele>112.19999999999999</ele><time>2026-05-03T10:21:46Z</time></trkpt><trkpt lat="45.33310005969742" lon="10.68843632671017"><ele>112.80000000000001</ele><time>2026-05-03T10:21:48Z</time></trkpt><trkpt lat="45.333033452189476" lon="10.688383058620994"><ele>113.4</ele><time>2026-05-03T10:21:49Z</time></trkpt><trkpt lat="45.33297272141616" lon="10.688350238210052"><ele>114.0</ele><time>2026-05-03T10:21:50Z</time></trkpt><trkpt lat="45.33288158345546" lon="10.688290119465252"><ele>114.0</ele><time>2026-05-03T10:21:52Z</time></trkpt><trkpt lat="45.332837797473196" lon="10.688218454975676"><ele>113.99999999999999</ele><time>2026-05-03T10:21:54Z</time></trkpt><trkpt lat="45.33279502789441" lon="10.68811191980429"><ele>114.0</ele><time>2026-05-03T10:23:25.999Z</time></trkpt><trkpt lat="45.33272915727315" lon="10.688086251329223"><ele>114.0</ele><time>2026-05-03T10:23:28.999Z</time></trkpt><trkpt lat="45.33265802860073" lon="10.688088957067567"><ele>113.99999999999999</ele><time>2026-05-03T10:23:31.999Z</time></trkpt><trkpt lat="45.332581681429645" lon="10.688092156747777"><ele>114.0</ele><time>2026-05-03T10:23:45.999Z</time></trkpt><trkpt lat="45.33250750409718" lon="10.688127611753638"><ele>114.0</ele><time>2026-05-03T10:23:49.999Z</time></trkpt><trkpt lat="45.33244771592748" lon="10.688159143784535"><ele>114.0</ele><time>2026-05-03T10:23:54.999Z</time></trkpt><trkpt lat="45.332380078933966" lon="10.688222033251643"><ele>114.0</ele><time>2026-05-03T10:23:56.999Z</time></trkpt><trkpt lat="45.33236877328841" lon="10.68834560889502"><ele>114.0</ele><time>2026-05-03T10:24:00.999Z</time></trkpt><trkpt lat="45.33242751320658" lon="10.688443721270126"><ele>114.0</ele><time>2026-05-03T10:24:02.999Z</time></trkpt><trkpt lat="45.33242309762009" lon="10.688346660507449"><ele>114.0</ele><time>2026-05-03T10:24:30.999Z</time></trkpt><trkpt lat="45.33239307175155" lon="10.688204874321162"><ele>114.0</ele><time>2026-05-03T10:24:33.999Z</time></trkpt><trkpt lat="45.3323415564269" lon="10.68810316894992"><ele>114.0</ele><time>2026-05-03T10:24:35.999Z</time></trkpt><trkpt lat="45.33230333848676" lon="10.688019042703646"><ele>114.0</ele><time>2026-05-03T10:24:37.999Z</time></trkpt><trkpt lat="45.33236238816188" lon="10.687985374358048"><ele>114.0</ele><time>2026-05-03T10:24:45.999Z</time></trkpt><trkpt lat="45.332473881203256" lon="10.68802024929234"><ele>114.0</ele><time>2026-05-03T10:25:37.999Z</time></trkpt><trkpt lat="45.33254533341708" lon="10.687982775297383"><ele>114.0</ele><time>2026-05-03T10:25:46.999Z</time></trkpt><trkpt lat="45.3327285816129" lon="10.687985914642008"><ele>114.0</ele><time>2026-05-03T10:26:01.999Z</time></trkpt><trkpt lat="45.332783950808036" lon="10.688122192290871"><ele>114.0</ele><time>2026-05-03T10:26:03.999Z</time></trkpt><trkpt lat="45.33282802864442" lon="10.68821302611672"><ele>114.0</ele><time>2026-05-03T10:26:04.999Z</time></trkpt><trkpt lat="45.3328741499764" lon="10.688278254369951"><ele>114.0</ele><time>2026-05-03T10:26:05.999Z</time></trkpt><trkpt lat="45.332955602410344" lon="10.688335668971517"><ele>114.0</ele><time>2026-05-03T10:26:07.999Z</time></trkpt><trkpt lat="45.33306247289737" lon="10.68840833726197"><ele>113.5</ele><time>2026-05-03T10:26:09.999Z</time></trkpt><trkpt lat="45.333115664542916" lon="10.688459620676838"><ele>113.0</ele><time>2026-05-03T10:26:10.999Z</time></trkpt><trkpt lat="45.33318667243902" lon="10.688511579926082"><ele>112.5</ele><time>2026-05-03T10:26:11.999Z</time></trkpt><trkpt lat="45.33325435546518" lon="10.688579914950049"><ele>112.0</ele><time>2026-05-03T10:26:12.999Z</time></trkpt><trkpt lat="45.33332440735641" lon="10.68867440193422"><ele>111.5</ele><time>2026-05-03T10:26:13.999Z</time></trkpt><trkpt lat="45.3333943630576" lon="10.68875603084144"><ele>111.0</ele><time>2026-05-03T10:26:14.999Z</time></trkpt><trkpt lat="45.333445761544354" lon="10.688831942494797"><ele>111.0</ele><time>2026-05-03T10:26:15.999Z</time></trkpt><trkpt lat="45.33348797051992" lon="10.68897169416695"><ele>111.0</ele><time>2026-05-03T10:26:17.999Z</time></trkpt><trkpt lat="45.33349432517021" lon="10.689060789740537"><ele>111.0</ele><time>2026-05-03T10:26:18.999Z</time></trkpt><trkpt lat="45.33350604279521" lon="10.689160132054875"><ele>111.0</ele><time>2026-05-03T10:26:19.999Z</time></trkpt><trkpt lat="45.33353392611498" lon="10.689280365314023"><ele>111.0</ele><time>2026-05-03T10:26:20.999Z</time></trkpt><trkpt lat="45.33357808912678" lon="10.68942137206688"><ele>111.0</ele><time>2026-05-03T10:26:21.999Z</time></trkpt><trkpt lat="45.33363286605438" lon="10.689573531710952"><ele>110.19999999999999</ele><time>2026-05-03T10:26:22.999Z</time></trkpt><trkpt lat="45.333683969561854" lon="10.689732155509425"><ele>109.39999999999999</ele><time>2026-05-03T10:26:23.999Z</time></trkpt><trkpt lat="45.33372439771366" lon="10.68987865420759"><ele>108.6</ele><time>2026-05-03T10:26:24.999Z</time></trkpt><trkpt lat="45.33376860101729" lon="10.690011390485294"><ele>107.8</ele><time>2026-05-03T10:26:25.999Z</time></trkpt><trkpt lat="45.33380010674093" lon="10.690128608466066"><ele>107.0</ele><time>2026-05-03T10:26:26.999Z</time></trkpt><trkpt lat="45.33382848599401" lon="10.690232450394348"><ele>106.19999999999999</ele><time>2026-05-03T10:26:27.999Z</time></trkpt><trkpt lat="45.333844645834155" lon="10.690341225295082"><ele>105.39999999999999</ele><time>2026-05-03T10:26:29.999Z</time></trkpt><trkpt lat="45.33399138009763" lon="10.690286024579624"><ele>104.6</ele><time>2026-05-03T10:26:32.999Z</time></trkpt><trkpt lat="45.33406627568527" lon="10.690226889575527"><ele>103.80000000000001</ele><time>2026-05-03T10:26:33.999Z</time></trkpt><trkpt lat="45.33414448946481" lon="10.690168887477506"><ele>103.0</ele><time>2026-05-03T10:26:34.999Z</time></trkpt><trkpt lat="45.33420934424737" lon="10.690122119173717"><ele>103.00000000000001</ele><time>2026-05-03T10:26:35.999Z</time></trkpt><trkpt lat="45.334268270425746" lon="10.690089370399823"><ele>103.0</ele><time>2026-05-03T10:26:36.999Z</time></trkpt><trkpt lat="45.33434649383419" lon="10.690043722976348"><ele>103.0</ele><time>2026-05-03T10:26:37.999Z</time></trkpt><trkpt lat="45.33442950381265" lon="10.689994968743083"><ele>103.0</ele><time>2026-05-03T10:26:38.999Z</time></trkpt><trkpt lat="45.334504673338316" lon="10.689980520371726"><ele>103.00000000000001</ele><time>2026-05-03T10:26:39.999Z</time></trkpt><trkpt lat="45.33457598712958" lon="10.689963875542448"><ele>103.0</ele><time>2026-05-03T10:26:40.999Z</time></trkpt><trkpt lat="45.334665126985904" lon="10.689927019007312"><ele>102.80000000000001</ele><time>2026-05-03T10:26:41.999Z</time></trkpt><trkpt lat="45.33476090688441" lon="10.689899714073555"><ele>102.6</ele><time>2026-05-03T10:26:42.999Z</time></trkpt><trkpt lat="45.334854847741596" lon="10.68988365369737"><ele>102.4</ele><time>2026-05-03T10:26:43.999Z</time></trkpt><trkpt lat="45.3349484276721" lon="10.689905071988017"><ele>102.19999999999999</ele><time>2026-05-03T10:26:44.999Z</time></trkpt><trkpt lat="45.33505073392607" lon="10.689934020714817"><ele>102.0</ele><time>2026-05-03T10:26:45.999Z</time></trkpt><trkpt lat="45.33513730390235" lon="10.689955100539619"><ele>102.0</ele><time>2026-05-03T10:26:46.999Z</time></trkpt><trkpt lat="45.335214502325336" lon="10.689979602313986"><ele>102.0</ele><time>2026-05-03T10:26:47.999Z</time></trkpt><trkpt lat="45.335294428403174" lon="10.690018565788481"><ele>102.0</ele><time>2026-05-03T10:26:48.999Z</time></trkpt><trkpt lat="45.335379259811184" lon="10.690080060387803"><ele>102.0</ele><time>2026-05-03T10:26:49.999Z</time></trkpt><trkpt lat="45.335469267814645" lon="10.690147683679086"><ele>102.0</ele><time>2026-05-03T10:26:50.999Z</time></trkpt><trkpt lat="45.33555585426375" lon="10.690219572319553"><ele>102.39999999999999</ele><time>2026-05-03T10:26:51.999Z</time></trkpt><trkpt lat="45.335651863308016" lon="10.690290339249712"><ele>102.8</ele><time>2026-05-03T10:26:52.999Z</time></trkpt><trkpt lat="45.335740274502264" lon="10.690358324972653"><ele>103.2</ele><time>2026-05-03T10:26:53.999Z</time></trkpt><trkpt lat="45.33580024132002" lon="10.690422363734013"><ele>103.6</ele><time>2026-05-03T10:26:54.999Z</time></trkpt><trkpt lat="45.33587122330532" lon="10.690516719773775"><ele>104.0</ele><time>2026-05-03T10:26:56.999Z</time></trkpt><trkpt lat="45.33590123400749" lon="10.690609833128985"><ele>104.0</ele><time>2026-05-03T10:26:57.999Z</time></trkpt><trkpt lat="45.33593945687454" lon="10.690718380512108"><ele>104.0</ele><time>2026-05-03T10:26:58.999Z</time></trkpt><trkpt lat="45.33598812579362" lon="10.690829246313571"><ele>104.0</ele><time>2026-05-03T10:26:59.999Z</time></trkpt><trkpt lat="45.33602994852196" lon="10.690935862849917"><ele>104.0</ele><time>2026-05-03T10:27:00.999Z</time></trkpt><trkpt lat="45.33608202273043" lon="10.691045634313554"><ele>104.0</ele><time>2026-05-03T10:27:01.999Z</time></trkpt><trkpt lat="45.33613425430129" lon="10.691170434264102"><ele>103.5</ele><time>2026-05-03T10:27:02.999Z</time></trkpt><trkpt lat="45.336194436412306" lon="10.691304316048114"><ele>103.0</ele><time>2026-05-03T10:27:03.999Z</time></trkpt><trkpt lat="45.33624652496939" lon="10.691446654581178"><ele>102.5</ele><time>2026-05-03T10:27:04.999Z</time></trkpt><trkpt lat="45.336300662568775" lon="10.691593179277566"><ele>102.0</ele><time>2026-05-03T10:27:05.999Z</time></trkpt><trkpt lat="45.336362239323535" lon="10.691735322565542"><ele>103.19999999999999</ele><time>2026-05-03T10:27:06.999Z</time></trkpt><trkpt lat="45.33640983681565" lon="10.69187833366253"><ele>104.4</ele><time>2026-05-03T10:27:07.999Z</time></trkpt><trkpt lat="45.33644142286525" lon="10.692013831164523"><ele>105.60000000000001</ele><time>2026-05-03T10:27:08.999Z</time></trkpt><trkpt lat="45.33646363764216" lon="10.69216313864724"><ele>106.80000000000001</ele><time>2026-05-03T10:27:09.999Z</time></trkpt><trkpt lat="45.33649739131128" lon="10.692296785087008"><ele>108.0</ele><time>2026-05-03T10:27:10.999Z</time></trkpt><trkpt lat="45.33655341075349" lon="10.692432163074432"><ele>108.25</ele><time>2026-05-03T10:27:11.999Z</time></trkpt><trkpt lat="45.33661517930751" lon="10.692589844838269"><ele>108.5</ele><time>2026-05-03T10:27:12.999Z</time></trkpt><trkpt lat="45.33668086547564" lon="10.692746393283542"><ele>108.75</ele><time>2026-05-03T10:27:13.999Z</time></trkpt><trkpt lat="45.336742414746105" lon="10.692907998185289"><ele>109.0</ele><time>2026-05-03T10:27:14.999Z</time></trkpt><trkpt lat="45.33681068018707" lon="10.693066252858106"><ele>108.5</ele><time>2026-05-03T10:27:15.999Z</time></trkpt><trkpt lat="45.33687566548322" lon="10.693206584523377"><ele>108.0</ele><time>2026-05-03T10:27:16.999Z</time></trkpt><trkpt lat="45.336944501015054" lon="10.693339957677171"><ele>107.5</ele><time>2026-05-03T10:27:17.999Z</time></trkpt><trkpt lat="45.33701647535743" lon="10.693463053768653"><ele>107.0</ele><time>2026-05-03T10:27:18.999Z</time></trkpt><trkpt lat="45.33709084826803" lon="10.693580059067129"><ele>107.0</ele><time>2026-05-03T10:27:19.999Z</time></trkpt><trkpt lat="45.33718444408092" lon="10.693694204263148"><ele>107.0</ele><time>2026-05-03T10:27:20.999Z</time></trkpt><trkpt lat="45.33728466243648" lon="10.693817350054932"><ele>107.0</ele><time>2026-05-03T10:27:21.999Z</time></trkpt><trkpt lat="45.33738438987021" lon="10.693944846407957"><ele>107.0</ele><time>2026-05-03T10:27:22.999Z</time></trkpt><trkpt lat="45.33748389681565" lon="10.694083415189628"><ele>107.39999999999999</ele><time>2026-05-03T10:27:23.999Z</time></trkpt><trkpt lat="45.337574539019215" lon="10.694207008702984"><ele>107.79999999999998</ele><time>2026-05-03T10:27:24.999Z</time></trkpt><trkpt lat="45.33765318949047" lon="10.694306130153485"><ele>108.2</ele><time>2026-05-03T10:27:25.999Z</time></trkpt><trkpt lat="45.337719794358755" lon="10.694388387692367"><ele>108.6</ele><time>2026-05-03T10:27:26.999Z</time></trkpt><trkpt lat="45.33777468555731" lon="10.694445891109968"><ele>109.0</ele><time>2026-05-03T10:27:27.999Z</time></trkpt><trkpt lat="45.33778782738509" lon="10.694540478094687"><ele>109.4</ele><time>2026-05-03T10:28:07Z</time></trkpt><trkpt lat="45.33780152923435" lon="10.694636989538362"><ele>109.80000000000001</ele><time>2026-05-03T10:28:10Z</time></trkpt><trkpt lat="45.33783798241659" lon="10.694820231437262"><ele>110.19999999999999</ele><time>2026-05-03T10:28:12Z</time></trkpt><trkpt lat="45.33785802673271" lon="10.694947251498224"><ele>110.6</ele><time>2026-05-03T10:28:13Z</time></trkpt><trkpt lat="45.337868754844884" lon="10.695092663865275"><ele>111.0</ele><time>2026-05-03T10:28:14Z</time></trkpt><trkpt lat="45.33788270415846" lon="10.695229489248366"><ele>111.0</ele><time>2026-05-03T10:28:15Z</time></trkpt><trkpt lat="45.33790359779664" lon="10.695357702997228"><ele>111.0</ele><time>2026-05-03T10:28:16Z</time></trkpt><trkpt lat="45.337925838722654" lon="10.695475708140474"><ele>111.0</ele><time>2026-05-03T10:28:17Z</time></trkpt><trkpt lat="45.33794549689046" lon="10.695607153700358"><ele>111.0</ele><time>2026-05-03T10:28:18Z</time></trkpt><trkpt lat="45.33796258045629" lon="10.695735508392605"><ele>111.0</ele><time>2026-05-03T10:28:19Z</time></trkpt><trkpt lat="45.33797843915239" lon="10.69584592060568"><ele>111.0</ele><time>2026-05-03T10:28:20Z</time></trkpt><trkpt lat="45.33799481754084" lon="10.695945289501413"><ele>111.0</ele><time>2026-05-03T10:28:21Z</time></trkpt><trkpt lat="45.338015902570234" lon="10.696047535057449"><ele>111.0</ele><time>2026-05-03T10:28:22Z</time></trkpt><trkpt lat="45.33804105344138" lon="10.696186828109585"><ele>111.0</ele><time>2026-05-03T10:28:24Z</time></trkpt><trkpt lat="45.3379774189521" lon="10.696265966018975"><ele>111.0</ele><time>2026-05-03T10:28:26Z</time></trkpt><trkpt lat="45.33790277259341" lon="10.696300868147247"><ele>111.0</ele><time>2026-05-03T10:28:27Z</time></trkpt><trkpt lat="45.33783225787291" lon="10.696324111788677"><ele>111.0</ele><time>2026-05-03T10:28:28Z</time></trkpt><trkpt lat="45.33774063238582" lon="10.696357905702587"><ele>110.5</ele><time>2026-05-03T10:28:30Z</time></trkpt><trkpt lat="45.337681823231534" lon="10.696415435756855"><ele>110.0</ele><time>2026-05-03T10:28:32Z</time></trkpt><trkpt lat="45.33774032748324" lon="10.696479809697697"><ele>109.5</ele><time>2026-05-03T10:28:35Z</time></trkpt><trkpt lat="45.33783182050021" lon="10.69649169433771"><ele>109.0</ele><time>2026-05-03T10:28:38Z</time></trkpt><trkpt lat="45.337947540867326" lon="10.696430644941055"><ele>108.5</ele><time>2026-05-03T10:28:40Z</time></trkpt><trkpt lat="45.33802580661317" lon="10.696410430158252"><ele>108.0</ele><time>2026-05-03T10:28:41Z</time></trkpt><trkpt lat="45.338095969430036" lon="10.696395436074354"><ele>107.4</ele><time>2026-05-03T10:28:42Z</time></trkpt><trkpt lat="45.3382236020786" lon="10.6965198808277"><ele>106.80000000000001</ele><time>2026-05-03T10:28:45.999Z</time></trkpt><trkpt lat="45.33823644609448" lon="10.696613385909217"><ele>106.2</ele><time>2026-05-03T10:28:46.999Z</time></trkpt><trkpt lat="45.33825161915572" lon="10.696721994477377"><ele>105.6</ele><time>2026-05-03T10:28:47.999Z</time></trkpt><trkpt lat="45.33827633733383" lon="10.696842660276534"><ele>105.0</ele><time>2026-05-03T10:28:48.999Z</time></trkpt><trkpt lat="45.33829919267649" lon="10.69696985155267"><ele>105.0</ele><time>2026-05-03T10:28:49.999Z</time></trkpt><trkpt lat="45.3383240041525" lon="10.697103051670762"><ele>105.0</ele><time>2026-05-03T10:28:50.999Z</time></trkpt><trkpt lat="45.33835332615994" lon="10.697225807736578"><ele>105.0</ele><time>2026-05-03T10:28:51.999Z</time></trkpt><trkpt lat="45.338389329358776" lon="10.697364256702265"><ele>105.0</ele><time>2026-05-03T10:28:52.999Z</time></trkpt><trkpt lat="45.33842861933057" lon="10.697495331297988"><ele>105.0</ele><time>2026-05-03T10:28:53.999Z</time></trkpt><trkpt lat="45.33847307221511" lon="10.697631662830876"><ele>105.6</ele><time>2026-05-03T10:28:54.999Z</time></trkpt><trkpt lat="45.338522766944834" lon="10.697770713368238"><ele>106.2</ele><time>2026-05-03T10:28:55.999Z</time></trkpt><trkpt lat="45.33857289379702" lon="10.697917433908245"><ele>106.80000000000001</ele><time>2026-05-03T10:28:56.999Z</time></trkpt><trkpt lat="45.338615922975386" lon="10.698051504851897"><ele>107.4</ele><time>2026-05-03T10:28:57.999Z</time></trkpt><trkpt lat="45.33866146231241" lon="10.698175003269302"><ele>108.0</ele><time>2026-05-03T10:28:58.999Z</time></trkpt><trkpt lat="45.33870459138636" lon="10.69830621307386"><ele>108.0</ele><time>2026-05-03T10:28:59.999Z</time></trkpt><trkpt lat="45.338742465166106" lon="10.698427028718344"><ele>108.0</ele><time>2026-05-03T10:29:00.999Z</time></trkpt><trkpt lat="45.33878096669407" lon="10.698541449728738"><ele>108.0</ele><time>2026-05-03T10:29:01.999Z</time></trkpt><trkpt lat="45.3388204651071" lon="10.698654516196507"><ele>108.0</ele><time>2026-05-03T10:29:02.999Z</time></trkpt><trkpt lat="45.33885017348377" lon="10.69875596242345"><ele>108.0</ele><time>2026-05-03T10:29:03.999Z</time></trkpt><trkpt lat="45.33888777100254" lon="10.698860472017053"><ele>108.0</ele><time>2026-05-03T10:29:05.999Z</time></trkpt><trkpt lat="45.33898869967491" lon="10.698801158300617"><ele>107.66666666666667</ele><time>2026-05-03T10:29:09Z</time></trkpt><trkpt lat="45.33905700058041" lon="10.698808849568602"><ele>107.33333333333334</ele><time>2026-05-03T10:29:11Z</time></trkpt><trkpt lat="45.33907028464642" lon="10.698949892510013"><ele>107.0</ele><time>2026-05-03T10:29:13Z</time></trkpt><trkpt lat="45.33911523736562" lon="10.699062331668165"><ele>106.66666666666667</ele><time>2026-05-03T10:29:14Z</time></trkpt><trkpt lat="45.339147828105645" lon="10.699159280324942"><ele>106.33333333333334</ele><time>2026-05-03T10:29:15Z</time></trkpt><trkpt lat="45.33917181766982" lon="10.699247051658013"><ele>106.0</ele><time>2026-05-03T10:29:16Z</time></trkpt><trkpt lat="45.33919721652852" lon="10.699344009396203"><ele>106.0</ele><time>2026-05-03T10:29:18Z</time></trkpt><trkpt lat="45.339270626781605" lon="10.699365484667407"><ele>106.0</ele><time>2026-05-03T10:29:21Z</time></trkpt><trkpt lat="45.33935055684981" lon="10.699345051232768"><ele>106.0</ele><time>2026-05-03T10:29:23Z</time></trkpt><trkpt lat="45.339364663199255" lon="10.699247505831105"><ele>106.0</ele><time>2026-05-03T10:29:24Z</time></trkpt><trkpt lat="45.33938681006813" lon="10.699151173284081"><ele>106.0</ele><time>2026-05-03T10:29:26Z</time></trkpt><trkpt lat="45.33937318494098" lon="10.698927972642046"><ele>106.0</ele><time>2026-05-03T10:29:28Z</time></trkpt><trkpt lat="45.339335791543924" lon="10.698813476011173"><ele>106.0</ele><time>2026-05-03T10:29:30Z</time></trkpt><trkpt lat="45.33940260179901" lon="10.698807321343393"><ele>106.0</ele><time>2026-05-03T10:29:33Z</time></trkpt><trkpt lat="45.339453700783174" lon="10.69899926064253"><ele>106.0</ele><time>2026-05-03T10:29:35Z</time></trkpt><trkpt lat="45.33950068310472" lon="10.699136964989677"><ele>106.0</ele><time>2026-05-03T10:29:36Z</time></trkpt><trkpt lat="45.33954407411141" lon="10.699330449313617"><ele>106.8</ele><time>2026-05-03T10:29:37Z</time></trkpt><trkpt lat="45.339576060847335" lon="10.699505016570267"><ele>107.6</ele><time>2026-05-03T10:29:38Z</time></trkpt><trkpt lat="45.33957674176968" lon="10.699669523094265"><ele>108.4</ele><time>2026-05-03T10:29:39Z</time></trkpt><trkpt lat="45.33957409509488" lon="10.699828829104696"><ele>109.2</ele><time>2026-05-03T10:29:40Z</time></trkpt><trkpt lat="45.33957779952138" lon="10.69995560378705"><ele>110.0</ele><time>2026-05-03T10:29:41Z</time></trkpt><trkpt lat="45.33959323180647" lon="10.700094316869443"><ele>110.0</ele><time>2026-05-03T10:29:42Z</time></trkpt><trkpt lat="45.33963122770677" lon="10.700231358527363"><ele>110.0</ele><time>2026-05-03T10:29:43Z</time></trkpt><trkpt lat="45.33966388926791" lon="10.70034193906706"><ele>110.0</ele><time>2026-05-03T10:29:44.001Z</time></trkpt><trkpt lat="45.33972151471775" lon="10.700432599792206"><ele>110.0</ele><time>2026-05-03T10:29:45.001Z</time></trkpt><trkpt lat="45.33973123479457" lon="10.700526689068614"><ele>110.0</ele><time>2026-05-03T10:29:46.001Z</time></trkpt><trkpt lat="45.33980557988277" lon="10.700641950043824"><ele>108.4</ele><time>2026-05-03T10:29:48.001Z</time></trkpt><trkpt lat="45.33991208260278" lon="10.700664527089453"><ele>106.8</ele><time>2026-05-03T10:29:50.001Z</time></trkpt><trkpt lat="45.339975671759056" lon="10.700650784442614"><ele>105.19999999999999</ele><time>2026-05-03T10:29:53.001Z</time></trkpt><trkpt lat="45.340033396070616" lon="10.700589868784682"><ele>103.6</ele><time>2026-05-03T10:30:18.001Z</time></trkpt><trkpt lat="45.340063243557175" lon="10.700498465176867"><ele>102.0</ele><time>2026-05-03T10:30:20.001Z</time></trkpt><trkpt lat="45.3402176087573" lon="10.700521287603566"><ele>102.0</ele><time>2026-05-03T10:30:24.001Z</time></trkpt><trkpt lat="45.34029790256126" lon="10.700526371580757"><ele>102.0</ele><time>2026-05-03T10:30:25.001Z</time></trkpt><trkpt lat="45.340379558720215" lon="10.700554288997129"><ele>102.0</ele><time>2026-05-03T10:30:26.001Z</time></trkpt><trkpt lat="45.340435835406055" lon="10.700598245083459"><ele>102.0</ele><time>2026-05-03T10:30:28.001Z</time></trkpt><trkpt lat="45.340469992651094" lon="10.70049952228763"><ele>102.0</ele><time>2026-05-03T10:30:31.001Z</time></trkpt><trkpt lat="45.34043954726446" lon="10.700385332184872"><ele>102.0</ele><time>2026-05-03T10:30:32.001Z</time></trkpt><trkpt lat="45.34040189125299" lon="10.700228400448772"><ele>99.33333333333333</ele><time>2026-05-03T10:30:33.001Z</time></trkpt><trkpt lat="45.34035503784621" lon="10.70003739038335"><ele>96.66666666666666</ele><time>2026-05-03T10:30:34.001Z</time></trkpt><trkpt lat="45.34034090356986" lon="10.699806020279985"><ele>94.0</ele><time>2026-05-03T10:30:35.001Z</time></trkpt><trkpt lat="45.340280522631126" lon="10.69959213872016"><ele>94.25</ele><time>2026-05-03T10:30:36.001Z</time></trkpt><trkpt lat="45.34018117770621" lon="10.699412790176117"><ele>94.5</ele><time>2026-05-03T10:30:37.001Z</time></trkpt><trkpt lat="45.34015599083398" lon="10.69922028116366"><ele>94.75</ele><time>2026-05-03T10:30:38.001Z</time></trkpt><trkpt lat="45.34014517209154" lon="10.699027757124252"><ele>95.0</ele><time>2026-05-03T10:30:39.001Z</time></trkpt><trkpt lat="45.34013903232559" lon="10.698833400801382"><ele>95.0</ele><time>2026-05-03T10:30:40.001Z</time></trkpt><trkpt lat="45.34013999277781" lon="10.69863643063887"><ele>95.0</ele><time>2026-05-03T10:30:41.001Z</time></trkpt><trkpt lat="45.34013817980872" lon="10.698444219813098"><ele>95.0</ele><time>2026-05-03T10:30:42.001Z</time></trkpt><trkpt lat="45.340142844750886" lon="10.698280749467692"><ele>95.0</ele><time>2026-05-03T10:30:43.001Z</time></trkpt><trkpt lat="45.34014565020293" lon="10.698133143981934"><ele>95.6</ele><time>2026-05-03T10:30:44.001Z</time></trkpt><trkpt lat="45.34016221812696" lon="10.69800238149305"><ele>96.2</ele><time>2026-05-03T10:30:45.001Z</time></trkpt><trkpt lat="45.340185902972586" lon="10.69789125153765"><ele>96.80000000000001</ele><time>2026-05-03T10:30:46.001Z</time></trkpt><trkpt lat="45.34025093443189" lon="10.697738590241997"><ele>97.4</ele><time>2026-05-03T10:30:48.001Z</time></trkpt><trkpt lat="45.340302581925194" lon="10.697660764371474"><ele>98.0</ele><time>2026-05-03T10:30:49.001Z</time></trkpt><trkpt lat="45.34039106681969" lon="10.697569426471093"><ele>98.4</ele><time>2026-05-03T10:30:50.001Z</time></trkpt><trkpt lat="45.34046971504757" lon="10.697505967713541"><ele>98.80000000000001</ele><time>2026-05-03T10:30:52Z</time></trkpt><trkpt lat="45.340514755757155" lon="10.697577392551539"><ele>99.2</ele><time>2026-05-03T10:30:57Z</time></trkpt><trkpt lat="45.34063677388326" lon="10.697627269744142"><ele>99.6</ele><time>2026-05-03T10:30:59Z</time></trkpt><trkpt lat="45.34072136324776" lon="10.697681896615064"><ele>100.0</ele><time>2026-05-03T10:31:00Z</time></trkpt><trkpt lat="45.34080552140045" lon="10.69774391959317"><ele>100.16666666666667</ele><time>2026-05-03T10:31:01Z</time></trkpt><trkpt lat="45.34086483392718" lon="10.697800809854265"><ele>100.33333333333334</ele><time>2026-05-03T10:31:02Z</time></trkpt><trkpt lat="45.340908798604694" lon="10.69792054948436"><ele>100.5</ele><time>2026-05-03T10:31:04Z</time></trkpt><trkpt lat="45.34091173928188" lon="10.698046216187613"><ele>100.66666666666666</ele><time>2026-05-03T10:31:06Z</time></trkpt><trkpt lat="45.34084279119405" lon="10.698005351656912"><ele>100.83333333333333</ele><time>2026-05-03T10:31:08Z</time></trkpt><trkpt lat="45.34087736187254" lon="10.697897883504066"><ele>101.0</ele><time>2026-05-03T10:31:10Z</time></trkpt><trkpt lat="45.34082535797177" lon="10.697719638244768"><ele>100.99999999999999</ele><time>2026-05-03T10:31:14Z</time></trkpt><trkpt lat="45.34073263123569" lon="10.69766336989087"><ele>101.0</ele><time>2026-05-03T10:31:16Z</time></trkpt><trkpt lat="45.340622882662345" lon="10.697627314177765"><ele>101.0</ele><time>2026-05-03T10:31:18Z</time></trkpt><trkpt lat="45.340550322684635" lon="10.697602036502198"><ele>101.0</ele><time>2026-05-03T10:31:20Z</time></trkpt><trkpt lat="45.34061188748957" lon="10.697625160069885"><ele>100.99999999999999</ele><time>2026-05-03T10:31:26Z</time></trkpt><trkpt lat="45.34063091393318" lon="10.697524865775787"><ele>101.0</ele><time>2026-05-03T10:31:29Z</time></trkpt><trkpt lat="45.34071680131951" lon="10.697504659557204"><ele>100.99999999999999</ele><time>2026-05-03T10:31:31Z</time></trkpt><trkpt lat="45.340788980317974" lon="10.697512778940327"><ele>101.0</ele><time>2026-05-03T10:31:32Z</time></trkpt><trkpt lat="45.34089423195857" lon="10.697560954612625"><ele>101.0</ele><time>2026-05-03T10:31:34Z</time></trkpt><trkpt lat="45.34096703445445" lon="10.697669360274423"><ele>101.0</ele><time>2026-05-03T10:31:36Z</time></trkpt><trkpt lat="45.34100891624368" lon="10.697740410452397"><ele>100.99999999999999</ele><time>2026-05-03T10:31:37Z</time></trkpt><trkpt lat="45.34105550971258" lon="10.697822987075448"><ele>101.0</ele><time>2026-05-03T10:31:38Z</time></trkpt><trkpt lat="45.341117805511615" lon="10.697882182853457"><ele>100.99999999999999</ele><time>2026-05-03T10:31:39Z</time></trkpt><trkpt lat="45.34117744432057" lon="10.697973356015613"><ele>101.0</ele><time>2026-05-03T10:31:41Z</time></trkpt><trkpt lat="45.34116932675141" lon="10.69807275086692"><ele>101.0</ele><time>2026-05-03T10:31:44Z</time></trkpt><trkpt lat="45.34114886192077" lon="10.697987894388243"><ele>101.0</ele><time>2026-05-03T10:31:48Z</time></trkpt><trkpt lat="45.34115300734574" lon="10.697896326601512"><ele>100.99999999999999</ele><time>2026-05-03T10:31:50Z</time></trkpt><trkpt lat="45.341081730568206" lon="10.69781081104183"><ele>101.0</ele><time>2026-05-03T10:31:52Z</time></trkpt><trkpt lat="45.341006784793684" lon="10.697737530881932"><ele>100.99999999999999</ele><time>2026-05-03T10:31:54Z</time></trkpt><trkpt lat="45.34095577911503" lon="10.697639608517022"><ele>101.0</ele><time>2026-05-03T10:31:56Z</time></trkpt><trkpt lat="45.3408960630944" lon="10.697529594593906"><ele>101.0</ele><time>2026-05-03T10:31:58.001Z</time></trkpt><trkpt lat="45.34083423489427" lon="10.697512706272082"><ele>101.0</ele><time>2026-05-03T10:31:59.001Z</time></trkpt><trkpt lat="45.340731580929194" lon="10.697519390913431"><ele>100.99999999999999</ele><time>2026-05-03T10:32:01.001Z</time></trkpt><trkpt lat="45.34066334235308" lon="10.69753096435231"><ele>101.0</ele><time>2026-05-03T10:32:04.001Z</time></trkpt><trkpt lat="45.34078689983592" lon="10.69750750238934"><ele>100.99999999999999</ele><time>2026-05-03T10:32:33.001Z</time></trkpt><trkpt lat="45.34089099103881" lon="10.697555136044226"><ele>101.0</ele><time>2026-05-03T10:32:35.001Z</time></trkpt><trkpt lat="45.340909551206074" lon="10.69764161879056"><ele>101.0</ele><time>2026-05-03T10:32:36.001Z</time></trkpt><trkpt lat="45.34096053579699" lon="10.697702682416406"><ele>101.0</ele><time>2026-05-03T10:32:37.001Z</time></trkpt><trkpt lat="45.34101870282799" lon="10.697758134165733"><ele>100.99999999999999</ele><time>2026-05-03T10:32:38.001Z</time></trkpt><trkpt lat="45.34108309718594" lon="10.697866767659239"><ele>101.0</ele><time>2026-05-03T10:32:40.001Z</time></trkpt><trkpt lat="45.341201638420806" lon="10.697694519603536"><ele>101.0</ele><time>2026-05-03T10:32:45.001Z</time></trkpt><trkpt lat="45.34133027246444" lon="10.697748771250334"><ele>101.0</ele><time>2026-05-03T10:32:54.001Z</time></trkpt><trkpt lat="45.34140106440784" lon="10.697775975227684"><ele>101.0</ele><time>2026-05-03T10:32:55.001Z</time></trkpt><trkpt lat="45.34149925564465" lon="10.697747160624132"><ele>101.0</ele><time>2026-05-03T10:32:57Z</time></trkpt><trkpt lat="45.341656370709025" lon="10.697668223865168"><ele>100.5</ele><time>2026-05-03T10:33:04Z</time></trkpt><trkpt lat="45.341754572609325" lon="10.697579328682687"><ele>100.0</ele><time>2026-05-03T10:33:06Z</time></trkpt><trkpt lat="45.34179332071444" lon="10.697429268964829"><ele>99.5</ele><time>2026-05-03T10:33:08Z</time></trkpt><trkpt lat="45.34179984717135" lon="10.697229342347882"><ele>99.0</ele><time>2026-05-03T10:33:10Z</time></trkpt><trkpt lat="45.34178703465295" lon="10.697087066133244"><ele>99.0</ele><time>2026-05-03T10:33:12Z</time></trkpt><trkpt lat="45.34171351230042" lon="10.696970542990487"><ele>99.0</ele><time>2026-05-03T10:33:14Z</time></trkpt><trkpt lat="45.34166888416004" lon="10.696904096992176"><ele>99.0</ele><time>2026-05-03T10:33:15Z</time></trkpt><trkpt lat="45.34162783662861" lon="10.696831928500911"><ele>99.0</ele><time>2026-05-03T10:33:16Z</time></trkpt><trkpt lat="45.34159054086219" lon="10.696739973787567"><ele>99.0</ele><time>2026-05-03T10:33:18Z</time></trkpt><trkpt lat="45.34161936328333" lon="10.69661612601333"><ele>99.0</ele><time>2026-05-03T10:33:21Z</time></trkpt><trkpt lat="45.341686139065295" lon="10.696596692773323"><ele>98.83333333333333</ele><time>2026-05-03T10:33:22Z</time></trkpt><trkpt lat="45.341758523414015" lon="10.696595786828912"><ele>98.66666666666666</ele><time>2026-05-03T10:33:23Z</time></trkpt><trkpt lat="45.34188230298296" lon="10.69658610491857"><ele>98.5</ele><time>2026-05-03T10:33:25Z</time></trkpt><trkpt lat="45.341954274855084" lon="10.696566348386414"><ele>98.33333333333333</ele><time>2026-05-03T10:33:26Z</time></trkpt><trkpt lat="45.342025278742845" lon="10.69655047598438"><ele>98.16666666666666</ele><time>2026-05-03T10:33:27Z</time></trkpt><trkpt lat="45.342102250959705" lon="10.69653066978613"><ele>98.0</ele><time>2026-05-03T10:33:28Z</time></trkpt><trkpt lat="45.342183745614705" lon="10.696513495046093"><ele>97.99999999999999</ele><time>2026-05-03T10:33:29Z</time></trkpt><trkpt lat="45.342248927842085" lon="10.696502832870985"><ele>98.0</ele><time>2026-05-03T10:33:30Z</time></trkpt><trkpt lat="45.342377081877196" lon="10.696461875884525"><ele>98.0</ele><time>2026-05-03T10:33:32Z</time></trkpt><trkpt lat="45.342459150354486" lon="10.696439649519482"><ele>98.0</ele><time>2026-05-03T10:33:33Z</time></trkpt><trkpt lat="45.34255064272147" lon="10.696431698924773"><ele>97.99999999999999</ele><time>2026-05-03T10:33:34Z</time></trkpt><trkpt lat="45.34261729343751" lon="10.696418195008398"><ele>98.0</ele><time>2026-05-03T10:33:35Z</time></trkpt><trkpt lat="45.342723844956346" lon="10.696374567813164"><ele>98.0</ele><time>2026-05-03T10:33:37Z</time></trkpt><trkpt lat="45.34279125956024" lon="10.696374148442736"><ele>98.0</ele><time>2026-05-03T10:33:39Z</time></trkpt><trkpt lat="45.34284668070254" lon="10.696205889884782"><ele>98.0</ele><time>2026-05-03T10:33:43Z</time></trkpt><trkpt lat="45.34283565762462" lon="10.696098126883664"><ele>98.0</ele><time>2026-05-03T10:33:44Z</time></trkpt><trkpt lat="45.342819550940895" lon="10.695969168951747"><ele>98.0</ele><time>2026-05-03T10:33:45Z</time></trkpt><trkpt lat="45.34279930963123" lon="10.695815852048273"><ele>98.33333333333333</ele><time>2026-05-03T10:33:46Z</time></trkpt><trkpt lat="45.3427760601838" lon="10.695645686559423"><ele>98.66666666666666</ele><time>2026-05-03T10:33:47Z</time></trkpt><trkpt lat="45.342743329967234" lon="10.695435926370841"><ele>99.0</ele><time>2026-05-03T10:33:48Z</time></trkpt><trkpt lat="45.34270041121492" lon="10.695177043437308"><ele>99.25</ele><time>2026-05-03T10:33:49Z</time></trkpt><trkpt lat="45.34266236630812" lon="10.694967575332992"><ele>99.5</ele><time>2026-05-03T10:33:50Z</time></trkpt><trkpt lat="45.34263555250331" lon="10.694832615578703"><ele>99.75</ele><time>2026-05-03T10:33:51Z</time></trkpt><trkpt lat="45.34261649833206" lon="10.694686850151601"><ele>100.0</ele><time>2026-05-03T10:33:52Z</time></trkpt><trkpt lat="45.34258688510297" lon="10.694519167984256"><ele>100.25</ele><time>2026-05-03T10:33:53Z</time></trkpt><trkpt lat="45.34255621227805" lon="10.694346999871552"><ele>100.5</ele><time>2026-05-03T10:33:54Z</time></trkpt><trkpt lat="45.342512551734785" lon="10.694185228232103"><ele>100.75</ele><time>2026-05-03T10:33:55Z</time></trkpt><trkpt lat="45.34244994001185" lon="10.694020988315415"><ele>101.0</ele><time>2026-05-03T10:33:56Z</time></trkpt><trkpt lat="45.34240417674881" lon="10.693872323024209"><ele>101.0</ele><time>2026-05-03T10:33:57Z</time></trkpt><trkpt lat="45.34235429711142" lon="10.693727282065371"><ele>101.0</ele><time>2026-05-03T10:33:58Z</time></trkpt><trkpt lat="45.34230756180222" lon="10.693566857919283"><ele>101.0</ele><time>2026-05-03T10:33:59Z</time></trkpt><trkpt lat="45.342273103024205" lon="10.693399538011139"><ele>101.0</ele><time>2026-05-03T10:34:00Z</time></trkpt><trkpt lat="45.34222830181252" lon="10.69324783841319"><ele>99.5</ele><time>2026-05-03T10:34:01Z</time></trkpt><trkpt lat="45.34218613853455" lon="10.693095292619766"><ele>98.0</ele><time>2026-05-03T10:34:02Z</time></trkpt><trkpt lat="45.342125898773105" lon="10.692948995224453"><ele>96.5</ele><time>2026-05-03T10:34:03Z</time></trkpt><trkpt lat="45.3420819147044" lon="10.692787314231277"><ele>95.0</ele><time>2026-05-03T10:34:04Z</time></trkpt><trkpt lat="45.34206066283625" lon="10.692622358492029"><ele>94.8</ele><time>2026-05-03T10:34:05Z</time></trkpt><trkpt lat="45.342041556336824" lon="10.692480041543797"><ele>94.6</ele><time>2026-05-03T10:34:06Z</time></trkpt><trkpt lat="45.342028617674906" lon="10.692341798805604"><ele>94.4</ele><time>2026-05-03T10:34:07Z</time></trkpt><trkpt lat="45.34201718559889" lon="10.692201407681171"><ele>94.2</ele><time>2026-05-03T10:34:08.001Z</time></trkpt><trkpt lat="45.342009727044605" lon="10.692051937008332"><ele>94.0</ele><time>2026-05-03T10:34:09.001Z</time></trkpt><trkpt lat="45.341990881365746" lon="10.691907407788928"><ele>93.80000000000001</ele><time>2026-05-03T10:34:10.001Z</time></trkpt><trkpt lat="45.34200448133173" lon="10.691750186911321"><ele>93.60000000000001</ele><time>2026-05-03T10:34:11.001Z</time></trkpt><trkpt lat="45.34200395214992" lon="10.69159872365085"><ele>93.4</ele><time>2026-05-03T10:34:12.001Z</time></trkpt><trkpt lat="45.34198652898586" lon="10.691459990771257"><ele>93.2</ele><time>2026-05-03T10:34:13.001Z</time></trkpt><trkpt lat="45.34199670004514" lon="10.691321371128746"><ele>93.0</ele><time>2026-05-03T10:34:14.001Z</time></trkpt><trkpt lat="45.3419838333564" lon="10.691182698629431"><ele>92.83333333333333</ele><time>2026-05-03T10:34:15.001Z</time></trkpt><trkpt lat="45.34195776074266" lon="10.691044361792377"><ele>92.66666666666667</ele><time>2026-05-03T10:34:16.001Z</time></trkpt><trkpt lat="45.34193862751381" lon="10.690929711058459"><ele>92.5</ele><time>2026-05-03T10:34:17.001Z</time></trkpt><trkpt lat="45.34191713029879" lon="10.690830674973403"><ele>92.33333333333334</ele><time>2026-05-03T10:34:18.001Z</time></trkpt><trkpt lat="45.34188641426621" lon="10.690745569563955"><ele>92.16666666666667</ele><time>2026-05-03T10:34:19.001Z</time></trkpt><trkpt lat="45.34184502782827" lon="10.690657170157936"><ele>92.0</ele><time>2026-05-03T10:34:20.001Z</time></trkpt><trkpt lat="45.341810345988776" lon="10.690561143578098"><ele>92.0</ele><time>2026-05-03T10:34:21.001Z</time></trkpt><trkpt lat="45.341771911176494" lon="10.690463270539487"><ele>92.0</ele><time>2026-05-03T10:34:22.001Z</time></trkpt><trkpt lat="45.341735767325964" lon="10.690363825897904"><ele>92.0</ele><time>2026-05-03T10:34:23.001Z</time></trkpt><trkpt lat="45.34171654088772" lon="10.690251410955897"><ele>92.0</ele><time>2026-05-03T10:34:24.001Z</time></trkpt><trkpt lat="45.34167123667219" lon="10.69014960027038"><ele>92.0</ele><time>2026-05-03T10:34:25.001Z</time></trkpt><trkpt lat="45.34163654724845" lon="10.690036658025024"><ele>92.0</ele><time>2026-05-03T10:34:26.001Z</time></trkpt><trkpt lat="45.3416094249159" lon="10.68994566828853"><ele>92.0</ele><time>2026-05-03T10:34:27.001Z</time></trkpt><trkpt lat="45.341663382279535" lon="10.689799832248925"><ele>92.0</ele><time>2026-05-03T10:34:29.001Z</time></trkpt><trkpt lat="45.34169099943934" lon="10.689701386373779"><ele>92.0</ele><time>2026-05-03T10:34:30.001Z</time></trkpt><trkpt lat="45.34177478544091" lon="10.689608897906604"><ele>92.0</ele><time>2026-05-03T10:34:31.001Z</time></trkpt><trkpt lat="45.341861229453876" lon="10.689501205886529"><ele>92.0</ele><time>2026-05-03T10:34:32.001Z</time></trkpt><trkpt lat="45.341918546648" lon="10.689394149794714"><ele>92.0</ele><time>2026-05-03T10:34:33.001Z</time></trkpt><trkpt lat="45.341946080502844" lon="10.689274984570924"><ele>92.0</ele><time>2026-05-03T10:34:34.001Z</time></trkpt><trkpt lat="45.34195096774282" lon="10.689132114838625"><ele>92.0</ele><time>2026-05-03T10:34:35.001Z</time></trkpt><trkpt lat="45.341952060720004" lon="10.688934250071949"><ele>92.0</ele><time>2026-05-03T10:34:36.001Z</time></trkpt><trkpt lat="45.341966527541906" lon="10.688718936827817"><ele>92.19999999999999</ele><time>2026-05-03T10:34:37.001Z</time></trkpt><trkpt lat="45.34198117223765" lon="10.688530894172148"><ele>92.4</ele><time>2026-05-03T10:34:38.001Z</time></trkpt><trkpt lat="45.34199168354843" lon="10.688373661978025"><ele>92.6</ele><time>2026-05-03T10:34:39.001Z</time></trkpt><trkpt lat="45.342002447327005" lon="10.688233245615768"><ele>92.80000000000001</ele><time>2026-05-03T10:34:40.001Z</time></trkpt><trkpt lat="45.342010829567876" lon="10.68809963080519"><ele>93.0</ele><time>2026-05-03T10:34:41.001Z</time></trkpt><trkpt lat="45.34201229393583" lon="10.687986416097226"><ele>93.0</ele><time>2026-05-03T10:34:42.001Z</time></trkpt><trkpt lat="45.34202731660631" lon="10.687888163332465"><ele>93.0</ele><time>2026-05-03T10:34:43.001Z</time></trkpt><trkpt lat="45.34205272656489" lon="10.687795324086018"><ele>93.0</ele><time>2026-05-03T10:34:44.001Z</time></trkpt><trkpt lat="45.34209385193429" lon="10.687707504707298"><ele>93.0</ele><time>2026-05-03T10:34:45.001Z</time></trkpt><trkpt lat="45.34217152416254" lon="10.687621786161529"><ele>93.0</ele><time>2026-05-03T10:34:46.001Z</time></trkpt><trkpt lat="45.34223248856026" lon="10.687516735689426"><ele>93.0</ele><time>2026-05-03T10:34:47.001Z</time></trkpt><trkpt lat="45.342287530950294" lon="10.687378826863089"><ele>95.60000000000001</ele><time>2026-05-03T10:34:48.001Z</time></trkpt><trkpt lat="45.34233606775645" lon="10.687249864315072"><ele>98.2</ele><time>2026-05-03T10:34:49.001Z</time></trkpt><trkpt lat="45.34238186498365" lon="10.687109861093461"><ele>100.8</ele><time>2026-05-03T10:34:50.001Z</time></trkpt><trkpt lat="45.342422885349016" lon="10.686975511405594"><ele>103.4</ele><time>2026-05-03T10:34:51.001Z</time></trkpt><trkpt lat="45.342455734746395" lon="10.6868750607328"><ele>106.0</ele><time>2026-05-03T10:34:52.001Z</time></trkpt><trkpt lat="45.34245848829697" lon="10.686718840379015"><ele>106.16666666666667</ele><time>2026-05-03T10:34:54.001Z</time></trkpt><trkpt lat="45.342524066818314" lon="10.686653573305554"><ele>106.33333333333334</ele><time>2026-05-03T10:34:56.001Z</time></trkpt><trkpt lat="45.342594266610234" lon="10.686670168099004"><ele>106.5</ele><time>2026-05-03T10:34:57.001Z</time></trkpt><trkpt lat="45.34267520046823" lon="10.686685844022621"><ele>106.66666666666666</ele><time>2026-05-03T10:34:58.001Z</time></trkpt><trkpt lat="45.34276999949976" lon="10.686705900372125"><ele>106.83333333333333</ele><time>2026-05-03T10:34:59.001Z</time></trkpt><trkpt lat="45.342849196952194" lon="10.686737397431683"><ele>107.0</ele><time>2026-05-03T10:35:00.001Z</time></trkpt><trkpt lat="45.3429442665423" lon="10.686777716219114"><ele>106.99999999999999</ele><time>2026-05-03T10:35:02.001Z</time></trkpt><trkpt lat="45.34296628376854" lon="10.686888105503378"><ele>107.0</ele><time>2026-05-03T10:35:04Z</time></trkpt><trkpt lat="45.34294884106941" lon="10.687000946861641"><ele>107.0</ele><time>2026-05-03T10:35:05Z</time></trkpt><trkpt lat="45.34291286598524" lon="10.687129675909643"><ele>107.0</ele><time>2026-05-03T10:35:06Z</time></trkpt><trkpt lat="45.34292992151457" lon="10.68726375522232"><ele>106.99999999999999</ele><time>2026-05-03T10:35:08Z</time></trkpt><trkpt lat="45.342992619504685" lon="10.68729027484067"><ele>107.0</ele><time>2026-05-03T10:35:11Z</time></trkpt><trkpt lat="45.34309516099309" lon="10.68742680363352"><ele>107.16666666666666</ele><time>2026-05-03T10:35:26Z</time></trkpt><trkpt lat="45.343118157091695" lon="10.687548230965817"><ele>107.33333333333333</ele><time>2026-05-03T10:35:27Z</time></trkpt><trkpt lat="45.34315038818897" lon="10.687680674069053"><ele>107.5</ele><time>2026-05-03T10:35:28Z</time></trkpt><trkpt lat="45.34318252384711" lon="10.687815956125384"><ele>107.66666666666666</ele><time>2026-05-03T10:35:29Z</time></trkpt><trkpt lat="45.343210866218726" lon="10.687932272041348"><ele>107.83333333333333</ele><time>2026-05-03T10:35:30Z</time></trkpt><trkpt lat="45.34322922489612" lon="10.688027630526852"><ele>108.0</ele><time>2026-05-03T10:35:31Z</time></trkpt><trkpt lat="45.343246021720475" lon="10.688126150283516"><ele>108.0</ele><time>2026-05-03T10:35:33Z</time></trkpt><trkpt lat="45.34323766894064" lon="10.688017932923318"><ele>108.0</ele><time>2026-05-03T10:35:41Z</time></trkpt><trkpt lat="45.343221366288304" lon="10.687893265674099"><ele>108.0</ele><time>2026-05-03T10:36:00.001Z</time></trkpt><trkpt lat="45.34319767875529" lon="10.687787053348735"><ele>108.0</ele><time>2026-05-03T10:36:05.001Z</time></trkpt><trkpt lat="45.34316666146824" lon="10.687659747823188"><ele>108.0</ele><time>2026-05-03T10:36:07.001Z</time></trkpt><trkpt lat="45.343146887070915" lon="10.687573223535278"><ele>108.0</ele><time>2026-05-03T10:36:08.001Z</time></trkpt><trkpt lat="45.34311967401406" lon="10.687470185978281"><ele>107.83333333333333</ele><time>2026-05-03T10:36:10.001Z</time></trkpt><trkpt lat="45.34309893140628" lon="10.687369446210049"><ele>107.66666666666666</ele><time>2026-05-03T10:37:22Z</time></trkpt><trkpt lat="45.34307543406372" lon="10.687276364783948"><ele>107.5</ele><time>2026-05-03T10:38:14.001Z</time></trkpt><trkpt lat="45.343070477514736" lon="10.68712364915902"><ele>107.33333333333333</ele><time>2026-05-03T10:47:13.001Z</time></trkpt><trkpt lat="45.343021439771654" lon="10.687060469543386"><ele>107.16666666666666</ele><time>2026-05-03T10:47:39Z</time></trkpt><trkpt lat="45.34305040198412" lon="10.686972148806499"><ele>107.0</ele><time>2026-05-03T10:47:48Z</time></trkpt><trkpt lat="45.34303864750172" lon="10.686872782742446"><ele>107.0</ele><time>2026-05-03T10:47:58Z</time></trkpt><trkpt lat="45.34297715078174" lon="10.686834165879874"><ele>106.99999999999999</ele><time>2026-05-03T10:48:02Z</time></trkpt><trkpt lat="45.34282928517141" lon="10.686725688380493"><ele>106.99999999999999</ele><time>2026-05-03T10:48:29.001Z</time></trkpt><trkpt lat="45.34273622508309" lon="10.686702695538823"><ele>107.0</ele><time>2026-05-03T10:48:30.001Z</time></trkpt><trkpt lat="45.3426290111101" lon="10.686683834066924"><ele>107.0</ele><time>2026-05-03T10:48:31.001Z</time></trkpt><trkpt lat="45.34252610040593" lon="10.686668814012021"><ele>106.99999999999999</ele><time>2026-05-03T10:48:32.001Z</time></trkpt><trkpt lat="45.342448474067034" lon="10.686674156125111"><ele>107.0</ele><time>2026-05-03T10:48:33.001Z</time></trkpt><trkpt lat="45.34238834456176" lon="10.686641345618554"><ele>107.0</ele><time>2026-05-03T10:48:36.001Z</time></trkpt><trkpt lat="45.342328986503716" lon="10.686581281106132"><ele>107.0</ele><time>2026-05-03T10:49:11.001Z</time></trkpt><trkpt lat="45.34227904270936" lon="10.68648401294008"><ele>106.99999999999999</ele><time>2026-05-03T10:49:13.001Z</time></trkpt><trkpt lat="45.34224617594885" lon="10.68630271724011"><ele>107.0</ele><time>2026-05-03T10:49:15.001Z</time></trkpt><trkpt lat="45.34224050933406" lon="10.686181429883034"><ele>106.6</ele><time>2026-05-03T10:49:16.001Z</time></trkpt><trkpt lat="45.34223330180401" lon="10.686068250122192"><ele>106.19999999999999</ele><time>2026-05-03T10:49:17.001Z</time></trkpt><trkpt lat="45.342229549256245" lon="10.685966733505916"><ele>105.8</ele><time>2026-05-03T10:49:18.001Z</time></trkpt><trkpt lat="45.3422568133936" lon="10.685811304969146"><ele>105.4</ele><time>2026-05-03T10:49:20.001Z</time></trkpt><trkpt lat="45.342231446054406" lon="10.685625284687621"><ele>105.0</ele><time>2026-05-03T10:49:22.001Z</time></trkpt><trkpt lat="45.34221744148021" lon="10.685513795368696"><ele>105.0</ele><time>2026-05-03T10:49:23.001Z</time></trkpt><trkpt lat="45.342205355314114" lon="10.685405570161056"><ele>105.0</ele><time>2026-05-03T10:49:24.001Z</time></trkpt><trkpt lat="45.34217686099327" lon="10.685312069094671"><ele>105.0</ele><time>2026-05-03T10:49:26.001Z</time></trkpt><trkpt lat="45.34210257802646" lon="10.685256824951896"><ele>105.0</ele><time>2026-05-03T10:49:29.001Z</time></trkpt><trkpt lat="45.34208040045035" lon="10.685151476720263"><ele>105.0</ele><time>2026-05-03T10:49:49.001Z</time></trkpt><trkpt lat="45.3420837010504" lon="10.685056557821621"><ele>105.0</ele><time>2026-05-03T10:49:55Z</time></trkpt><trkpt lat="45.34204529204477" lon="10.684970718136942"><ele>105.0</ele><time>2026-05-03T10:49:57Z</time></trkpt><trkpt lat="45.34199055535951" lon="10.684879902007012"><ele>105.0</ele><time>2026-05-03T10:49:59Z</time></trkpt><trkpt lat="45.341970607738325" lon="10.684742253809866"><ele>105.0</ele><time>2026-05-03T10:50:01Z</time></trkpt><trkpt lat="45.34195490534144" lon="10.684602771808256"><ele>105.0</ele><time>2026-05-03T10:50:03Z</time></trkpt><trkpt lat="45.341964980845034" lon="10.684456776418298"><ele>105.0</ele><time>2026-05-03T10:50:05Z</time></trkpt><trkpt lat="45.3419767745048" lon="10.684257198165607"><ele>105.0</ele><time>2026-05-03T10:50:07Z</time></trkpt><trkpt lat="45.34197842446673" lon="10.684098929171988"><ele>105.0</ele><time>2026-05-03T10:50:08Z</time></trkpt><trkpt lat="45.34199337024378" lon="10.68394977211084"><ele>105.0</ele><time>2026-05-03T10:50:09Z</time></trkpt><trkpt lat="45.342003243658695" lon="10.683843694090664"><ele>105.0</ele><time>2026-05-03T10:50:10Z</time></trkpt><trkpt lat="45.34198751581482" lon="10.683729130443194"><ele>105.0</ele><time>2026-05-03T10:50:12Z</time></trkpt><trkpt lat="45.34197413793625" lon="10.68363868975602"><ele>105.0</ele><time>2026-05-03T10:50:15Z</time></trkpt><trkpt lat="45.34201363632389" lon="10.683543152130696"><ele>105.0</ele><time>2026-05-03T10:50:18Z</time></trkpt><trkpt lat="45.34219366258881" lon="10.683400261101053"><ele>104.66666666666667</ele><time>2026-05-03T10:50:27Z</time></trkpt><trkpt lat="45.34221581062522" lon="10.683296186840161"><ele>104.33333333333334</ele><time>2026-05-03T10:50:28Z</time></trkpt><trkpt lat="45.34223570096973" lon="10.683176146276857"><ele>104.0</ele><time>2026-05-03T10:50:29Z</time></trkpt><trkpt lat="45.342258743922145" lon="10.68306136352082"><ele>103.66666666666667</ele><time>2026-05-03T10:50:30Z</time></trkpt><trkpt lat="45.3422971826027" lon="10.682941446233556"><ele>103.33333333333334</ele><time>2026-05-03T10:50:31Z</time></trkpt><trkpt lat="45.34232392913861" lon="10.68285490592062"><ele>103.0</ele><time>2026-05-03T10:50:32Z</time></trkpt><trkpt lat="45.342355382622586" lon="10.682718155527244"><ele>103.0</ele><time>2026-05-03T10:50:34Z</time></trkpt><trkpt lat="45.342396480415665" lon="10.68255247717723"><ele>103.0</ele><time>2026-05-03T10:50:36.001Z</time></trkpt><trkpt lat="45.34243714860573" lon="10.682450571562438"><ele>103.0</ele><time>2026-05-03T10:50:37.001Z</time></trkpt><trkpt lat="45.34249023700339" lon="10.682331461110563"><ele>103.0</ele><time>2026-05-03T10:50:38.001Z</time></trkpt><trkpt lat="45.34251316943781" lon="10.682211500456592"><ele>103.0</ele><time>2026-05-03T10:50:39.001Z</time></trkpt><trkpt lat="45.342553391296406" lon="10.682074624582828"><ele>103.0</ele><time>2026-05-03T10:50:40.001Z</time></trkpt><trkpt lat="45.34258742241088" lon="10.681938322634192"><ele>103.0</ele><time>2026-05-03T10:50:41.001Z</time></trkpt><trkpt lat="45.34263026302196" lon="10.681785369564077"><ele>103.0</ele><time>2026-05-03T10:50:42.001Z</time></trkpt><trkpt lat="45.34266831717076" lon="10.681640926140629"><ele>103.0</ele><time>2026-05-03T10:50:43.001Z</time></trkpt><trkpt lat="45.34271294455583" lon="10.681536507712966"><ele>103.0</ele><time>2026-05-03T10:50:44.001Z</time></trkpt><trkpt lat="45.342771858245825" lon="10.681445125753191"><ele>103.16666666666667</ele><time>2026-05-03T10:50:45.001Z</time></trkpt><trkpt lat="45.34281860568659" lon="10.681337563113246"><ele>103.33333333333334</ele><time>2026-05-03T10:50:46.001Z</time></trkpt><trkpt lat="45.342879579832875" lon="10.68125942225954"><ele>103.5</ele><time>2026-05-03T10:50:47.001Z</time></trkpt><trkpt lat="45.342933759172546" lon="10.681159468494117"><ele>103.66666666666666</ele><time>2026-05-03T10:50:48.001Z</time></trkpt><trkpt lat="45.3429558998958" lon="10.68104784407993"><ele>103.83333333333333</ele><time>2026-05-03T10:50:49.001Z</time></trkpt><trkpt lat="45.34300348616514" lon="10.680916661629247"><ele>104.0</ele><time>2026-05-03T10:50:50.001Z</time></trkpt><trkpt lat="45.343064143069725" lon="10.680767393902471"><ele>104.0</ele><time>2026-05-03T10:50:51.001Z</time></trkpt><trkpt lat="45.34312995102415" lon="10.680619574240412"><ele>104.0</ele><time>2026-05-03T10:50:52.001Z</time></trkpt><trkpt lat="45.3431973413397" lon="10.680481021712966"><ele>104.0</ele><time>2026-05-03T10:50:53.001Z</time></trkpt><trkpt lat="45.34327214384075" lon="10.680346636441833"><ele>104.0</ele><time>2026-05-03T10:50:54.001Z</time></trkpt><trkpt lat="45.34332107454137" lon="10.680219883371521"><ele>104.49999999999999</ele><time>2026-05-03T10:50:55.001Z</time></trkpt><trkpt lat="45.34336756400319" lon="10.680111456379734"><ele>105.0</ele><time>2026-05-03T10:50:56.001Z</time></trkpt><trkpt lat="45.343408899114735" lon="10.680033022582185"><ele>105.5</ele><time>2026-05-03T10:50:57.001Z</time></trkpt><trkpt lat="45.3434499645801" lon="10.679912733676796"><ele>106.0</ele><time>2026-05-03T10:50:59.001Z</time></trkpt><trkpt lat="45.34351323855422" lon="10.679874568137423"><ele>106.49999999999999</ele><time>2026-05-03T10:51:03.001Z</time></trkpt><trkpt lat="45.34357150775528" lon="10.679925370356495"><ele>107.0</ele><time>2026-05-03T10:51:04.001Z</time></trkpt><trkpt lat="45.34365428492252" lon="10.679986496245837"><ele>107.0</ele><time>2026-05-03T10:51:05.001Z</time></trkpt><trkpt lat="45.34375224166635" lon="10.680076747373507"><ele>107.0</ele><time>2026-05-03T10:51:06.001Z</time></trkpt><trkpt lat="45.34385261651729" lon="10.680174145296554"><ele>107.0</ele><time>2026-05-03T10:51:07.001Z</time></trkpt><trkpt lat="45.34394278075239" lon="10.680253270789331"><ele>107.0</ele><time>2026-05-03T10:51:08.001Z</time></trkpt><trkpt lat="45.34403302040223" lon="10.680339613729847"><ele>105.19999999999999</ele><time>2026-05-03T10:51:09.001Z</time></trkpt><trkpt lat="45.34411988802164" lon="10.680429989035973"><ele>103.39999999999999</ele><time>2026-05-03T10:51:10.001Z</time></trkpt><trkpt lat="45.344195062647806" lon="10.680511206886425"><ele>101.6</ele><time>2026-05-03T10:51:11.001Z</time></trkpt><trkpt lat="45.34428343397478" lon="10.680581858807399"><ele>99.80000000000001</ele><time>2026-05-03T10:51:12.001Z</time></trkpt><trkpt lat="45.34437020206355" lon="10.680631054036946"><ele>98.0</ele><time>2026-05-03T10:51:13.001Z</time></trkpt><trkpt lat="45.34445495745871" lon="10.680705525194838"><ele>97.99999999999999</ele><time>2026-05-03T10:51:14.001Z</time></trkpt><trkpt lat="45.34453413828488" lon="10.680790585047722"><ele>98.0</ele><time>2026-05-03T10:51:15.001Z</time></trkpt><trkpt lat="45.3446142639102" lon="10.680865492013197"><ele>98.0</ele><time>2026-05-03T10:51:16.001Z</time></trkpt><trkpt lat="45.34467998475724" lon="10.680935617597994"><ele>98.0</ele><time>2026-05-03T10:51:17.001Z</time></trkpt><trkpt lat="45.34474025763836" lon="10.681002086002023"><ele>97.99999999999999</ele><time>2026-05-03T10:51:18.001Z</time></trkpt><trkpt lat="45.344801216295856" lon="10.6810678424072"><ele>98.0</ele><time>2026-05-03T10:51:19.001Z</time></trkpt><trkpt lat="45.34485312489103" lon="10.68113365502126"><ele>97.66666666666666</ele><time>2026-05-03T10:51:20.001Z</time></trkpt><trkpt lat="45.34493156328511" lon="10.68123360971477"><ele>97.33333333333333</ele><time>2026-05-03T10:51:22.001Z</time></trkpt><trkpt lat="45.34499404731577" lon="10.681298047781281"><ele>97.0</ele><time>2026-05-03T10:51:25.001Z</time></trkpt><trkpt lat="45.34505801834144" lon="10.681282193956504"><ele>96.66666666666666</ele><time>2026-05-03T10:51:28.001Z</time></trkpt><trkpt lat="45.34512388705464" lon="10.681210470710532"><ele>96.33333333333333</ele><time>2026-05-03T10:51:30.001Z</time></trkpt><trkpt lat="45.34522693433097" lon="10.68112724548223"><ele>96.0</ele><time>2026-05-03T10:51:32.001Z</time></trkpt><trkpt lat="45.34530465643078" lon="10.681053425285414"><ele>96.0</ele><time>2026-05-03T10:51:33.001Z</time></trkpt><trkpt lat="45.34537595601804" lon="10.680989117595804"><ele>96.0</ele><time>2026-05-03T10:51:34.001Z</time></trkpt><trkpt lat="45.34545937315794" lon="10.680907593846948"><ele>96.0</ele><time>2026-05-03T10:51:35.001Z</time></trkpt><trkpt lat="45.34555040890408" lon="10.680809075182033"><ele>96.0</ele><time>2026-05-03T10:51:36.001Z</time></trkpt><trkpt lat="45.34565071799762" lon="10.68070866041131"><ele>96.0</ele><time>2026-05-03T10:51:37.001Z</time></trkpt><trkpt lat="45.34575680635873" lon="10.680605533014132"><ele>95.75</ele><time>2026-05-03T10:51:38.001Z</time></trkpt><trkpt lat="45.345865988116465" lon="10.680503777755012"><ele>95.5</ele><time>2026-05-03T10:51:39.001Z</time></trkpt><trkpt lat="45.34597756014135" lon="10.680395437350237"><ele>95.25</ele><time>2026-05-03T10:51:40.001Z</time></trkpt><trkpt lat="45.346086971329974" lon="10.680285284908283"><ele>95.0</ele><time>2026-05-03T10:51:41.001Z</time></trkpt><trkpt lat="45.346185568167684" lon="10.68018495862983"><ele>95.0</ele><time>2026-05-03T10:51:42.001Z</time></trkpt><trkpt lat="45.34627804752043" lon="10.680088071019801"><ele>95.0</ele><time>2026-05-03T10:51:43.001Z</time></trkpt><trkpt lat="45.346374205476074" lon="10.679990238401086"><ele>95.0</ele><time>2026-05-03T10:51:44.001Z</time></trkpt><trkpt lat="45.34647664920506" lon="10.679887290596728"><ele>95.0</ele><time>2026-05-03T10:51:45.001Z</time></trkpt><trkpt lat="45.34657689363364" lon="10.679788142322266"><ele>95.25</ele><time>2026-05-03T10:51:46.001Z</time></trkpt><trkpt lat="45.34667103931603" lon="10.679697965341123"><ele>95.5</ele><time>2026-05-03T10:51:47.001Z</time></trkpt><trkpt lat="45.34676894941306" lon="10.67958991802263"><ele>95.75</ele><time>2026-05-03T10:51:48.001Z</time></trkpt><trkpt lat="45.346868498580264" lon="10.679509609947313"><ele>96.0</ele><time>2026-05-03T10:51:49.001Z</time></trkpt><trkpt lat="45.34696970888412" lon="10.67941824587063"><ele>96.0</ele><time>2026-05-03T10:51:50.001Z</time></trkpt><trkpt lat="45.347075208206086" lon="10.679327911407096"><ele>96.0</ele><time>2026-05-03T10:51:51Z</time></trkpt><trkpt lat="45.347172164171866" lon="10.67924444001049"><ele>96.0</ele><time>2026-05-03T10:51:52Z</time></trkpt><trkpt lat="45.34730609942049" lon="10.679212512160348"><ele>96.0</ele><time>2026-05-03T10:51:53Z</time></trkpt><trkpt lat="45.347402278680505" lon="10.679101652100075"><ele>96.8</ele><time>2026-05-03T10:51:54Z</time></trkpt><trkpt lat="45.347491618482906" lon="10.678998675389343"><ele>97.6</ele><time>2026-05-03T10:51:55Z</time></trkpt><trkpt lat="45.34757102342716" lon="10.678912586349957"><ele>98.4</ele><time>2026-05-03T10:51:56Z</time></trkpt><trkpt lat="45.34763292023649" lon="10.678848910178832"><ele>99.2</ele><time>2026-05-03T10:51:57Z</time></trkpt><trkpt lat="45.347717768404145" lon="10.678758420540092"><ele>100.0</ele><time>2026-05-03T10:51:59Z</time></trkpt><trkpt lat="45.34777670953439" lon="10.678687382283183"><ele>100.0</ele><time>2026-05-03T10:52:01Z</time></trkpt><trkpt lat="45.34782369288911" lon="10.678613837525223"><ele>100.0</ele><time>2026-05-03T10:52:06Z</time></trkpt><trkpt lat="45.34795548201215" lon="10.6786865221484"><ele>100.0</ele><time>2026-05-03T10:52:09Z</time></trkpt><trkpt lat="45.34803920059693" lon="10.678783707951979"><ele>100.0</ele><time>2026-05-03T10:52:10Z</time></trkpt><trkpt lat="45.3481474592981" lon="10.678900050893516"><ele>99.0</ele><time>2026-05-03T10:52:11Z</time></trkpt><trkpt lat="45.34826126284854" lon="10.67901314240169"><ele>98.0</ele><time>2026-05-03T10:52:12Z</time></trkpt><trkpt lat="45.34836137144934" lon="10.679119863895453"><ele>97.0</ele><time>2026-05-03T10:52:13Z</time></trkpt><trkpt lat="45.34846683738687" lon="10.679236111528233"><ele>96.0</ele><time>2026-05-03T10:52:14Z</time></trkpt><trkpt lat="45.34858730479555" lon="10.679363769611943"><ele>95.66666666666667</ele><time>2026-05-03T10:52:15Z</time></trkpt><trkpt lat="45.34871599053392" lon="10.679503528826677"><ele>95.33333333333334</ele><time>2026-05-03T10:52:16Z</time></trkpt><trkpt lat="45.348847503526905" lon="10.679650234120954"><ele>95.0</ele><time>2026-05-03T10:52:17Z</time></trkpt><trkpt lat="45.348978229961126" lon="10.679806089270578"><ele>95.0</ele><time>2026-05-03T10:52:18Z</time></trkpt><trkpt lat="45.349109664673165" lon="10.679958210619168"><ele>95.0</ele><time>2026-05-03T10:52:19Z</time></trkpt><trkpt lat="45.34923838115662" lon="10.680108746416755"><ele>95.0</ele><time>2026-05-03T10:52:20Z</time></trkpt><trkpt lat="45.3493611170684" lon="10.680252159002404"><ele>94.66666666666667</ele><time>2026-05-03T10:52:21Z</time></trkpt><trkpt lat="45.34948565443696" lon="10.680400265665684"><ele>94.33333333333333</ele><time>2026-05-03T10:52:22Z</time></trkpt><trkpt lat="45.349600375690336" lon="10.680532938335013"><ele>94.0</ele><time>2026-05-03T10:52:23Z</time></trkpt><trkpt lat="45.34970847566983" lon="10.680659263919907"><ele>94.5</ele><time>2026-05-03T10:52:24Z</time></trkpt><trkpt lat="45.349823206512376" lon="10.680792791273202"><ele>95.0</ele><time>2026-05-03T10:52:25Z</time></trkpt><trkpt lat="45.34993927088301" lon="10.68092741030395"><ele>95.5</ele><time>2026-05-03T10:52:26Z</time></trkpt><trkpt lat="45.35005421805089" lon="10.681059507865244"><ele>96.0</ele><time>2026-05-03T10:52:27Z</time></trkpt><trkpt lat="45.35016311551104" lon="10.681189678027732"><ele>96.0</ele><time>2026-05-03T10:52:28Z</time></trkpt><trkpt lat="45.3502656686525" lon="10.681307526718781"><ele>96.0</ele><time>2026-05-03T10:52:29Z</time></trkpt><trkpt lat="45.350368363550196" lon="10.681428139599708"><ele>96.0</ele><time>2026-05-03T10:52:30Z</time></trkpt><trkpt lat="45.350480078549346" lon="10.681548734779476"><ele>96.0</ele><time>2026-05-03T10:52:31Z</time></trkpt><trkpt lat="45.35060125571685" lon="10.681655371993791"><ele>96.5</ele><time>2026-05-03T10:52:32Z</time></trkpt><trkpt lat="45.35073240700934" lon="10.681747811547858"><ele>97.0</ele><time>2026-05-03T10:52:33Z</time></trkpt><trkpt lat="45.350872187928545" lon="10.681820893559523"><ele>97.5</ele><time>2026-05-03T10:52:34Z</time></trkpt><trkpt lat="45.351019985413934" lon="10.68187938010405"><ele>98.0</ele><time>2026-05-03T10:52:35Z</time></trkpt><trkpt lat="45.35117455924319" lon="10.68192295418732"><ele>97.33333333333333</ele><time>2026-05-03T10:52:36Z</time></trkpt><trkpt lat="45.35133336906387" lon="10.681945103436123"><ele>96.66666666666666</ele><time>2026-05-03T10:52:37Z</time></trkpt><trkpt lat="45.35149444138347" lon="10.68194257551791"><ele>96.0</ele><time>2026-05-03T10:52:38Z</time></trkpt><trkpt lat="45.3516523157126" lon="10.681923122845987"><ele>96.0</ele><time>2026-05-03T10:52:39Z</time></trkpt><trkpt lat="45.351808049764344" lon="10.68190375536906"><ele>96.0</ele><time>2026-05-03T10:52:40Z</time></trkpt><trkpt lat="45.35195913706532" lon="10.681888278583601"><ele>96.0</ele><time>2026-05-03T10:52:41Z</time></trkpt><trkpt lat="45.35210800577644" lon="10.681868158781883"><ele>96.0</ele><time>2026-05-03T10:52:42Z</time></trkpt><trkpt lat="45.352249735135516" lon="10.681846686910696"><ele>96.0</ele><time>2026-05-03T10:52:43Z</time></trkpt><trkpt lat="45.35237367534318" lon="10.681827952591844"><ele>96.0</ele><time>2026-05-03T10:52:44Z</time></trkpt><trkpt lat="45.35248811860812" lon="10.68181423960322"><ele>96.0</ele><time>2026-05-03T10:52:45Z</time></trkpt><trkpt lat="45.3525913474145" lon="10.681801343447837"><ele>96.0</ele><time>2026-05-03T10:52:46Z</time></trkpt><trkpt lat="45.352683508081086" lon="10.681799003846292"><ele>96.0</ele><time>2026-05-03T10:52:47Z</time></trkpt><trkpt lat="45.35276464512696" lon="10.68180631233963"><ele>96.0</ele><time>2026-05-03T10:52:48Z</time></trkpt><trkpt lat="45.35284218796319" lon="10.681819900660358"><ele>96.0</ele><time>2026-05-03T10:52:49Z</time></trkpt><trkpt lat="45.352924982498784" lon="10.68183089934106"><ele>96.0</ele><time>2026-05-03T10:52:50Z</time></trkpt><trkpt lat="45.35301606192045" lon="10.681832336412528"><ele>96.0</ele><time>2026-05-03T10:52:51Z</time></trkpt><trkpt lat="45.35309538789816" lon="10.681846098128398"><ele>96.0</ele><time>2026-05-03T10:52:52Z</time></trkpt><trkpt lat="45.35316969136614" lon="10.68187347311125"><ele>96.0</ele><time>2026-05-03T10:52:53Z</time></trkpt><trkpt lat="45.35323859797759" lon="10.681908599746423"><ele>96.0</ele><time>2026-05-03T10:52:54Z</time></trkpt><trkpt lat="45.353318928304674" lon="10.681937125706106"><ele>96.0</ele><time>2026-05-03T10:52:55Z</time></trkpt><trkpt lat="45.3534042196741" lon="10.682004852181977"><ele>96.0</ele><time>2026-05-03T10:52:56Z</time></trkpt><trkpt lat="45.35347910413153" lon="10.682142315677158"><ele>96.0</ele><time>2026-05-03T10:52:57Z</time></trkpt><trkpt lat="45.35352756837903" lon="10.682339512740592"><ele>96.0</ele><time>2026-05-03T10:52:58Z</time></trkpt><trkpt lat="45.35360550128423" lon="10.682477856787134"><ele>96.0</ele><time>2026-05-03T10:52:59Z</time></trkpt><trkpt lat="45.35356980693173" lon="10.682726618038815"><ele>96.33333333333334</ele><time>2026-05-03T10:53:00Z</time></trkpt><trkpt lat="45.353566571181645" lon="10.682943466198212"><ele>96.66666666666667</ele><time>2026-05-03T10:53:01Z</time></trkpt><trkpt lat="45.3535631833036" lon="10.683174905807029"><ele>97.0</ele><time>2026-05-03T10:53:02Z</time></trkpt><trkpt lat="45.35356436988125" lon="10.683410784004401"><ele>97.33333333333334</ele><time>2026-05-03T10:53:03Z</time></trkpt><trkpt lat="45.353565496496834" lon="10.683664369435274"><ele>97.66666666666666</ele><time>2026-05-03T10:53:04Z</time></trkpt><trkpt lat="45.353568528512795" lon="10.68393446054197"><ele>98.0</ele><time>2026-05-03T10:53:05Z</time></trkpt><trkpt lat="45.35357128878577" lon="10.684211381219663"><ele>97.66666666666666</ele><time>2026-05-03T10:53:06Z</time></trkpt><trkpt lat="45.353575536054116" lon="10.684486081888057"><ele>97.33333333333334</ele><time>2026-05-03T10:53:07Z</time></trkpt><trkpt lat="45.353579806059116" lon="10.684745869897903"><ele>97.0</ele><time>2026-05-03T10:53:08Z</time></trkpt><trkpt lat="45.35358510424442" lon="10.68499563681176"><ele>97.0</ele><time>2026-05-03T10:53:09Z</time></trkpt><trkpt lat="45.35359348225672" lon="10.68525094031421"><ele>97.0</ele><time>2026-05-03T10:53:10Z</time></trkpt><trkpt lat="45.353592153339164" lon="10.685493271870493"><ele>97.0</ele><time>2026-05-03T10:53:11Z</time></trkpt><trkpt lat="45.353590176725284" lon="10.685718933478958"><ele>97.33333333333334</ele><time>2026-05-03T10:53:12Z</time></trkpt><trkpt lat="45.35359457984961" lon="10.685953228215872"><ele>97.66666666666666</ele><time>2026-05-03T10:53:13Z</time></trkpt><trkpt lat="45.35359432169625" lon="10.686196112812922"><ele>98.0</ele><time>2026-05-03T10:53:14Z</time></trkpt><trkpt lat="45.35359391990298" lon="10.686452396107619"><ele>98.0</ele><time>2026-05-03T10:53:15Z</time></trkpt><trkpt lat="45.35359746041275" lon="10.68671672403884"><ele>98.0</ele><time>2026-05-03T10:53:16Z</time></trkpt><trkpt lat="45.35360082763576" lon="10.686977026097653"><ele>98.0</ele><time>2026-05-03T10:53:17Z</time></trkpt><trkpt lat="45.353606066425264" lon="10.687236430993421"><ele>97.66666666666666</ele><time>2026-05-03T10:53:18Z</time></trkpt><trkpt lat="45.353609675745595" lon="10.68749800372198"><ele>97.33333333333334</ele><time>2026-05-03T10:53:19Z</time></trkpt><trkpt lat="45.35361898598199" lon="10.687764821767708"><ele>97.0</ele><time>2026-05-03T10:53:20Z</time></trkpt><trkpt lat="45.35363700365858" lon="10.68803941327025"><ele>97.0</ele><time>2026-05-03T10:53:21Z</time></trkpt><trkpt lat="45.353665142407216" lon="10.688316015247418"><ele>97.0</ele><time>2026-05-03T10:53:22Z</time></trkpt><trkpt lat="45.3537052808855" lon="10.688593992820259"><ele>97.0</ele><time>2026-05-03T10:53:23Z</time></trkpt><trkpt lat="45.35374971516871" lon="10.688884326246908"><ele>97.0</ele><time>2026-05-03T10:53:24Z</time></trkpt><trkpt lat="45.353797407039146" lon="10.68917181265133"><ele>97.0</ele><time>2026-05-03T10:53:25Z</time></trkpt><trkpt lat="45.35384284000233" lon="10.689468491041847"><ele>97.0</ele><time>2026-05-03T10:53:26Z</time></trkpt><trkpt lat="45.35389030029424" lon="10.689763909209038"><ele>97.66666666666667</ele><time>2026-05-03T10:53:27Z</time></trkpt><trkpt lat="45.35393673624034" lon="10.690067448131042"><ele>98.33333333333334</ele><time>2026-05-03T10:53:28Z</time></trkpt><trkpt lat="45.353986402017746" lon="10.690379779296903"><ele>99.0</ele><time>2026-05-03T10:53:29Z</time></trkpt><trkpt lat="45.354037602991845" lon="10.69068713282002"><ele>99.0</ele><time>2026-05-03T10:53:30Z</time></trkpt><trkpt lat="45.354089421195255" lon="10.690990419686738"><ele>99.0</ele><time>2026-05-03T10:53:31Z</time></trkpt><trkpt lat="45.35414284962105" lon="10.691297242960655"><ele>99.0</ele><time>2026-05-03T10:53:32Z</time></trkpt><trkpt lat="45.35420346811788" lon="10.691604738557851"><ele>98.33333333333334</ele><time>2026-05-03T10:53:33Z</time></trkpt><trkpt lat="45.35426094076425" lon="10.69190256324005"><ele>97.66666666666667</ele><time>2026-05-03T10:53:34Z</time></trkpt><trkpt lat="45.35431303703374" lon="10.692170429361559"><ele>97.0</ele><time>2026-05-03T10:53:35Z</time></trkpt><trkpt lat="45.354362648197174" lon="10.692420331279903"><ele>97.0</ele><time>2026-05-03T10:53:36Z</time></trkpt><trkpt lat="45.35441073021797" lon="10.69265600494576"><ele>97.0</ele><time>2026-05-03T10:53:37Z</time></trkpt><trkpt lat="45.354464940584556" lon="10.692899372363373"><ele>97.0</ele><time>2026-05-03T10:53:38Z</time></trkpt><trkpt lat="45.35451889141768" lon="10.693150293835426"><ele>97.0</ele><time>2026-05-03T10:53:39Z</time></trkpt><trkpt lat="45.354572298217875" lon="10.693398606599583"><ele>97.0</ele><time>2026-05-03T10:53:40Z</time></trkpt><trkpt lat="45.35462297691851" lon="10.69362314044692"><ele>97.0</ele><time>2026-05-03T10:53:41Z</time></trkpt><trkpt lat="45.35467447231657" lon="10.6938586532662"><ele>97.0</ele><time>2026-05-03T10:53:42Z</time></trkpt><trkpt lat="45.354727674080166" lon="10.694098301726447"><ele>97.0</ele><time>2026-05-03T10:53:43Z</time></trkpt><trkpt lat="45.35477772970577" lon="10.694324746744995"><ele>97.0</ele><time>2026-05-03T10:53:44Z</time></trkpt><trkpt lat="45.35482443276408" lon="10.694544655455928"><ele>97.0</ele><time>2026-05-03T10:53:45Z</time></trkpt><trkpt lat="45.35487249183713" lon="10.69475250208217"><ele>97.0</ele><time>2026-05-03T10:53:46Z</time></trkpt><trkpt lat="45.35492387736852" lon="10.69495547116136"><ele>97.0</ele><time>2026-05-03T10:53:47Z</time></trkpt><trkpt lat="45.35498036261722" lon="10.695169816137511"><ele>97.0</ele><time>2026-05-03T10:53:48Z</time></trkpt><trkpt lat="45.355036900513255" lon="10.69537656023709"><ele>97.0</ele><time>2026-05-03T10:53:49Z</time></trkpt><trkpt lat="45.355090728106525" lon="10.69555973537915"><ele>97.0</ele><time>2026-05-03T10:53:50Z</time></trkpt><trkpt lat="45.35514161247756" lon="10.695725958214876"><ele>97.0</ele><time>2026-05-03T10:53:51Z</time></trkpt><trkpt lat="45.35519030439637" lon="10.695861205587004"><ele>97.0</ele><time>2026-05-03T10:53:52Z</time></trkpt><trkpt lat="45.355239820188736" lon="10.695970244521185"><ele>97.0</ele><time>2026-05-03T10:53:53Z</time></trkpt><trkpt lat="45.355282548204364" lon="10.69606119584451"><ele>97.0</ele><time>2026-05-03T10:53:54Z</time></trkpt><trkpt lat="45.355340170960666" lon="10.696199015452043"><ele>97.0</ele><time>2026-05-03T10:53:56Z</time></trkpt><trkpt lat="45.355385403888164" lon="10.696276443389307"><ele>97.0</ele><time>2026-05-03T10:53:57.999Z</time></trkpt><trkpt lat="45.35554334718342" lon="10.696242829674778"><ele>96.83333333333334</ele><time>2026-05-03T10:54:00.999Z</time></trkpt><trkpt lat="45.35558707904563" lon="10.696148746066873"><ele>96.66666666666667</ele><time>2026-05-03T10:54:01.999Z</time></trkpt><trkpt lat="45.35562806936412" lon="10.696015738975262"><ele>96.5</ele><time>2026-05-03T10:54:02.999Z</time></trkpt><trkpt lat="45.35565834006199" lon="10.695902800962273"><ele>96.33333333333334</ele><time>2026-05-03T10:54:03.999Z</time></trkpt><trkpt lat="45.35568832751208" lon="10.695798538234456"><ele>96.16666666666667</ele><time>2026-05-03T10:54:04.999Z</time></trkpt><trkpt lat="45.35572667570884" lon="10.695696132389655"><ele>96.0</ele><time>2026-05-03T10:54:05.999Z</time></trkpt><trkpt lat="45.35576240239394" lon="10.695608467282263"><ele>96.0</ele><time>2026-05-03T10:54:06.999Z</time></trkpt><trkpt lat="45.35579757170426" lon="10.695524208875803"><ele>96.0</ele><time>2026-05-03T10:54:07.999Z</time></trkpt><trkpt lat="45.35583620615045" lon="10.695436763684611"><ele>96.0</ele><time>2026-05-03T10:54:08.999Z</time></trkpt><trkpt lat="45.35587881134573" lon="10.695339308753468"><ele>96.0</ele><time>2026-05-03T10:54:09.999Z</time></trkpt><trkpt lat="45.35591732988038" lon="10.695234494298253"><ele>96.0</ele><time>2026-05-03T10:54:11Z</time></trkpt><trkpt lat="45.35594041534417" lon="10.695114536198185"><ele>96.0</ele><time>2026-05-03T10:54:12Z</time></trkpt><trkpt lat="45.3559730743136" lon="10.694991612183777"><ele>96.19999999999999</ele><time>2026-05-03T10:54:13Z</time></trkpt><trkpt lat="45.35600711348338" lon="10.694868670634676"><ele>96.39999999999999</ele><time>2026-05-03T10:54:14Z</time></trkpt><trkpt lat="45.35605049619018" lon="10.694734055575244"><ele>96.6</ele><time>2026-05-03T10:54:15Z</time></trkpt><trkpt lat="45.35609691969508" lon="10.694607416684903"><ele>96.8</ele><time>2026-05-03T10:54:16Z</time></trkpt><trkpt lat="45.35614875654781" lon="10.694479099352217"><ele>97.0</ele><time>2026-05-03T10:54:17Z</time></trkpt><trkpt lat="45.356199530731146" lon="10.694352498626584"><ele>97.0</ele><time>2026-05-03T10:54:18Z</time></trkpt><trkpt lat="45.35623716514971" lon="10.694251891191007"><ele>97.0</ele><time>2026-05-03T10:54:19Z</time></trkpt><trkpt lat="45.35632371044727" lon="10.694134009121736"><ele>97.0</ele><time>2026-05-03T10:54:21Z</time></trkpt><trkpt lat="45.35642795517198" lon="10.69403945869183"><ele>97.0</ele><time>2026-05-03T10:54:23Z</time></trkpt><trkpt lat="45.3565652559566" lon="10.693980306245958"><ele>94.0</ele><time>2026-05-03T10:54:25Z</time></trkpt><trkpt lat="45.35707848456624" lon="10.692956233940874"><ele>94.0</ele><time>2026-05-03T10:54:33Z</time></trkpt><trkpt lat="45.35714704751265" lon="10.692873248880778"><ele>94.0</ele><time>2026-05-03T10:54:34Z</time></trkpt><trkpt lat="45.357201862570534" lon="10.692791283333019"><ele>94.0</ele><time>2026-05-03T10:54:35Z</time></trkpt><trkpt lat="45.35724457410817" lon="10.692683192163491"><ele>94.0</ele><time>2026-05-03T10:54:36Z</time></trkpt><trkpt lat="45.357290856058555" lon="10.692582465339816"><ele>94.0</ele><time>2026-05-03T10:54:37Z</time></trkpt><trkpt lat="45.3573414570922" lon="10.692477895467045"><ele>94.0</ele><time>2026-05-03T10:54:38Z</time></trkpt><trkpt lat="45.35738248932216" lon="10.692370572962908"><ele>94.0</ele><time>2026-05-03T10:54:39Z</time></trkpt><trkpt lat="45.35740815117576" lon="10.692254876419456"><ele>94.0</ele><time>2026-05-03T10:54:40Z</time></trkpt><trkpt lat="45.35742815369566" lon="10.692121527123746"><ele>94.0</ele><time>2026-05-03T10:54:41Z</time></trkpt><trkpt lat="45.35743424786954" lon="10.692003076909964"><ele>94.0</ele><time>2026-05-03T10:54:42Z</time></trkpt><trkpt lat="45.357432476355825" lon="10.691910115367119"><ele>94.0</ele><time>2026-05-03T10:54:43Z</time></trkpt><trkpt lat="45.357425324339125" lon="10.691815500199917"><ele>94.0</ele><time>2026-05-03T10:54:44Z</time></trkpt><trkpt lat="45.35741503962713" lon="10.69166792671838"><ele>94.83333333333333</ele><time>2026-05-03T10:54:46Z</time></trkpt><trkpt lat="45.35741429916171" lon="10.691564065284133"><ele>95.66666666666666</ele><time>2026-05-03T10:54:48Z</time></trkpt><trkpt lat="45.3574533302266" lon="10.691437784089354"><ele>96.5</ele><time>2026-05-03T10:54:51Z</time></trkpt><trkpt lat="45.35752062101127" lon="10.691415453399268"><ele>97.33333333333333</ele><time>2026-05-03T10:54:53Z</time></trkpt><trkpt lat="45.35759282472728" lon="10.691472804080771"><ele>98.16666666666667</ele><time>2026-05-03T10:54:54Z</time></trkpt><trkpt lat="45.35770289665521" lon="10.69146751249836"><ele>99.0</ele><time>2026-05-03T10:54:56Z</time></trkpt><trkpt lat="45.35780228325442" lon="10.691427758361613"><ele>99.0</ele><time>2026-05-03T10:54:58Z</time></trkpt><trkpt lat="45.35784637938302" lon="10.691289013210461"><ele>99.0</ele><time>2026-05-03T10:55:00Z</time></trkpt><trkpt lat="45.35785017746992" lon="10.691165550581164"><ele>99.0</ele><time>2026-05-03T10:55:01Z</time></trkpt><trkpt lat="45.35786508637472" lon="10.691037393388406"><ele>99.0</ele><time>2026-05-03T10:55:02Z</time></trkpt><trkpt lat="45.35788526166062" lon="10.69090454940558"><ele>99.0</ele><time>2026-05-03T10:55:03Z</time></trkpt><trkpt lat="45.35790584113901" lon="10.690798150961454"><ele>99.16666666666667</ele><time>2026-05-03T10:55:04Z</time></trkpt><trkpt lat="45.357927144261744" lon="10.690708470714727"><ele>99.33333333333334</ele><time>2026-05-03T10:55:05Z</time></trkpt><trkpt lat="45.3579867666852" lon="10.690551578840273"><ele>99.5</ele><time>2026-05-03T10:55:07Z</time></trkpt><trkpt lat="45.35802412015711" lon="10.690435677800147"><ele>99.66666666666667</ele><time>2026-05-03T10:55:08Z</time></trkpt><trkpt lat="45.3580555319484" lon="10.690337391986409"><ele>99.83333333333334</ele><time>2026-05-03T10:55:09Z</time></trkpt><trkpt lat="45.358092198859175" lon="10.690255779200447"><ele>100.0</ele><time>2026-05-03T10:55:10Z</time></trkpt><trkpt lat="45.35813160488371" lon="10.69018540742247"><ele>101.00000000000001</ele><time>2026-05-03T10:55:11Z</time></trkpt><trkpt lat="45.35816999369927" lon="10.690104386589796"><ele>102.0</ele><time>2026-05-03T10:55:12Z</time></trkpt><trkpt lat="45.35819110238853" lon="10.68992227022917"><ele>103.0</ele><time>2026-05-03T10:55:14Z</time></trkpt><trkpt lat="45.358190451327545" lon="10.6898107142276"><ele>104.0</ele><time>2026-05-03T10:55:15Z</time></trkpt><trkpt lat="45.35818301134959" lon="10.68970789674438"><ele>105.00000000000001</ele><time>2026-05-03T10:55:16Z</time></trkpt><trkpt lat="45.35815639251214" lon="10.689601156208555"><ele>106.0</ele><time>2026-05-03T10:55:17Z</time></trkpt><trkpt lat="45.35813612496027" lon="10.689500795833803"><ele>106.16666666666667</ele><time>2026-05-03T10:55:18Z</time></trkpt><trkpt lat="45.35809812916268" lon="10.689415329382948"><ele>106.33333333333334</ele><time>2026-05-03T10:55:19Z</time></trkpt><trkpt lat="45.35802370188713" lon="10.689323100291354"><ele>106.5</ele><time>2026-05-03T10:55:21Z</time></trkpt><trkpt lat="45.35799322869533" lon="10.689243182341329"><ele>106.66666666666666</ele><time>2026-05-03T10:55:34Z</time></trkpt><trkpt lat="45.3579802339239" lon="10.689123545674814"><ele>106.83333333333333</ele><time>2026-05-03T10:55:37Z</time></trkpt><trkpt lat="45.35793267640787" lon="10.689045030762614"><ele>107.0</ele><time>2026-05-03T10:55:40Z</time></trkpt><trkpt lat="45.35790206140563" lon="10.68895361319095"><ele>107.0</ele><time>2026-05-03T10:55:43Z</time></trkpt><trkpt lat="45.357926005002675" lon="10.688787565319945"><ele>106.99999999999999</ele><time>2026-05-03T10:55:45Z</time></trkpt><trkpt lat="45.357915641334884" lon="10.688691550182238"><ele>106.99999999999999</ele><time>2026-05-03T10:55:47Z</time></trkpt><trkpt lat="45.35784814496313" lon="10.68858333509503"><ele>107.0</ele><time>2026-05-03T10:57:40Z</time></trkpt><trkpt lat="45.357870655893734" lon="10.68849171712124"><ele>107.0</ele><time>2026-05-03T10:58:13Z</time></trkpt><trkpt lat="45.357762508380986" lon="10.688328796672497"><ele>107.00000000000001</ele><time>2026-05-03T10:59:16Z</time></trkpt><trkpt lat="45.3577092730237" lon="10.688278240682754"><ele>107.0</ele><time>2026-05-03T10:59:17Z</time></trkpt><trkpt lat="45.357641894821406" lon="10.688184950492541"><ele>107.0</ele><time>2026-05-03T10:59:19Z</time></trkpt><trkpt lat="45.35758881742748" lon="10.688133386689096"><ele>107.0</ele><time>2026-05-03T10:59:21Z</time></trkpt><trkpt lat="45.35752808857152" lon="10.68809157001423"><ele>107.0</ele><time>2026-05-03T10:59:33.001Z</time></trkpt><trkpt lat="45.3574721775017" lon="10.688004697521018"><ele>107.00000000000001</ele><time>2026-05-03T10:59:40.001Z</time></trkpt><trkpt lat="45.357500351663695" lon="10.687923535439404"><ele>107.0</ele><time>2026-05-03T10:59:41.001Z</time></trkpt><trkpt lat="45.35752173607557" lon="10.687831277816334"><ele>107.19999999999999</ele><time>2026-05-03T10:59:42.001Z</time></trkpt><trkpt lat="45.35755581314519" lon="10.68772145492607"><ele>107.39999999999999</ele><time>2026-05-03T10:59:43.001Z</time></trkpt><trkpt lat="45.35759712359252" lon="10.687607993227264"><ele>107.60000000000001</ele><time>2026-05-03T10:59:44.001Z</time></trkpt><trkpt lat="45.35765105754023" lon="10.687478535070372"><ele>107.80000000000001</ele><time>2026-05-03T10:59:45.001Z</time></trkpt><trkpt lat="45.35771067961655" lon="10.687345724824993"><ele>108.0</ele><time>2026-05-03T10:59:46.001Z</time></trkpt><trkpt lat="45.35777154359229" lon="10.68722778367794"><ele>108.0</ele><time>2026-05-03T10:59:47.001Z</time></trkpt><trkpt lat="45.357826795613356" lon="10.68714797881175"><ele>108.00000000000001</ele><time>2026-05-03T10:59:48.001Z</time></trkpt><trkpt lat="45.35789739195779" lon="10.687073304173687"><ele>108.00000000000001</ele><time>2026-05-03T10:59:49.001Z</time></trkpt><trkpt lat="45.35797673047614" lon="10.68699243807221"><ele>108.0</ele><time>2026-05-03T10:59:50.001Z</time></trkpt><trkpt lat="45.358068368652006" lon="10.686905397399187"><ele>108.0</ele><time>2026-05-03T10:59:51.001Z</time></trkpt><trkpt lat="45.35816506011378" lon="10.68681615060382"><ele>109.25</ele><time>2026-05-03T10:59:52.001Z</time></trkpt><trkpt lat="45.358262929905926" lon="10.68673090736742"><ele>110.5</ele><time>2026-05-03T10:59:53.001Z</time></trkpt><trkpt lat="45.35837006424356" lon="10.686645481357532"><ele>111.75</ele><time>2026-05-03T10:59:54.001Z</time></trkpt><trkpt lat="45.358474974684" lon="10.686559298500915"><ele>113.0</ele><time>2026-05-03T10:59:55.001Z</time></trkpt><trkpt lat="45.358581914004596" lon="10.68647068555437"><ele>113.0</ele><time>2026-05-03T10:59:56.001Z</time></trkpt><trkpt lat="45.358695344974265" lon="10.68638334442599"><ele>113.0</ele><time>2026-05-03T10:59:57.001Z</time></trkpt><trkpt lat="45.35879926518363" lon="10.686300457244233"><ele>113.0</ele><time>2026-05-03T10:59:58.001Z</time></trkpt><trkpt lat="45.35888677400045" lon="10.686214891944173"><ele>113.0</ele><time>2026-05-03T10:59:59.001Z</time></trkpt><trkpt lat="45.3589739405633" lon="10.686138174671747"><ele>114.4</ele><time>2026-05-03T11:00:00.001Z</time></trkpt><trkpt lat="45.35904935393792" lon="10.686057236582002"><ele>115.80000000000001</ele><time>2026-05-03T11:00:01.001Z</time></trkpt><trkpt lat="45.35911672811948" lon="10.685953199547699"><ele>117.2</ele><time>2026-05-03T11:00:02.001Z</time></trkpt><trkpt lat="45.359172873121956" lon="10.685836803682779"><ele>118.6</ele><time>2026-05-03T11:00:03.001Z</time></trkpt><trkpt lat="45.359222015547125" lon="10.685730188456473"><ele>120.0</ele><time>2026-05-03T11:00:04.001Z</time></trkpt><trkpt lat="45.35926308683698" lon="10.68560841915602"><ele>120.0</ele><time>2026-05-03T11:00:05.001Z</time></trkpt><trkpt lat="45.35931164800289" lon="10.68548383890014"><ele>120.0</ele><time>2026-05-03T11:00:06.001Z</time></trkpt><trkpt lat="45.359362019617976" lon="10.685356751129419"><ele>120.0</ele><time>2026-05-03T11:00:07.001Z</time></trkpt><trkpt lat="45.35941700042039" lon="10.685214982310086"><ele>120.0</ele><time>2026-05-03T11:00:08.001Z</time></trkpt><trkpt lat="45.3594663101375" lon="10.685081254269853"><ele>120.0</ele><time>2026-05-03T11:00:09.001Z</time></trkpt><trkpt lat="45.3595124072292" lon="10.68495666931364"><ele>119.8</ele><time>2026-05-03T11:00:10.001Z</time></trkpt><trkpt lat="45.35955833747915" lon="10.684837832566418"><ele>119.6</ele><time>2026-05-03T11:00:11.001Z</time></trkpt><trkpt lat="45.35960479802566" lon="10.68472264187421"><ele>119.4</ele><time>2026-05-03T11:00:12.001Z</time></trkpt><trkpt lat="45.35965351089236" lon="10.684615723157334"><ele>119.2</ele><time>2026-05-03T11:00:13.001Z</time></trkpt><trkpt lat="45.35970344132276" lon="10.684509811125483"><ele>119.0</ele><time>2026-05-03T11:00:14.001Z</time></trkpt><trkpt lat="45.35975827078094" lon="10.684399322409394"><ele>119.0</ele><time>2026-05-03T11:00:15Z</time></trkpt><trkpt lat="45.35981990852527" lon="10.68428417640057"><ele>119.0</ele><time>2026-05-03T11:00:16Z</time></trkpt><trkpt lat="45.35987955903305" lon="10.684177098648938"><ele>119.0</ele><time>2026-05-03T11:00:17Z</time></trkpt><trkpt lat="45.35993893272786" lon="10.684080358929217"><ele>119.0</ele><time>2026-05-03T11:00:18Z</time></trkpt><trkpt lat="45.35999708590382" lon="10.683958559765449"><ele>119.0</ele><time>2026-05-03T11:00:19Z</time></trkpt><trkpt lat="45.360044681995085" lon="10.683861711335178"><ele>118.99999999999999</ele><time>2026-05-03T11:00:20Z</time></trkpt><trkpt lat="45.36008709948056" lon="10.683781349522466"><ele>119.0</ele><time>2026-05-03T11:00:21Z</time></trkpt><trkpt lat="45.36012492023094" lon="10.683707880598957"><ele>119.0</ele><time>2026-05-03T11:00:22Z</time></trkpt><trkpt lat="45.36016642328543" lon="10.683606568639808"><ele>119.0</ele><time>2026-05-03T11:00:24Z</time></trkpt><trkpt lat="45.360243129562605" lon="10.683563947598797"><ele>118.99999999999999</ele><time>2026-05-03T11:00:26Z</time></trkpt><trkpt lat="45.360305763813486" lon="10.68358898845655"><ele>119.0</ele><time>2026-05-03T11:00:27Z</time></trkpt><trkpt lat="45.360394264870536" lon="10.6836188690698"><ele>118.4</ele><time>2026-05-03T11:00:28Z</time></trkpt><trkpt lat="45.360487271834074" lon="10.6835911336343"><ele>117.80000000000001</ele><time>2026-05-03T11:00:29Z</time></trkpt><trkpt lat="45.36059091350578" lon="10.683538867720792"><ele>117.19999999999999</ele><time>2026-05-03T11:00:30Z</time></trkpt><trkpt lat="45.36068360801066" lon="10.683469273582856"><ele>116.6</ele><time>2026-05-03T11:00:31Z</time></trkpt><trkpt lat="45.36076915223016" lon="10.683383114438453"><ele>116.0</ele><time>2026-05-03T11:00:32Z</time></trkpt><trkpt lat="45.36084313413561" lon="10.68328131030241"><ele>116.0</ele><time>2026-05-03T11:00:33Z</time></trkpt><trkpt lat="45.36090744481771" lon="10.683165053222679"><ele>116.0</ele><time>2026-05-03T11:00:34Z</time></trkpt><trkpt lat="45.360951942338396" lon="10.683045775564189"><ele>116.0</ele><time>2026-05-03T11:00:35Z</time></trkpt><trkpt lat="45.36101025939987" lon="10.682946832119978"><ele>116.0</ele><time>2026-05-03T11:00:36Z</time></trkpt><trkpt lat="45.36107827356414" lon="10.6828687091744"><ele>116.0</ele><time>2026-05-03T11:00:37Z</time></trkpt><trkpt lat="45.36115273856597" lon="10.68279453328948"><ele>115.19999999999999</ele><time>2026-05-03T11:00:38Z</time></trkpt><trkpt lat="45.36122694538247" lon="10.682738607288135"><ele>114.39999999999999</ele><time>2026-05-03T11:00:39Z</time></trkpt><trkpt lat="45.36131232000206" lon="10.682691220049822"><ele>113.6</ele><time>2026-05-03T11:00:40Z</time></trkpt><trkpt lat="45.36140697251686" lon="10.682652068153955"><ele>112.8</ele><time>2026-05-03T11:00:41Z</time></trkpt><trkpt lat="45.3615083848138" lon="10.682613619614495"><ele>112.0</ele><time>2026-05-03T11:00:42Z</time></trkpt><trkpt lat="45.36160169501305" lon="10.682590906231198"><ele>112.00000000000001</ele><time>2026-05-03T11:00:43Z</time></trkpt><trkpt lat="45.36168909920711" lon="10.682565726503872"><ele>112.0</ele><time>2026-05-03T11:00:44Z</time></trkpt><trkpt lat="45.36176721058143" lon="10.682540152785773"><ele>112.0</ele><time>2026-05-03T11:00:45Z</time></trkpt><trkpt lat="45.36183745801175" lon="10.682499412814833"><ele>112.0</ele><time>2026-05-03T11:00:46Z</time></trkpt><trkpt lat="45.3618980512032" lon="10.682469990435438"><ele>112.00000000000001</ele><time>2026-05-03T11:00:47Z</time></trkpt><trkpt lat="45.36195563436894" lon="10.682426618469643"><ele>112.0</ele><time>2026-05-03T11:00:48Z</time></trkpt><trkpt lat="45.36204002878634" lon="10.682305126082667"><ele>112.0</ele><time>2026-05-03T11:00:50Z</time></trkpt><trkpt lat="45.362148069695564" lon="10.682249370184115"><ele>111.99999999999999</ele><time>2026-05-03T11:00:52Z</time></trkpt><trkpt lat="45.36225222640518" lon="10.682204154189508"><ele>111.99999999999999</ele><time>2026-05-03T11:00:54Z</time></trkpt><trkpt lat="45.36231823119479" lon="10.682228783247085"><ele>112.0</ele><time>2026-05-03T11:00:56Z</time></trkpt><trkpt lat="45.36236886994645" lon="10.682357836493638"><ele>112.0</ele><time>2026-05-03T11:00:58Z</time></trkpt><trkpt lat="45.36245786029902" lon="10.682403769175579"><ele>108.39999999999999</ele><time>2026-05-03T11:01:00Z</time></trkpt><trkpt lat="45.36255753476042" lon="10.682368793783104"><ele>104.79999999999998</ele><time>2026-05-03T11:01:02Z</time></trkpt><trkpt lat="45.362603496340796" lon="10.682287598364404"><ele>101.2</ele><time>2026-05-03T11:01:03Z</time></trkpt><trkpt lat="45.36268406710869" lon="10.682147655015468"><ele>97.6</ele><time>2026-05-03T11:01:05Z</time></trkpt><trkpt lat="45.36274462853326" lon="10.682023265504036"><ele>94.0</ele><time>2026-05-03T11:01:07Z</time></trkpt><trkpt lat="45.36280288330037" lon="10.6819390846459"><ele>94.33333333333333</ele><time>2026-05-03T11:01:09Z</time></trkpt><trkpt lat="45.362849133429904" lon="10.681848666850623"><ele>94.66666666666666</ele><time>2026-05-03T11:01:11Z</time></trkpt><trkpt lat="45.36289378794577" lon="10.681780874291462"><ele>95.0</ele><time>2026-05-03T11:01:12Z</time></trkpt><trkpt lat="45.36293173285322" lon="10.681705701312039"><ele>95.33333333333333</ele><time>2026-05-03T11:01:13Z</time></trkpt><trkpt lat="45.36298726379091" lon="10.68158762848878"><ele>95.66666666666667</ele><time>2026-05-03T11:01:15Z</time></trkpt><trkpt lat="45.363042161201776" lon="10.68150551858655"><ele>96.0</ele><time>2026-05-03T11:01:29.001Z</time></trkpt><trkpt lat="45.36310032752452" lon="10.681428590036749"><ele>96.0</ele><time>2026-05-03T11:01:33.001Z</time></trkpt><trkpt lat="45.36318895320262" lon="10.681281507490223"><ele>96.0</ele><time>2026-05-03T11:01:35.001Z</time></trkpt><trkpt lat="45.363254890879126" lon="10.681200244604197"><ele>96.0</ele><time>2026-05-03T11:01:36.001Z</time></trkpt><trkpt lat="45.363298096747826" lon="10.681132761183445"><ele>96.0</ele><time>2026-05-03T11:01:37.001Z</time></trkpt><trkpt lat="45.36334249450394" lon="10.681068468877635"><ele>96.0</ele><time>2026-05-03T11:01:38.001Z</time></trkpt><trkpt lat="45.363400707267076" lon="10.680990561296847"><ele>96.0</ele><time>2026-05-03T11:01:39.001Z</time></trkpt><trkpt lat="45.36344465278616" lon="10.680919682726666"><ele>99.0</ele><time>2026-05-03T11:01:40.001Z</time></trkpt><trkpt lat="45.36349531164417" lon="10.680833182105763"><ele>102.0</ele><time>2026-05-03T11:02:10.001Z</time></trkpt><trkpt lat="45.36353503914536" lon="10.680749122405395"><ele>105.0</ele><time>2026-05-03T11:02:18.001Z</time></trkpt><trkpt lat="45.363596288542865" lon="10.680638539444255"><ele>108.0</ele><time>2026-05-03T11:02:20.001Z</time></trkpt><trkpt lat="45.36366195498694" lon="10.680551168600138"><ele>111.0</ele><time>2026-05-03T11:02:22Z</time></trkpt><trkpt lat="45.3637225980066" lon="10.680476653065961"><ele>114.0</ele><time>2026-05-03T11:02:24Z</time></trkpt><trkpt lat="45.36376872274092" lon="10.680390952408244"><ele>114.0</ele><time>2026-05-03T11:02:27Z</time></trkpt><trkpt lat="45.36381247094106" lon="10.680320213953172"><ele>114.0</ele><time>2026-05-03T11:02:29Z</time></trkpt><trkpt lat="45.36386598276317" lon="10.680246505519747"><ele>114.0</ele><time>2026-05-03T11:02:32Z</time></trkpt><trkpt lat="45.363925115228874" lon="10.680204441565445"><ele>114.0</ele><time>2026-05-03T11:02:34Z</time></trkpt><trkpt lat="45.36399826660637" lon="10.680189515954638"><ele>114.0</ele><time>2026-05-03T11:02:35Z</time></trkpt><trkpt lat="45.364103089414996" lon="10.68019811751621"><ele>114.0</ele><time>2026-05-03T11:02:36Z</time></trkpt><trkpt lat="45.36417717435841" lon="10.680203112908911"><ele>114.6</ele><time>2026-05-03T11:02:37Z</time></trkpt><trkpt lat="45.364246341688336" lon="10.68022266719657"><ele>115.2</ele><time>2026-05-03T11:02:39Z</time></trkpt><trkpt lat="45.3643416228981" lon="10.680169619044435"><ele>115.79999999999998</ele><time>2026-05-03T11:03:05Z</time></trkpt><trkpt lat="45.36434447942348" lon="10.680060754106778"><ele>116.39999999999999</ele><time>2026-05-03T11:03:07Z</time></trkpt><trkpt lat="45.36422481980197" lon="10.679985740644065"><ele>117.0</ele><time>2026-05-03T11:03:09Z</time></trkpt><trkpt lat="45.364150345037025" lon="10.679948056880802"><ele>117.0</ele><time>2026-05-03T11:03:10Z</time></trkpt><trkpt lat="45.36407977073857" lon="10.67990547524442"><ele>117.0</ele><time>2026-05-03T11:03:11Z</time></trkpt><trkpt lat="45.364021942051274" lon="10.679859646944116"><ele>117.0</ele><time>2026-05-03T11:03:12Z</time></trkpt><trkpt lat="45.36395702057091" lon="10.679838957666245"><ele>117.0</ele><time>2026-05-03T11:03:13Z</time></trkpt><trkpt lat="45.36389050909254" lon="10.679833271450704"><ele>117.0</ele><time>2026-05-03T11:03:14Z</time></trkpt><trkpt lat="45.363803881288696" lon="10.679844622366272"><ele>117.0</ele><time>2026-05-03T11:03:15Z</time></trkpt><trkpt lat="45.363765302337896" lon="10.680091510041848"><ele>119.6</ele><time>2026-05-03T11:03:16Z</time></trkpt><trkpt lat="45.36367155122346" lon="10.680119761042072"><ele>122.19999999999999</ele><time>2026-05-03T11:03:18Z</time></trkpt><trkpt lat="45.36358651839674" lon="10.680157043302478"><ele>124.8</ele><time>2026-05-03T11:03:20Z</time></trkpt><trkpt lat="45.363506714598124" lon="10.680197640810162"><ele>127.4</ele><time>2026-05-03T11:03:23Z</time></trkpt><trkpt lat="45.36343837447014" lon="10.68021168301336"><ele>130.0</ele><time>2026-05-03T11:03:26Z</time></trkpt><trkpt lat="45.363248912274415" lon="10.679731681471353"><ele>130.0</ele><time>2026-05-03T11:03:28Z</time></trkpt><trkpt lat="45.36320931396948" lon="10.679643098596221"><ele>130.0</ele><time>2026-05-03T11:03:30Z</time></trkpt><trkpt lat="45.36315963033083" lon="10.679556761422218"><ele>130.0</ele><time>2026-05-03T11:03:32Z</time></trkpt><trkpt lat="45.36322333103236" lon="10.67950742155455"><ele>130.0</ele><time>2026-05-03T11:03:35Z</time></trkpt><trkpt lat="45.363287875218255" lon="10.679540526820903"><ele>130.0</ele><time>2026-05-03T11:03:38.001Z</time></trkpt><trkpt lat="45.36351767296569" lon="10.679434390651366"><ele>131.33333333333334</ele><time>2026-05-03T11:03:39.001Z</time></trkpt><trkpt lat="45.363591755540945" lon="10.679403733787506"><ele>132.66666666666669</ele><time>2026-05-03T11:03:40.001Z</time></trkpt><trkpt lat="45.36367215353422" lon="10.679359351155874"><ele>134.0</ele><time>2026-05-03T11:03:41.001Z</time></trkpt><trkpt lat="45.36376619611188" lon="10.679320223342613"><ele>135.33333333333334</ele><time>2026-05-03T11:03:42.001Z</time></trkpt><trkpt lat="45.363842769860206" lon="10.679258843564455"><ele>136.66666666666666</ele><time>2026-05-03T11:03:43.001Z</time></trkpt><trkpt lat="45.363905372539925" lon="10.6791786899897"><ele>138.0</ele><time>2026-05-03T11:03:44.001Z</time></trkpt><trkpt lat="45.36396073099701" lon="10.679121971218274"><ele>138.16666666666666</ele><time>2026-05-03T11:03:45.001Z</time></trkpt><trkpt lat="45.36401601047769" lon="10.679064917126084"><ele>138.33333333333334</ele><time>2026-05-03T11:03:46.001Z</time></trkpt><trkpt lat="45.364071584727895" lon="10.678991822830715"><ele>138.5</ele><time>2026-05-03T11:03:47.001Z</time></trkpt><trkpt lat="45.36412677472513" lon="10.678908713419121"><ele>138.66666666666669</ele><time>2026-05-03T11:03:48.001Z</time></trkpt><trkpt lat="45.36418018582795" lon="10.678816680930545"><ele>138.83333333333334</ele><time>2026-05-03T11:03:49.001Z</time></trkpt><trkpt lat="45.364229654392844" lon="10.678725945013163"><ele>139.0</ele><time>2026-05-03T11:03:50.001Z</time></trkpt><trkpt lat="45.36427521275108" lon="10.678640816031352"><ele>141.5</ele><time>2026-05-03T11:03:51.001Z</time></trkpt><trkpt lat="45.36432277466861" lon="10.678548087869036"><ele>144.0</ele><time>2026-05-03T11:03:52.001Z</time></trkpt><trkpt lat="45.36436624326685" lon="10.678458201128372"><ele>146.5</ele><time>2026-05-03T11:03:53.001Z</time></trkpt><trkpt lat="45.364416457900816" lon="10.678364889989211"><ele>149.0</ele><time>2026-05-03T11:03:54.001Z</time></trkpt><trkpt lat="45.36448364584848" lon="10.678282118259819"><ele>151.5</ele><time>2026-05-03T11:03:55.001Z</time></trkpt><trkpt lat="45.36454585444073" lon="10.67819305960488"><ele>154.0</ele><time>2026-05-03T11:03:56.001Z</time></trkpt><trkpt lat="45.36461687906622" lon="10.678123615790353"><ele>154.0</ele><time>2026-05-03T11:03:57.001Z</time></trkpt><trkpt lat="45.36468653719121" lon="10.678041159598388"><ele>154.0</ele><time>2026-05-03T11:03:58.001Z</time></trkpt><trkpt lat="45.3647566541934" lon="10.677951820408918"><ele>154.0</ele><time>2026-05-03T11:03:59.001Z</time></trkpt><trkpt lat="45.36479347250724" lon="10.67785587669923"><ele>154.0</ele><time>2026-05-03T11:04:00.001Z</time></trkpt><trkpt lat="45.364848274474696" lon="10.677776922041206"><ele>154.0</ele><time>2026-05-03T11:04:01.001Z</time></trkpt><trkpt lat="45.364886213909884" lon="10.677637695868912"><ele>154.0</ele><time>2026-05-03T11:04:03.001Z</time></trkpt><trkpt lat="45.36491404204323" lon="10.677544772025133"><ele>154.33333333333334</ele><time>2026-05-03T11:04:04.001Z</time></trkpt><trkpt lat="45.36489834798932" lon="10.677440888926094"><ele>154.66666666666669</ele><time>2026-05-03T11:04:05.001Z</time></trkpt><trkpt lat="45.364989813592075" lon="10.67736375013785"><ele>155.0</ele><time>2026-05-03T11:04:06.001Z</time></trkpt><trkpt lat="45.365040147443416" lon="10.677270617120127"><ele>155.33333333333334</ele><time>2026-05-03T11:04:07.001Z</time></trkpt><trkpt lat="45.36508541432494" lon="10.677176709825332"><ele>155.66666666666666</ele><time>2026-05-03T11:04:08.001Z</time></trkpt><trkpt lat="45.36511701333143" lon="10.677077243569762"><ele>156.0</ele><time>2026-05-03T11:04:09.001Z</time></trkpt><trkpt lat="45.36515849999995" lon="10.676967525483445"><ele>157.14285714285714</ele><time>2026-05-03T11:04:11.001Z</time></trkpt><trkpt lat="45.36521007674324" lon="10.676887863135763"><ele>158.28571428571428</ele><time>2026-05-03T11:04:14.001Z</time></trkpt><trkpt lat="45.36525883442779" lon="10.676793043656751"><ele>159.42857142857142</ele><time>2026-05-03T11:04:19.001Z</time></trkpt><trkpt lat="45.365281717732955" lon="10.676699095273113"><ele>160.57142857142856</ele><time>2026-05-03T11:04:55Z</time></trkpt><trkpt lat="45.36521687155885" lon="10.676679699117072"><ele>161.71428571428572</ele><time>2026-05-03T11:12:13Z</time></trkpt><trkpt lat="45.36515725712624" lon="10.676643920445514"><ele>162.85714285714283</ele><time>2026-05-03T11:12:26Z</time></trkpt><trkpt lat="45.36507412165209" lon="10.676613532128071"><ele>164.0</ele><time>2026-05-03T11:16:18Z</time></trkpt><trkpt lat="45.36499655491884" lon="10.676542542142844"><ele>164.0</ele><time>2026-05-03T11:16:22Z</time></trkpt><trkpt lat="45.36501199599098" lon="10.676451924793374"><ele>164.0</ele><time>2026-05-03T11:16:24Z</time></trkpt><trkpt lat="45.36501070926176" lon="10.676284688928703"><ele>164.0</ele><time>2026-05-03T11:20:14Z</time></trkpt><trkpt lat="45.364979199511005" lon="10.676189914812655"><ele>164.0</ele><time>2026-05-03T11:20:15Z</time></trkpt><trkpt lat="45.36490364353446" lon="10.676081057058251"><ele>164.0</ele><time>2026-05-03T11:20:17Z</time></trkpt><trkpt lat="45.36478992562118" lon="10.676047888863055"><ele>163.39999999999998</ele><time>2026-05-03T11:20:19Z</time></trkpt><trkpt lat="45.3646641718648" lon="10.676019799830657"><ele>162.8</ele><time>2026-05-03T11:20:21Z</time></trkpt><trkpt lat="45.36456394021693" lon="10.675990557233842"><ele>162.2</ele><time>2026-05-03T11:20:23Z</time></trkpt><trkpt lat="45.36460635084446" lon="10.675912109281938"><ele>161.60000000000002</ele><time>2026-05-03T11:20:26Z</time></trkpt><trkpt lat="45.36474052371625" lon="10.6759421278227"><ele>161.0</ele><time>2026-05-03T11:20:28Z</time></trkpt><trkpt lat="45.364803366874256" lon="10.675966138052326"><ele>161.0</ele><time>2026-05-03T11:20:29Z</time></trkpt><trkpt lat="45.36494216851128" lon="10.676001116520547"><ele>161.0</ele><time>2026-05-03T11:20:31Z</time></trkpt><trkpt lat="45.3650137909167" lon="10.676031703907537"><ele>161.0</ele><time>2026-05-03T11:20:32Z</time></trkpt><trkpt lat="45.365081140388625" lon="10.676055702868247"><ele>161.0</ele><time>2026-05-03T11:20:33Z</time></trkpt><trkpt lat="45.365148474736735" lon="10.676071944724535"><ele>161.0</ele><time>2026-05-03T11:20:34Z</time></trkpt><trkpt lat="45.36525082230917" lon="10.676091793794939"><ele>161.0</ele><time>2026-05-03T11:20:36Z</time></trkpt><trkpt lat="45.36531635121716" lon="10.676013447043593"><ele>161.0</ele><time>2026-05-03T11:20:38Z</time></trkpt><trkpt lat="45.36532316481076" lon="10.675920264766301"><ele>161.0</ele><time>2026-05-03T11:20:39Z</time></trkpt><trkpt lat="45.36532164951651" lon="10.675822203034043"><ele>161.0</ele><time>2026-05-03T11:20:40Z</time></trkpt><trkpt lat="45.36534310416277" lon="10.675678369946949"><ele>161.0</ele><time>2026-05-03T11:20:42Z</time></trkpt><trkpt lat="45.36535322272614" lon="10.675585367396776"><ele>161.0</ele><time>2026-05-03T11:20:44Z</time></trkpt><trkpt lat="45.365395272974155" lon="10.675450991894774"><ele>161.0</ele><time>2026-05-03T11:20:58.001Z</time></trkpt><trkpt lat="45.365404313919434" lon="10.67532435250328"><ele>161.0</ele><time>2026-05-03T11:20:59.001Z</time></trkpt><trkpt lat="45.36541902293388" lon="10.675173733523515"><ele>161.0</ele><time>2026-05-03T11:21:00.001Z</time></trkpt><trkpt lat="45.365438594325866" lon="10.675018974098522"><ele>161.0</ele><time>2026-05-03T11:21:01.001Z</time></trkpt><trkpt lat="45.365476484507624" lon="10.674852942442476"><ele>161.0</ele><time>2026-05-03T11:21:02.001Z</time></trkpt><trkpt lat="45.36551961831541" lon="10.674709474046235"><ele>160.20000000000002</ele><time>2026-05-03T11:21:03.001Z</time></trkpt><trkpt lat="45.36555644451406" lon="10.674582433249462"><ele>159.4</ele><time>2026-05-03T11:21:04.001Z</time></trkpt><trkpt lat="45.365589589112446" lon="10.674440219490794"><ele>158.6</ele><time>2026-05-03T11:21:06.001Z</time></trkpt><trkpt lat="45.36559458911809" lon="10.674303797882455"><ele>157.8</ele><time>2026-05-03T11:21:09.001Z</time></trkpt><trkpt lat="45.365640367129345" lon="10.674139835967217"><ele>157.0</ele><time>2026-05-03T11:21:11.001Z</time></trkpt><trkpt lat="45.36568042997521" lon="10.674034700915009"><ele>157.0</ele><time>2026-05-03T11:21:12.001Z</time></trkpt><trkpt lat="45.36573685166275" lon="10.673893748082522"><ele>157.0</ele><time>2026-05-03T11:21:13.001Z</time></trkpt><trkpt lat="45.365807703215445" lon="10.673777491372045"><ele>157.0</ele><time>2026-05-03T11:21:14.001Z</time></trkpt><trkpt lat="45.36587618057826" lon="10.673742049136813"><ele>157.0</ele><time>2026-05-03T11:21:18Z</time></trkpt><trkpt lat="45.365888753595485" lon="10.673562074009412"><ele>157.0</ele><time>2026-05-03T11:21:21Z</time></trkpt><trkpt lat="45.365938361235834" lon="10.673475926424464"><ele>157.4</ele><time>2026-05-03T11:21:22Z</time></trkpt><trkpt lat="45.36598186983333" lon="10.673357542821915"><ele>157.79999999999998</ele><time>2026-05-03T11:21:23Z</time></trkpt><trkpt lat="45.366042755986776" lon="10.673237844705897"><ele>158.2</ele><time>2026-05-03T11:21:24Z</time></trkpt><trkpt lat="45.36609050028316" lon="10.673108176311935"><ele>158.6</ele><time>2026-05-03T11:21:25Z</time></trkpt><trkpt lat="45.36610850973003" lon="10.673003651731614"><ele>159.0</ele><time>2026-05-03T11:21:26Z</time></trkpt><trkpt lat="45.36613177257189" lon="10.672894681986726"><ele>159.0</ele><time>2026-05-03T11:21:27Z</time></trkpt><trkpt lat="45.36616739712221" lon="10.672776818146293"><ele>159.0</ele><time>2026-05-03T11:21:28Z</time></trkpt><trkpt lat="45.36621779799272" lon="10.672676408609137"><ele>159.0</ele><time>2026-05-03T11:21:29Z</time></trkpt><trkpt lat="45.366223357161445" lon="10.67256026575697"><ele>159.0</ele><time>2026-05-03T11:21:30Z</time></trkpt><trkpt lat="45.366249753635806" lon="10.672457887724288"><ele>159.0</ele><time>2026-05-03T11:21:31Z</time></trkpt><trkpt lat="45.36627788355035" lon="10.672343554721191"><ele>159.0</ele><time>2026-05-03T11:21:32Z</time></trkpt><trkpt lat="45.36630156814045" lon="10.672241783164932"><ele>158.16666666666666</ele><time>2026-05-03T11:21:33Z</time></trkpt><trkpt lat="45.366332596231835" lon="10.672150184034408"><ele>157.33333333333334</ele><time>2026-05-03T11:21:34Z</time></trkpt><trkpt lat="45.366384646514064" lon="10.672066931039403"><ele>156.5</ele><time>2026-05-03T11:21:36Z</time></trkpt><trkpt lat="45.366410626362025" lon="10.671975227532128"><ele>155.66666666666669</ele><time>2026-05-03T11:21:40Z</time></trkpt><trkpt lat="45.36639899285424" lon="10.671865932874875"><ele>154.83333333333334</ele><time>2026-05-03T11:21:48Z</time></trkpt><trkpt lat="45.36631560792532" lon="10.671965043964935"><ele>154.0</ele><time>2026-05-03T11:21:53Z</time></trkpt><trkpt lat="45.366265538006566" lon="10.672048907539452"><ele>154.0</ele><time>2026-05-03T11:21:55Z</time></trkpt><trkpt lat="45.36623815806038" lon="10.672132104094063"><ele>154.0</ele><time>2026-05-03T11:21:57Z</time></trkpt><trkpt lat="45.36619714150779" lon="10.672226459199335"><ele>154.0</ele><time>2026-05-03T11:21:59Z</time></trkpt><trkpt lat="45.36613398235323" lon="10.672349420528207"><ele>154.0</ele><time>2026-05-03T11:22:02Z</time></trkpt><trkpt lat="45.36610881946376" lon="10.67243785380254"><ele>154.0</ele><time>2026-05-03T11:22:05Z</time></trkpt><trkpt lat="45.36607408821984" lon="10.672529999863146"><ele>154.0</ele><time>2026-05-03T11:23:03Z</time></trkpt><trkpt lat="45.36603845652768" lon="10.672610027916143"><ele>154.0</ele><time>2026-05-03T11:23:11Z</time></trkpt><trkpt lat="45.36599928243623" lon="10.672690467363326"><ele>154.0</ele><time>2026-05-03T11:23:37.999Z</time></trkpt><trkpt lat="45.365977702031834" lon="10.672776609256566"><ele>154.0</ele><time>2026-05-03T11:23:50Z</time></trkpt><trkpt lat="45.366042915369476" lon="10.672719631645586"><ele>154.0</ele><time>2026-05-03T11:25:32.001Z</time></trkpt><trkpt lat="45.366064040677045" lon="10.672631278164001"><ele>154.0</ele><time>2026-05-03T11:25:48.001Z</time></trkpt><trkpt lat="45.36597531495057" lon="10.672793402317021"><ele>154.0</ele><time>2026-05-03T11:25:55.001Z</time></trkpt><trkpt lat="45.365931590441" lon="10.672906380116345"><ele>155.25</ele><time>2026-05-03T11:25:57.001Z</time></trkpt><trkpt lat="45.36586985202402" lon="10.673036196287255"><ele>156.5</ele><time>2026-05-03T11:26:02.001Z</time></trkpt><trkpt lat="45.36577583050748" lon="10.673183615145753"><ele>157.75</ele><time>2026-05-03T11:28:54.001Z</time></trkpt><trkpt lat="45.365696300321105" lon="10.67330762847092"><ele>159.0</ele><time>2026-05-03T11:28:56.001Z</time></trkpt><trkpt lat="45.365628395128326" lon="10.673412880880472"><ele>159.0</ele><time>2026-05-03T11:28:58.001Z</time></trkpt><trkpt lat="45.36558219166041" lon="10.673478848916234"><ele>159.0</ele><time>2026-05-03T11:28:59.001Z</time></trkpt><trkpt lat="45.365507268137" lon="10.673596494585139"><ele>159.0</ele><time>2026-05-03T11:29:01.001Z</time></trkpt><trkpt lat="45.36543771731094" lon="10.673673357702974"><ele>159.0</ele><time>2026-05-03T11:29:03.001Z</time></trkpt><trkpt lat="45.365368461852924" lon="10.673793126474601"><ele>159.0</ele><time>2026-05-03T11:29:06.001Z</time></trkpt><trkpt lat="45.36533281595246" lon="10.67386812311272"><ele>159.0</ele><time>2026-05-03T11:29:07.001Z</time></trkpt><trkpt lat="45.36528941410652" lon="10.673969278149015"><ele>158.6</ele><time>2026-05-03T11:29:09.001Z</time></trkpt><trkpt lat="45.3652315386334" lon="10.674048401115703"><ele>158.2</ele><time>2026-05-03T11:29:11.001Z</time></trkpt><trkpt lat="45.365185735299846" lon="10.674144451757739"><ele>157.79999999999998</ele><time>2026-05-03T11:29:14.001Z</time></trkpt><trkpt lat="45.36515534862763" lon="10.67422553624233"><ele>157.4</ele><time>2026-05-03T11:29:17.001Z</time></trkpt><trkpt lat="45.36499175439476" lon="10.674063737708298"><ele>157.0</ele><time>2026-05-03T11:29:59.001Z</time></trkpt><trkpt lat="45.36489956512854" lon="10.674033101552785"><ele>157.0</ele><time>2026-05-03T11:30:01.001Z</time></trkpt><trkpt lat="45.36479267589513" lon="10.67409225326693"><ele>157.0</ele><time>2026-05-03T11:30:03.001Z</time></trkpt><trkpt lat="45.36473981041076" lon="10.674168539906603"><ele>157.0</ele><time>2026-05-03T11:30:04.001Z</time></trkpt><trkpt lat="45.364679359423555" lon="10.674250258730348"><ele>157.0</ele><time>2026-05-03T11:30:05.001Z</time></trkpt><trkpt lat="45.36463557530544" lon="10.674328723514794"><ele>157.0</ele><time>2026-05-03T11:30:06.001Z</time></trkpt><trkpt lat="45.36459451102304" lon="10.67440249174249"><ele>157.0</ele><time>2026-05-03T11:30:07.001Z</time></trkpt><trkpt lat="45.36452735464453" lon="10.674555796904718"><ele>155.5</ele><time>2026-05-03T11:30:09.001Z</time></trkpt><trkpt lat="45.36448849447453" lon="10.67463993496119"><ele>154.0</ele><time>2026-05-03T11:30:10.001Z</time></trkpt><trkpt lat="45.36441922204051" lon="10.674682281109762"><ele>152.5</ele><time>2026-05-03T11:30:11.001Z</time></trkpt><trkpt lat="45.364372145085895" lon="10.6747966467033"><ele>151.0</ele><time>2026-05-03T11:30:13.001Z</time></trkpt><trkpt lat="45.364347728011" lon="10.67489764199182"><ele>149.5</ele><time>2026-05-03T11:30:15.001Z</time></trkpt><trkpt lat="45.364286990662016" lon="10.674951779326735"><ele>148.0</ele><time>2026-05-03T11:30:17.001Z</time></trkpt><trkpt lat="45.36419732753136" lon="10.674904735419062"><ele>148.0</ele><time>2026-05-03T11:30:20.001Z</time></trkpt><trkpt lat="45.36412920442409" lon="10.675014312200808"><ele>148.0</ele><time>2026-05-03T11:30:22.001Z</time></trkpt><trkpt lat="45.364107664952904" lon="10.675135201690834"><ele>148.0</ele><time>2026-05-03T11:30:23.001Z</time></trkpt><trkpt lat="45.36406043082548" lon="10.675239562432695"><ele>148.0</ele><time>2026-05-03T11:30:24.001Z</time></trkpt><trkpt lat="45.36400513039013" lon="10.67533602598455"><ele>148.0</ele><time>2026-05-03T11:30:25.001Z</time></trkpt><trkpt lat="45.36396398641413" lon="10.675414947524661"><ele>148.0</ele><time>2026-05-03T11:30:26.001Z</time></trkpt><trkpt lat="45.36391691002113" lon="10.675491839482751"><ele>146.4</ele><time>2026-05-03T11:30:27.001Z</time></trkpt><trkpt lat="45.363855632926146" lon="10.675570199926595"><ele>144.8</ele><time>2026-05-03T11:30:28.001Z</time></trkpt><trkpt lat="45.363829232082715" lon="10.675658972264767"><ele>143.2</ele><time>2026-05-03T11:30:29.001Z</time></trkpt><trkpt lat="45.36375288703154" lon="10.675817320979718"><ele>141.6</ele><time>2026-05-03T11:30:31.001Z</time></trkpt><trkpt lat="45.36371290803488" lon="10.675902522804941"><ele>140.0</ele><time>2026-05-03T11:30:32.001Z</time></trkpt><trkpt lat="45.363650020394964" lon="10.676033924820496"><ele>141.0</ele><time>2026-05-03T11:30:34.001Z</time></trkpt><trkpt lat="45.363594551940025" lon="10.676175770501539"><ele>142.0</ele><time>2026-05-03T11:30:36.001Z</time></trkpt><trkpt lat="45.363502744926535" lon="10.676306249774344"><ele>143.0</ele><time>2026-05-03T11:30:38.001Z</time></trkpt><trkpt lat="45.363403817217225" lon="10.67638326804737"><ele>144.0</ele><time>2026-05-03T11:30:40.001Z</time></trkpt><trkpt lat="45.36328654656538" lon="10.676429532266123"><ele>144.0</ele><time>2026-05-03T11:30:42.001Z</time></trkpt><trkpt lat="45.363222532766805" lon="10.67644866580133"><ele>144.0</ele><time>2026-05-03T11:30:43.001Z</time></trkpt><trkpt lat="45.36311496345072" lon="10.676443578715768"><ele>144.0</ele><time>2026-05-03T11:30:45.001Z</time></trkpt><trkpt lat="45.36303483496841" lon="10.676450608385894"><ele>144.0</ele><time>2026-05-03T11:30:48.001Z</time></trkpt><trkpt lat="45.36303385620152" lon="10.67629094627095"><ele>144.0</ele><time>2026-05-03T11:30:50.001Z</time></trkpt><trkpt lat="45.36301685204063" lon="10.676123862030447"><ele>143.0</ele><time>2026-05-03T11:30:52.001Z</time></trkpt><trkpt lat="45.363010444227434" lon="10.676003501635169"><ele>142.0</ele><time>2026-05-03T11:30:53.001Z</time></trkpt><trkpt lat="45.36300284841353" lon="10.675884873102552"><ele>141.0</ele><time>2026-05-03T11:30:54.001Z</time></trkpt><trkpt lat="45.362993716832236" lon="10.67574454535272"><ele>140.0</ele><time>2026-05-03T11:30:55.001Z</time></trkpt><trkpt lat="45.36298557870568" lon="10.675608349573256"><ele>139.0</ele><time>2026-05-03T11:30:56.001Z</time></trkpt><trkpt lat="45.362977478322726" lon="10.675481457896606"><ele>139.0</ele><time>2026-05-03T11:30:57.001Z</time></trkpt><trkpt lat="45.36297003329566" lon="10.675357278149622"><ele>139.0</ele><time>2026-05-03T11:30:58.001Z</time></trkpt><trkpt lat="45.36296175031854" lon="10.675223597915405"><ele>139.0</ele><time>2026-05-03T11:30:59.001Z</time></trkpt><trkpt lat="45.362949231059076" lon="10.67507013372867"><ele>139.0</ele><time>2026-05-03T11:31:00.001Z</time></trkpt><trkpt lat="45.362941619908916" lon="10.674908067700537"><ele>139.0</ele><time>2026-05-03T11:31:01.001Z</time></trkpt><trkpt lat="45.36293010204398" lon="10.6747437093815"><ele>138.2</ele><time>2026-05-03T11:31:02.001Z</time></trkpt><trkpt lat="45.36291638010283" lon="10.674605418611044"><ele>137.4</ele><time>2026-05-03T11:31:03.001Z</time></trkpt><trkpt lat="45.36290720441322" lon="10.674472558025125"><ele>136.6</ele><time>2026-05-03T11:31:04.001Z</time></trkpt><trkpt lat="45.36292044359244" lon="10.674339029890689"><ele>135.8</ele><time>2026-05-03T11:31:05.001Z</time></trkpt><trkpt lat="45.362944807632026" lon="10.674194567106715"><ele>135.0</ele><time>2026-05-03T11:31:06.001Z</time></trkpt><trkpt lat="45.36297885991991" lon="10.674047932680086"><ele>134.5</ele><time>2026-05-03T11:31:07.001Z</time></trkpt><trkpt lat="45.36301336143111" lon="10.673893872263367"><ele>134.0</ele><time>2026-05-03T11:31:08.001Z</time></trkpt><trkpt lat="45.363050026295014" lon="10.67373073500072"><ele>133.5</ele><time>2026-05-03T11:31:09.001Z</time></trkpt><trkpt lat="45.36309014387028" lon="10.673564134035724"><ele>133.0</ele><time>2026-05-03T11:31:10.001Z</time></trkpt><trkpt lat="45.36312991627584" lon="10.673396659745572"><ele>133.0</ele><time>2026-05-03T11:31:11.001Z</time></trkpt><trkpt lat="45.363168334856134" lon="10.673218998754857"><ele>133.0</ele><time>2026-05-03T11:31:12.001Z</time></trkpt><trkpt lat="45.363205242682184" lon="10.673026151577245"><ele>133.0</ele><time>2026-05-03T11:31:13.001Z</time></trkpt><trkpt lat="45.36324199435833" lon="10.672857685210273"><ele>133.0</ele><time>2026-05-03T11:31:14.001Z</time></trkpt><trkpt lat="45.363279376269176" lon="10.672681291623004"><ele>133.5</ele><time>2026-05-03T11:31:15.001Z</time></trkpt><trkpt lat="45.363321014558764" lon="10.672500320627213"><ele>134.0</ele><time>2026-05-03T11:31:16.001Z</time></trkpt><trkpt lat="45.36336885351732" lon="10.672309289030018"><ele>134.5</ele><time>2026-05-03T11:31:17.001Z</time></trkpt><trkpt lat="45.36340425376655" lon="10.67214329020169"><ele>135.0</ele><time>2026-05-03T11:31:18.001Z</time></trkpt><trkpt lat="45.3634395118337" lon="10.672002435129402"><ele>135.4</ele><time>2026-05-03T11:31:19.001Z</time></trkpt><trkpt lat="45.36346931638568" lon="10.671881818689268"><ele>135.8</ele><time>2026-05-03T11:31:20.001Z</time></trkpt><trkpt lat="45.36349508458791" lon="10.671788273527822"><ele>136.2</ele><time>2026-05-03T11:31:21.001Z</time></trkpt><trkpt lat="45.36348846056231" lon="10.671685773571308"><ele>136.6</ele><time>2026-05-03T11:31:23.001Z</time></trkpt><trkpt lat="45.36340828245017" lon="10.67148088039663"><ele>137.0</ele><time>2026-05-03T11:31:25.001Z</time></trkpt><trkpt lat="45.36333337240812" lon="10.671445374850961"><ele>137.0</ele><time>2026-05-03T11:31:26.001Z</time></trkpt><trkpt lat="45.363272082656394" lon="10.671418234399532"><ele>137.0</ele><time>2026-05-03T11:31:27.001Z</time></trkpt><trkpt lat="45.36316197259911" lon="10.671360093286044"><ele>137.0</ele><time>2026-05-03T11:31:29.001Z</time></trkpt><trkpt lat="45.36308096246434" lon="10.67128572662612"><ele>137.0</ele><time>2026-05-03T11:31:31.001Z</time></trkpt><trkpt lat="45.363041342168465" lon="10.671215987113529"><ele>137.0</ele><time>2026-05-03T11:31:33.001Z</time></trkpt><trkpt lat="45.36272367501971" lon="10.671670467224372"><ele>136.16666666666666</ele><time>2026-05-03T11:31:38.001Z</time></trkpt><trkpt lat="45.3627118611627" lon="10.671782377110052"><ele>135.33333333333331</ele><time>2026-05-03T11:31:39.001Z</time></trkpt><trkpt lat="45.36269188828448" lon="10.671905817473412"><ele>134.5</ele><time>2026-05-03T11:31:40.001Z</time></trkpt><trkpt lat="45.3626770852379" lon="10.672025619197662"><ele>133.66666666666666</ele><time>2026-05-03T11:31:41.001Z</time></trkpt><trkpt lat="45.36266037712591" lon="10.672151326287747"><ele>132.83333333333334</ele><time>2026-05-03T11:31:42.001Z</time></trkpt><trkpt lat="45.36264504052405" lon="10.672263120288626"><ele>132.0</ele><time>2026-05-03T11:31:43.001Z</time></trkpt><trkpt lat="45.36262245795667" lon="10.672352003654279"><ele>131.79999999999998</ele><time>2026-05-03T11:31:44.001Z</time></trkpt><trkpt lat="45.36253780781792" lon="10.672455440365221"><ele>131.6</ele><time>2026-05-03T11:31:46.001Z</time></trkpt><trkpt lat="45.36247474515736" lon="10.672454901046851"><ele>131.39999999999998</ele><time>2026-05-03T11:31:47.001Z</time></trkpt><trkpt lat="45.36238481368936" lon="10.67242783813947"><ele>131.2</ele><time>2026-05-03T11:31:48.001Z</time></trkpt><trkpt lat="45.362278779358554" lon="10.672407309854206"><ele>131.0</ele><time>2026-05-03T11:31:49.001Z</time></trkpt><trkpt lat="45.36216277793889" lon="10.672384995025306"><ele>132.2</ele><time>2026-05-03T11:31:50.001Z</time></trkpt><trkpt lat="45.362048786826676" lon="10.672361877987138"><ele>133.39999999999998</ele><time>2026-05-03T11:31:51.001Z</time></trkpt><trkpt lat="45.361946240427834" lon="10.672341411702332"><ele>134.6</ele><time>2026-05-03T11:31:52.001Z</time></trkpt><trkpt lat="45.361849749176166" lon="10.672311085624122"><ele>135.79999999999998</ele><time>2026-05-03T11:31:53.001Z</time></trkpt><trkpt lat="45.36177594852804" lon="10.67226784231458"><ele>137.0</ele><time>2026-05-03T11:31:54.001Z</time></trkpt><trkpt lat="45.361703101058175" lon="10.672227010147946"><ele>137.0</ele><time>2026-05-03T11:31:55.001Z</time></trkpt><trkpt lat="45.361628504342534" lon="10.672181749860753"><ele>137.0</ele><time>2026-05-03T11:31:56.001Z</time></trkpt><trkpt lat="45.361560776305204" lon="10.672131483673168"><ele>137.0</ele><time>2026-05-03T11:31:57.001Z</time></trkpt><trkpt lat="45.361500572871314" lon="10.67210184340484"><ele>137.0</ele><time>2026-05-03T11:31:58.001Z</time></trkpt><trkpt lat="45.36140020127864" lon="10.672064078816167"><ele>137.0</ele><time>2026-05-03T11:32:00.001Z</time></trkpt><trkpt lat="45.36131680733808" lon="10.672077480730653"><ele>137.0</ele><time>2026-05-03T11:32:02.001Z</time></trkpt><trkpt lat="45.36122873047153" lon="10.67208287230941"><ele>137.71428571428572</ele><time>2026-05-03T11:32:05.001Z</time></trkpt><trkpt lat="45.36115557861823" lon="10.67207060852306"><ele>138.42857142857144</ele><time>2026-05-03T11:32:09.001Z</time></trkpt><trkpt lat="45.36108861998221" lon="10.672050654627343"><ele>139.14285714285714</ele><time>2026-05-03T11:32:11.001Z</time></trkpt><trkpt lat="45.36102945718741" lon="10.672015688343825"><ele>139.85714285714286</ele><time>2026-05-03T11:32:13.001Z</time></trkpt><trkpt lat="45.36099151512761" lon="10.671943481548938"><ele>140.57142857142856</ele><time>2026-05-03T11:32:16.001Z</time></trkpt><trkpt lat="45.361017564958544" lon="10.672032860719247"><ele>141.28571428571428</ele><time>2026-05-03T11:33:17.001Z</time></trkpt><trkpt lat="45.36108032288308" lon="10.672064305948142"><ele>142.0</ele><time>2026-05-03T11:33:19.001Z</time></trkpt><trkpt lat="45.36116224629683" lon="10.672088823022184"><ele>142.0</ele><time>2026-05-03T11:33:25.001Z</time></trkpt><trkpt lat="45.3612721738749" lon="10.672101121520845"><ele>142.0</ele><time>2026-05-03T11:33:43.001Z</time></trkpt><trkpt lat="45.36126798842105" lon="10.672190725482801"><ele>142.0</ele><time>2026-05-03T11:33:48.001Z</time></trkpt><trkpt lat="45.361189636109984" lon="10.672205959916642"><ele>142.0</ele><time>2026-05-03T11:33:54.001Z</time></trkpt><trkpt lat="45.36110868121781" lon="10.672212446501605"><ele>142.0</ele><time>2026-05-03T11:33:56.001Z</time></trkpt><trkpt lat="45.361031004276" lon="10.672167417619807"><ele>142.0</ele><time>2026-05-03T11:34:22.001Z</time></trkpt><trkpt lat="45.36095745073605" lon="10.67212793088482"><ele>142.0</ele><time>2026-05-03T11:34:27.001Z</time></trkpt><trkpt lat="45.360882270617694" lon="10.67214472634941"><ele>142.0</ele><time>2026-05-03T11:34:29.001Z</time></trkpt><trkpt lat="45.36080469509194" lon="10.672246937534316"><ele>142.0</ele><time>2026-05-03T11:34:32.001Z</time></trkpt><trkpt lat="45.3607227103256" lon="10.672347788217493"><ele>142.0</ele><time>2026-05-03T11:34:34.001Z</time></trkpt><trkpt lat="45.360657315389446" lon="10.672407998727548"><ele>142.0</ele><time>2026-05-03T11:34:36.001Z</time></trkpt><trkpt lat="45.36058529679699" lon="10.672437673450036"><ele>142.0</ele><time>2026-05-03T11:34:38.001Z</time></trkpt><trkpt lat="45.36046380146336" lon="10.672348748957269"><ele>141.4</ele><time>2026-05-03T11:34:40.001Z</time></trkpt><trkpt lat="45.36035323413449" lon="10.672296611836737"><ele>140.79999999999998</ele><time>2026-05-03T11:34:42.001Z</time></trkpt><trkpt lat="45.360284066549966" lon="10.67225886836421"><ele>140.2</ele><time>2026-05-03T11:34:43.001Z</time></trkpt><trkpt lat="45.36021821158327" lon="10.672226683136543"><ele>139.6</ele><time>2026-05-03T11:34:44.001Z</time></trkpt><trkpt lat="45.36009658606255" lon="10.67217815118107"><ele>139.0</ele><time>2026-05-03T11:34:46.001Z</time></trkpt><trkpt lat="45.36001212038304" lon="10.672135250554243"><ele>139.0</ele><time>2026-05-03T11:34:48.001Z</time></trkpt><trkpt lat="45.359944127573556" lon="10.672095331961069"><ele>139.0</ele><time>2026-05-03T11:34:50.001Z</time></trkpt><trkpt lat="45.35975483517223" lon="10.671923177238806"><ele>139.0</ele><time>2026-05-03T11:36:05Z</time></trkpt><trkpt lat="45.35968251681104" lon="10.671882227394876"><ele>139.0</ele><time>2026-05-03T11:36:06Z</time></trkpt><trkpt lat="45.35960552854149" lon="10.671846243259376"><ele>138.66666666666669</ele><time>2026-05-03T11:36:07Z</time></trkpt><trkpt lat="45.35953236377371" lon="10.67178773106292"><ele>138.33333333333334</ele><time>2026-05-03T11:36:08Z</time></trkpt><trkpt lat="45.359461354342656" lon="10.671749507414004"><ele>138.0</ele><time>2026-05-03T11:36:09Z</time></trkpt><trkpt lat="45.35939668165264" lon="10.671689285039987"><ele>137.66666666666666</ele><time>2026-05-03T11:36:10Z</time></trkpt><trkpt lat="45.35929021759776" lon="10.671588228926797"><ele>137.33333333333331</ele><time>2026-05-03T11:36:12Z</time></trkpt><trkpt lat="45.3592315125547" lon="10.671521530504611"><ele>137.0</ele><time>2026-05-03T11:36:14Z</time></trkpt><trkpt lat="45.35913515333865" lon="10.67136797151645"><ele>137.0</ele><time>2026-05-03T11:44:48Z</time></trkpt><trkpt lat="45.35908328693757" lon="10.67131537942285"><ele>137.0</ele><time>2026-05-03T11:44:49Z</time></trkpt><trkpt lat="45.35901178547359" lon="10.671236607471831"><ele>137.0</ele><time>2026-05-03T11:44:51Z</time></trkpt><trkpt lat="45.35893733487927" lon="10.671172723719181"><ele>137.0</ele><time>2026-05-03T11:44:53Z</time></trkpt><trkpt lat="45.35884093639246" lon="10.671098837919615"><ele>137.0</ele><time>2026-05-03T11:44:55Z</time></trkpt><trkpt lat="45.35873071852681" lon="10.671001317443796"><ele>136.6</ele><time>2026-05-03T11:44:57Z</time></trkpt><trkpt lat="45.35867294980161" lon="10.670951835527697"><ele>136.2</ele><time>2026-05-03T11:44:58Z</time></trkpt><trkpt lat="45.35860398828968" lon="10.670854469847177"><ele>135.8</ele><time>2026-05-03T11:45:00Z</time></trkpt><trkpt lat="45.35851768009963" lon="10.670741857947151"><ele>135.4</ele><time>2026-05-03T11:45:02Z</time></trkpt><trkpt lat="45.35842192391043" lon="10.670661143024837"><ele>135.0</ele><time>2026-05-03T11:45:04Z</time></trkpt><trkpt lat="45.35830702094173" lon="10.670622684931063"><ele>135.0</ele><time>2026-05-03T11:45:06Z</time></trkpt><trkpt lat="45.358235535650316" lon="10.670605557720847"><ele>135.0</ele><time>2026-05-03T11:45:07Z</time></trkpt><trkpt lat="45.358149112893884" lon="10.670568962592974"><ele>135.0</ele><time>2026-05-03T11:45:08Z</time></trkpt><trkpt lat="45.358076654846734" lon="10.670528699708152"><ele>135.0</ele><time>2026-05-03T11:45:09Z</time></trkpt><trkpt lat="45.35796429685891" lon="10.670482926319803"><ele>135.0</ele><time>2026-05-03T11:45:11Z</time></trkpt><trkpt lat="45.35786223226155" lon="10.670454910092662"><ele>133.16666666666666</ele><time>2026-05-03T11:45:13Z</time></trkpt><trkpt lat="45.35776368823767" lon="10.670412857137427"><ele>131.33333333333334</ele><time>2026-05-03T11:45:15Z</time></trkpt><trkpt lat="45.357685492147134" lon="10.6704176602309"><ele>129.5</ele><time>2026-05-03T11:45:19Z</time></trkpt><trkpt lat="45.35771649164324" lon="10.670332913188098"><ele>127.66666666666667</ele><time>2026-05-03T11:48:31.001Z</time></trkpt><trkpt lat="45.357663277054314" lon="10.670267745574135"><ele>125.83333333333334</ele><time>2026-05-03T11:48:46Z</time></trkpt><trkpt lat="45.357642092902815" lon="10.67014798337685"><ele>124.0</ele><time>2026-05-03T11:48:49Z</time></trkpt><trkpt lat="45.357708452542546" lon="10.670142196428895"><ele>124.0</ele><time>2026-05-03T11:49:03Z</time></trkpt><trkpt lat="45.35781960548192" lon="10.670157779595291"><ele>124.0</ele><time>2026-05-03T11:49:35Z</time></trkpt><trkpt lat="45.35790460464881" lon="10.670141074208132"><ele>124.0</ele><time>2026-05-03T11:49:36Z</time></trkpt><trkpt lat="45.35798990521562" lon="10.67011501150722"><ele>124.0</ele><time>2026-05-03T11:49:37Z</time></trkpt><trkpt lat="45.35808528633466" lon="10.67008999048027"><ele>124.0</ele><time>2026-05-03T11:49:38Z</time></trkpt><trkpt lat="45.35816333282087" lon="10.67004966386839"><ele>124.0</ele><time>2026-05-03T11:49:39Z</time></trkpt><trkpt lat="45.35823184927932" lon="10.669996379050513"><ele>124.00000000000001</ele><time>2026-05-03T11:49:40Z</time></trkpt><trkpt lat="45.35830327084705" lon="10.669946101446456"><ele>124.0</ele><time>2026-05-03T11:49:41Z</time></trkpt><trkpt lat="45.358368003168955" lon="10.66989114701223"><ele>124.0</ele><time>2026-05-03T11:49:42Z</time></trkpt><trkpt lat="45.35843435235493" lon="10.669849587941565"><ele>124.00000000000001</ele><time>2026-05-03T11:49:43Z</time></trkpt><trkpt lat="45.358500012645955" lon="10.669838751865269"><ele>124.0</ele><time>2026-05-03T11:49:44Z</time></trkpt><trkpt lat="45.358568486553665" lon="10.669816120228598"><ele>124.0</ele><time>2026-05-03T11:49:45Z</time></trkpt><trkpt lat="45.35864200976145" lon="10.669801423004351"><ele>124.00000000000001</ele><time>2026-05-03T11:49:46Z</time></trkpt><trkpt lat="45.35872398461278" lon="10.669801112903352"><ele>124.0</ele><time>2026-05-03T11:49:47Z</time></trkpt><trkpt lat="45.35880265567592" lon="10.669794940794992"><ele>124.0</ele><time>2026-05-03T11:49:48Z</time></trkpt><trkpt lat="45.35887280906473" lon="10.669781065740807"><ele>124.0</ele><time>2026-05-03T11:49:49Z</time></trkpt><trkpt lat="45.358943530821314" lon="10.669763003665066"><ele>124.00000000000001</ele><time>2026-05-03T11:49:50Z</time></trkpt><trkpt lat="45.35904687772984" lon="10.669693181598719"><ele>124.0</ele><time>2026-05-03T11:49:52Z</time></trkpt><trkpt lat="45.35914104863536" lon="10.669617081162922"><ele>124.50000000000001</ele><time>2026-05-03T11:49:54.001Z</time></trkpt><trkpt lat="45.35922694521634" lon="10.669554423590839"><ele>125.0</ele><time>2026-05-03T11:49:57.001Z</time></trkpt><trkpt lat="45.359288483546244" lon="10.669529858381559"><ele>125.5</ele><time>2026-05-03T11:49:58.001Z</time></trkpt><trkpt lat="45.35936083783357" lon="10.669487481687867"><ele>126.0</ele><time>2026-05-03T11:50:00.001Z</time></trkpt><trkpt lat="45.359453121324194" lon="10.669462555405207"><ele>126.50000000000001</ele><time>2026-05-03T11:50:02.001Z</time></trkpt><trkpt lat="45.35953414344548" lon="10.669438567021292"><ele>127.0</ele><time>2026-05-03T11:50:04.001Z</time></trkpt><trkpt lat="45.35961118379839" lon="10.669404467386004"><ele>126.50000000000001</ele><time>2026-05-03T11:50:07.001Z</time></trkpt><trkpt lat="45.35966746272489" lon="10.669340590861978"><ele>126.0</ele><time>2026-05-03T11:50:19.001Z</time></trkpt><trkpt lat="45.35975903344131" lon="10.66927806787457"><ele>125.5</ele><time>2026-05-03T11:50:37.001Z</time></trkpt><trkpt lat="45.35986847065099" lon="10.669260861665133"><ele>125.0</ele><time>2026-05-03T11:50:39Z</time></trkpt><trkpt lat="45.359938060051235" lon="10.669271639126002"><ele>124.50000000000001</ele><time>2026-05-03T11:50:40Z</time></trkpt><trkpt lat="45.360015307794605" lon="10.669279337171565"><ele>124.0</ele><time>2026-05-03T11:50:41Z</time></trkpt><trkpt lat="45.360089346502065" lon="10.669298137531877"><ele>124.00000000000001</ele><time>2026-05-03T11:50:42Z</time></trkpt><trkpt lat="45.36020043442621" lon="10.669309857676032"><ele>124.0</ele><time>2026-05-03T11:50:44Z</time></trkpt><trkpt lat="45.36028682988752" lon="10.669299846058083"><ele>124.0</ele><time>2026-05-03T11:50:47Z</time></trkpt><trkpt lat="45.36035517296735" lon="10.669274460247838"><ele>124.0</ele><time>2026-05-03T11:50:49Z</time></trkpt><trkpt lat="45.36044166356294" lon="10.669247201139823"><ele>124.00000000000001</ele><time>2026-05-03T11:50:51Z</time></trkpt><trkpt lat="45.3605030138235" lon="10.66921698506088"><ele>124.0</ele><time>2026-05-03T11:50:52Z</time></trkpt><trkpt lat="45.360591864216566" lon="10.66916487372037"><ele>124.33333333333334</ele><time>2026-05-03T11:50:54Z</time></trkpt><trkpt lat="45.360663276939995" lon="10.66912097633955"><ele>124.66666666666667</ele><time>2026-05-03T11:50:56Z</time></trkpt><trkpt lat="45.36076310517962" lon="10.669100761620491"><ele>125.0</ele><time>2026-05-03T11:50:58Z</time></trkpt><trkpt lat="45.36082603740309" lon="10.668992447163719"><ele>125.33333333333334</ele><time>2026-05-03T11:51:00Z</time></trkpt><trkpt lat="45.3608231595959" lon="10.668890869416087"><ele>125.66666666666667</ele><time>2026-05-03T11:51:01Z</time></trkpt><trkpt lat="45.36080746154682" lon="10.668782068288934"><ele>126.0</ele><time>2026-05-03T11:51:02Z</time></trkpt><trkpt lat="45.36082041337907" lon="10.66863222757739"><ele>125.0</ele><time>2026-05-03T11:51:04Z</time></trkpt><trkpt lat="45.36078557728662" lon="10.668473925109906"><ele>124.0</ele><time>2026-05-03T11:51:06Z</time></trkpt><trkpt lat="45.360725768027926" lon="10.668392935812683"><ele>123.0</ele><time>2026-05-03T11:51:08Z</time></trkpt><trkpt lat="45.36065309632205" lon="10.6684006804403"><ele>122.0</ele><time>2026-05-03T11:51:11Z</time></trkpt><trkpt lat="45.360589298913254" lon="10.668389744225847"><ele>121.0</ele><time>2026-05-03T11:51:14Z</time></trkpt><trkpt lat="45.36053951060438" lon="10.668322666598636"><ele>120.0</ele><time>2026-05-03T11:51:18Z</time></trkpt><trkpt lat="45.3605874201191" lon="10.667784712928292"><ele>119.4</ele><time>2026-05-03T11:51:21Z</time></trkpt><trkpt lat="45.3605572924443" lon="10.66767164628308"><ele>118.8</ele><time>2026-05-03T11:51:23Z</time></trkpt><trkpt lat="45.36053253409102" lon="10.667504403745799"><ele>118.19999999999999</ele><time>2026-05-03T11:51:25Z</time></trkpt><trkpt lat="45.36052899865799" lon="10.66736574790609"><ele>117.6</ele><time>2026-05-03T11:51:27Z</time></trkpt><trkpt lat="45.36053469432358" lon="10.667259296444337"><ele>117.0</ele><time>2026-05-03T11:51:29Z</time></trkpt><trkpt lat="45.36054990354008" lon="10.667107945013584"><ele>117.0</ele><time>2026-05-03T11:51:31Z</time></trkpt><trkpt lat="45.36058313063426" lon="10.666953273875713"><ele>116.99999999999999</ele><time>2026-05-03T11:51:33Z</time></trkpt><trkpt lat="45.36058956618592" lon="10.666859212726902"><ele>116.99999999999999</ele><time>2026-05-03T11:51:34Z</time></trkpt><trkpt lat="45.36059535929918" lon="10.6667200806727"><ele>117.0</ele><time>2026-05-03T11:51:36Z</time></trkpt><trkpt lat="45.36062154402895" lon="10.666548828566523"><ele>117.0</ele><time>2026-05-03T11:51:38Z</time></trkpt><trkpt lat="45.36062242376494" lon="10.666438086311535"><ele>117.0</ele><time>2026-05-03T11:51:39Z</time></trkpt><trkpt lat="45.36058753935172" lon="10.666289517170126"><ele>116.99999999999999</ele><time>2026-05-03T11:51:41Z</time></trkpt><trkpt lat="45.360523371570565" lon="10.666243107628322"><ele>116.99999999999999</ele><time>2026-05-03T11:51:42Z</time></trkpt><trkpt lat="45.36043187009324" lon="10.666239782841222"><ele>117.0</ele><time>2026-05-03T11:51:43Z</time></trkpt><trkpt lat="45.36032400170073" lon="10.666237872042892"><ele>117.0</ele><time>2026-05-03T11:51:44Z</time></trkpt><trkpt lat="45.36019751034739" lon="10.666192935657989"><ele>116.66666666666667</ele><time>2026-05-03T11:51:45Z</time></trkpt><trkpt lat="45.360099496144855" lon="10.666180456843348"><ele>116.33333333333334</ele><time>2026-05-03T11:51:46Z</time></trkpt><trkpt lat="45.360021731419" lon="10.66618262408341"><ele>116.0</ele><time>2026-05-03T11:51:47Z</time></trkpt><trkpt lat="45.35994390497327" lon="10.666086346410106"><ele>115.66666666666667</ele><time>2026-05-03T11:51:49Z</time></trkpt><trkpt lat="45.35993733907619" lon="10.665991039823588"><ele>115.33333333333334</ele><time>2026-05-03T11:51:50Z</time></trkpt><trkpt lat="45.35994603896141" lon="10.665863717070335"><ele>115.0</ele><time>2026-05-03T11:51:52Z</time></trkpt><trkpt lat="45.3599533968501" lon="10.6657711803922"><ele>115.0</ele><time>2026-05-03T11:51:54Z</time></trkpt><trkpt lat="45.35990801068489" lon="10.665628769583158"><ele>115.0</ele><time>2026-05-03T11:54:00Z</time></trkpt><trkpt lat="45.3598978258944" lon="10.665537497990327"><ele>115.0</ele><time>2026-05-03T11:54:01Z</time></trkpt><trkpt lat="45.35989142306356" lon="10.665442826549342"><ele>115.0</ele><time>2026-05-03T11:54:02Z</time></trkpt><trkpt lat="45.35989046399656" lon="10.665267453870683"><ele>115.0</ele><time>2026-05-03T11:54:04Z</time></trkpt><trkpt lat="45.35986530605075" lon="10.665149639061138"><ele>116.8</ele><time>2026-05-03T11:54:06Z</time></trkpt><trkpt lat="45.359802931349" lon="10.665086638743073"><ele>118.6</ele><time>2026-05-03T11:54:08Z</time></trkpt><trkpt lat="45.359729818850056" lon="10.665051583765601"><ele>120.4</ele><time>2026-05-03T11:54:10Z</time></trkpt><trkpt lat="45.35963253853589" lon="10.66503861726062"><ele>122.2</ele><time>2026-05-03T11:54:12Z</time></trkpt><trkpt lat="45.359545911263304" lon="10.665044034599028"><ele>124.0</ele><time>2026-05-03T11:54:14Z</time></trkpt><trkpt lat="45.35943502471882" lon="10.665072044171383"><ele>124.6</ele><time>2026-05-03T11:54:16Z</time></trkpt><trkpt lat="45.35933167868263" lon="10.665110934221099"><ele>125.2</ele><time>2026-05-03T11:54:18Z</time></trkpt><trkpt lat="45.35924251436896" lon="10.665150509262022"><ele>125.79999999999998</ele><time>2026-05-03T11:54:20Z</time></trkpt><trkpt lat="45.35915162081247" lon="10.66520152698126"><ele>126.39999999999999</ele><time>2026-05-03T11:54:22Z</time></trkpt><trkpt lat="45.35904134480032" lon="10.665287977671664"><ele>127.0</ele><time>2026-05-03T11:54:24Z</time></trkpt><trkpt lat="45.35893174256549" lon="10.665334938515977"><ele>126.39999999999999</ele><time>2026-05-03T11:54:26Z</time></trkpt><trkpt lat="45.35882254577811" lon="10.66536134186146"><ele>125.79999999999998</ele><time>2026-05-03T11:54:28Z</time></trkpt><trkpt lat="45.35870066622011" lon="10.665343022053108"><ele>125.2</ele><time>2026-05-03T11:54:30Z</time></trkpt><trkpt lat="45.35863838055243" lon="10.665311590846681"><ele>124.6</ele><time>2026-05-03T11:54:31Z</time></trkpt><trkpt lat="45.35857255786533" lon="10.665248234697692"><ele>124.0</ele><time>2026-05-03T11:54:32Z</time></trkpt><trkpt lat="45.3585030677689" lon="10.665185396296124"><ele>124.0</ele><time>2026-05-03T11:54:33Z</time></trkpt><trkpt lat="45.3584329464087" lon="10.66513854629472"><ele>124.0</ele><time>2026-05-03T11:54:34Z</time></trkpt><trkpt lat="45.358349858229616" lon="10.665102921304436"><ele>124.0</ele><time>2026-05-03T11:54:35Z</time></trkpt><trkpt lat="45.358252236082784" lon="10.665072838130726"><ele>124.0</ele><time>2026-05-03T11:54:36Z</time></trkpt><trkpt lat="45.35815292119903" lon="10.665062067892723"><ele>124.0</ele><time>2026-05-03T11:54:37Z</time></trkpt><trkpt lat="45.35805394090812" lon="10.66505901744498"><ele>123.83333333333334</ele><time>2026-05-03T11:54:38Z</time></trkpt><trkpt lat="45.35795171963145" lon="10.665057992408942"><ele>123.66666666666667</ele><time>2026-05-03T11:54:39Z</time></trkpt><trkpt lat="45.35785908738597" lon="10.665056736047024"><ele>123.5</ele><time>2026-05-03T11:54:40Z</time></trkpt><trkpt lat="45.35776102461235" lon="10.665064541797323"><ele>123.33333333333334</ele><time>2026-05-03T11:54:41.001Z</time></trkpt><trkpt lat="45.35768532764017" lon="10.665079296450205"><ele>123.16666666666667</ele><time>2026-05-03T11:54:42.001Z</time></trkpt><trkpt lat="45.357606503717335" lon="10.665095625097152"><ele>123.0</ele><time>2026-05-03T11:54:43.001Z</time></trkpt><trkpt lat="45.357525531437915" lon="10.665106150587725"><ele>123.0</ele><time>2026-05-03T11:54:44.001Z</time></trkpt><trkpt lat="45.35745675966586" lon="10.665100386621345"><ele>123.0</ele><time>2026-05-03T11:54:45.001Z</time></trkpt><trkpt lat="45.35739472106696" lon="10.665062874519688"><ele>123.0</ele><time>2026-05-03T11:54:46.001Z</time></trkpt><trkpt lat="45.357297342933805" lon="10.66493466468513"><ele>123.0</ele><time>2026-05-03T11:54:48.001Z</time></trkpt><trkpt lat="45.35723648044531" lon="10.664853569914792"><ele>123.0</ele><time>2026-05-03T11:54:49.001Z</time></trkpt><trkpt lat="45.35718663664129" lon="10.664764725837466"><ele>123.0</ele><time>2026-05-03T11:54:50Z</time></trkpt><trkpt lat="45.35713225471128" lon="10.664702312801143"><ele>122.0</ele><time>2026-05-03T11:54:51Z</time></trkpt><trkpt lat="45.35702301001089" lon="10.664622722277274"><ele>121.00000000000001</ele><time>2026-05-03T11:54:53Z</time></trkpt><trkpt lat="45.35695810677533" lon="10.664617771597907"><ele>120.00000000000001</ele><time>2026-05-03T11:54:54Z</time></trkpt><trkpt lat="45.35685891642273" lon="10.664595940019678"><ele>119.0</ele><time>2026-05-03T11:54:56Z</time></trkpt><trkpt lat="45.3567992650074" lon="10.664492129878541"><ele>118.0</ele><time>2026-05-03T11:54:58Z</time></trkpt><trkpt lat="45.35680979050338" lon="10.664296967663518"><ele>117.0</ele><time>2026-05-03T11:55:00Z</time></trkpt><trkpt lat="45.35682077925442" lon="10.664181825431546"><ele>116.00000000000001</ele><time>2026-05-03T11:55:01Z</time></trkpt><trkpt lat="45.35684313905994" lon="10.66405359036787"><ele>115.00000000000001</ele><time>2026-05-03T11:55:02Z</time></trkpt><trkpt lat="45.3568664707891" lon="10.663916933152233"><ele>114.0</ele><time>2026-05-03T11:55:03Z</time></trkpt><trkpt lat="45.35688972620574" lon="10.663774547658228"><ele>113.0</ele><time>2026-05-03T11:55:04Z</time></trkpt><trkpt lat="45.35690791532493" lon="10.663624976932104"><ele>112.60000000000001</ele><time>2026-05-03T11:55:05Z</time></trkpt><trkpt lat="45.35692219854445" lon="10.663465790513659"><ele>112.20000000000002</ele><time>2026-05-03T11:55:06Z</time></trkpt><trkpt lat="45.35693683203039" lon="10.663302281514303"><ele>111.8</ele><time>2026-05-03T11:55:07Z</time></trkpt><trkpt lat="45.35695931524992" lon="10.663155445807865"><ele>111.4</ele><time>2026-05-03T11:55:08Z</time></trkpt><trkpt lat="45.356980570044065" lon="10.662999593729113"><ele>111.0</ele><time>2026-05-03T11:55:09Z</time></trkpt><trkpt lat="45.35699943562577" lon="10.662845775946453"><ele>110.83333333333333</ele><time>2026-05-03T11:55:10Z</time></trkpt><trkpt lat="45.35701461488354" lon="10.662707401869344"><ele>110.66666666666666</ele><time>2026-05-03T11:55:11Z</time></trkpt><trkpt lat="45.3570272296075" lon="10.662599703629695"><ele>110.5</ele><time>2026-05-03T11:55:12Z</time></trkpt><trkpt lat="45.3570402533324" lon="10.662506971517361"><ele>110.33333333333333</ele><time>2026-05-03T11:55:13Z</time></trkpt><trkpt lat="45.35705541134377" lon="10.662392103734616"><ele>110.16666666666666</ele><time>2026-05-03T11:55:15Z</time></trkpt><trkpt lat="45.3570375414136" lon="10.66226829941621"><ele>110.0</ele><time>2026-05-03T11:55:17Z</time></trkpt><trkpt lat="45.35692990600536" lon="10.6621964847399"><ele>109.99999999999999</ele><time>2026-05-03T11:55:19Z</time></trkpt><trkpt lat="45.356860580642895" lon="10.662182408526188"><ele>110.0</ele><time>2026-05-03T11:55:20Z</time></trkpt><trkpt lat="45.35678540241006" lon="10.66217531562188"><ele>110.0</ele><time>2026-05-03T11:55:21Z</time></trkpt><trkpt lat="45.356687113428414" lon="10.662174087387536"><ele>110.0</ele><time>2026-05-03T11:55:22Z</time></trkpt><trkpt lat="45.35659798484893" lon="10.662151783287205"><ele>109.99999999999999</ele><time>2026-05-03T11:55:23Z</time></trkpt><trkpt lat="45.35651449822719" lon="10.662129241399326"><ele>110.0</ele><time>2026-05-03T11:55:24Z</time></trkpt><trkpt lat="45.35644919717823" lon="10.662111056612956"><ele>109.8</ele><time>2026-05-03T11:55:25Z</time></trkpt><trkpt lat="45.356352146646486" lon="10.66207890554791"><ele>109.6</ele><time>2026-05-03T11:55:27Z</time></trkpt><trkpt lat="45.35627261013688" lon="10.66206072684308"><ele>109.4</ele><time>2026-05-03T11:55:29Z</time></trkpt><trkpt lat="45.35618982348376" lon="10.662045290604018"><ele>109.2</ele><time>2026-05-03T11:55:32Z</time></trkpt><trkpt lat="45.35611983059709" lon="10.662178734736148"><ele>109.0</ele><time>2026-05-03T11:55:34Z</time></trkpt><trkpt lat="45.356088371430104" lon="10.66230395698045"><ele>109.0</ele><time>2026-05-03T11:55:35Z</time></trkpt><trkpt lat="45.35606751429837" lon="10.662449190746992"><ele>109.0</ele><time>2026-05-03T11:55:36Z</time></trkpt><trkpt lat="45.35604106415012" lon="10.662635812646025"><ele>109.0</ele><time>2026-05-03T11:55:37Z</time></trkpt><trkpt lat="45.356012409065606" lon="10.662841877566285"><ele>109.0</ele><time>2026-05-03T11:55:38Z</time></trkpt><trkpt lat="45.355980395159534" lon="10.663072096487358"><ele>109.33333333333334</ele><time>2026-05-03T11:55:39Z</time></trkpt><trkpt lat="45.355945286152156" lon="10.663324572973222"><ele>109.66666666666666</ele><time>2026-05-03T11:55:40Z</time></trkpt><trkpt lat="45.35590881855164" lon="10.663583612529099"><ele>110.0</ele><time>2026-05-03T11:55:41Z</time></trkpt><trkpt lat="45.35587139974415" lon="10.663849133724916"><ele>110.0</ele><time>2026-05-03T11:55:42Z</time></trkpt><trkpt lat="45.35583346241716" lon="10.664118334448602"><ele>110.0</ele><time>2026-05-03T11:55:43Z</time></trkpt><trkpt lat="45.355800075180355" lon="10.664355623268312"><ele>110.0</ele><time>2026-05-03T11:55:44Z</time></trkpt><trkpt lat="45.355768712503135" lon="10.664580623820687"><ele>110.0</ele><time>2026-05-03T11:55:45Z</time></trkpt><trkpt lat="45.35573679210368" lon="10.664809625470678"><ele>110.0</ele><time>2026-05-03T11:55:46Z</time></trkpt><trkpt lat="45.355703764520314" lon="10.665046570191514"><ele>110.0</ele><time>2026-05-03T11:55:47Z</time></trkpt><trkpt lat="45.355686476708975" lon="10.665286697577908"><ele>110.66666666666666</ele><time>2026-05-03T11:55:48Z</time></trkpt><trkpt lat="45.35565202491776" lon="10.665514132091058"><ele>111.33333333333334</ele><time>2026-05-03T11:55:49Z</time></trkpt><trkpt lat="45.35561498970031" lon="10.66574060225989"><ele>112.0</ele><time>2026-05-03T11:55:50Z</time></trkpt><trkpt lat="45.35557646673493" lon="10.665962987168164"><ele>110.75</ele><time>2026-05-03T11:55:51Z</time></trkpt><trkpt lat="45.35553472547968" lon="10.666174011722878"><ele>109.5</ele><time>2026-05-03T11:55:52Z</time></trkpt><trkpt lat="45.355494111148474" lon="10.666367308450978"><ele>108.25</ele><time>2026-05-03T11:55:53Z</time></trkpt><trkpt lat="45.355448624509904" lon="10.666554155911392"><ele>107.0</ele><time>2026-05-03T11:55:54Z</time></trkpt><trkpt lat="45.35540330783205" lon="10.666737282712722"><ele>107.0</ele><time>2026-05-03T11:55:55Z</time></trkpt><trkpt lat="45.35535618883221" lon="10.666918373099232"><ele>107.0</ele><time>2026-05-03T11:55:56Z</time></trkpt><trkpt lat="45.35530186587009" lon="10.667105946714392"><ele>107.0</ele><time>2026-05-03T11:55:57Z</time></trkpt><trkpt lat="45.3552493316235" lon="10.66729624300247"><ele>107.0</ele><time>2026-05-03T11:55:58Z</time></trkpt><trkpt lat="45.35519109456747" lon="10.667487484999652"><ele>107.33333333333333</ele><time>2026-05-03T11:55:59Z</time></trkpt><trkpt lat="45.35513209239437" lon="10.667688117731123"><ele>107.66666666666666</ele><time>2026-05-03T11:56:00Z</time></trkpt><trkpt lat="45.355075857504644" lon="10.667896861473855"><ele>108.0</ele><time>2026-05-03T11:56:01Z</time></trkpt><trkpt lat="45.35502080005518" lon="10.668119654643164"><ele>108.0</ele><time>2026-05-03T11:56:02Z</time></trkpt><trkpt lat="45.35496791554025" lon="10.668353636122916"><ele>108.0</ele><time>2026-05-03T11:56:03Z</time></trkpt><trkpt lat="45.354924308369775" lon="10.66860198868712"><ele>108.0</ele><time>2026-05-03T11:56:04Z</time></trkpt><trkpt lat="45.354893146229756" lon="10.66884820319255"><ele>108.33333333333334</ele><time>2026-05-03T11:56:05Z</time></trkpt><trkpt lat="45.35486648931343" lon="10.669070756455078"><ele>108.66666666666667</ele><time>2026-05-03T11:56:06Z</time></trkpt><trkpt lat="45.354844381527776" lon="10.669299486641904"><ele>109.0</ele><time>2026-05-03T11:56:07Z</time></trkpt><trkpt lat="45.35482545185105" lon="10.669537936787643"><ele>109.0</ele><time>2026-05-03T11:56:08Z</time></trkpt><trkpt lat="45.35480791451491" lon="10.669788719387958"><ele>109.0</ele><time>2026-05-03T11:56:09Z</time></trkpt><trkpt lat="45.35479234927528" lon="10.670045183806952"><ele>109.0</ele><time>2026-05-03T11:56:10Z</time></trkpt><trkpt lat="45.35477526622171" lon="10.670307037057114"><ele>109.66666666666667</ele><time>2026-05-03T11:56:11Z</time></trkpt><trkpt lat="45.354759293077514" lon="10.670572471130944"><ele>110.33333333333334</ele><time>2026-05-03T11:56:12Z</time></trkpt><trkpt lat="45.35474459681503" lon="10.670833005885207"><ele>111.0</ele><time>2026-05-03T11:56:13Z</time></trkpt><trkpt lat="45.35472862566134" lon="10.671084792906417"><ele>110.33333333333334</ele><time>2026-05-03T11:56:14Z</time></trkpt><trkpt lat="45.35471441526022" lon="10.671318912315755"><ele>109.66666666666667</ele><time>2026-05-03T11:56:15Z</time></trkpt><trkpt lat="45.354703352909596" lon="10.67153409239573"><ele>109.0</ele><time>2026-05-03T11:56:16Z</time></trkpt><trkpt lat="45.354689748016874" lon="10.671736360046"><ele>109.0</ele><time>2026-05-03T11:56:17Z</time></trkpt><trkpt lat="45.3546696360957" lon="10.671933459850509"><ele>109.0</ele><time>2026-05-03T11:56:18Z</time></trkpt><trkpt lat="45.35464883347276" lon="10.672137643068366"><ele>109.0</ele><time>2026-05-03T11:56:19Z</time></trkpt><trkpt lat="45.354624466030856" lon="10.672352854413266"><ele>109.0</ele><time>2026-05-03T11:56:20Z</time></trkpt><trkpt lat="45.35459484920318" lon="10.672577868800605"><ele>105.33333333333334</ele><time>2026-05-03T11:56:21Z</time></trkpt><trkpt lat="45.35456089945149" lon="10.672807695446737"><ele>101.66666666666666</ele><time>2026-05-03T11:56:22Z</time></trkpt><trkpt lat="45.35452052349039" lon="10.673047062444446"><ele>98.0</ele><time>2026-05-03T11:56:23Z</time></trkpt><trkpt lat="45.35447630213276" lon="10.67328945306972"><ele>98.0</ele><time>2026-05-03T11:56:24Z</time></trkpt><trkpt lat="45.35442959896961" lon="10.673539100850485"><ele>98.0</ele><time>2026-05-03T11:56:25Z</time></trkpt><trkpt lat="45.35438657323699" lon="10.673793470951857"><ele>98.0</ele><time>2026-05-03T11:56:26Z</time></trkpt><trkpt lat="45.35434571354214" lon="10.67403788330453"><ele>97.66666666666666</ele><time>2026-05-03T11:56:27Z</time></trkpt><trkpt lat="45.3543053449538" lon="10.674275340955845"><ele>97.33333333333334</ele><time>2026-05-03T11:56:28Z</time></trkpt><trkpt lat="45.35426924370232" lon="10.67450909569392"><ele>97.0</ele><time>2026-05-03T11:56:29Z</time></trkpt><trkpt lat="45.35423061030381" lon="10.674737416313302"><ele>97.0</ele><time>2026-05-03T11:56:30Z</time></trkpt><trkpt lat="45.35419302522416" lon="10.674963031570751"><ele>97.0</ele><time>2026-05-03T11:56:31Z</time></trkpt><trkpt lat="45.354160679401765" lon="10.67516726541436"><ele>97.0</ele><time>2026-05-03T11:56:32Z</time></trkpt><trkpt lat="45.354128457958296" lon="10.675359957466968"><ele>97.0</ele><time>2026-05-03T11:56:33Z</time></trkpt><trkpt lat="45.35409488857427" lon="10.675558291059199"><ele>97.25</ele><time>2026-05-03T11:56:34Z</time></trkpt><trkpt lat="45.35406020825553" lon="10.67575674973214"><ele>97.5</ele><time>2026-05-03T11:56:35Z</time></trkpt><trkpt lat="45.354028126645154" lon="10.675951530759166"><ele>97.75</ele><time>2026-05-03T11:56:36Z</time></trkpt><trkpt lat="45.35399749664297" lon="10.67614025594286"><ele>98.0</ele><time>2026-05-03T11:56:37Z</time></trkpt><trkpt lat="45.35396698532698" lon="10.676315187814101"><ele>97.5</ele><time>2026-05-03T11:56:38Z</time></trkpt><trkpt lat="45.35393480839047" lon="10.6764765697949"><ele>97.0</ele><time>2026-05-03T11:56:39Z</time></trkpt><trkpt lat="45.353906638307876" lon="10.676629637241463"><ele>96.5</ele><time>2026-05-03T11:56:40Z</time></trkpt><trkpt lat="45.35388065036897" lon="10.676787011674055"><ele>96.0</ele><time>2026-05-03T11:56:41Z</time></trkpt><trkpt lat="45.353853938404" lon="10.67694978191206"><ele>96.0</ele><time>2026-05-03T11:56:42Z</time></trkpt><trkpt lat="45.353825880538665" lon="10.67711495493303"><ele>96.0</ele><time>2026-05-03T11:56:43Z</time></trkpt><trkpt lat="45.35379364389222" lon="10.677281987114387"><ele>96.0</ele><time>2026-05-03T11:56:44Z</time></trkpt><trkpt lat="45.353763537153206" lon="10.677453045209948"><ele>96.0</ele><time>2026-05-03T11:56:45Z</time></trkpt><trkpt lat="45.353736138436844" lon="10.677631002910688"><ele>96.25</ele><time>2026-05-03T11:56:46Z</time></trkpt><trkpt lat="45.353704370409666" lon="10.67782035404705"><ele>96.5</ele><time>2026-05-03T11:56:47Z</time></trkpt><trkpt lat="45.353670087491615" lon="10.67801759059295"><ele>96.75</ele><time>2026-05-03T11:56:48Z</time></trkpt><trkpt lat="45.35363797357363" lon="10.67822963967927"><ele>97.0</ele><time>2026-05-03T11:56:49Z</time></trkpt><trkpt lat="45.35360759031647" lon="10.678455124341964"><ele>97.66666666666667</ele><time>2026-05-03T11:56:50Z</time></trkpt><trkpt lat="45.353579923365146" lon="10.678689314456232"><ele>98.33333333333334</ele><time>2026-05-03T11:56:51Z</time></trkpt><trkpt lat="45.353562294829345" lon="10.67893090537948"><ele>99.0</ele><time>2026-05-03T11:56:52Z</time></trkpt><trkpt lat="45.35355294094818" lon="10.67917268629715"><ele>99.0</ele><time>2026-05-03T11:56:53Z</time></trkpt><trkpt lat="45.35355313668932" lon="10.679401450385281"><ele>99.0</ele><time>2026-05-03T11:56:54Z</time></trkpt><trkpt lat="45.353556365076074" lon="10.679600887289363"><ele>99.0</ele><time>2026-05-03T11:56:55Z</time></trkpt><trkpt lat="45.353562905634725" lon="10.67979024700448"><ele>99.0</ele><time>2026-05-03T11:56:56Z</time></trkpt><trkpt lat="45.35356497257573" lon="10.679969718988643"><ele>98.80000000000001</ele><time>2026-05-03T11:56:57Z</time></trkpt><trkpt lat="45.35356612783378" lon="10.680148442449692"><ele>98.60000000000001</ele><time>2026-05-03T11:56:58Z</time></trkpt><trkpt lat="45.35356603986214" lon="10.680307940584123"><ele>98.4</ele><time>2026-05-03T11:56:59Z</time></trkpt><trkpt lat="45.35356797350884" lon="10.68045591565332"><ele>98.2</ele><time>2026-05-03T11:57:00Z</time></trkpt><trkpt lat="45.35356986260626" lon="10.680574068311632"><ele>98.0</ele><time>2026-05-03T11:57:01Z</time></trkpt><trkpt lat="45.35357173266613" lon="10.680664663409269"><ele>97.99999999999999</ele><time>2026-05-03T11:57:02Z</time></trkpt><trkpt lat="45.3535714406357" lon="10.68078357537946"><ele>98.0</ele><time>2026-05-03T11:57:04Z</time></trkpt><trkpt lat="45.35357187785858" lon="10.680895606147844"><ele>98.0</ele><time>2026-05-03T11:57:07Z</time></trkpt><trkpt lat="45.35357287277394" lon="10.681024648730777"><ele>98.0</ele><time>2026-05-03T11:57:10Z</time></trkpt><trkpt lat="45.35356202679302" lon="10.681133579441438"><ele>97.99999999999999</ele><time>2026-05-03T11:57:13Z</time></trkpt><trkpt lat="45.35352214294751" lon="10.681221703372414"><ele>98.0</ele><time>2026-05-03T11:57:19Z</time></trkpt><trkpt lat="45.35352465268438" lon="10.681320474458317"><ele>98.0</ele><time>2026-05-03T11:57:24Z</time></trkpt><trkpt lat="45.35347952168007" lon="10.681388676739868"><ele>98.0</ele><time>2026-05-03T11:59:55Z</time></trkpt><trkpt lat="45.353427844270094" lon="10.681448623873596"><ele>98.0</ele><time>2026-05-03T12:00:04Z</time></trkpt><trkpt lat="45.35336281133553" lon="10.681451228263654"><ele>98.0</ele><time>2026-05-03T12:00:11Z</time></trkpt><trkpt lat="45.353450608863724" lon="10.681477929836511"><ele>98.0</ele><time>2026-05-03T13:05:48Z</time></trkpt><trkpt lat="45.35349774394917" lon="10.681384098869216"><ele>98.0</ele><time>2026-05-03T13:05:54Z</time></trkpt><trkpt lat="45.3535194700996" lon="10.681291047946626"><ele>98.0</ele><time>2026-05-03T13:08:34.999Z</time></trkpt><trkpt lat="45.35345883209575" lon="10.681204737434262"><ele>98.0</ele><time>2026-05-03T13:08:43.999Z</time></trkpt><trkpt lat="45.35352199219928" lon="10.681137607617362"><ele>98.0</ele><time>2026-05-03T13:08:46.999Z</time></trkpt><trkpt lat="45.35359159284093" lon="10.681204786910971"><ele>98.0</ele><time>2026-05-03T13:08:50Z</time></trkpt><trkpt lat="45.35358584216181" lon="10.681329972666882"><ele>98.0</ele><time>2026-05-03T13:08:52Z</time></trkpt><trkpt lat="45.35355672679601" lon="10.681464319610637"><ele>98.0</ele><time>2026-05-03T13:08:55Z</time></trkpt><trkpt lat="45.35348904883121" lon="10.681614565592106"><ele>97.99999999999999</ele><time>2026-05-03T13:08:57Z</time></trkpt><trkpt lat="45.3534388293289" lon="10.681698072510878"><ele>98.0</ele><time>2026-05-03T13:08:58Z</time></trkpt><trkpt lat="45.35340085102391" lon="10.68178729117781"><ele>98.0</ele><time>2026-05-03T13:08:59Z</time></trkpt><trkpt lat="45.35338527447877" lon="10.68187719268875"><ele>98.0</ele><time>2026-05-03T13:09:00Z</time></trkpt><trkpt lat="45.35339203768144" lon="10.681974506616854"><ele>97.99999999999999</ele><time>2026-05-03T13:09:01Z</time></trkpt><trkpt lat="45.35346761148693" lon="10.682112728546816"><ele>98.0</ele><time>2026-05-03T13:09:03Z</time></trkpt><trkpt lat="45.35358423782806" lon="10.682164930494793"><ele>98.0</ele><time>2026-05-03T13:09:05Z</time></trkpt><trkpt lat="45.353700472109004" lon="10.682123199979582"><ele>98.0</ele><time>2026-05-03T13:09:07Z</time></trkpt><trkpt lat="45.353780220019274" lon="10.681994001376086"><ele>98.0</ele><time>2026-05-03T13:09:09Z</time></trkpt><trkpt lat="45.353793853546165" lon="10.681874556651344"><ele>98.0</ele><time>2026-05-03T13:09:11Z</time></trkpt><trkpt lat="45.35378888001572" lon="10.681783037812442"><ele>98.0</ele><time>2026-05-03T13:09:13Z</time></trkpt><trkpt lat="45.353749151278954" lon="10.681680020347663"><ele>98.0</ele><time>2026-05-03T13:09:15Z</time></trkpt><trkpt lat="45.35368495688273" lon="10.681533426167213"><ele>98.0</ele><time>2026-05-03T13:09:17Z</time></trkpt><trkpt lat="45.3536513249613" lon="10.681356205281693"><ele>98.0</ele><time>2026-05-03T13:09:19Z</time></trkpt><trkpt lat="45.35359297883242" lon="10.681229933698818"><ele>98.0</ele><time>2026-05-03T13:09:21Z</time></trkpt><trkpt lat="45.35363704146463" lon="10.681110489534921"><ele>98.0</ele><time>2026-05-03T13:09:22Z</time></trkpt><trkpt lat="45.35364173603069" lon="10.681011932909053"><ele>98.0</ele><time>2026-05-03T13:09:24Z</time></trkpt><trkpt lat="45.35363674377815" lon="10.680887328480816"><ele>98.0</ele><time>2026-05-03T13:10:51.999Z</time></trkpt><trkpt lat="45.35362838734424" lon="10.680749979526027"><ele>98.0</ele><time>2026-05-03T13:10:53.999Z</time></trkpt><trkpt lat="45.3536251716574" lon="10.680555018632168"><ele>98.0</ele><time>2026-05-03T13:10:55.999Z</time></trkpt><trkpt lat="45.35362287751815" lon="10.680440133785174"><ele>98.0</ele><time>2026-05-03T13:10:56.999Z</time></trkpt><trkpt lat="45.3536193612642" lon="10.680313348849646"><ele>98.0</ele><time>2026-05-03T13:10:57.999Z</time></trkpt><trkpt lat="45.353617776907384" lon="10.680174603994264"><ele>98.0</ele><time>2026-05-03T13:10:58.999Z</time></trkpt><trkpt lat="45.35361484356904" lon="10.68003094080669"><ele>98.0</ele><time>2026-05-03T13:10:59.999Z</time></trkpt><trkpt lat="45.35361227010158" lon="10.679881959234658"><ele>98.0</ele><time>2026-05-03T13:11:00.999Z</time></trkpt><trkpt lat="45.35360820799617" lon="10.679725729507132"><ele>98.25</ele><time>2026-05-03T13:11:01.999Z</time></trkpt><trkpt lat="45.35360684904357" lon="10.679562671710464"><ele>98.5</ele><time>2026-05-03T13:11:02.999Z</time></trkpt><trkpt lat="45.35360833286815" lon="10.679391346667996"><ele>98.75</ele><time>2026-05-03T13:11:03.999Z</time></trkpt><trkpt lat="45.3536085614299" lon="10.679208996097092"><ele>99.0</ele><time>2026-05-03T13:11:04.999Z</time></trkpt><trkpt lat="45.353614244020314" lon="10.679022019619099"><ele>99.0</ele><time>2026-05-03T13:11:05.999Z</time></trkpt><trkpt lat="45.35362638215076" lon="10.678830575479292"><ele>99.0</ele><time>2026-05-03T13:11:06.999Z</time></trkpt><trkpt lat="45.35364475767036" lon="10.678634591137767"><ele>99.0</ele><time>2026-05-03T13:11:07.999Z</time></trkpt><trkpt lat="45.35366878479366" lon="10.678435676650613"><ele>99.0</ele><time>2026-05-03T13:11:08.999Z</time></trkpt><trkpt lat="45.35369726493656" lon="10.678233813850975"><ele>98.5</ele><time>2026-05-03T13:11:10Z</time></trkpt><trkpt lat="45.353731978696096" lon="10.678032095597775"><ele>98.0</ele><time>2026-05-03T13:11:11Z</time></trkpt><trkpt lat="45.353766472812104" lon="10.677831433487965"><ele>97.5</ele><time>2026-05-03T13:11:12Z</time></trkpt><trkpt lat="45.353800216220876" lon="10.677628346576753"><ele>97.0</ele><time>2026-05-03T13:11:13Z</time></trkpt><trkpt lat="45.35383371077532" lon="10.677424986117504"><ele>96.75</ele><time>2026-05-03T13:11:14Z</time></trkpt><trkpt lat="45.35387030971483" lon="10.677223075624607"><ele>96.5</ele><time>2026-05-03T13:11:15Z</time></trkpt><trkpt lat="45.353905582388286" lon="10.677023460183383"><ele>96.25</ele><time>2026-05-03T13:11:16Z</time></trkpt><trkpt lat="45.35393487922495" lon="10.676822406213295"><ele>96.0</ele><time>2026-05-03T13:11:17Z</time></trkpt><trkpt lat="45.35396453364893" lon="10.67662286138008"><ele>95.5</ele><time>2026-05-03T13:11:18Z</time></trkpt><trkpt lat="45.3540073163594" lon="10.676426318420011"><ele>95.0</ele><time>2026-05-03T13:11:19Z</time></trkpt><trkpt lat="45.35403636419003" lon="10.676228241390103"><ele>94.5</ele><time>2026-05-03T13:11:20Z</time></trkpt><trkpt lat="45.35407042421983" lon="10.676027642185762"><ele>94.0</ele><time>2026-05-03T13:11:21Z</time></trkpt><trkpt lat="45.35410213714345" lon="10.675828098755169"><ele>94.75</ele><time>2026-05-03T13:11:22Z</time></trkpt><trkpt lat="45.35413477556548" lon="10.675625791693134"><ele>95.5</ele><time>2026-05-03T13:11:23Z</time></trkpt><trkpt lat="45.35416707886542" lon="10.675422929015793"><ele>96.25</ele><time>2026-05-03T13:11:24Z</time></trkpt><trkpt lat="45.35420223762816" lon="10.675219399715122"><ele>97.0</ele><time>2026-05-03T13:11:25Z</time></trkpt><trkpt lat="45.35423689939595" lon="10.675015016439332"><ele>97.0</ele><time>2026-05-03T13:11:26Z</time></trkpt><trkpt lat="45.35427278937751" lon="10.6748076919027"><ele>97.0</ele><time>2026-05-03T13:11:27Z</time></trkpt><trkpt lat="45.35431021013133" lon="10.67460061414536"><ele>97.0</ele><time>2026-05-03T13:11:28Z</time></trkpt><trkpt lat="45.3543417902494" lon="10.674393204609748"><ele>97.0</ele><time>2026-05-03T13:11:29Z</time></trkpt><trkpt lat="45.35437670212388" lon="10.674185220719204"><ele>96.66666666666667</ele><time>2026-05-03T13:11:30Z</time></trkpt><trkpt lat="45.3544123104099" lon="10.673975007318598"><ele>96.33333333333334</ele><time>2026-05-03T13:11:31Z</time></trkpt><trkpt lat="45.354447349150384" lon="10.673762763590654"><ele>96.0</ele><time>2026-05-03T13:11:32Z</time></trkpt><trkpt lat="45.354481074410586" lon="10.673555833792976"><ele>96.5</ele><time>2026-05-03T13:11:33Z</time></trkpt><trkpt lat="45.35451352836109" lon="10.673361020016642"><ele>97.0</ele><time>2026-05-03T13:11:34Z</time></trkpt><trkpt lat="45.354545486768316" lon="10.67315737921611"><ele>97.5</ele><time>2026-05-03T13:11:35Z</time></trkpt><trkpt lat="45.354578199892494" lon="10.672947748995055"><ele>98.0</ele><time>2026-05-03T13:11:36Z</time></trkpt><trkpt lat="45.35461292676268" lon="10.672741631541788"><ele>99.0</ele><time>2026-05-03T13:11:37Z</time></trkpt><trkpt lat="45.35464717081292" lon="10.672534893063373"><ele>100.0</ele><time>2026-05-03T13:11:38Z</time></trkpt><trkpt lat="45.354672367250984" lon="10.672319239541892"><ele>101.0</ele><time>2026-05-03T13:11:39Z</time></trkpt><trkpt lat="45.35469594749612" lon="10.672101923309315"><ele>102.33333333333333</ele><time>2026-05-03T13:11:40Z</time></trkpt><trkpt lat="45.3547145756639" lon="10.671880567730273"><ele>103.66666666666666</ele><time>2026-05-03T13:11:41Z</time></trkpt><trkpt lat="45.35473117232368" lon="10.671658910893852"><ele>105.0</ele><time>2026-05-03T13:11:42Z</time></trkpt><trkpt lat="45.35474865145383" lon="10.671436156742635"><ele>105.0</ele><time>2026-05-03T13:11:43Z</time></trkpt><trkpt lat="45.35476443459083" lon="10.6712096655236"><ele>105.0</ele><time>2026-05-03T13:11:44Z</time></trkpt><trkpt lat="45.354778066473244" lon="10.670983572176493"><ele>105.0</ele><time>2026-05-03T13:11:45Z</time></trkpt><trkpt lat="45.35479365091388" lon="10.670755760253778"><ele>106.33333333333334</ele><time>2026-05-03T13:11:46Z</time></trkpt><trkpt lat="45.354809259885236" lon="10.670526171202534"><ele>107.66666666666667</ele><time>2026-05-03T13:11:47Z</time></trkpt><trkpt lat="45.35482236901086" lon="10.670296841698528"><ele>109.0</ele><time>2026-05-03T13:11:48Z</time></trkpt><trkpt lat="45.354835976912646" lon="10.670064258854744"><ele>109.0</ele><time>2026-05-03T13:11:49Z</time></trkpt><trkpt lat="45.35485414663441" lon="10.669831764779355"><ele>109.0</ele><time>2026-05-03T13:11:50Z</time></trkpt><trkpt lat="45.35486816526782" lon="10.669595358075485"><ele>109.0</ele><time>2026-05-03T13:11:51Z</time></trkpt><trkpt lat="45.354882617077976" lon="10.66935791383032"><ele>108.0</ele><time>2026-05-03T13:11:52Z</time></trkpt><trkpt lat="45.35490208485648" lon="10.669120509133858"><ele>107.0</ele><time>2026-05-03T13:11:53Z</time></trkpt><trkpt lat="45.354924918752445" lon="10.668883986117452"><ele>106.0</ele><time>2026-05-03T13:11:54Z</time></trkpt><trkpt lat="45.35495737632166" lon="10.668649580287825"><ele>106.66666666666667</ele><time>2026-05-03T13:11:55Z</time></trkpt><trkpt lat="45.35499985438679" lon="10.668415397327824"><ele>107.33333333333334</ele><time>2026-05-03T13:11:56Z</time></trkpt><trkpt lat="45.3550476439826" lon="10.668180787763047"><ele>108.0</ele><time>2026-05-03T13:11:57Z</time></trkpt><trkpt lat="45.355102282646335" lon="10.667948864891862"><ele>108.33333333333334</ele><time>2026-05-03T13:11:58Z</time></trkpt><trkpt lat="45.35516331818302" lon="10.667720126597814"><ele>108.66666666666667</ele><time>2026-05-03T13:11:59Z</time></trkpt><trkpt lat="45.35522810126751" lon="10.667496234591203"><ele>109.0</ele><time>2026-05-03T13:12:00Z</time></trkpt><trkpt lat="45.35528612948471" lon="10.667280749719877"><ele>109.0</ele><time>2026-05-03T13:12:01Z</time></trkpt><trkpt lat="45.355338784477745" lon="10.667086022635154"><ele>109.0</ele><time>2026-05-03T13:12:02Z</time></trkpt><trkpt lat="45.3553886363953" lon="10.666885140372521"><ele>109.0</ele><time>2026-05-03T13:12:03Z</time></trkpt><trkpt lat="45.355439402161714" lon="10.666683634390145"><ele>109.0</ele><time>2026-05-03T13:12:04Z</time></trkpt><trkpt lat="45.35548829541184" lon="10.666481246564247"><ele>108.33333333333334</ele><time>2026-05-03T13:12:05Z</time></trkpt><trkpt lat="45.35552980633765" lon="10.66627630558388"><ele>107.66666666666666</ele><time>2026-05-03T13:12:06Z</time></trkpt><trkpt lat="45.355571630737785" lon="10.666071840798836"><ele>107.0</ele><time>2026-05-03T13:12:07Z</time></trkpt><trkpt lat="45.35561648672307" lon="10.66586578410733"><ele>108.0</ele><time>2026-05-03T13:12:08Z</time></trkpt><trkpt lat="45.35565263653587" lon="10.665653292765374"><ele>109.0</ele><time>2026-05-03T13:12:09Z</time></trkpt><trkpt lat="45.35568269202037" lon="10.665433582778213"><ele>110.0</ele><time>2026-05-03T13:12:10Z</time></trkpt><trkpt lat="45.35571677801858" lon="10.665213427331501"><ele>110.0</ele><time>2026-05-03T13:12:11Z</time></trkpt><trkpt lat="45.35575210390871" lon="10.664990109101781"><ele>110.0</ele><time>2026-05-03T13:12:12Z</time></trkpt><trkpt lat="45.35578578244618" lon="10.664764239652062"><ele>110.0</ele><time>2026-05-03T13:12:13Z</time></trkpt><trkpt lat="45.355821549528244" lon="10.664532626815662"><ele>110.0</ele><time>2026-05-03T13:12:14Z</time></trkpt><trkpt lat="45.355852568070674" lon="10.664294918673784"><ele>110.0</ele><time>2026-05-03T13:12:15Z</time></trkpt><trkpt lat="45.35588404536262" lon="10.664055431201072"><ele>110.0</ele><time>2026-05-03T13:12:16Z</time></trkpt><trkpt lat="45.355917672362985" lon="10.663816842234192"><ele>110.0</ele><time>2026-05-03T13:12:17Z</time></trkpt><trkpt lat="45.35595058894908" lon="10.663577147052735"><ele>110.0</ele><time>2026-05-03T13:12:18Z</time></trkpt><trkpt lat="45.35598423926371" lon="10.663337777679848"><ele>110.0</ele><time>2026-05-03T13:12:19Z</time></trkpt><trkpt lat="45.35601804898578" lon="10.663097092962001"><ele>110.0</ele><time>2026-05-03T13:12:20Z</time></trkpt><trkpt lat="45.35605007879283" lon="10.6628562705174"><ele>110.0</ele><time>2026-05-03T13:12:21Z</time></trkpt><trkpt lat="45.356083611550936" lon="10.662616355428105"><ele>110.0</ele><time>2026-05-03T13:12:22Z</time></trkpt><trkpt lat="45.356115589933225" lon="10.662376376275008"><ele>109.66666666666666</ele><time>2026-05-03T13:12:23Z</time></trkpt><trkpt lat="45.35615062111666" lon="10.662138113212492"><ele>109.33333333333334</ele><time>2026-05-03T13:12:24Z</time></trkpt><trkpt lat="45.35618650281054" lon="10.661899830430654"><ele>109.0</ele><time>2026-05-03T13:12:25Z</time></trkpt><trkpt lat="45.35622005092221" lon="10.661659447143013"><ele>109.0</ele><time>2026-05-03T13:12:26Z</time></trkpt><trkpt lat="45.35625321947325" lon="10.66141704919924"><ele>109.0</ele><time>2026-05-03T13:12:27Z</time></trkpt><trkpt lat="45.35628798096274" lon="10.66117573308366"><ele>109.0</ele><time>2026-05-03T13:12:28Z</time></trkpt><trkpt lat="45.356324057138465" lon="10.660934386872972"><ele>108.66666666666667</ele><time>2026-05-03T13:12:28.999Z</time></trkpt><trkpt lat="45.35635683041055" lon="10.66069143831279"><ele>108.33333333333334</ele><time>2026-05-03T13:12:29.999Z</time></trkpt><trkpt lat="45.35639034810373" lon="10.66044952304538"><ele>108.0</ele><time>2026-05-03T13:12:30.999Z</time></trkpt><trkpt lat="45.35642117741117" lon="10.66020637764788"><ele>109.66666666666666</ele><time>2026-05-03T13:12:31.999Z</time></trkpt><trkpt lat="45.35645732390335" lon="10.65996504403804"><ele>111.33333333333333</ele><time>2026-05-03T13:12:32.999Z</time></trkpt><trkpt lat="45.35649274520965" lon="10.65972339274396"><ele>113.0</ele><time>2026-05-03T13:12:33.999Z</time></trkpt><trkpt lat="45.356525540498644" lon="10.659481115000487"><ele>113.0</ele><time>2026-05-03T13:12:34.999Z</time></trkpt><trkpt lat="45.35655845183876" lon="10.65923966722382"><ele>113.0</ele><time>2026-05-03T13:12:35.999Z</time></trkpt><trkpt lat="45.35659484583439" lon="10.658999234677863"><ele>113.0</ele><time>2026-05-03T13:12:36.999Z</time></trkpt><trkpt lat="45.35662940936248" lon="10.658755815379187"><ele>112.0</ele><time>2026-05-03T13:12:37.999Z</time></trkpt><trkpt lat="45.35666607766749" lon="10.658513989382016"><ele>111.0</ele><time>2026-05-03T13:12:38.999Z</time></trkpt><trkpt lat="45.35669866893954" lon="10.658276275200546"><ele>110.0</ele><time>2026-05-03T13:12:39.999Z</time></trkpt><trkpt lat="45.35673268117956" lon="10.658038389127055"><ele>110.0</ele><time>2026-05-03T13:12:40.999Z</time></trkpt><trkpt lat="45.3567698806886" lon="10.65780306834022"><ele>110.0</ele><time>2026-05-03T13:12:41.999Z</time></trkpt><trkpt lat="45.356805334371906" lon="10.657566540532674"><ele>110.0</ele><time>2026-05-03T13:12:42.999Z</time></trkpt><trkpt lat="45.35684724942615" lon="10.65732839921538"><ele>110.33333333333333</ele><time>2026-05-03T13:12:43.999Z</time></trkpt><trkpt lat="45.35688507315976" lon="10.657089079678235"><ele>110.66666666666666</ele><time>2026-05-03T13:12:44.999Z</time></trkpt><trkpt lat="45.35691867564008" lon="10.656847559614253"><ele>111.0</ele><time>2026-05-03T13:12:45.999Z</time></trkpt><trkpt lat="45.35695120813225" lon="10.656608302576128"><ele>111.0</ele><time>2026-05-03T13:12:46.999Z</time></trkpt><trkpt lat="45.35698399645369" lon="10.656362335433831"><ele>111.0</ele><time>2026-05-03T13:12:47.999Z</time></trkpt><trkpt lat="45.35700968547622" lon="10.656115676287833"><ele>111.0</ele><time>2026-05-03T13:12:48.999Z</time></trkpt><trkpt lat="45.357028537905734" lon="10.65586707713124"><ele>110.66666666666666</ele><time>2026-05-03T13:12:49.999Z</time></trkpt><trkpt lat="45.357042076170096" lon="10.65561919594883"><ele>110.33333333333333</ele><time>2026-05-03T13:12:50.999Z</time></trkpt><trkpt lat="45.35705266227293" lon="10.655370316660125"><ele>110.0</ele><time>2026-05-03T13:12:51.999Z</time></trkpt><trkpt lat="45.35704819150937" lon="10.65511631243929"><ele>110.0</ele><time>2026-05-03T13:12:52.999Z</time></trkpt><trkpt lat="45.35704117699955" lon="10.65486035238255"><ele>110.0</ele><time>2026-05-03T13:12:53.999Z</time></trkpt><trkpt lat="45.35703037354069" lon="10.654605809902149"><ele>110.0</ele><time>2026-05-03T13:12:54.999Z</time></trkpt><trkpt lat="45.357052182885674" lon="10.654320129554906"><ele>108.75</ele><time>2026-05-03T13:12:55.999Z</time></trkpt><trkpt lat="45.35703672980751" lon="10.654096312616982"><ele>107.5</ele><time>2026-05-03T13:12:56.999Z</time></trkpt><trkpt lat="45.35702903473507" lon="10.653939845427109"><ele>106.25</ele><time>2026-05-03T13:12:57.999Z</time></trkpt><trkpt lat="45.35701677839273" lon="10.653799540186796"><ele>105.0</ele><time>2026-05-03T13:12:58.999Z</time></trkpt><trkpt lat="45.35701407465319" lon="10.653672396791512"><ele>105.0</ele><time>2026-05-03T13:13:00.999Z</time></trkpt><trkpt lat="45.35700467382163" lon="10.653766292873751"><ele>105.0</ele><time>2026-05-03T13:13:04.999Z</time></trkpt><trkpt lat="45.35695916721508" lon="10.65358864027359"><ele>105.0</ele><time>2026-05-03T13:13:20Z</time></trkpt><trkpt lat="45.356953075043535" lon="10.65343288983543"><ele>105.0</ele><time>2026-05-03T13:13:21Z</time></trkpt><trkpt lat="45.35694676501731" lon="10.65329228483562"><ele>105.0</ele><time>2026-05-03T13:13:22Z</time></trkpt><trkpt lat="45.35694299663367" lon="10.653152348843015"><ele>105.0</ele><time>2026-05-03T13:13:23Z</time></trkpt><trkpt lat="45.35693055776285" lon="10.65294982941415"><ele>105.0</ele><time>2026-05-03T13:13:24Z</time></trkpt><trkpt lat="45.35692080137548" lon="10.652722779249883"><ele>105.0</ele><time>2026-05-03T13:13:25Z</time></trkpt><trkpt lat="45.35690182859731" lon="10.652518362307495"><ele>105.0</ele><time>2026-05-03T13:13:26Z</time></trkpt><trkpt lat="45.35690187515165" lon="10.652316354339343"><ele>105.0</ele><time>2026-05-03T13:13:27Z</time></trkpt><trkpt lat="45.35690038615951" lon="10.652091989025996"><ele>105.0</ele><time>2026-05-03T13:13:28Z</time></trkpt><trkpt lat="45.356874421263875" lon="10.651859750396182"><ele>105.0</ele><time>2026-05-03T13:13:29Z</time></trkpt><trkpt lat="45.356870221615" lon="10.651628348886002"><ele>105.0</ele><time>2026-05-03T13:13:30Z</time></trkpt><trkpt lat="45.35686624793611" lon="10.6513901428994"><ele>105.0</ele><time>2026-05-03T13:13:31Z</time></trkpt><trkpt lat="45.356861136048664" lon="10.651146744823896"><ele>105.0</ele><time>2026-05-03T13:13:32Z</time></trkpt><trkpt lat="45.356861648682425" lon="10.650885108251218"><ele>107.0</ele><time>2026-05-03T13:13:33Z</time></trkpt><trkpt lat="45.35689264207346" lon="10.65063973762094"><ele>109.0</ele><time>2026-05-03T13:13:34Z</time></trkpt><trkpt lat="45.356920155268895" lon="10.650396830992333"><ele>111.0</ele><time>2026-05-03T13:13:35Z</time></trkpt><trkpt lat="45.3569503806812" lon="10.650158415258321"><ele>111.66666666666666</ele><time>2026-05-03T13:13:36Z</time></trkpt><trkpt lat="45.356982214063535" lon="10.649912775290097"><ele>112.33333333333333</ele><time>2026-05-03T13:13:37Z</time></trkpt><trkpt lat="45.35701504326676" lon="10.649659451327521"><ele>113.0</ele><time>2026-05-03T13:13:38Z</time></trkpt><trkpt lat="45.35704709967406" lon="10.649412090544734"><ele>113.0</ele><time>2026-05-03T13:13:39Z</time></trkpt><trkpt lat="45.357079974697236" lon="10.649158413041974"><ele>113.0</ele><time>2026-05-03T13:13:40Z</time></trkpt><trkpt lat="45.35711252410821" lon="10.648907247907143"><ele>113.0</ele><time>2026-05-03T13:13:41Z</time></trkpt><trkpt lat="45.35714716768536" lon="10.648645538934357"><ele>113.33333333333333</ele><time>2026-05-03T13:13:42Z</time></trkpt><trkpt lat="45.35718258515121" lon="10.64838938093776"><ele>113.66666666666666</ele><time>2026-05-03T13:13:43Z</time></trkpt><trkpt lat="45.357216392900376" lon="10.648141250558703"><ele>114.0</ele><time>2026-05-03T13:13:44Z</time></trkpt><trkpt lat="45.357252794429904" lon="10.647888351953418"><ele>114.0</ele><time>2026-05-03T13:13:45Z</time></trkpt><trkpt lat="45.357285696612" lon="10.647643574177128"><ele>114.0</ele><time>2026-05-03T13:13:46Z</time></trkpt><trkpt lat="45.357317186486206" lon="10.647398813434629"><ele>114.0</ele><time>2026-05-03T13:13:47Z</time></trkpt><trkpt lat="45.357344388255186" lon="10.647155157716254"><ele>114.0</ele><time>2026-05-03T13:13:48Z</time></trkpt><trkpt lat="45.35737950186755" lon="10.64691956174259"><ele>114.0</ele><time>2026-05-03T13:13:49Z</time></trkpt><trkpt lat="45.357416337013014" lon="10.646684207237202"><ele>114.0</ele><time>2026-05-03T13:13:50Z</time></trkpt><trkpt lat="45.35744694382081" lon="10.64644473713249"><ele>114.0</ele><time>2026-05-03T13:13:51Z</time></trkpt><trkpt lat="45.3574747895843" lon="10.646213302428228"><ele>114.0</ele><time>2026-05-03T13:13:52Z</time></trkpt><trkpt lat="45.35750353921555" lon="10.645986471056755"><ele>114.0</ele><time>2026-05-03T13:13:53Z</time></trkpt><trkpt lat="45.357531212983915" lon="10.645759202425333"><ele>114.33333333333334</ele><time>2026-05-03T13:13:54Z</time></trkpt><trkpt lat="45.35756191974552" lon="10.645529731095223"><ele>114.66666666666667</ele><time>2026-05-03T13:13:55Z</time></trkpt><trkpt lat="45.357592603662226" lon="10.645300118204073"><ele>115.0</ele><time>2026-05-03T13:13:56Z</time></trkpt><trkpt lat="45.35762803049767" lon="10.645078540554533"><ele>115.5</ele><time>2026-05-03T13:13:57Z</time></trkpt><trkpt lat="45.35765884150328" lon="10.644855657639374"><ele>116.0</ele><time>2026-05-03T13:13:58Z</time></trkpt><trkpt lat="45.35768501645457" lon="10.64466908264302"><ele>116.5</ele><time>2026-05-03T13:13:59Z</time></trkpt><trkpt lat="45.357707126951404" lon="10.644503880828697"><ele>117.0</ele><time>2026-05-03T13:14:00Z</time></trkpt><trkpt lat="45.357727498149615" lon="10.644372807104936"><ele>117.6</ele><time>2026-05-03T13:14:01Z</time></trkpt><trkpt lat="45.35776922472654" lon="10.644261459211837"><ele>118.19999999999999</ele><time>2026-05-03T13:14:02Z</time></trkpt><trkpt lat="45.35784492598485" lon="10.64419690028864"><ele>118.8</ele><time>2026-05-03T13:14:03Z</time></trkpt><trkpt lat="45.3579545288341" lon="10.644183495987544"><ele>119.4</ele><time>2026-05-03T13:14:04Z</time></trkpt><trkpt lat="45.358066120722235" lon="10.644205452391834"><ele>120.0</ele><time>2026-05-03T13:14:05Z</time></trkpt><trkpt lat="45.35817932879915" lon="10.644223553221524"><ele>120.75</ele><time>2026-05-03T13:14:06Z</time></trkpt><trkpt lat="45.35829763332798" lon="10.644227978540462"><ele>121.5</ele><time>2026-05-03T13:14:07Z</time></trkpt><trkpt lat="45.358422713552926" lon="10.644230832692749"><ele>122.25</ele><time>2026-05-03T13:14:08Z</time></trkpt><trkpt lat="45.358548633530226" lon="10.644247680383282"><ele>123.0</ele><time>2026-05-03T13:14:09Z</time></trkpt><trkpt lat="45.35867691897999" lon="10.6442893903681"><ele>123.0</ele><time>2026-05-03T13:14:10Z</time></trkpt><trkpt lat="45.3588085289199" lon="10.644331284892035"><ele>123.0</ele><time>2026-05-03T13:14:11Z</time></trkpt><trkpt lat="45.35894635765762" lon="10.644368134440953"><ele>123.0</ele><time>2026-05-03T13:14:12Z</time></trkpt><trkpt lat="45.35908689207031" lon="10.644404701742452"><ele>123.0</ele><time>2026-05-03T13:14:13Z</time></trkpt><trkpt lat="45.359227462894864" lon="10.644440836707481"><ele>123.5</ele><time>2026-05-03T13:14:14Z</time></trkpt><trkpt lat="45.3593662791335" lon="10.644478791134684"><ele>124.0</ele><time>2026-05-03T13:14:15Z</time></trkpt><trkpt lat="45.359505913317435" lon="10.644514969190805"><ele>124.5</ele><time>2026-05-03T13:14:16Z</time></trkpt><trkpt lat="45.35963855470331" lon="10.644547058860766"><ele>125.0</ele><time>2026-05-03T13:14:17Z</time></trkpt><trkpt lat="45.35976362995265" lon="10.644577124605183"><ele>124.0</ele><time>2026-05-03T13:14:18Z</time></trkpt><trkpt lat="45.35989295069614" lon="10.644613986115129"><ele>123.0</ele><time>2026-05-03T13:14:19Z</time></trkpt><trkpt lat="45.36002969919493" lon="10.644651551021404"><ele>122.0</ele><time>2026-05-03T13:14:20Z</time></trkpt><trkpt lat="45.36016900078334" lon="10.644689572451622"><ele>121.0</ele><time>2026-05-03T13:14:21Z</time></trkpt><trkpt lat="45.36030985394134" lon="10.644732023678241"><ele>121.0</ele><time>2026-05-03T13:14:22Z</time></trkpt><trkpt lat="45.36045105702884" lon="10.644785116913862"><ele>121.0</ele><time>2026-05-03T13:14:23Z</time></trkpt><trkpt lat="45.36059143480822" lon="10.64484650028455"><ele>121.0</ele><time>2026-05-03T13:14:24Z</time></trkpt><trkpt lat="45.36073069698608" lon="10.644922424530545"><ele>121.0</ele><time>2026-05-03T13:14:25Z</time></trkpt><trkpt lat="45.36086691510806" lon="10.644993662702717"><ele>122.75</ele><time>2026-05-03T13:14:26Z</time></trkpt><trkpt lat="45.36099324427817" lon="10.645047832562037"><ele>124.5</ele><time>2026-05-03T13:14:27Z</time></trkpt><trkpt lat="45.36111226701512" lon="10.645072036186022"><ele>126.25</ele><time>2026-05-03T13:14:28Z</time></trkpt><trkpt lat="45.361230718869464" lon="10.645050732307157"><ele>128.0</ele><time>2026-05-03T13:14:29Z</time></trkpt><trkpt lat="45.361348428589274" lon="10.644993881315166"><ele>128.25</ele><time>2026-05-03T13:14:30Z</time></trkpt><trkpt lat="45.36147095199672" lon="10.644914647799231"><ele>128.5</ele><time>2026-05-03T13:14:31Z</time></trkpt><trkpt lat="45.36158919943165" lon="10.644794998503588"><ele>128.75</ele><time>2026-05-03T13:14:32Z</time></trkpt><trkpt lat="45.36170485855309" lon="10.644646075448863"><ele>129.0</ele><time>2026-05-03T13:14:33Z</time></trkpt><trkpt lat="45.36183641379978" lon="10.644532221089712"><ele>127.25</ele><time>2026-05-03T13:14:34Z</time></trkpt><trkpt lat="45.36196343035797" lon="10.644458361444567"><ele>125.5</ele><time>2026-05-03T13:14:34.999Z</time></trkpt><trkpt lat="45.36209470132676" lon="10.644422142027896"><ele>123.75</ele><time>2026-05-03T13:14:35.999Z</time></trkpt><trkpt lat="45.36222243106259" lon="10.644410431170169"><ele>122.0</ele><time>2026-05-03T13:14:36.999Z</time></trkpt><trkpt lat="45.36235026552351" lon="10.64440984438793"><ele>120.75</ele><time>2026-05-03T13:14:37.999Z</time></trkpt><trkpt lat="45.362488814974206" lon="10.644411327136817"><ele>119.5</ele><time>2026-05-03T13:14:38.999Z</time></trkpt><trkpt lat="45.36262155045135" lon="10.644402211502273"><ele>118.25</ele><time>2026-05-03T13:14:39.999Z</time></trkpt><trkpt lat="45.3627604093707" lon="10.644371470060495"><ele>117.0</ele><time>2026-05-03T13:14:40.999Z</time></trkpt><trkpt lat="45.36292781476969" lon="10.644288528353206"><ele>115.66666666666666</ele><time>2026-05-03T13:14:41.999Z</time></trkpt><trkpt lat="45.36309654196565" lon="10.644184650389583"><ele>114.33333333333333</ele><time>2026-05-03T13:14:42.999Z</time></trkpt><trkpt lat="45.36326189792111" lon="10.644075378789065"><ele>113.0</ele><time>2026-05-03T13:14:43.999Z</time></trkpt><trkpt lat="45.363408588702995" lon="10.64395390233782"><ele>113.0</ele><time>2026-05-03T13:14:44.999Z</time></trkpt><trkpt lat="45.36355542155479" lon="10.643870574931945"><ele>113.0</ele><time>2026-05-03T13:14:45.999Z</time></trkpt><trkpt lat="45.36369854136248" lon="10.643769837374949"><ele>113.0</ele><time>2026-05-03T13:14:46.999Z</time></trkpt><trkpt lat="45.363840184344376" lon="10.643705912957273"><ele>111.75</ele><time>2026-05-03T13:14:47.999Z</time></trkpt><trkpt lat="45.36396936234254" lon="10.643664579496336"><ele>110.5</ele><time>2026-05-03T13:14:48.999Z</time></trkpt><trkpt lat="45.364105545202094" lon="10.643699767849423"><ele>109.25</ele><time>2026-05-03T13:14:49.999Z</time></trkpt><trkpt lat="45.36425381013158" lon="10.643768549618331"><ele>108.0</ele><time>2026-05-03T13:14:50.999Z</time></trkpt><trkpt lat="45.36441477838734" lon="10.643845526657824"><ele>108.0</ele><time>2026-05-03T13:14:51.999Z</time></trkpt><trkpt lat="45.36456038324751" lon="10.643903990897858"><ele>108.0</ele><time>2026-05-03T13:14:52.999Z</time></trkpt><trkpt lat="45.36472420732657" lon="10.64393208921511"><ele>108.0</ele><time>2026-05-03T13:14:53.999Z</time></trkpt><trkpt lat="45.36487386305686" lon="10.643962083421979"><ele>107.75</ele><time>2026-05-03T13:14:54.999Z</time></trkpt><trkpt lat="45.365008924883455" lon="10.64397264227754"><ele>107.5</ele><time>2026-05-03T13:14:55.999Z</time></trkpt><trkpt lat="45.36515031752552" lon="10.643925978668525"><ele>107.25</ele><time>2026-05-03T13:14:56.999Z</time></trkpt><trkpt lat="45.365302236196186" lon="10.643849879572288"><ele>107.0</ele><time>2026-05-03T13:14:57.999Z</time></trkpt><trkpt lat="45.365448990145644" lon="10.643735923443652"><ele>106.66666666666666</ele><time>2026-05-03T13:14:58.999Z</time></trkpt><trkpt lat="45.36558962792766" lon="10.643611679567417"><ele>106.33333333333334</ele><time>2026-05-03T13:14:59.999Z</time></trkpt><trkpt lat="45.36573158104507" lon="10.643483759679622"><ele>106.0</ele><time>2026-05-03T13:15:00.999Z</time></trkpt><trkpt lat="45.36585550392471" lon="10.643358488469353"><ele>106.0</ele><time>2026-05-03T13:15:01.999Z</time></trkpt><trkpt lat="45.36597469365857" lon="10.643244546282833"><ele>106.0</ele><time>2026-05-03T13:15:02.999Z</time></trkpt><trkpt lat="45.36610961872144" lon="10.643162386115057"><ele>106.0</ele><time>2026-05-03T13:15:03.999Z</time></trkpt><trkpt lat="45.3662634688888" lon="10.643180212031876"><ele>106.0</ele><time>2026-05-03T13:15:04.999Z</time></trkpt><trkpt lat="45.366414280455096" lon="10.643232862333136"><ele>106.33333333333334</ele><time>2026-05-03T13:15:05.999Z</time></trkpt><trkpt lat="45.36656926464696" lon="10.643312540135407"><ele>106.66666666666666</ele><time>2026-05-03T13:15:06.999Z</time></trkpt><trkpt lat="45.36672160160599" lon="10.643429087305881"><ele>107.0</ele><time>2026-05-03T13:15:07.999Z</time></trkpt><trkpt lat="45.36687657289269" lon="10.64355680311867"><ele>107.66666666666666</ele><time>2026-05-03T13:15:08.999Z</time></trkpt><trkpt lat="45.36701769883813" lon="10.643723112057245"><ele>108.33333333333334</ele><time>2026-05-03T13:15:09.999Z</time></trkpt><trkpt lat="45.36716087737844" lon="10.643891226209155"><ele>109.0</ele><time>2026-05-03T13:15:10.999Z</time></trkpt><trkpt lat="45.3673036756256" lon="10.64404169114215"><ele>109.33333333333334</ele><time>2026-05-03T13:15:11.999Z</time></trkpt><trkpt lat="45.367440235452506" lon="10.644169546315597"><ele>109.66666666666666</ele><time>2026-05-03T13:15:12.999Z</time></trkpt><trkpt lat="45.3675836416806" lon="10.644248257036816"><ele>110.0</ele><time>2026-05-03T13:15:13.999Z</time></trkpt><trkpt lat="45.36774415720275" lon="10.644282055488326"><ele>110.0</ele><time>2026-05-03T13:15:14.999Z</time></trkpt><trkpt lat="45.36791058565187" lon="10.644316597494866"><ele>110.0</ele><time>2026-05-03T13:15:15.999Z</time></trkpt><trkpt lat="45.368080858818146" lon="10.644342590837255"><ele>110.0</ele><time>2026-05-03T13:15:16.999Z</time></trkpt><trkpt lat="45.36825575625035" lon="10.644325604839025"><ele>110.0</ele><time>2026-05-03T13:15:17.999Z</time></trkpt><trkpt lat="45.36843610673058" lon="10.644292734255457"><ele>110.0</ele><time>2026-05-03T13:15:18.999Z</time></trkpt><trkpt lat="45.36861864867244" lon="10.644295626867361"><ele>110.0</ele><time>2026-05-03T13:15:19.999Z</time></trkpt><trkpt lat="45.368798714731135" lon="10.644255148175278"><ele>110.33333333333333</ele><time>2026-05-03T13:15:20.999Z</time></trkpt><trkpt lat="45.368978984136234" lon="10.644210340228508"><ele>110.66666666666666</ele><time>2026-05-03T13:15:22Z</time></trkpt><trkpt lat="45.36915610737779" lon="10.644103154897346"><ele>111.0</ele><time>2026-05-03T13:15:23Z</time></trkpt><trkpt lat="45.36933314318656" lon="10.643984339896555"><ele>111.0</ele><time>2026-05-03T13:15:24Z</time></trkpt><trkpt lat="45.369517154114696" lon="10.643883456129732"><ele>111.0</ele><time>2026-05-03T13:15:25Z</time></trkpt><trkpt lat="45.369702970777595" lon="10.643799418401708"><ele>111.0</ele><time>2026-05-03T13:15:26Z</time></trkpt><trkpt lat="45.369881103517834" lon="10.64373124008104"><ele>111.33333333333334</ele><time>2026-05-03T13:15:27Z</time></trkpt><trkpt lat="45.370051435520054" lon="10.643668981046913"><ele>111.66666666666667</ele><time>2026-05-03T13:15:28Z</time></trkpt><trkpt lat="45.37021753655456" lon="10.643628188970256"><ele>112.0</ele><time>2026-05-03T13:15:29Z</time></trkpt><trkpt lat="45.37036299328199" lon="10.643541549405663"><ele>111.0</ele><time>2026-05-03T13:15:30Z</time></trkpt><trkpt lat="45.370509030967284" lon="10.643467304279202"><ele>110.0</ele><time>2026-05-03T13:15:31Z</time></trkpt><trkpt lat="45.370651836657444" lon="10.643342093894391"><ele>109.0</ele><time>2026-05-03T13:15:32Z</time></trkpt><trkpt lat="45.37077508211997" lon="10.643165418829557"><ele>108.66666666666667</ele><time>2026-05-03T13:15:33Z</time></trkpt><trkpt lat="45.37088637953032" lon="10.642974512622775"><ele>108.33333333333334</ele><time>2026-05-03T13:15:34Z</time></trkpt><trkpt lat="45.37099536530769" lon="10.642780661466885"><ele>108.0</ele><time>2026-05-03T13:15:35Z</time></trkpt><trkpt lat="45.37112509926704" lon="10.642610824053948"><ele>108.0</ele><time>2026-05-03T13:15:36Z</time></trkpt><trkpt lat="45.371288729786194" lon="10.64253271655809"><ele>108.0</ele><time>2026-05-03T13:15:37Z</time></trkpt><trkpt lat="45.37145679343099" lon="10.64249717496093"><ele>108.0</ele><time>2026-05-03T13:15:38Z</time></trkpt><trkpt lat="45.37162927172581" lon="10.642452081776867"><ele>108.33333333333334</ele><time>2026-05-03T13:15:39Z</time></trkpt><trkpt lat="45.371801329598924" lon="10.642443231190994"><ele>108.66666666666667</ele><time>2026-05-03T13:15:40Z</time></trkpt><trkpt lat="45.37197156716132" lon="10.642403358356573"><ele>109.0</ele><time>2026-05-03T13:15:41Z</time></trkpt><trkpt lat="45.37214978689109" lon="10.642368714767798"><ele>108.0</ele><time>2026-05-03T13:15:42Z</time></trkpt><trkpt lat="45.37232724066331" lon="10.642336767989464"><ele>107.0</ele><time>2026-05-03T13:15:43Z</time></trkpt><trkpt lat="45.37248890893457" lon="10.642302545967139"><ele>106.0</ele><time>2026-05-03T13:15:44Z</time></trkpt><trkpt lat="45.372644743243605" lon="10.642266591560693"><ele>106.0</ele><time>2026-05-03T13:15:45Z</time></trkpt><trkpt lat="45.37279663466175" lon="10.642201361230702"><ele>106.0</ele><time>2026-05-03T13:15:46Z</time></trkpt><trkpt lat="45.37294448522578" lon="10.642086448849664"><ele>106.0</ele><time>2026-05-03T13:15:47Z</time></trkpt><trkpt lat="45.373086321259805" lon="10.641944525786535"><ele>106.0</ele><time>2026-05-03T13:15:48Z</time></trkpt><trkpt lat="45.37323043678964" lon="10.641792337651854"><ele>106.0</ele><time>2026-05-03T13:15:49Z</time></trkpt><trkpt lat="45.37337717386663" lon="10.641648294489048"><ele>106.0</ele><time>2026-05-03T13:15:50Z</time></trkpt><trkpt lat="45.37352437137661" lon="10.641508794966947"><ele>106.0</ele><time>2026-05-03T13:15:51Z</time></trkpt><trkpt lat="45.37365735665666" lon="10.641395559750778"><ele>106.0</ele><time>2026-05-03T13:15:52Z</time></trkpt><trkpt lat="45.37379397996661" lon="10.641296744160835"><ele>106.0</ele><time>2026-05-03T13:15:53Z</time></trkpt><trkpt lat="45.373942145464106" lon="10.641236115375545"><ele>106.75</ele><time>2026-05-03T13:15:54Z</time></trkpt><trkpt lat="45.374100648774274" lon="10.641213045405912"><ele>107.5</ele><time>2026-05-03T13:15:55Z</time></trkpt><trkpt lat="45.37424663702173" lon="10.641222935139893"><ele>108.25</ele><time>2026-05-03T13:15:56Z</time></trkpt><trkpt lat="45.3743814719793" lon="10.641225499732927"><ele>109.0</ele><time>2026-05-03T13:15:57Z</time></trkpt><trkpt lat="45.37451665912494" lon="10.641226651923645"><ele>109.0</ele><time>2026-05-03T13:15:58Z</time></trkpt><trkpt lat="45.37463924117741" lon="10.64122737210803"><ele>109.0</ele><time>2026-05-03T13:15:59Z</time></trkpt><trkpt lat="45.37476602633238" lon="10.641225013524233"><ele>109.0</ele><time>2026-05-03T13:16:00Z</time></trkpt><trkpt lat="45.37489815954767" lon="10.641210867635314"><ele>109.0</ele><time>2026-05-03T13:16:01Z</time></trkpt><trkpt lat="45.375015318608185" lon="10.641184745022828"><ele>109.2</ele><time>2026-05-03T13:16:02Z</time></trkpt><trkpt lat="45.37511675768954" lon="10.641163677359831"><ele>109.4</ele><time>2026-05-03T13:16:03Z</time></trkpt><trkpt lat="45.37520821466557" lon="10.641140792757296"><ele>109.6</ele><time>2026-05-03T13:16:04Z</time></trkpt><trkpt lat="45.375288435091164" lon="10.641118323399528"><ele>109.8</ele><time>2026-05-03T13:16:05Z</time></trkpt><trkpt lat="45.3753720802759" lon="10.641097091598734"><ele>110.0</ele><time>2026-05-03T13:16:06Z</time></trkpt><trkpt lat="45.37546651874871" lon="10.6410824111486"><ele>110.83333333333333</ele><time>2026-05-03T13:16:07Z</time></trkpt><trkpt lat="45.37556540115156" lon="10.641060804086802"><ele>111.66666666666666</ele><time>2026-05-03T13:16:08Z</time></trkpt><trkpt lat="45.375656439190344" lon="10.641046534134361"><ele>112.5</ele><time>2026-05-03T13:16:09Z</time></trkpt><trkpt lat="45.375733464031015" lon="10.641040110615656"><ele>113.33333333333334</ele><time>2026-05-03T13:16:10Z</time></trkpt><trkpt lat="45.37580427260619" lon="10.641041433769361"><ele>114.16666666666667</ele><time>2026-05-03T13:16:11Z</time></trkpt><trkpt lat="45.375887402362444" lon="10.641036872528279"><ele>115.0</ele><time>2026-05-03T13:16:12Z</time></trkpt><trkpt lat="45.37597983782735" lon="10.641016707915771"><ele>115.0</ele><time>2026-05-03T13:16:13Z</time></trkpt><trkpt lat="45.37608214293593" lon="10.640986116218743"><ele>115.0</ele><time>2026-05-03T13:16:14Z</time></trkpt><trkpt lat="45.37619069074517" lon="10.640932914585418"><ele>115.0</ele><time>2026-05-03T13:16:15Z</time></trkpt><trkpt lat="45.37630241105383" lon="10.640868962134029"><ele>115.0</ele><time>2026-05-03T13:16:16Z</time></trkpt><trkpt lat="45.376433280131074" lon="10.640799177168766"><ele>113.33333333333334</ele><time>2026-05-03T13:16:17Z</time></trkpt><trkpt lat="45.3765658855398" lon="10.6407182513624"><ele>111.66666666666666</ele><time>2026-05-03T13:16:18Z</time></trkpt><trkpt lat="45.37670690909103" lon="10.640638621529785"><ele>110.0</ele><time>2026-05-03T13:16:19Z</time></trkpt><trkpt lat="45.376857257112675" lon="10.640557243580627"><ele>110.0</ele><time>2026-05-03T13:16:20Z</time></trkpt><trkpt lat="45.377019743036335" lon="10.640483024242759"><ele>110.0</ele><time>2026-05-03T13:16:21Z</time></trkpt><trkpt lat="45.377186542907374" lon="10.640430574233449"><ele>110.0</ele><time>2026-05-03T13:16:22Z</time></trkpt><trkpt lat="45.37735296601066" lon="10.64039287117312"><ele>110.0</ele><time>2026-05-03T13:16:23Z</time></trkpt><trkpt lat="45.377498640540686" lon="10.640344117861675"><ele>110.0</ele><time>2026-05-03T13:16:24Z</time></trkpt><trkpt lat="45.377628783439725" lon="10.640271597368013"><ele>110.0</ele><time>2026-05-03T13:16:25Z</time></trkpt><trkpt lat="45.377745427995194" lon="10.640164208465118"><ele>110.0</ele><time>2026-05-03T13:16:26Z</time></trkpt><trkpt lat="45.377835493416" lon="10.639996889740566"><ele>109.66666666666666</ele><time>2026-05-03T13:16:27Z</time></trkpt><trkpt lat="45.377909183114745" lon="10.639803348028643"><ele>109.33333333333334</ele><time>2026-05-03T13:16:28Z</time></trkpt><trkpt lat="45.377986902940194" lon="10.639603829401658"><ele>109.0</ele><time>2026-05-03T13:16:29Z</time></trkpt><trkpt lat="45.378058529314664" lon="10.63939954677049"><ele>109.0</ele><time>2026-05-03T13:16:30Z</time></trkpt><trkpt lat="45.37812877529415" lon="10.6392250708905"><ele>109.0</ele><time>2026-05-03T13:16:31Z</time></trkpt><trkpt lat="45.37820935433356" lon="10.639079910541573"><ele>109.0</ele><time>2026-05-03T13:16:32Z</time></trkpt><trkpt lat="45.37831938061182" lon="10.63898407551119"><ele>109.0</ele><time>2026-05-03T13:16:33Z</time></trkpt><trkpt lat="45.378454766094364" lon="10.638939945473648"><ele>109.0</ele><time>2026-05-03T13:16:34Z</time></trkpt><trkpt lat="45.37859678452301" lon="10.639008080942633"><ele>109.0</ele><time>2026-05-03T13:16:35Z</time></trkpt><trkpt lat="45.37874755566071" lon="10.639048643880797"><ele>109.0</ele><time>2026-05-03T13:16:36Z</time></trkpt><trkpt lat="45.37889149936842" lon="10.639105833841652"><ele>108.0</ele><time>2026-05-03T13:16:37Z</time></trkpt><trkpt lat="45.37902477496401" lon="10.63914606665443"><ele>107.0</ele><time>2026-05-03T13:16:38Z</time></trkpt><trkpt lat="45.37916258108381" lon="10.63914975432926"><ele>106.0</ele><time>2026-05-03T13:16:39Z</time></trkpt><trkpt lat="45.379302076906676" lon="10.639082384260345"><ele>105.0</ele><time>2026-05-03T13:16:40Z</time></trkpt><trkpt lat="45.379421612543666" lon="10.638936088503915"><ele>105.0</ele><time>2026-05-03T13:16:40.999Z</time></trkpt><trkpt lat="45.3795236154101" lon="10.638745190462556"><ele>105.0</ele><time>2026-05-03T13:16:41.999Z</time></trkpt><trkpt lat="45.379639468419676" lon="10.638562722618136"><ele>105.0</ele><time>2026-05-03T13:16:42.999Z</time></trkpt><trkpt lat="45.37975505594621" lon="10.63836672240186"><ele>103.0</ele><time>2026-05-03T13:16:43.999Z</time></trkpt><trkpt lat="45.37986550286409" lon="10.638151490587576"><ele>101.0</ele><time>2026-05-03T13:16:44.999Z</time></trkpt><trkpt lat="45.3799958860726" lon="10.637963997000686"><ele>99.0</ele><time>2026-05-03T13:16:45.999Z</time></trkpt><trkpt lat="45.380120878492725" lon="10.637808639826313"><ele>99.66666666666666</ele><time>2026-05-03T13:16:46.999Z</time></trkpt><trkpt lat="45.38027189250944" lon="10.637725014027803"><ele>100.33333333333333</ele><time>2026-05-03T13:16:47.999Z</time></trkpt><trkpt lat="45.38042152059674" lon="10.637669223718861"><ele>101.0</ele><time>2026-05-03T13:16:48.999Z</time></trkpt><trkpt lat="45.38057707769682" lon="10.637623003872369"><ele>101.66666666666666</ele><time>2026-05-03T13:16:49.999Z</time></trkpt><trkpt lat="45.3807330819549" lon="10.637635798649946"><ele>102.33333333333334</ele><time>2026-05-03T13:16:50.999Z</time></trkpt><trkpt lat="45.38087572586351" lon="10.637699524118307"><ele>103.0</ele><time>2026-05-03T13:16:51.999Z</time></trkpt><trkpt lat="45.38100235695061" lon="10.637834485070634"><ele>103.33333333333334</ele><time>2026-05-03T13:16:52.999Z</time></trkpt><trkpt lat="45.38113092181907" lon="10.637985564455203"><ele>103.66666666666666</ele><time>2026-05-03T13:16:53.999Z</time></trkpt><trkpt lat="45.38125860925968" lon="10.638148979559004"><ele>104.0</ele><time>2026-05-03T13:16:54.999Z</time></trkpt><trkpt lat="45.381387738353325" lon="10.638322318752033"><ele>104.0</ele><time>2026-05-03T13:16:55.999Z</time></trkpt><trkpt lat="45.381518428004135" lon="10.638493231197181"><ele>104.0</ele><time>2026-05-03T13:16:56.999Z</time></trkpt><trkpt lat="45.38164707269922" lon="10.638672252589245"><ele>104.0</ele><time>2026-05-03T13:16:57.999Z</time></trkpt><trkpt lat="45.38176512184418" lon="10.638860228207362"><ele>103.33333333333333</ele><time>2026-05-03T13:16:59Z</time></trkpt><trkpt lat="45.38187974617079" lon="10.639049118884442"><ele>102.66666666666666</ele><time>2026-05-03T13:17:00Z</time></trkpt><trkpt lat="45.38199115154295" lon="10.639239266484127"><ele>102.0</ele><time>2026-05-03T13:17:01Z</time></trkpt><trkpt lat="45.38210838248208" lon="10.639424092112629"><ele>103.0</ele><time>2026-05-03T13:17:02Z</time></trkpt><trkpt lat="45.38223229815715" lon="10.639603829550287"><ele>104.0</ele><time>2026-05-03T13:17:03Z</time></trkpt><trkpt lat="45.382361655283205" lon="10.639779398198513"><ele>105.0</ele><time>2026-05-03T13:17:04Z</time></trkpt><trkpt lat="45.38249492384859" lon="10.639948833913003"><ele>105.0</ele><time>2026-05-03T13:17:05Z</time></trkpt><trkpt lat="45.3826452643035" lon="10.640098252031857"><ele>105.0</ele><time>2026-05-03T13:17:06Z</time></trkpt><trkpt lat="45.38280550006507" lon="10.640226014566196"><ele>105.0</ele><time>2026-05-03T13:17:07Z</time></trkpt><trkpt lat="45.38296496029668" lon="10.640347325953316"><ele>105.66666666666666</ele><time>2026-05-03T13:17:08Z</time></trkpt><trkpt lat="45.383122690465314" lon="10.640464281792974"><ele>106.33333333333333</ele><time>2026-05-03T13:17:09Z</time></trkpt><trkpt lat="45.38327706710267" lon="10.640581421082738"><ele>107.0</ele><time>2026-05-03T13:17:10Z</time></trkpt><trkpt lat="45.38343456450593" lon="10.640698559670321"><ele>107.0</ele><time>2026-05-03T13:17:11Z</time></trkpt><trkpt lat="45.38358822371398" lon="10.640805190066397"><ele>107.0</ele><time>2026-05-03T13:17:12Z</time></trkpt><trkpt lat="45.38374107100013" lon="10.640909611116653"><ele>107.0</ele><time>2026-05-03T13:17:13Z</time></trkpt><trkpt lat="45.38389508232649" lon="10.641012482044028"><ele>106.33333333333333</ele><time>2026-05-03T13:17:14Z</time></trkpt><trkpt lat="45.38405355375309" lon="10.641103477491647"><ele>105.66666666666666</ele><time>2026-05-03T13:17:15Z</time></trkpt><trkpt lat="45.38421580583691" lon="10.641189688802157"><ele>105.0</ele><time>2026-05-03T13:17:16Z</time></trkpt><trkpt lat="45.38437818475548" lon="10.641279764937913"><ele>105.0</ele><time>2026-05-03T13:17:17Z</time></trkpt><trkpt lat="45.38454111435807" lon="10.641373082218763"><ele>105.0</ele><time>2026-05-03T13:17:18Z</time></trkpt><trkpt lat="45.384708716650174" lon="10.641465899748653"><ele>105.0</ele><time>2026-05-03T13:17:19Z</time></trkpt><trkpt lat="45.38487850379236" lon="10.641559025799259"><ele>106.0</ele><time>2026-05-03T13:17:20Z</time></trkpt><trkpt lat="45.38505099239049" lon="10.641650727544887"><ele>107.0</ele><time>2026-05-03T13:17:21Z</time></trkpt><trkpt lat="45.385230102524616" lon="10.64174011809559"><ele>108.0</ele><time>2026-05-03T13:17:22Z</time></trkpt><trkpt lat="45.38541183070882" lon="10.641835680730585"><ele>107.66666666666666</ele><time>2026-05-03T13:17:23Z</time></trkpt><trkpt lat="45.38559413270148" lon="10.641933577926984"><ele>107.33333333333333</ele><time>2026-05-03T13:17:24Z</time></trkpt><trkpt lat="45.3857766771725" lon="10.64203005371245"><ele>107.0</ele><time>2026-05-03T13:17:25Z</time></trkpt><trkpt lat="45.38595781461199" lon="10.642123697188227"><ele>106.66666666666666</ele><time>2026-05-03T13:17:26Z</time></trkpt><trkpt lat="45.38613864629425" lon="10.64221665346908"><ele>106.33333333333334</ele><time>2026-05-03T13:17:27Z</time></trkpt><trkpt lat="45.38631746528478" lon="10.642311071490933"><ele>106.0</ele><time>2026-05-03T13:17:28Z</time></trkpt><trkpt lat="45.38649626954228" lon="10.642403563517705"><ele>106.0</ele><time>2026-05-03T13:17:29Z</time></trkpt><trkpt lat="45.38667485850183" lon="10.642491489628652"><ele>106.0</ele><time>2026-05-03T13:17:30Z</time></trkpt><trkpt lat="45.386854382087535" lon="10.64258044754973"><ele>106.0</ele><time>2026-05-03T13:17:31Z</time></trkpt><trkpt lat="45.38703108567561" lon="10.642674822761599"><ele>106.33333333333334</ele><time>2026-05-03T13:17:32Z</time></trkpt><trkpt lat="45.38720651422845" lon="10.64277379780364"><ele>106.66666666666666</ele><time>2026-05-03T13:17:33Z</time></trkpt><trkpt lat="45.387379206707436" lon="10.642871218846613"><ele>107.0</ele><time>2026-05-03T13:17:34Z</time></trkpt><trkpt lat="45.38755343124669" lon="10.642963503586333"><ele>106.66666666666666</ele><time>2026-05-03T13:17:35Z</time></trkpt><trkpt lat="45.3877281971394" lon="10.64305602318121"><ele>106.33333333333334</ele><time>2026-05-03T13:17:36Z</time></trkpt><trkpt lat="45.38790443237559" lon="10.64314662885518"><ele>106.0</ele><time>2026-05-03T13:17:37Z</time></trkpt><trkpt lat="45.38808545017487" lon="10.643232072736986"><ele>106.0</ele><time>2026-05-03T13:17:38Z</time></trkpt><trkpt lat="45.38827063710563" lon="10.643318295109239"><ele>106.0</ele><time>2026-05-03T13:17:39Z</time></trkpt><trkpt lat="45.388455505238454" lon="10.643402472109253"><ele>106.0</ele><time>2026-05-03T13:17:40Z</time></trkpt><trkpt lat="45.38864194306353" lon="10.643479051016982"><ele>106.0</ele><time>2026-05-03T13:17:41Z</time></trkpt><trkpt lat="45.3888287281484" lon="10.643548125759667"><ele>106.0</ele><time>2026-05-03T13:17:42Z</time></trkpt><trkpt lat="45.38901098344155" lon="10.64362189018367"><ele>106.0</ele><time>2026-05-03T13:17:43Z</time></trkpt><trkpt lat="45.38918729112752" lon="10.643693149998489"><ele>105.33333333333334</ele><time>2026-05-03T13:17:44Z</time></trkpt><trkpt lat="45.38935528881329" lon="10.643749433247429"><ele>104.66666666666666</ele><time>2026-05-03T13:17:45Z</time></trkpt><trkpt lat="45.389508878429865" lon="10.643800614917874"><ele>104.0</ele><time>2026-05-03T13:17:46Z</time></trkpt><trkpt lat="45.38965438887022" lon="10.643854143566747"><ele>104.0</ele><time>2026-05-03T13:17:47Z</time></trkpt><trkpt lat="45.389801902653886" lon="10.643905741667831"><ele>104.0</ele><time>2026-05-03T13:17:48Z</time></trkpt><trkpt lat="45.38993221912108" lon="10.64394135704827"><ele>104.0</ele><time>2026-05-03T13:17:49Z</time></trkpt><trkpt lat="45.39004783398046" lon="10.643956248610223"><ele>104.0</ele><time>2026-05-03T13:17:50Z</time></trkpt><trkpt lat="45.39014555981404" lon="10.643945078291727"><ele>104.0</ele><time>2026-05-03T13:17:51Z</time></trkpt><trkpt lat="45.3902245976652" lon="10.64388311314784"><ele>104.0</ele><time>2026-05-03T13:17:52Z</time></trkpt><trkpt lat="45.390280044290215" lon="10.64378564863898"><ele>104.0</ele><time>2026-05-03T13:17:53Z</time></trkpt><trkpt lat="45.390329254300106" lon="10.643673808546694"><ele>104.0</ele><time>2026-05-03T13:17:54Z</time></trkpt><trkpt lat="45.39037353422293" lon="10.643545014236627"><ele>104.0</ele><time>2026-05-03T13:17:55Z</time></trkpt><trkpt lat="45.3904270389811" lon="10.64340549939163"><ele>105.25</ele><time>2026-05-03T13:17:56Z</time></trkpt><trkpt lat="45.3904878817495" lon="10.643256982616807"><ele>106.5</ele><time>2026-05-03T13:17:57Z</time></trkpt><trkpt lat="45.3905530910007" lon="10.643090058612035"><ele>107.75</ele><time>2026-05-03T13:17:58Z</time></trkpt><trkpt lat="45.390621982852146" lon="10.6429121967693"><ele>109.0</ele><time>2026-05-03T13:17:59Z</time></trkpt><trkpt lat="45.39069636620784" lon="10.642728103037157"><ele>110.75</ele><time>2026-05-03T13:18:00Z</time></trkpt><trkpt lat="45.3907635610442" lon="10.64255127488237"><ele>112.5</ele><time>2026-05-03T13:18:01Z</time></trkpt><trkpt lat="45.39082713399654" lon="10.642402338578982"><ele>114.25</ele><time>2026-05-03T13:18:02Z</time></trkpt><trkpt lat="45.39091326979367" lon="10.642295793203717"><ele>116.0</ele><time>2026-05-03T13:18:03Z</time></trkpt><trkpt lat="45.391031658423685" lon="10.642220501908469"><ele>116.0</ele><time>2026-05-03T13:18:04Z</time></trkpt><trkpt lat="45.391176277458165" lon="10.642200920536744"><ele>116.0</ele><time>2026-05-03T13:18:05Z</time></trkpt><trkpt lat="45.39132728293472" lon="10.642201594097068"><ele>116.0</ele><time>2026-05-03T13:18:06Z</time></trkpt><trkpt lat="45.39146547866648" lon="10.642211205726543"><ele>116.0</ele><time>2026-05-03T13:18:07Z</time></trkpt><trkpt lat="45.39159427308772" lon="10.642210994801303"><ele>115.66666666666666</ele><time>2026-05-03T13:18:08Z</time></trkpt><trkpt lat="45.39174052355897" lon="10.64216581730372"><ele>115.33333333333334</ele><time>2026-05-03T13:18:09Z</time></trkpt><trkpt lat="45.39188951987215" lon="10.642066291333865"><ele>115.0</ele><time>2026-05-03T13:18:10Z</time></trkpt><trkpt lat="45.39204591610443" lon="10.641963725644867"><ele>111.66666666666667</ele><time>2026-05-03T13:18:11Z</time></trkpt><trkpt lat="45.39220898221828" lon="10.641878062200318"><ele>108.33333333333334</ele><time>2026-05-03T13:18:12Z</time></trkpt><trkpt lat="45.39235397325138" lon="10.641792238292272"><ele>105.0</ele><time>2026-05-03T13:18:13Z</time></trkpt><trkpt lat="45.39249254642415" lon="10.641708180092536"><ele>105.0</ele><time>2026-05-03T13:18:14Z</time></trkpt><trkpt lat="45.39263001304612" lon="10.641624605837531"><ele>105.0</ele><time>2026-05-03T13:18:15Z</time></trkpt><trkpt lat="45.392754655372414" lon="10.641549774013999"><ele>105.0</ele><time>2026-05-03T13:18:16Z</time></trkpt><trkpt lat="45.39287300018722" lon="10.641494377159013"><ele>105.0</ele><time>2026-05-03T13:18:17Z</time></trkpt><trkpt lat="45.39299759802092" lon="10.641498223226714"><ele>104.5</ele><time>2026-05-03T13:18:18Z</time></trkpt><trkpt lat="45.39312330977867" lon="10.641509725532416"><ele>104.0</ele><time>2026-05-03T13:18:19Z</time></trkpt><trkpt lat="45.39323273818991" lon="10.64156413736744"><ele>103.5</ele><time>2026-05-03T13:18:20Z</time></trkpt><trkpt lat="45.393339232589646" lon="10.641610782289392"><ele>103.0</ele><time>2026-05-03T13:18:21Z</time></trkpt><trkpt lat="45.3934381231098" lon="10.641682155456513"><ele>103.0</ele><time>2026-05-03T13:18:22Z</time></trkpt><trkpt lat="45.39355848496741" lon="10.6417246137446"><ele>103.0</ele><time>2026-05-03T13:18:23Z</time></trkpt><trkpt lat="45.39366874784874" lon="10.64179010742236"><ele>103.0</ele><time>2026-05-03T13:18:24.001Z</time></trkpt><trkpt lat="45.39376780867579" lon="10.641840958402346"><ele>103.0</ele><time>2026-05-03T13:18:25.001Z</time></trkpt><trkpt lat="45.3938548530458" lon="10.641887079042132"><ele>103.0</ele><time>2026-05-03T13:18:26.001Z</time></trkpt><trkpt lat="45.3939333467927" lon="10.641935162722225"><ele>103.83333333333334</ele><time>2026-05-03T13:18:27.001Z</time></trkpt><trkpt lat="45.39401191479355" lon="10.641980125491925"><ele>104.66666666666667</ele><time>2026-05-03T13:18:28.001Z</time></trkpt><trkpt lat="45.39408658663587" lon="10.642025941339805"><ele>105.5</ele><time>2026-05-03T13:18:29.001Z</time></trkpt><trkpt lat="45.39415797072586" lon="10.64206973585842"><ele>106.33333333333334</ele><time>2026-05-03T13:18:30.001Z</time></trkpt><trkpt lat="45.39424270269685" lon="10.642115593833422"><ele>107.16666666666667</ele><time>2026-05-03T13:18:31.001Z</time></trkpt><trkpt lat="45.39434685092447" lon="10.642169475596438"><ele>108.0</ele><time>2026-05-03T13:18:32.001Z</time></trkpt><trkpt lat="45.39447293340053" lon="10.642234712136473"><ele>108.0</ele><time>2026-05-03T13:18:33.001Z</time></trkpt><trkpt lat="45.3946160602723" lon="10.642311805049568"><ele>108.0</ele><time>2026-05-03T13:18:34.001Z</time></trkpt><trkpt lat="45.39475699956787" lon="10.64238452575922"><ele>108.0</ele><time>2026-05-03T13:18:35.001Z</time></trkpt><trkpt lat="45.394927552590204" lon="10.642481614588805"><ele>104.33333333333334</ele><time>2026-05-03T13:18:36.001Z</time></trkpt><trkpt lat="45.39510947832977" lon="10.642571782721797"><ele>100.66666666666667</ele><time>2026-05-03T13:18:37.001Z</time></trkpt><trkpt lat="45.39529635988098" lon="10.642674042690084"><ele>97.0</ele><time>2026-05-03T13:18:38.001Z</time></trkpt><trkpt lat="45.395498071625056" lon="10.642755053003166"><ele>97.66666666666667</ele><time>2026-05-03T13:18:39.001Z</time></trkpt><trkpt lat="45.3956893619441" lon="10.642851481475278"><ele>98.33333333333334</ele><time>2026-05-03T13:18:40.001Z</time></trkpt><trkpt lat="45.39586058829362" lon="10.642935181303947"><ele>99.0</ele><time>2026-05-03T13:18:41.001Z</time></trkpt><trkpt lat="45.39602232150997" lon="10.643010984817705"><ele>99.0</ele><time>2026-05-03T13:18:42.001Z</time></trkpt><trkpt lat="45.396172801822125" lon="10.643082366817774"><ele>99.0</ele><time>2026-05-03T13:18:43.001Z</time></trkpt><trkpt lat="45.396314041655025" lon="10.643151833366622"><ele>99.0</ele><time>2026-05-03T13:18:44.001Z</time></trkpt><trkpt lat="45.396461126358595" lon="10.64322363715821"><ele>97.5</ele><time>2026-05-03T13:18:45.001Z</time></trkpt><trkpt lat="45.39659822637441" lon="10.64328999493513"><ele>96.0</ele><time>2026-05-03T13:18:46.001Z</time></trkpt><trkpt lat="45.39672755461505" lon="10.643351075438959"><ele>94.5</ele><time>2026-05-03T13:18:47Z</time></trkpt><trkpt lat="45.39685114972584" lon="10.64340909129186"><ele>93.0</ele><time>2026-05-03T13:18:48Z</time></trkpt><trkpt lat="45.396967976165996" lon="10.643465305397829"><ele>93.0</ele><time>2026-05-03T13:18:49Z</time></trkpt><trkpt lat="45.39708405192653" lon="10.64351643721149"><ele>93.0</ele><time>2026-05-03T13:18:50Z</time></trkpt><trkpt lat="45.397204967408214" lon="10.643553063591057"><ele>93.0</ele><time>2026-05-03T13:18:51Z</time></trkpt><trkpt lat="45.397325508422085" lon="10.643568903689136"><ele>93.0</ele><time>2026-05-03T13:18:52Z</time></trkpt><trkpt lat="45.39745322118543" lon="10.643547894152185"><ele>92.5</ele><time>2026-05-03T13:18:53Z</time></trkpt><trkpt lat="45.397570697486756" lon="10.64347651250433"><ele>92.0</ele><time>2026-05-03T13:18:54Z</time></trkpt><trkpt lat="45.39767309747517" lon="10.643379355456878"><ele>91.5</ele><time>2026-05-03T13:18:55Z</time></trkpt><trkpt lat="45.39776331312931" lon="10.643248636938779"><ele>91.0</ele><time>2026-05-03T13:18:56Z</time></trkpt><trkpt lat="45.39787760237673" lon="10.643121556974286"><ele>90.0</ele><time>2026-05-03T13:18:57Z</time></trkpt><trkpt lat="45.3980017774797" lon="10.642960655444737"><ele>89.0</ele><time>2026-05-03T13:18:58Z</time></trkpt><trkpt lat="45.39813380593359" lon="10.642784170313089"><ele>88.0</ele><time>2026-05-03T13:18:59Z</time></trkpt><trkpt lat="45.39825379821103" lon="10.642597462401941"><ele>88.0</ele><time>2026-05-03T13:19:00Z</time></trkpt><trkpt lat="45.39837115882851" lon="10.642456915472843"><ele>88.0</ele><time>2026-05-03T13:19:01Z</time></trkpt><trkpt lat="45.39847007062968" lon="10.642319312121936"><ele>88.0</ele><time>2026-05-03T13:19:02Z</time></trkpt><trkpt lat="45.39855201512563" lon="10.642177703861249"><ele>88.0</ele><time>2026-05-03T13:19:03Z</time></trkpt><trkpt lat="45.398624488662335" lon="10.642000623058046"><ele>88.33333333333333</ele><time>2026-05-03T13:19:04Z</time></trkpt><trkpt lat="45.39868044761693" lon="10.641798064529995"><ele>88.66666666666667</ele><time>2026-05-03T13:19:05Z</time></trkpt><trkpt lat="45.39871735079894" lon="10.641577541563665"><ele>89.0</ele><time>2026-05-03T13:19:06Z</time></trkpt><trkpt lat="45.39874471181684" lon="10.641337128129907"><ele>89.66666666666667</ele><time>2026-05-03T13:19:07Z</time></trkpt><trkpt lat="45.39876086940157" lon="10.641074207116953"><ele>90.33333333333333</ele><time>2026-05-03T13:19:08Z</time></trkpt><trkpt lat="45.398759888163475" lon="10.64081089352913"><ele>91.0</ele><time>2026-05-03T13:19:09Z</time></trkpt><trkpt lat="45.39874348756415" lon="10.64052893049396"><ele>91.33333333333333</ele><time>2026-05-03T13:19:10Z</time></trkpt><trkpt lat="45.398719751878204" lon="10.640248504507312"><ele>91.66666666666667</ele><time>2026-05-03T13:19:11Z</time></trkpt><trkpt lat="45.39870334075109" lon="10.63996632584392"><ele>92.0</ele><time>2026-05-03T13:19:12Z</time></trkpt><trkpt lat="45.3986898852216" lon="10.639677641848678"><ele>92.0</ele><time>2026-05-03T13:19:13Z</time></trkpt><trkpt lat="45.3986810558943" lon="10.639393401065703"><ele>92.0</ele><time>2026-05-03T13:19:14Z</time></trkpt><trkpt lat="45.3986762126199" lon="10.63911244549974"><ele>92.0</ele><time>2026-05-03T13:19:15Z</time></trkpt><trkpt lat="45.39866976804375" lon="10.638830475499587"><ele>91.66666666666667</ele><time>2026-05-03T13:19:16Z</time></trkpt><trkpt lat="45.39866170428443" lon="10.638549504076574"><ele>91.33333333333333</ele><time>2026-05-03T13:19:17Z</time></trkpt><trkpt lat="45.39864749524021" lon="10.638267046263065"><ele>91.0</ele><time>2026-05-03T13:19:18Z</time></trkpt><trkpt lat="45.39863415573204" lon="10.637987105860422"><ele>90.66666666666666</ele><time>2026-05-03T13:19:19Z</time></trkpt><trkpt lat="45.39863124723623" lon="10.637709304815138"><ele>90.33333333333333</ele><time>2026-05-03T13:19:20Z</time></trkpt><trkpt lat="45.39862591520944" lon="10.637435997405742"><ele>90.0</ele><time>2026-05-03T13:19:21Z</time></trkpt><trkpt lat="45.39862924090065" lon="10.637166048678477"><ele>90.33333333333333</ele><time>2026-05-03T13:19:22Z</time></trkpt><trkpt lat="45.398655242665356" lon="10.636904331299878"><ele>90.66666666666666</ele><time>2026-05-03T13:19:23Z</time></trkpt><trkpt lat="45.39870492784688" lon="10.636655788384036"><ele>91.0</ele><time>2026-05-03T13:19:24Z</time></trkpt><trkpt lat="45.39877138673569" lon="10.636418535928636"><ele>91.0</ele><time>2026-05-03T13:19:25Z</time></trkpt><trkpt lat="45.3988505455643" lon="10.636190731323653"><ele>91.0</ele><time>2026-05-03T13:19:26Z</time></trkpt><trkpt lat="45.39893448153316" lon="10.635971122529826"><ele>91.0</ele><time>2026-05-03T13:19:27Z</time></trkpt><trkpt lat="45.39902425206299" lon="10.635755958704776"><ele>91.0</ele><time>2026-05-03T13:19:28Z</time></trkpt><trkpt lat="45.39911493433993" lon="10.635539502598423"><ele>91.0</ele><time>2026-05-03T13:19:29Z</time></trkpt><trkpt lat="45.399205195868625" lon="10.635341815527346"><ele>91.0</ele><time>2026-05-03T13:19:30Z</time></trkpt><trkpt lat="45.399290308188434" lon="10.635173709320124"><ele>91.4</ele><time>2026-05-03T13:19:31Z</time></trkpt><trkpt lat="45.39936432483123" lon="10.635027941269293"><ele>91.8</ele><time>2026-05-03T13:19:32Z</time></trkpt><trkpt lat="45.3994243630412" lon="10.634916457984776"><ele>92.2</ele><time>2026-05-03T13:19:33Z</time></trkpt><trkpt lat="45.39948836705942" lon="10.634831090530353"><ele>92.60000000000001</ele><time>2026-05-03T13:19:34.001Z</time></trkpt><trkpt lat="45.399575001129975" lon="10.634759730957615"><ele>93.0</ele><time>2026-05-03T13:19:35.001Z</time></trkpt><trkpt lat="45.39966395931483" lon="10.634691345535437"><ele>93.0</ele><time>2026-05-03T13:19:36.001Z</time></trkpt><trkpt lat="45.399728750673596" lon="10.63457150489566"><ele>93.0</ele><time>2026-05-03T13:19:37.001Z</time></trkpt><trkpt lat="45.399762645256324" lon="10.634395726344604"><ele>93.0</ele><time>2026-05-03T13:19:38.001Z</time></trkpt><trkpt lat="45.39981066473598" lon="10.63421184554631"><ele>93.0</ele><time>2026-05-03T13:19:39.001Z</time></trkpt><trkpt lat="45.39989279080989" lon="10.63403982865715"><ele>93.0</ele><time>2026-05-03T13:19:40.001Z</time></trkpt><trkpt lat="45.400006100098075" lon="10.633894112928125"><ele>93.0</ele><time>2026-05-03T13:19:41.001Z</time></trkpt><trkpt lat="45.40013794904161" lon="10.633762368432901"><ele>93.0</ele><time>2026-05-03T13:19:42.001Z</time></trkpt><trkpt lat="45.400283399617564" lon="10.633630597962371"><ele>93.66666666666667</ele><time>2026-05-03T13:19:43.001Z</time></trkpt><trkpt lat="45.400440079710854" lon="10.633523080749326"><ele>94.33333333333334</ele><time>2026-05-03T13:19:44.001Z</time></trkpt><trkpt lat="45.400604801180414" lon="10.6334298740387"><ele>95.0</ele><time>2026-05-03T13:19:45.001Z</time></trkpt><trkpt lat="45.40077342638841" lon="10.633362028828708"><ele>95.0</ele><time>2026-05-03T13:19:46.001Z</time></trkpt><trkpt lat="45.400930894131314" lon="10.63328092484534"><ele>95.0</ele><time>2026-05-03T13:19:47.001Z</time></trkpt><trkpt lat="45.40107122710256" lon="10.63318212748775"><ele>95.0</ele><time>2026-05-03T13:19:48.001Z</time></trkpt><trkpt lat="45.4011845832292" lon="10.63307076200954"><ele>95.0</ele><time>2026-05-03T13:19:49.001Z</time></trkpt><trkpt lat="45.40127474054699" lon="10.63290596486533"><ele>95.0</ele><time>2026-05-03T13:19:50.001Z</time></trkpt><trkpt lat="45.40133143722382" lon="10.63270869413545"><ele>95.0</ele><time>2026-05-03T13:19:51.001Z</time></trkpt><trkpt lat="45.40135498390689" lon="10.632495045496904"><ele>95.0</ele><time>2026-05-03T13:19:52.001Z</time></trkpt><trkpt lat="45.4013364126306" lon="10.632266192874424"><ele>96.66666666666667</ele><time>2026-05-03T13:19:53.001Z</time></trkpt><trkpt lat="45.40131182524788" lon="10.63203952413766"><ele>98.33333333333334</ele><time>2026-05-03T13:19:54.001Z</time></trkpt><trkpt lat="45.40127550844911" lon="10.631823411578052"><ele>100.0</ele><time>2026-05-03T13:19:55.001Z</time></trkpt><trkpt lat="45.401240693884375" lon="10.63161045021576"><ele>101.66666666666667</ele><time>2026-05-03T13:19:56.001Z</time></trkpt><trkpt lat="45.40121534983205" lon="10.631396506139927"><ele>103.33333333333334</ele><time>2026-05-03T13:19:57.001Z</time></trkpt><trkpt lat="45.40120542050623" lon="10.631182915752293"><ele>105.0</ele><time>2026-05-03T13:19:58.001Z</time></trkpt><trkpt lat="45.401218526768126" lon="10.63096503752279"><ele>107.0</ele><time>2026-05-03T13:19:59.001Z</time></trkpt><trkpt lat="45.40125695532362" lon="10.63074808318498"><ele>109.0</ele><time>2026-05-03T13:20:00.001Z</time></trkpt><trkpt lat="45.40131837673476" lon="10.630546127302713"><ele>111.0</ele><time>2026-05-03T13:20:01.001Z</time></trkpt><trkpt lat="45.40140612736286" lon="10.630381709695202"><ele>112.4</ele><time>2026-05-03T13:20:02.001Z</time></trkpt><trkpt lat="45.401496895992416" lon="10.630287139081243"><ele>113.8</ele><time>2026-05-03T13:20:03.001Z</time></trkpt><trkpt lat="45.40158028440387" lon="10.630218069758572"><ele>115.20000000000002</ele><time>2026-05-03T13:20:04.001Z</time></trkpt><trkpt lat="45.40167369152186" lon="10.63018652702078"><ele>116.60000000000001</ele><time>2026-05-03T13:20:05.001Z</time></trkpt><trkpt lat="45.4017816328971" lon="10.630185269009903"><ele>118.0</ele><time>2026-05-03T13:20:06.001Z</time></trkpt><trkpt lat="45.4018975335741" lon="10.630192074509363"><ele>118.0</ele><time>2026-05-03T13:20:07.001Z</time></trkpt><trkpt lat="45.40201845453599" lon="10.630208008318204"><ele>118.0</ele><time>2026-05-03T13:20:08.001Z</time></trkpt><trkpt lat="45.40214257778896" lon="10.630214281287632"><ele>118.0</ele><time>2026-05-03T13:20:09.002Z</time></trkpt><trkpt lat="45.402263129169846" lon="10.630216325952738"><ele>118.0</ele><time>2026-05-03T13:20:10.002Z</time></trkpt><trkpt lat="45.40237212195359" lon="10.630221765804595"><ele>118.2</ele><time>2026-05-03T13:20:11.002Z</time></trkpt><trkpt lat="45.40245409748326" lon="10.630224364123249"><ele>118.4</ele><time>2026-05-03T13:20:12.002Z</time></trkpt><trkpt lat="45.40256279659901" lon="10.63022418402078"><ele>118.60000000000001</ele><time>2026-05-03T13:20:14.002Z</time></trkpt><trkpt lat="45.402629088901854" lon="10.630209050222248"><ele>118.80000000000001</ele><time>2026-05-03T13:20:15.002Z</time></trkpt><trkpt lat="45.40271352518981" lon="10.630189469786066"><ele>119.0</ele><time>2026-05-03T13:20:16.002Z</time></trkpt><trkpt lat="45.40281679828749" lon="10.630152571326434"><ele>119.0</ele><time>2026-05-03T13:20:17.002Z</time></trkpt><trkpt lat="45.402930045211725" lon="10.630093235019297"><ele>119.0</ele><time>2026-05-03T13:20:18.002Z</time></trkpt><trkpt lat="45.40302772599512" lon="10.630013519922555"><ele>119.0</ele><time>2026-05-03T13:20:19.002Z</time></trkpt><trkpt lat="45.40311540293584" lon="10.62994532396391"><ele>119.0</ele><time>2026-05-03T13:20:20.002Z</time></trkpt><trkpt lat="45.40320673987739" lon="10.629865432955091"><ele>119.0</ele><time>2026-05-03T13:20:21.002Z</time></trkpt><trkpt lat="45.40326941822466" lon="10.629786398186976"><ele>119.2</ele><time>2026-05-03T13:20:22.002Z</time></trkpt><trkpt lat="45.403319664828985" lon="10.629723024691925"><ele>119.4</ele><time>2026-05-03T13:20:23.002Z</time></trkpt><trkpt lat="45.4033534076212" lon="10.629590644782855"><ele>119.6</ele><time>2026-05-03T13:20:25.002Z</time></trkpt><trkpt lat="45.40336553328932" lon="10.629501707749037"><ele>119.8</ele><time>2026-05-03T13:20:27.002Z</time></trkpt><trkpt lat="45.40348493860499" lon="10.629510514855959"><ele>120.0</ele><time>2026-05-03T13:20:28.002Z</time></trkpt><trkpt lat="45.40361325908566" lon="10.629492246554541"><ele>120.0</ele><time>2026-05-03T13:20:30.002Z</time></trkpt><trkpt lat="45.40368940523071" lon="10.629511749426324"><ele>120.0</ele><time>2026-05-03T13:20:31.002Z</time></trkpt><trkpt lat="45.403763947115465" lon="10.629540530984487"><ele>120.0</ele><time>2026-05-03T13:20:32.002Z</time></trkpt><trkpt lat="45.40383634390523" lon="10.629599900102892"><ele>120.0</ele><time>2026-05-03T13:20:33.002Z</time></trkpt><trkpt lat="45.403946449258605" lon="10.62971339032141"><ele>120.0</ele><time>2026-05-03T13:20:35.002Z</time></trkpt><trkpt lat="45.40402870588881" lon="10.62979124111333"><ele>119.4</ele><time>2026-05-03T13:20:36.002Z</time></trkpt><trkpt lat="45.40412048742368" lon="10.629858314166821"><ele>118.8</ele><time>2026-05-03T13:20:37.002Z</time></trkpt><trkpt lat="45.40422184214485" lon="10.62996603787753"><ele>118.19999999999999</ele><time>2026-05-03T13:20:38.002Z</time></trkpt><trkpt lat="45.40428615289485" lon="10.630054212699482"><ele>117.6</ele><time>2026-05-03T13:20:39.002Z</time></trkpt><trkpt lat="45.40436530143728" lon="10.630164564394091"><ele>117.0</ele><time>2026-05-03T13:20:40.002Z</time></trkpt><trkpt lat="45.404431315407706" lon="10.630240790177195"><ele>117.0</ele><time>2026-05-03T13:20:41.002Z</time></trkpt><trkpt lat="45.404510077561966" lon="10.630305502738798"><ele>117.0</ele><time>2026-05-03T13:20:43.002Z</time></trkpt><trkpt lat="45.404562985874804" lon="10.630390395434926"><ele>117.0</ele><time>2026-05-03T13:20:45.002Z</time></trkpt><trkpt lat="45.404616167199954" lon="10.630477583739497"><ele>117.0</ele><time>2026-05-03T13:20:47.002Z</time></trkpt><trkpt lat="45.404679411312046" lon="10.630524690481812"><ele>117.0</ele><time>2026-05-03T13:20:49.002Z</time></trkpt><trkpt lat="45.40473059971807" lon="10.630384269556282"><ele>117.0</ele><time>2026-05-03T13:20:51.002Z</time></trkpt><trkpt lat="45.40472605138928" lon="10.630250265163964"><ele>117.0</ele><time>2026-05-03T13:20:52.002Z</time></trkpt><trkpt lat="45.40475695161229" lon="10.630108256688013"><ele>116.99999999999999</ele><time>2026-05-03T13:20:53.001Z</time></trkpt><trkpt lat="45.40481078881295" lon="10.62995984445231"><ele>116.99999999999999</ele><time>2026-05-03T13:20:54.001Z</time></trkpt><trkpt lat="45.4048665643749" lon="10.629816872486073"><ele>117.0</ele><time>2026-05-03T13:20:55.001Z</time></trkpt><trkpt lat="45.404927398472964" lon="10.629714235383496"><ele>117.0</ele><time>2026-05-03T13:20:56.001Z</time></trkpt><trkpt lat="45.40497245598521" lon="10.629617152613633"><ele>117.0</ele><time>2026-05-03T13:20:57.001Z</time></trkpt><trkpt lat="45.40500112948747" lon="10.629522977454078"><ele>116.99999999999999</ele><time>2026-05-03T13:20:58.001Z</time></trkpt><trkpt lat="45.405059778482666" lon="10.629453680829618"><ele>116.99999999999999</ele><time>2026-05-03T13:20:59.001Z</time></trkpt><trkpt lat="45.405157820019234" lon="10.629440635012914"><ele>117.0</ele><time>2026-05-03T13:21:00.001Z</time></trkpt><trkpt lat="45.405266838608654" lon="10.629381550927956"><ele>117.0</ele><time>2026-05-03T13:21:01.001Z</time></trkpt><trkpt lat="45.40538962390777" lon="10.629350011741312"><ele>115.0</ele><time>2026-05-03T13:21:02.001Z</time></trkpt><trkpt lat="45.40551134589787" lon="10.629312941938474"><ele>113.0</ele><time>2026-05-03T13:21:03.001Z</time></trkpt><trkpt lat="45.40564534711779" lon="10.62928584596153"><ele>111.0</ele><time>2026-05-03T13:21:04.001Z</time></trkpt><trkpt lat="45.40579275014827" lon="10.629326934756971"><ele>109.0</ele><time>2026-05-03T13:21:05.001Z</time></trkpt><trkpt lat="45.405956408952754" lon="10.629375618270883"><ele>109.0</ele><time>2026-05-03T13:21:06.001Z</time></trkpt><trkpt lat="45.40611496132101" lon="10.629426900168474"><ele>109.0</ele><time>2026-05-03T13:21:07.001Z</time></trkpt><trkpt lat="45.406282278896825" lon="10.629466058357204"><ele>109.0</ele><time>2026-05-03T13:21:08.001Z</time></trkpt><trkpt lat="45.40645656244673" lon="10.629518599579846"><ele>111.0</ele><time>2026-05-03T13:21:09.001Z</time></trkpt><trkpt lat="45.406626185135586" lon="10.629555651392913"><ele>113.0</ele><time>2026-05-03T13:21:10.001Z</time></trkpt><trkpt lat="45.40678575438055" lon="10.62952159256913"><ele>115.0</ele><time>2026-05-03T13:21:11.001Z</time></trkpt><trkpt lat="45.40694599187347" lon="10.629432883300089"><ele>111.0</ele><time>2026-05-03T13:21:12.001Z</time></trkpt><trkpt lat="45.40709459350604" lon="10.629300765931148"><ele>107.0</ele><time>2026-05-03T13:21:13.001Z</time></trkpt><trkpt lat="45.40721007845221" lon="10.629110976859993"><ele>103.0</ele><time>2026-05-03T13:21:14.001Z</time></trkpt><trkpt lat="45.40728989526055" lon="10.628894968512876"><ele>102.33333333333334</ele><time>2026-05-03T13:21:15.001Z</time></trkpt><trkpt lat="45.40736390883537" lon="10.628664632801895"><ele>101.66666666666666</ele><time>2026-05-03T13:21:16.001Z</time></trkpt><trkpt lat="45.40740684411632" lon="10.62844706020921"><ele>101.0</ele><time>2026-05-03T13:21:17.001Z</time></trkpt><trkpt lat="45.407434953192144" lon="10.628239820584142"><ele>101.0</ele><time>2026-05-03T13:21:18.001Z</time></trkpt><trkpt lat="45.40747154170667" lon="10.62803766015778"><ele>101.0</ele><time>2026-05-03T13:21:19.001Z</time></trkpt><trkpt lat="45.40749295207136" lon="10.62783553321912"><ele>101.0</ele><time>2026-05-03T13:21:20.001Z</time></trkpt><trkpt lat="45.4075790248822" lon="10.627660724375763"><ele>101.0</ele><time>2026-05-03T13:21:21.001Z</time></trkpt><trkpt lat="45.40768051534009" lon="10.627518774399247"><ele>101.0</ele><time>2026-05-03T13:21:22.001Z</time></trkpt><trkpt lat="45.4078044862829" lon="10.627400625842238"><ele>101.0</ele><time>2026-05-03T13:21:23.001Z</time></trkpt><trkpt lat="45.407955898659424" lon="10.627366966216806"><ele>101.0</ele><time>2026-05-03T13:21:24.001Z</time></trkpt><trkpt lat="45.40811512707654" lon="10.627307674830165"><ele>100.66666666666666</ele><time>2026-05-03T13:21:25.001Z</time></trkpt><trkpt lat="45.408274640000606" lon="10.62726162906797"><ele>100.33333333333334</ele><time>2026-05-03T13:21:26.001Z</time></trkpt><trkpt lat="45.40843391509351" lon="10.627170206195458"><ele>100.0</ele><time>2026-05-03T13:21:27.001Z</time></trkpt><trkpt lat="45.408590589374114" lon="10.627058240128873"><ele>98.66666666666667</ele><time>2026-05-03T13:21:28.001Z</time></trkpt><trkpt lat="45.4087416228455" lon="10.626923670677469"><ele>97.33333333333334</ele><time>2026-05-03T13:21:29.001Z</time></trkpt><trkpt lat="45.408898714847666" lon="10.626796886695756"><ele>96.0</ele><time>2026-05-03T13:21:30.001Z</time></trkpt><trkpt lat="45.40906306075086" lon="10.62667587177143"><ele>95.66666666666667</ele><time>2026-05-03T13:21:31.001Z</time></trkpt><trkpt lat="45.40922616311561" lon="10.626549847546753"><ele>95.33333333333334</ele><time>2026-05-03T13:21:32.001Z</time></trkpt><trkpt lat="45.409389837581216" lon="10.626422468111867"><ele>95.0</ele><time>2026-05-03T13:21:33.001Z</time></trkpt><trkpt lat="45.40955290241469" lon="10.626295930033518"><ele>95.66666666666667</ele><time>2026-05-03T13:21:34.001Z</time></trkpt><trkpt lat="45.40971495883917" lon="10.626164602057752"><ele>96.33333333333334</ele><time>2026-05-03T13:21:35.001Z</time></trkpt><trkpt lat="45.40987551925265" lon="10.626031500876003"><ele>97.0</ele><time>2026-05-03T13:21:36.001Z</time></trkpt><trkpt lat="45.41003346024858" lon="10.62589246495771"><ele>97.0</ele><time>2026-05-03T13:21:37.001Z</time></trkpt><trkpt lat="45.4101747468423" lon="10.625726171960133"><ele>97.0</ele><time>2026-05-03T13:21:38.001Z</time></trkpt><trkpt lat="45.41028990094032" lon="10.625520868601596"><ele>97.0</ele><time>2026-05-03T13:21:39.001Z</time></trkpt><trkpt lat="45.41036929911629" lon="10.625287923451845"><ele>97.33333333333334</ele><time>2026-05-03T13:21:40.001Z</time></trkpt><trkpt lat="45.41041698196522" lon="10.6250418810922"><ele>97.66666666666666</ele><time>2026-05-03T13:21:41.001Z</time></trkpt><trkpt lat="45.41043986755669" lon="10.624790096624297"><ele>98.0</ele><time>2026-05-03T13:21:42.001Z</time></trkpt><trkpt lat="45.410452908789104" lon="10.624537596518026"><ele>98.0</ele><time>2026-05-03T13:21:43.001Z</time></trkpt><trkpt lat="45.41047460315072" lon="10.624284937534755"><ele>98.0</ele><time>2026-05-03T13:21:44.001Z</time></trkpt><trkpt lat="45.410523336018514" lon="10.624042597269515"><ele>98.0</ele><time>2026-05-03T13:21:45.001Z</time></trkpt><trkpt lat="45.41060746163103" lon="10.623825043616037"><ele>102.33333333333333</ele><time>2026-05-03T13:21:46.001Z</time></trkpt><trkpt lat="45.41072654211671" lon="10.623649994288458"><ele>106.66666666666666</ele><time>2026-05-03T13:21:47.001Z</time></trkpt><trkpt lat="45.41085312073856" lon="10.623516329524024"><ele>111.0</ele><time>2026-05-03T13:21:48.001Z</time></trkpt><trkpt lat="45.4109733256358" lon="10.62340618183967"><ele>111.0</ele><time>2026-05-03T13:21:49.001Z</time></trkpt><trkpt lat="45.41108320672054" lon="10.623311403359104"><ele>111.0</ele><time>2026-05-03T13:21:50.001Z</time></trkpt><trkpt lat="45.41118190091532" lon="10.623228166115949"><ele>111.0</ele><time>2026-05-03T13:21:51.001Z</time></trkpt><trkpt lat="45.411267222666936" lon="10.623143859110364"><ele>111.0</ele><time>2026-05-03T13:21:52.001Z</time></trkpt><trkpt lat="45.41134626600311" lon="10.623092750523952"><ele>111.0</ele><time>2026-05-03T13:21:53.001Z</time></trkpt><trkpt lat="45.41140381533695" lon="10.623028452204275"><ele>112.0</ele><time>2026-05-03T13:21:54.001Z</time></trkpt><trkpt lat="45.411277493017764" lon="10.622737087482566"><ele>113.0</ele><time>2026-05-03T13:21:55.001Z</time></trkpt><trkpt lat="45.41123735949256" lon="10.622613988564432"><ele>114.0</ele><time>2026-05-03T13:21:56.001Z</time></trkpt><trkpt lat="45.41120301102059" lon="10.622454977969278"><ele>114.0</ele><time>2026-05-03T13:21:57.001Z</time></trkpt><trkpt lat="45.41116400171771" lon="10.622258136149012"><ele>114.0</ele><time>2026-05-03T13:21:58.001Z</time></trkpt><trkpt lat="45.411111530779905" lon="10.622034365463282"><ele>114.0</ele><time>2026-05-03T13:21:59.001Z</time></trkpt><trkpt lat="45.41106005160383" lon="10.621798567642333"><ele>114.0</ele><time>2026-05-03T13:22:00.001Z</time></trkpt><trkpt lat="45.41100311296533" lon="10.621586145908173"><ele>114.0</ele><time>2026-05-03T13:22:01.001Z</time></trkpt><trkpt lat="45.41090265121427" lon="10.621375845276484"><ele>114.0</ele><time>2026-05-03T13:22:02.001Z</time></trkpt><trkpt lat="45.41078215429244" lon="10.621158874722976"><ele>113.33333333333334</ele><time>2026-05-03T13:22:03.001Z</time></trkpt><trkpt lat="45.41064921848723" lon="10.620955926921512"><ele>112.66666666666667</ele><time>2026-05-03T13:22:04.001Z</time></trkpt><trkpt lat="45.410531364216446" lon="10.62077203675637"><ele>112.0</ele><time>2026-05-03T13:22:05.001Z</time></trkpt><trkpt lat="45.41043167796102" lon="10.620577207303215"><ele>113.33333333333334</ele><time>2026-05-03T13:22:06.001Z</time></trkpt><trkpt lat="45.41038253483392" lon="10.620355867822239"><ele>114.66666666666666</ele><time>2026-05-03T13:22:07.001Z</time></trkpt><trkpt lat="45.410398753313366" lon="10.62011080205981"><ele>116.0</ele><time>2026-05-03T13:22:08.001Z</time></trkpt><trkpt lat="45.41040428466899" lon="10.619847153024384"><ele>116.0</ele><time>2026-05-03T13:22:09.001Z</time></trkpt><trkpt lat="45.41041620528334" lon="10.61957651472792"><ele>116.0</ele><time>2026-05-03T13:22:10.001Z</time></trkpt><trkpt lat="45.41042257056042" lon="10.619290272612105"><ele>116.0</ele><time>2026-05-03T13:22:11.001Z</time></trkpt><trkpt lat="45.41042698159936" lon="10.618995040424986"><ele>116.0</ele><time>2026-05-03T13:22:12.001Z</time></trkpt><trkpt lat="45.410433944937616" lon="10.61869238773869"><ele>116.0</ele><time>2026-05-03T13:22:13.001Z</time></trkpt><trkpt lat="45.41044179604306" lon="10.618394485358909"><ele>116.0</ele><time>2026-05-03T13:22:14.001Z</time></trkpt><trkpt lat="45.41044109704475" lon="10.618097427686877"><ele>115.66666666666666</ele><time>2026-05-03T13:22:15.001Z</time></trkpt><trkpt lat="45.4104381332783" lon="10.617800197659397"><ele>115.33333333333334</ele><time>2026-05-03T13:22:16.001Z</time></trkpt><trkpt lat="45.410433892558714" lon="10.617502946559073"><ele>115.0</ele><time>2026-05-03T13:22:17.001Z</time></trkpt><trkpt lat="45.41042543299374" lon="10.617208104194576"><ele>115.33333333333334</ele><time>2026-05-03T13:22:18.001Z</time></trkpt><trkpt lat="45.41042391364561" lon="10.616909327247196"><ele>115.66666666666666</ele><time>2026-05-03T13:22:19.001Z</time></trkpt><trkpt lat="45.41043129648825" lon="10.616611948673006"><ele>116.0</ele><time>2026-05-03T13:22:20.001Z</time></trkpt><trkpt lat="45.41045555408584" lon="10.616322213089223"><ele>115.66666666666666</ele><time>2026-05-03T13:22:21.001Z</time></trkpt><trkpt lat="45.41048568168538" lon="10.616037977257877"><ele>115.33333333333334</ele><time>2026-05-03T13:22:22.001Z</time></trkpt><trkpt lat="45.41051497966948" lon="10.61575476949555"><ele>115.0</ele><time>2026-05-03T13:22:23.001Z</time></trkpt><trkpt lat="45.41054778213936" lon="10.615475207153397"><ele>115.33333333333334</ele><time>2026-05-03T13:22:24.002Z</time></trkpt><trkpt lat="45.41058004593515" lon="10.615199404741906"><ele>115.66666666666666</ele><time>2026-05-03T13:22:25.002Z</time></trkpt><trkpt lat="45.41060877812402" lon="10.614921087968767"><ele>116.0</ele><time>2026-05-03T13:22:26.002Z</time></trkpt><trkpt lat="45.410639581955934" lon="10.614643140024098"><ele>116.66666666666666</ele><time>2026-05-03T13:22:27.002Z</time></trkpt><trkpt lat="45.41067111194536" lon="10.614366863881239"><ele>117.33333333333334</ele><time>2026-05-03T13:22:28.002Z</time></trkpt><trkpt lat="45.41070948170814" lon="10.614087302821556"><ele>118.0</ele><time>2026-05-03T13:22:29.002Z</time></trkpt><trkpt lat="45.410755928237485" lon="10.613810549779327"><ele>117.0</ele><time>2026-05-03T13:22:30.002Z</time></trkpt><trkpt lat="45.410802287594464" lon="10.613525631822743"><ele>116.0</ele><time>2026-05-03T13:22:31.002Z</time></trkpt><trkpt lat="45.41085150699534" lon="10.61324370144556"><ele>115.0</ele><time>2026-05-03T13:22:32.002Z</time></trkpt><trkpt lat="45.41090136519736" lon="10.612952805178733"><ele>115.0</ele><time>2026-05-03T13:22:33.002Z</time></trkpt><trkpt lat="45.410950374261176" lon="10.612662260177856"><ele>115.0</ele><time>2026-05-03T13:22:34.002Z</time></trkpt><trkpt lat="45.41099622329109" lon="10.612368901368576"><ele>115.0</ele><time>2026-05-03T13:22:35.002Z</time></trkpt><trkpt lat="45.41104497802469" lon="10.612074746448464"><ele>114.33333333333334</ele><time>2026-05-03T13:22:36.002Z</time></trkpt><trkpt lat="45.41109594935216" lon="10.611783618857922"><ele>113.66666666666666</ele><time>2026-05-03T13:22:37.002Z</time></trkpt><trkpt lat="45.41114466305879" lon="10.611492651615203"><ele>113.0</ele><time>2026-05-03T13:22:38.002Z</time></trkpt><trkpt lat="45.41119416036075" lon="10.611201895739843"><ele>112.0</ele><time>2026-05-03T13:22:39.002Z</time></trkpt><trkpt lat="45.41123812563055" lon="10.610910793396835"><ele>111.0</ele><time>2026-05-03T13:22:40.002Z</time></trkpt><trkpt lat="45.41126067428033" lon="10.610617025320167"><ele>110.0</ele><time>2026-05-03T13:22:41.002Z</time></trkpt><trkpt lat="45.41125651446288" lon="10.6103132071062"><ele>108.66666666666666</ele><time>2026-05-03T13:22:42.002Z</time></trkpt><trkpt lat="45.41123883702264" lon="10.61000410407117"><ele>107.33333333333334</ele><time>2026-05-03T13:22:43.002Z</time></trkpt><trkpt lat="45.411221504770225" lon="10.60969058339935"><ele>106.0</ele><time>2026-05-03T13:22:44.002Z</time></trkpt><trkpt lat="45.411200440690465" lon="10.60937788558877"><ele>104.66666666666667</ele><time>2026-05-03T13:22:45.002Z</time></trkpt><trkpt lat="45.41117953646144" lon="10.609067183400425"><ele>103.33333333333334</ele><time>2026-05-03T13:22:46.002Z</time></trkpt><trkpt lat="45.41115635643119" lon="10.608757992863655"><ele>102.0</ele><time>2026-05-03T13:22:47.002Z</time></trkpt><trkpt lat="45.41113553797186" lon="10.608479706583928"><ele>101.33333333333334</ele><time>2026-05-03T13:22:48.002Z</time></trkpt><trkpt lat="45.41111614964579" lon="10.608224959514095"><ele>100.66666666666667</ele><time>2026-05-03T13:22:49.002Z</time></trkpt><trkpt lat="45.41110251248352" lon="10.607987574587842"><ele>100.0</ele><time>2026-05-03T13:22:50.002Z</time></trkpt><trkpt lat="45.4111333087392" lon="10.607754673665422"><ele>99.0</ele><time>2026-05-03T13:22:51.002Z</time></trkpt><trkpt lat="45.41119576151344" lon="10.607534245725228"><ele>98.0</ele><time>2026-05-03T13:22:52.002Z</time></trkpt><trkpt lat="45.411299944605766" lon="10.607321494052957"><ele>97.0</ele><time>2026-05-03T13:22:53.002Z</time></trkpt><trkpt lat="45.41140211147252" lon="10.607092291030778"><ele>96.33333333333334</ele><time>2026-05-03T13:22:54.002Z</time></trkpt><trkpt lat="45.41152487536748" lon="10.606866307638699"><ele>95.66666666666667</ele><time>2026-05-03T13:22:55.002Z</time></trkpt><trkpt lat="45.41164877914525" lon="10.606631983990878"><ele>95.0</ele><time>2026-05-03T13:22:56.002Z</time></trkpt><trkpt lat="45.41177286325126" lon="10.606393695541447"><ele>95.0</ele><time>2026-05-03T13:22:57.002Z</time></trkpt><trkpt lat="45.41189611153184" lon="10.606152914796533"><ele>95.0</ele><time>2026-05-03T13:22:58.002Z</time></trkpt><trkpt lat="45.41203062350327" lon="10.60592687777246"><ele>95.0</ele><time>2026-05-03T13:22:59.001Z</time></trkpt><trkpt lat="45.41216142616529" lon="10.605696670893735"><ele>95.0</ele><time>2026-05-03T13:23:00.001Z</time></trkpt><trkpt lat="45.41228515641024" lon="10.60545255136693"><ele>95.0</ele><time>2026-05-03T13:23:01.001Z</time></trkpt><trkpt lat="45.41242706174817" lon="10.605225498476006"><ele>95.0</ele><time>2026-05-03T13:23:02.001Z</time></trkpt><trkpt lat="45.41257758579752" lon="10.605006875673944"><ele>95.33333333333334</ele><time>2026-05-03T13:23:03.001Z</time></trkpt><trkpt lat="45.41272054954489" lon="10.604780585645537"><ele>95.66666666666667</ele><time>2026-05-03T13:23:04.001Z</time></trkpt><trkpt lat="45.41284780701024" lon="10.604551821902026"><ele>96.0</ele><time>2026-05-03T13:23:05.001Z</time></trkpt><trkpt lat="45.41297244921548" lon="10.604341868875482"><ele>96.33333333333334</ele><time>2026-05-03T13:23:06.001Z</time></trkpt><trkpt lat="45.4130706179332" lon="10.604108480375297"><ele>96.66666666666667</ele><time>2026-05-03T13:23:07.001Z</time></trkpt><trkpt lat="45.41312519423769" lon="10.603855174903197"><ele>97.0</ele><time>2026-05-03T13:23:08.001Z</time></trkpt><trkpt lat="45.413150573856655" lon="10.60358940244076"><ele>97.0</ele><time>2026-05-03T13:23:09.001Z</time></trkpt><trkpt lat="45.413176314394796" lon="10.603320718109634"><ele>97.0</ele><time>2026-05-03T13:23:10.001Z</time></trkpt><trkpt lat="45.41320695636101" lon="10.603048986783621"><ele>97.0</ele><time>2026-05-03T13:23:11.001Z</time></trkpt><trkpt lat="45.41323757237644" lon="10.60277272751316"><ele>97.0</ele><time>2026-05-03T13:23:12.001Z</time></trkpt><trkpt lat="45.413266101963856" lon="10.602493703010996"><ele>97.0</ele><time>2026-05-03T13:23:13.001Z</time></trkpt><trkpt lat="45.4133002599364" lon="10.60221457579865"><ele>97.0</ele><time>2026-05-03T13:23:14.001Z</time></trkpt><trkpt lat="45.41332960477293" lon="10.601936792712447"><ele>97.0</ele><time>2026-05-03T13:23:15.001Z</time></trkpt><trkpt lat="45.41336186135277" lon="10.601657623775997"><ele>97.0</ele><time>2026-05-03T13:23:16.001Z</time></trkpt><trkpt lat="45.41341400546159" lon="10.601384419963122"><ele>97.0</ele><time>2026-05-03T13:23:17.001Z</time></trkpt><trkpt lat="45.41347005966894" lon="10.601115205641193"><ele>97.0</ele><time>2026-05-03T13:23:18.001Z</time></trkpt><trkpt lat="45.41352926287988" lon="10.600840355143932"><ele>97.0</ele><time>2026-05-03T13:23:19.001Z</time></trkpt><trkpt lat="45.41359938380226" lon="10.60056986256151"><ele>97.0</ele><time>2026-05-03T13:23:20.001Z</time></trkpt><trkpt lat="45.413697658302695" lon="10.60031748777451"><ele>97.0</ele><time>2026-05-03T13:23:21.001Z</time></trkpt><trkpt lat="45.4137768627999" lon="10.60005367600963"><ele>97.0</ele><time>2026-05-03T13:23:22.001Z</time></trkpt><trkpt lat="45.413866106845376" lon="10.599795983312887"><ele>97.0</ele><time>2026-05-03T13:23:23.001Z</time></trkpt><trkpt lat="45.413968127440135" lon="10.599542347315206"><ele>97.33333333333334</ele><time>2026-05-03T13:23:24.001Z</time></trkpt><trkpt lat="45.4140407124783" lon="10.599269541908168"><ele>97.66666666666666</ele><time>2026-05-03T13:23:25.001Z</time></trkpt><trkpt lat="45.41412284512072" lon="10.599005724048391"><ele>98.0</ele><time>2026-05-03T13:23:26.001Z</time></trkpt><trkpt lat="45.414205301275516" lon="10.598737437917537"><ele>97.66666666666666</ele><time>2026-05-03T13:23:27.001Z</time></trkpt><trkpt lat="45.414291655290654" lon="10.598470248618518"><ele>97.33333333333334</ele><time>2026-05-03T13:23:28.001Z</time></trkpt><trkpt lat="45.41437933912022" lon="10.59820340228905"><ele>97.0</ele><time>2026-05-03T13:23:29.001Z</time></trkpt><trkpt lat="45.41446418489117" lon="10.597935191219612"><ele>96.66666666666667</ele><time>2026-05-03T13:23:30.001Z</time></trkpt><trkpt lat="45.41455087295659" lon="10.597667076044253"><ele>96.33333333333334</ele><time>2026-05-03T13:23:31.001Z</time></trkpt><trkpt lat="45.41464692103837" lon="10.59740352823925"><ele>96.0</ele><time>2026-05-03T13:23:32.001Z</time></trkpt><trkpt lat="45.41474606507291" lon="10.597144846223218"><ele>95.66666666666667</ele><time>2026-05-03T13:23:33.001Z</time></trkpt><trkpt lat="45.41483050529774" lon="10.59688339285625"><ele>95.33333333333334</ele><time>2026-05-03T13:23:34.001Z</time></trkpt><trkpt lat="45.414901806973184" lon="10.596617713146522"><ele>95.0</ele><time>2026-05-03T13:23:35.001Z</time></trkpt><trkpt lat="45.41495637426332" lon="10.596349955406684"><ele>94.66666666666667</ele><time>2026-05-03T13:23:36.001Z</time></trkpt><trkpt lat="45.41500146644829" lon="10.596080588739133"><ele>94.33333333333333</ele><time>2026-05-03T13:23:37.001Z</time></trkpt><trkpt lat="45.41506448913776" lon="10.595816805318309"><ele>94.0</ele><time>2026-05-03T13:23:38.001Z</time></trkpt><trkpt lat="45.41513528165003" lon="10.595556272277344"><ele>94.0</ele><time>2026-05-03T13:23:39.001Z</time></trkpt><trkpt lat="45.415203222126905" lon="10.595294476529522"><ele>94.0</ele><time>2026-05-03T13:23:40.001Z</time></trkpt><trkpt lat="45.41528019593727" lon="10.595041178854924"><ele>94.0</ele><time>2026-05-03T13:23:41.001Z</time></trkpt><trkpt lat="45.4153480527064" lon="10.594783969234646"><ele>94.0</ele><time>2026-05-03T13:23:42.001Z</time></trkpt><trkpt lat="45.415416740669706" lon="10.59452479378078"><ele>94.0</ele><time>2026-05-03T13:23:43.001Z</time></trkpt><trkpt lat="45.4154950797244" lon="10.594274105813934"><ele>94.0</ele><time>2026-05-03T13:23:44.001Z</time></trkpt><trkpt lat="45.415591250197885" lon="10.594045100797564"><ele>94.33333333333333</ele><time>2026-05-03T13:23:45.001Z</time></trkpt><trkpt lat="45.415728065129066" lon="10.593880291394022"><ele>94.66666666666667</ele><time>2026-05-03T13:23:46.001Z</time></trkpt><trkpt lat="45.4158488737027" lon="10.593688583674087"><ele>95.0</ele><time>2026-05-03T13:23:47.001Z</time></trkpt><trkpt lat="45.415969716812526" lon="10.593496661100037"><ele>95.33333333333334</ele><time>2026-05-03T13:23:48.001Z</time></trkpt><trkpt lat="45.41607418760486" lon="10.593280389880906"><ele>95.66666666666667</ele><time>2026-05-03T13:23:49.001Z</time></trkpt><trkpt lat="45.41617425605612" lon="10.593062539395818"><ele>96.0</ele><time>2026-05-03T13:23:50.001Z</time></trkpt><trkpt lat="45.4162743646973" lon="10.592841918231562"><ele>97.0</ele><time>2026-05-03T13:23:51.001Z</time></trkpt><trkpt lat="45.416367094219076" lon="10.59261079616672"><ele>98.0</ele><time>2026-05-03T13:23:52.001Z</time></trkpt><trkpt lat="45.41645998947084" lon="10.592376258374694"><ele>99.0</ele><time>2026-05-03T13:23:53.001Z</time></trkpt><trkpt lat="45.41654786137534" lon="10.592135832086356"><ele>99.0</ele><time>2026-05-03T13:23:54.001Z</time></trkpt><trkpt lat="45.41662215225497" lon="10.59188597632742"><ele>99.0</ele><time>2026-05-03T13:23:55.001Z</time></trkpt><trkpt lat="45.41668332053296" lon="10.591632019815465"><ele>99.0</ele><time>2026-05-03T13:23:56.001Z</time></trkpt><trkpt lat="45.41673380051907" lon="10.591382076515707"><ele>99.0</ele><time>2026-05-03T13:23:57.001Z</time></trkpt><trkpt lat="45.41677455677577" lon="10.59114546990429"><ele>99.0</ele><time>2026-05-03T13:23:58.001Z</time></trkpt><trkpt lat="45.416814967689014" lon="10.59094699252443"><ele>99.0</ele><time>2026-05-03T13:23:59.001Z</time></trkpt><trkpt lat="45.41685483518083" lon="10.590786525918267"><ele>99.0</ele><time>2026-05-03T13:24:00.001Z</time></trkpt><trkpt lat="45.41689490430269" lon="10.590664131141525"><ele>99.0</ele><time>2026-05-03T13:24:01.001Z</time></trkpt><trkpt lat="45.416931395721754" lon="10.590581879305233"><ele>99.0</ele><time>2026-05-03T13:24:02.001Z</time></trkpt><trkpt lat="45.416998955299704" lon="10.59055157415041"><ele>99.0</ele><time>2026-05-03T13:24:03.001Z</time></trkpt><trkpt lat="45.41700797261474" lon="10.590386476636224"><ele>99.0</ele><time>2026-05-03T13:24:04.001Z</time></trkpt><trkpt lat="45.41706670000037" lon="10.59026205302885"><ele>99.0</ele><time>2026-05-03T13:24:05.001Z</time></trkpt><trkpt lat="45.4171274514373" lon="10.590112604262355"><ele>100.0</ele><time>2026-05-03T13:24:06.001Z</time></trkpt><trkpt lat="45.417189312095495" lon="10.589951304669764"><ele>101.0</ele><time>2026-05-03T13:24:07.001Z</time></trkpt><trkpt lat="45.41725373551238" lon="10.589770829595171"><ele>102.0</ele><time>2026-05-03T13:24:08.001Z</time></trkpt><trkpt lat="45.41730191939061" lon="10.58957528944414"><ele>103.0</ele><time>2026-05-03T13:24:09.001Z</time></trkpt><trkpt lat="45.417338578388375" lon="10.589366896992994"><ele>103.0</ele><time>2026-05-03T13:24:10.001Z</time></trkpt><trkpt lat="45.41736408365131" lon="10.589146148005849"><ele>103.0</ele><time>2026-05-03T13:24:11.001Z</time></trkpt><trkpt lat="45.4173740326429" lon="10.588907824265027"><ele>103.0</ele><time>2026-05-03T13:24:12.001Z</time></trkpt><trkpt lat="45.41738633188929" lon="10.588667751949435"><ele>103.0</ele><time>2026-05-03T13:24:13.001Z</time></trkpt><trkpt lat="45.41739041220781" lon="10.588442036591632"><ele>103.0</ele><time>2026-05-03T13:24:14.001Z</time></trkpt><trkpt lat="45.4174042670179" lon="10.588223177855792"><ele>103.0</ele><time>2026-05-03T13:24:15.001Z</time></trkpt><trkpt lat="45.41743778957556" lon="10.588006599244956"><ele>102.0</ele><time>2026-05-03T13:24:16.001Z</time></trkpt><trkpt lat="45.41748284273639" lon="10.587778054338054"><ele>101.0</ele><time>2026-05-03T13:24:17.001Z</time></trkpt><trkpt lat="45.41751732496581" lon="10.587546039802962"><ele>100.0</ele><time>2026-05-03T13:24:18.001Z</time></trkpt><trkpt lat="45.41757237863401" lon="10.587311025569857"><ele>100.0</ele><time>2026-05-03T13:24:19.001Z</time></trkpt><trkpt lat="45.4176131894881" lon="10.587063794577771"><ele>100.0</ele><time>2026-05-03T13:24:20.001Z</time></trkpt><trkpt lat="45.4176555074102" lon="10.586821876349145"><ele>100.0</ele><time>2026-05-03T13:24:21.001Z</time></trkpt><trkpt lat="45.417697162345206" lon="10.58658651171761"><ele>98.66666666666667</ele><time>2026-05-03T13:24:22.001Z</time></trkpt><trkpt lat="45.41772305117116" lon="10.586344730211172"><ele>97.33333333333334</ele><time>2026-05-03T13:24:23.001Z</time></trkpt><trkpt lat="45.41776372085472" lon="10.586108204595442"><ele>96.0</ele><time>2026-05-03T13:24:24.001Z</time></trkpt><trkpt lat="45.41778873081018" lon="10.58586449252985"><ele>95.66666666666667</ele><time>2026-05-03T13:24:25.001Z</time></trkpt><trkpt lat="45.417797536601" lon="10.585616569866978"><ele>95.33333333333334</ele><time>2026-05-03T13:24:26.001Z</time></trkpt><trkpt lat="45.41781085815138" lon="10.585372191694766"><ele>95.0</ele><time>2026-05-03T13:24:27.001Z</time></trkpt><trkpt lat="45.41781320727264" lon="10.585136623153288"><ele>95.66666666666667</ele><time>2026-05-03T13:24:28.001Z</time></trkpt><trkpt lat="45.417823167359266" lon="10.5849034732797"><ele>96.33333333333334</ele><time>2026-05-03T13:24:29.001Z</time></trkpt><trkpt lat="45.41784457749611" lon="10.584669479959807"><ele>97.0</ele><time>2026-05-03T13:24:30.001Z</time></trkpt><trkpt lat="45.41788725635792" lon="10.584443616450283"><ele>97.0</ele><time>2026-05-03T13:24:31.001Z</time></trkpt><trkpt lat="45.41794458698094" lon="10.584223279814038"><ele>97.0</ele><time>2026-05-03T13:24:32.001Z</time></trkpt><trkpt lat="45.41800614306298" lon="10.583993391691772"><ele>97.0</ele><time>2026-05-03T13:24:33.001Z</time></trkpt><trkpt lat="45.41806878933821" lon="10.583764857970458"><ele>98.33333333333334</ele><time>2026-05-03T13:24:34.001Z</time></trkpt><trkpt lat="45.41813022305845" lon="10.583541535502379"><ele>99.66666666666666</ele><time>2026-05-03T13:24:35.001Z</time></trkpt><trkpt lat="45.41818815081944" lon="10.583338648024585"><ele>101.0</ele><time>2026-05-03T13:24:36.001Z</time></trkpt><trkpt lat="45.41824426985358" lon="10.58315877177268"><ele>101.0</ele><time>2026-05-03T13:24:37.001Z</time></trkpt><trkpt lat="45.41829737152456" lon="10.582965191606524"><ele>101.0</ele><time>2026-05-03T13:24:38.001Z</time></trkpt><trkpt lat="45.41837320961621" lon="10.582775673328657"><ele>101.0</ele><time>2026-05-03T13:24:39.001Z</time></trkpt><trkpt lat="45.418448710355456" lon="10.582560574904724"><ele>101.0</ele><time>2026-05-03T13:24:40.001Z</time></trkpt><trkpt lat="45.41852567895946" lon="10.582325322602053"><ele>101.0</ele><time>2026-05-03T13:24:41.001Z</time></trkpt><trkpt lat="45.418579085960396" lon="10.582070730296104"><ele>101.0</ele><time>2026-05-03T13:24:42.001Z</time></trkpt><trkpt lat="45.41863946179753" lon="10.58182509190737"><ele>100.66666666666666</ele><time>2026-05-03T13:24:43.002Z</time></trkpt><trkpt lat="45.41869860070468" lon="10.581587540213095"><ele>100.33333333333334</ele><time>2026-05-03T13:24:44.002Z</time></trkpt><trkpt lat="45.41878544952354" lon="10.581372134649097"><ele>100.0</ele><time>2026-05-03T13:24:45.002Z</time></trkpt><trkpt lat="45.41891827492254" lon="10.581213133992279"><ele>101.66666666666667</ele><time>2026-05-03T13:24:46.002Z</time></trkpt><trkpt lat="45.41905165578982" lon="10.581048984489554"><ele>103.33333333333334</ele><time>2026-05-03T13:24:47.002Z</time></trkpt><trkpt lat="45.41917343378235" lon="10.58087259215967"><ele>105.0</ele><time>2026-05-03T13:24:48.002Z</time></trkpt><trkpt lat="45.419305478621936" lon="10.580705619379229"><ele>105.0</ele><time>2026-05-03T13:24:49.002Z</time></trkpt><trkpt lat="45.41945464558707" lon="10.580543750462109"><ele>105.0</ele><time>2026-05-03T13:24:50.002Z</time></trkpt><trkpt lat="45.41960275021472" lon="10.580352634166315"><ele>105.0</ele><time>2026-05-03T13:24:51.002Z</time></trkpt><trkpt lat="45.41975982679784" lon="10.58014909406056"><ele>105.66666666666666</ele><time>2026-05-03T13:24:52.002Z</time></trkpt><trkpt lat="45.419919027704374" lon="10.579942802004519"><ele>106.33333333333333</ele><time>2026-05-03T13:24:53.002Z</time></trkpt><trkpt lat="45.42007849608922" lon="10.579732828007085"><ele>107.0</ele><time>2026-05-03T13:24:54.002Z</time></trkpt><trkpt lat="45.42022447656945" lon="10.579502579429779"><ele>107.0</ele><time>2026-05-03T13:24:55.002Z</time></trkpt><trkpt lat="45.42037828746549" lon="10.579286241974343"><ele>107.0</ele><time>2026-05-03T13:24:56.002Z</time></trkpt><trkpt lat="45.42052970902449" lon="10.57906797705307"><ele>107.0</ele><time>2026-05-03T13:24:57.002Z</time></trkpt><trkpt lat="45.420681068825424" lon="10.578858754513021"><ele>106.0</ele><time>2026-05-03T13:24:58.002Z</time></trkpt><trkpt lat="45.42083659972018" lon="10.57865770609499"><ele>105.0</ele><time>2026-05-03T13:24:59.002Z</time></trkpt><trkpt lat="45.42099187252296" lon="10.578456558128261"><ele>104.0</ele><time>2026-05-03T13:25:00.002Z</time></trkpt><trkpt lat="45.42114792971663" lon="10.578255491979682"><ele>104.0</ele><time>2026-05-03T13:25:01.002Z</time></trkpt><trkpt lat="45.42130495470546" lon="10.578055370049015"><ele>104.0</ele><time>2026-05-03T13:25:02.002Z</time></trkpt><trkpt lat="45.421459919576776" lon="10.577855501350694"><ele>104.0</ele><time>2026-05-03T13:25:03.002Z</time></trkpt><trkpt lat="45.42161180135547" lon="10.577651985898802"><ele>103.66666666666666</ele><time>2026-05-03T13:25:04.002Z</time></trkpt><trkpt lat="45.42175668262657" lon="10.577439855327565"><ele>103.33333333333334</ele><time>2026-05-03T13:25:05.001Z</time></trkpt><trkpt lat="45.42189712133182" lon="10.577221536764487"><ele>103.0</ele><time>2026-05-03T13:25:06.001Z</time></trkpt><trkpt lat="45.42203351582906" lon="10.577001346479381"><ele>103.66666666666667</ele><time>2026-05-03T13:25:07.001Z</time></trkpt><trkpt lat="45.42217239491276" lon="10.57678880468353"><ele>104.33333333333334</ele><time>2026-05-03T13:25:08.001Z</time></trkpt><trkpt lat="45.422297640923034" lon="10.576589515089049"><ele>105.0</ele><time>2026-05-03T13:25:09.001Z</time></trkpt><trkpt lat="45.42240640350447" lon="10.5763996030683"><ele>105.0</ele><time>2026-05-03T13:25:10.001Z</time></trkpt><trkpt lat="45.42249691618887" lon="10.576213190285507"><ele>105.0</ele><time>2026-05-03T13:25:11.001Z</time></trkpt><trkpt lat="45.422574059321114" lon="10.576037330338913"><ele>105.0</ele><time>2026-05-03T13:25:12.001Z</time></trkpt><trkpt lat="45.42264125051149" lon="10.575877498244969"><ele>105.0</ele><time>2026-05-03T13:25:13.001Z</time></trkpt><trkpt lat="45.42270586537996" lon="10.575734637897106"><ele>104.33333333333333</ele><time>2026-05-03T13:25:14.001Z</time></trkpt><trkpt lat="45.42276082488141" lon="10.57561236132527"><ele>103.66666666666666</ele><time>2026-05-03T13:25:15.001Z</time></trkpt><trkpt lat="45.42281535717189" lon="10.575525122515307"><ele>103.0</ele><time>2026-05-03T13:25:16.001Z</time></trkpt><trkpt lat="45.42285190157527" lon="10.575446069419275"><ele>102.33333333333333</ele><time>2026-05-03T13:25:17.001Z</time></trkpt><trkpt lat="45.4228898527595" lon="10.575337637505582"><ele>101.66666666666666</ele><time>2026-05-03T13:25:19.001Z</time></trkpt><trkpt lat="45.42292074791533" lon="10.575251847100834"><ele>101.0</ele><time>2026-05-03T13:25:23.001Z</time></trkpt><trkpt lat="45.42297740745176" lon="10.575140933781359"><ele>101.25</ele><time>2026-05-03T13:25:26.001Z</time></trkpt><trkpt lat="45.4230109874808" lon="10.575046898944894"><ele>101.5</ele><time>2026-05-03T13:25:27.001Z</time></trkpt><trkpt lat="45.423056024370275" lon="10.574903820506055"><ele>101.75</ele><time>2026-05-03T13:25:28.001Z</time></trkpt><trkpt lat="45.42311035223534" lon="10.574709720110798"><ele>102.0</ele><time>2026-05-03T13:25:29.001Z</time></trkpt><trkpt lat="45.42316022468531" lon="10.57447759911551"><ele>102.0</ele><time>2026-05-03T13:25:30.001Z</time></trkpt><trkpt lat="45.42323950375871" lon="10.574243616437434"><ele>102.0</ele><time>2026-05-03T13:25:31.001Z</time></trkpt><trkpt lat="45.423327722778026" lon="10.5740136780336"><ele>102.0</ele><time>2026-05-03T13:25:32.001Z</time></trkpt><trkpt lat="45.423430758128255" lon="10.57379259798753"><ele>101.33333333333334</ele><time>2026-05-03T13:25:33.001Z</time></trkpt><trkpt lat="45.42353588299844" lon="10.573572036483954"><ele>100.66666666666667</ele><time>2026-05-03T13:25:34.001Z</time></trkpt><trkpt lat="45.42364235254188" lon="10.573347755888541"><ele>100.0</ele><time>2026-05-03T13:25:35.001Z</time></trkpt><trkpt lat="45.4237484297348" lon="10.573129823981706"><ele>100.66666666666667</ele><time>2026-05-03T13:25:36.001Z</time></trkpt><trkpt lat="45.42385752037985" lon="10.572911527073526"><ele>101.33333333333334</ele><time>2026-05-03T13:25:37.001Z</time></trkpt><trkpt lat="45.42396483423265" lon="10.57270192888478"><ele>102.0</ele><time>2026-05-03T13:25:38.001Z</time></trkpt><trkpt lat="45.424075142699486" lon="10.572485373021188"><ele>102.0</ele><time>2026-05-03T13:25:39.001Z</time></trkpt><trkpt lat="45.424190260052704" lon="10.572275882887011"><ele>102.0</ele><time>2026-05-03T13:25:40.001Z</time></trkpt><trkpt lat="45.42429547598103" lon="10.572065489239453"><ele>102.0</ele><time>2026-05-03T13:25:41.001Z</time></trkpt><trkpt lat="45.4244101003425" lon="10.571890246747754"><ele>102.0</ele><time>2026-05-03T13:25:42.001Z</time></trkpt><trkpt lat="45.424562377848666" lon="10.57175939230287"><ele>102.0</ele><time>2026-05-03T13:25:43.001Z</time></trkpt><trkpt lat="45.42470684267226" lon="10.571587393896882"><ele>102.0</ele><time>2026-05-03T13:25:44.001Z</time></trkpt><trkpt lat="45.42485215138725" lon="10.57140736800701"><ele>101.0</ele><time>2026-05-03T13:25:45.001Z</time></trkpt><trkpt lat="45.4249880768214" lon="10.571195142419436"><ele>100.0</ele><time>2026-05-03T13:25:46.001Z</time></trkpt><trkpt lat="45.425120226246555" lon="10.570983468573068"><ele>99.0</ele><time>2026-05-03T13:25:47.001Z</time></trkpt><trkpt lat="45.42523745224031" lon="10.570800968031058"><ele>98.33333333333334</ele><time>2026-05-03T13:25:48.001Z</time></trkpt><trkpt lat="45.42537569678351" lon="10.570635884205968"><ele>97.66666666666667</ele><time>2026-05-03T13:25:49.001Z</time></trkpt><trkpt lat="45.42554771027039" lon="10.570525158753592"><ele>97.0</ele><time>2026-05-03T13:25:50.001Z</time></trkpt><trkpt lat="45.425726512278544" lon="10.57046293635197"><ele>97.0</ele><time>2026-05-03T13:25:51.001Z</time></trkpt><trkpt lat="45.42587585958728" lon="10.57037405616126"><ele>97.0</ele><time>2026-05-03T13:25:52.001Z</time></trkpt><trkpt lat="45.42601080229818" lon="10.570268856421672"><ele>97.0</ele><time>2026-05-03T13:25:53.001Z</time></trkpt><trkpt lat="45.42613890313861" lon="10.570111326006892"><ele>97.33333333333334</ele><time>2026-05-03T13:25:54.001Z</time></trkpt><trkpt lat="45.42627203888048" lon="10.569934576668155"><ele>97.66666666666666</ele><time>2026-05-03T13:25:55.001Z</time></trkpt><trkpt lat="45.42639124943815" lon="10.56974292683671"><ele>98.0</ele><time>2026-05-03T13:25:56.001Z</time></trkpt><trkpt lat="45.426482796978455" lon="10.569556743513386"><ele>98.75</ele><time>2026-05-03T13:25:57.001Z</time></trkpt><trkpt lat="45.426565440068735" lon="10.569392780422637"><ele>99.5</ele><time>2026-05-03T13:25:58.001Z</time></trkpt><trkpt lat="45.42661922179585" lon="10.569227240959354"><ele>100.25</ele><time>2026-05-03T13:25:59.001Z</time></trkpt><trkpt lat="45.42662907337885" lon="10.569043027550823"><ele>101.0</ele><time>2026-05-03T13:26:00.001Z</time></trkpt><trkpt lat="45.426572471633776" lon="10.568864477408535"><ele>101.0</ele><time>2026-05-03T13:26:01.001Z</time></trkpt><trkpt lat="45.42647940064359" lon="10.568706099499565"><ele>101.0</ele><time>2026-05-03T13:26:02.001Z</time></trkpt><trkpt lat="45.42640989398789" lon="10.568532300248227"><ele>101.0</ele><time>2026-05-03T13:26:03.001Z</time></trkpt><trkpt lat="45.426385985062794" lon="10.56836200793028"><ele>101.0</ele><time>2026-05-03T13:26:04.001Z</time></trkpt><trkpt lat="45.42640803727233" lon="10.568190580576363"><ele>102.25</ele><time>2026-05-03T13:26:05.001Z</time></trkpt><trkpt lat="45.42646453478097" lon="10.568021016686458"><ele>103.5</ele><time>2026-05-03T13:26:06.001Z</time></trkpt><trkpt lat="45.426527581516076" lon="10.567844897972522"><ele>104.75</ele><time>2026-05-03T13:26:07.001Z</time></trkpt><trkpt lat="45.42658475372875" lon="10.567653892718155"><ele>106.0</ele><time>2026-05-03T13:26:08.001Z</time></trkpt><trkpt lat="45.4266747377844" lon="10.567461406712859"><ele>106.0</ele><time>2026-05-03T13:26:09.001Z</time></trkpt><trkpt lat="45.426752785548075" lon="10.567242374504053"><ele>106.0</ele><time>2026-05-03T13:26:10.001Z</time></trkpt><trkpt lat="45.42682785754107" lon="10.5670074782757"><ele>106.0</ele><time>2026-05-03T13:26:11.001Z</time></trkpt><trkpt lat="45.426877284406274" lon="10.566762137618879"><ele>104.66666666666667</ele><time>2026-05-03T13:26:12.001Z</time></trkpt><trkpt lat="45.426925486617215" lon="10.566515983683596"><ele>103.33333333333334</ele><time>2026-05-03T13:26:13.001Z</time></trkpt><trkpt lat="45.42697548492741" lon="10.56626055316477"><ele>102.0</ele><time>2026-05-03T13:26:14.001Z</time></trkpt><trkpt lat="45.42701984881486" lon="10.565999843155637"><ele>101.33333333333334</ele><time>2026-05-03T13:26:15.001Z</time></trkpt><trkpt lat="45.42704839870927" lon="10.56572812214582"><ele>100.66666666666667</ele><time>2026-05-03T13:26:16.001Z</time></trkpt><trkpt lat="45.42706688459057" lon="10.565449469786241"><ele>100.0</ele><time>2026-05-03T13:26:17.001Z</time></trkpt><trkpt lat="45.42708232979223" lon="10.565166638413888"><ele>100.0</ele><time>2026-05-03T13:26:18.001Z</time></trkpt><trkpt lat="45.427094976364515" lon="10.564886155111722"><ele>100.0</ele><time>2026-05-03T13:26:19.001Z</time></trkpt><trkpt lat="45.42710407615641" lon="10.564602579651183"><ele>100.0</ele><time>2026-05-03T13:26:20.001Z</time></trkpt><trkpt lat="45.42711845766266" lon="10.564318689175016"><ele>99.66666666666667</ele><time>2026-05-03T13:26:21.001Z</time></trkpt><trkpt lat="45.42712910138073" lon="10.56403844312108"><ele>99.33333333333334</ele><time>2026-05-03T13:26:22.001Z</time></trkpt><trkpt lat="45.427136664615006" lon="10.563755492119475"><ele>99.0</ele><time>2026-05-03T13:26:23.001Z</time></trkpt><trkpt lat="45.42715118971621" lon="10.563472859165552"><ele>101.0</ele><time>2026-05-03T13:26:24.001Z</time></trkpt><trkpt lat="45.427163942180734" lon="10.563192613386098"><ele>103.0</ele><time>2026-05-03T13:26:25.001Z</time></trkpt><trkpt lat="45.42718301604546" lon="10.562911959325577"><ele>105.0</ele><time>2026-05-03T13:26:26.001Z</time></trkpt><trkpt lat="45.42721433455405" lon="10.562636583416145"><ele>105.33333333333334</ele><time>2026-05-03T13:26:27.001Z</time></trkpt><trkpt lat="45.42726912796555" lon="10.562377098321852"><ele>105.66666666666667</ele><time>2026-05-03T13:26:28.001Z</time></trkpt><trkpt lat="45.42731267751478" lon="10.562116059219909"><ele>106.0</ele><time>2026-05-03T13:26:29.001Z</time></trkpt><trkpt lat="45.42734540334178" lon="10.561846271253845"><ele>105.33333333333334</ele><time>2026-05-03T13:26:30.001Z</time></trkpt><trkpt lat="45.4273657525481" lon="10.561567685443922"><ele>104.66666666666666</ele><time>2026-05-03T13:26:31.001Z</time></trkpt><trkpt lat="45.42737971171044" lon="10.561288546498188"><ele>104.0</ele><time>2026-05-03T13:26:32.001Z</time></trkpt><trkpt lat="45.42738309558019" lon="10.561004805081941"><ele>103.33333333333333</ele><time>2026-05-03T13:26:33.001Z</time></trkpt><trkpt lat="45.42738450220391" lon="10.560727641492438"><ele>102.66666666666666</ele><time>2026-05-03T13:26:34.001Z</time></trkpt><trkpt lat="45.42736794836656" lon="10.560446335438963"><ele>102.0</ele><time>2026-05-03T13:26:35.001Z</time></trkpt><trkpt lat="45.42733763241905" lon="10.56016767009177"><ele>101.33333333333334</ele><time>2026-05-03T13:26:36.001Z</time></trkpt><trkpt lat="45.42730638383436" lon="10.55990096838525"><ele>100.66666666666667</ele><time>2026-05-03T13:26:37.001Z</time></trkpt><trkpt lat="45.42728858236375" lon="10.559635349339816"><ele>100.0</ele><time>2026-05-03T13:26:38.001Z</time></trkpt><trkpt lat="45.427307353859725" lon="10.559365358034542"><ele>100.0</ele><time>2026-05-03T13:26:39.001Z</time></trkpt><trkpt lat="45.427357270805686" lon="10.559101652088188"><ele>100.0</ele><time>2026-05-03T13:26:40.001Z</time></trkpt><trkpt lat="45.427410644187795" lon="10.558839610281082"><ele>100.0</ele><time>2026-05-03T13:26:41.001Z</time></trkpt><trkpt lat="45.427480936793735" lon="10.558592142915556"><ele>100.0</ele><time>2026-05-03T13:26:42.001Z</time></trkpt><trkpt lat="45.42757196443603" lon="10.558357867771438"><ele>100.0</ele><time>2026-05-03T13:26:43.001Z</time></trkpt><trkpt lat="45.427695057982945" lon="10.558150729805705"><ele>100.0</ele><time>2026-05-03T13:26:44.001Z</time></trkpt><trkpt lat="45.427808590253846" lon="10.557926484516313"><ele>100.33333333333334</ele><time>2026-05-03T13:26:45.001Z</time></trkpt><trkpt lat="45.4279354537997" lon="10.557720432108662"><ele>100.66666666666666</ele><time>2026-05-03T13:26:46.001Z</time></trkpt><trkpt lat="45.42808161671939" lon="10.557532468057003"><ele>101.0</ele><time>2026-05-03T13:26:47.001Z</time></trkpt><trkpt lat="45.428215490016235" lon="10.557331397028946"><ele>101.0</ele><time>2026-05-03T13:26:48.001Z</time></trkpt><trkpt lat="45.4283507595947" lon="10.557125927404519"><ele>101.0</ele><time>2026-05-03T13:26:49.001Z</time></trkpt><trkpt lat="45.42847477767659" lon="10.556902526283935"><ele>101.0</ele><time>2026-05-03T13:26:50.001Z</time></trkpt><trkpt lat="45.42861312903393" lon="10.556695103837813"><ele>101.0</ele><time>2026-05-03T13:26:51.001Z</time></trkpt><trkpt lat="45.4287530175108" lon="10.556488905354877"><ele>101.0</ele><time>2026-05-03T13:26:52.001Z</time></trkpt><trkpt lat="45.42889054433854" lon="10.556279939684076"><ele>101.0</ele><time>2026-05-03T13:26:53.001Z</time></trkpt><trkpt lat="45.429023098248265" lon="10.55607022324622"><ele>101.0</ele><time>2026-05-03T13:26:54.001Z</time></trkpt><trkpt lat="45.429145490721844" lon="10.555851149702145"><ele>101.0</ele><time>2026-05-03T13:26:55.001Z</time></trkpt><trkpt lat="45.42927273074671" lon="10.555636466552743"><ele>101.0</ele><time>2026-05-03T13:26:56.001Z</time></trkpt><trkpt lat="45.429385343393506" lon="10.5554051592152"><ele>101.0</ele><time>2026-05-03T13:26:57.001Z</time></trkpt><trkpt lat="45.429488922141125" lon="10.555161578417591"><ele>101.0</ele><time>2026-05-03T13:26:58.001Z</time></trkpt><trkpt lat="45.429577816167" lon="10.554907589001699"><ele>101.0</ele><time>2026-05-03T13:26:59.001Z</time></trkpt><trkpt lat="45.42966268463956" lon="10.554649734671065"><ele>101.66666666666666</ele><time>2026-05-03T13:27:00.001Z</time></trkpt><trkpt lat="45.429744473750176" lon="10.55438783781367"><ele>102.33333333333334</ele><time>2026-05-03T13:27:01.001Z</time></trkpt><trkpt lat="45.429811042955066" lon="10.554121657202781"><ele>103.0</ele><time>2026-05-03T13:27:02.001Z</time></trkpt><trkpt lat="45.42989842115788" lon="10.553861752671098"><ele>102.33333333333334</ele><time>2026-05-03T13:27:03.001Z</time></trkpt><trkpt lat="45.42997726030134" lon="10.553598753726355"><ele>101.66666666666666</ele><time>2026-05-03T13:27:04.001Z</time></trkpt><trkpt lat="45.43005839019945" lon="10.553340232439544"><ele>101.0</ele><time>2026-05-03T13:27:05.001Z</time></trkpt><trkpt lat="45.430143864983826" lon="10.55308753788597"><ele>101.66666666666666</ele><time>2026-05-03T13:27:06.001Z</time></trkpt><trkpt lat="45.43023856717397" lon="10.552844362041094"><ele>102.33333333333334</ele><time>2026-05-03T13:27:07.001Z</time></trkpt><trkpt lat="45.430353941673374" lon="10.552626088227113"><ele>103.0</ele><time>2026-05-03T13:27:08.001Z</time></trkpt><trkpt lat="45.43050213274792" lon="10.552448937299083"><ele>103.0</ele><time>2026-05-03T13:27:09.001Z</time></trkpt><trkpt lat="45.43065360535802" lon="10.552271329774326"><ele>103.0</ele><time>2026-05-03T13:27:10.001Z</time></trkpt><trkpt lat="45.43079517768038" lon="10.552076543682835"><ele>103.0</ele><time>2026-05-03T13:27:11.001Z</time></trkpt><trkpt lat="45.43096160667481" lon="10.551916980718131"><ele>103.0</ele><time>2026-05-03T13:27:12.001Z</time></trkpt><trkpt lat="45.4311165564463" lon="10.551744420003462"><ele>103.0</ele><time>2026-05-03T13:27:13.001Z</time></trkpt><trkpt lat="45.431257121956385" lon="10.551586768102077"><ele>103.0</ele><time>2026-05-03T13:27:14.001Z</time></trkpt><trkpt lat="45.43138135583579" lon="10.551443186053987"><ele>104.33333333333334</ele><time>2026-05-03T13:27:15.001Z</time></trkpt><trkpt lat="45.43149908799174" lon="10.551307118356103"><ele>105.66666666666666</ele><time>2026-05-03T13:27:16.001Z</time></trkpt><trkpt lat="45.431629026422975" lon="10.551156957752916"><ele>107.0</ele><time>2026-05-03T13:27:17.001Z</time></trkpt><trkpt lat="45.431761869514645" lon="10.551003737551463"><ele>107.0</ele><time>2026-05-03T13:27:18.001Z</time></trkpt><trkpt lat="45.431904354515524" lon="10.550847414035836"><ele>107.0</ele><time>2026-05-03T13:27:19.001Z</time></trkpt><trkpt lat="45.432025230558814" lon="10.55072195537549"><ele>107.0</ele><time>2026-05-03T13:27:20.001Z</time></trkpt><trkpt lat="45.43213766149462" lon="10.550610328468037"><ele>107.25</ele><time>2026-05-03T13:27:21.001Z</time></trkpt><trkpt lat="45.43224310723331" lon="10.550510982908788"><ele>107.5</ele><time>2026-05-03T13:27:22.001Z</time></trkpt><trkpt lat="45.432360337836485" lon="10.550403655309912"><ele>107.75</ele><time>2026-05-03T13:27:23.001Z</time></trkpt><trkpt lat="45.43250085806562" lon="10.550279906875838"><ele>108.0</ele><time>2026-05-03T13:27:24.001Z</time></trkpt><trkpt lat="45.432641208844316" lon="10.550164613467155"><ele>108.0</ele><time>2026-05-03T13:27:25.001Z</time></trkpt><trkpt lat="45.43278599135125" lon="10.550045017267774"><ele>108.0</ele><time>2026-05-03T13:27:26.001Z</time></trkpt><trkpt lat="45.4329276040927" lon="10.549916380669508"><ele>108.0</ele><time>2026-05-03T13:27:27.001Z</time></trkpt><trkpt lat="45.43304636210964" lon="10.549790734186677"><ele>108.5</ele><time>2026-05-03T13:27:28.001Z</time></trkpt><trkpt lat="45.433145451847466" lon="10.549675927470497"><ele>109.0</ele><time>2026-05-03T13:27:29.001Z</time></trkpt><trkpt lat="45.4332258376862" lon="10.549569469771951"><ele>109.5</ele><time>2026-05-03T13:27:30.001Z</time></trkpt><trkpt lat="45.43330795936225" lon="10.549477481649195"><ele>110.0</ele><time>2026-05-03T13:27:31.001Z</time></trkpt><trkpt lat="45.43340368907807" lon="10.549379008002612"><ele>110.0</ele><time>2026-05-03T13:27:32.001Z</time></trkpt><trkpt lat="45.43351091255398" lon="10.549288174858841"><ele>110.0</ele><time>2026-05-03T13:27:33.001Z</time></trkpt><trkpt lat="45.433629228280566" lon="10.549180021296696"><ele>110.0</ele><time>2026-05-03T13:27:34.001Z</time></trkpt><trkpt lat="45.43377246984303" lon="10.549102787214023"><ele>110.0</ele><time>2026-05-03T13:27:35.001Z</time></trkpt><trkpt lat="45.43391804015508" lon="10.549016654106056"><ele>110.33333333333333</ele><time>2026-05-03T13:27:36.001Z</time></trkpt><trkpt lat="45.43405708070084" lon="10.548898177398055"><ele>110.66666666666666</ele><time>2026-05-03T13:27:37.001Z</time></trkpt><trkpt lat="45.4342096284751" lon="10.548786166325574"><ele>111.0</ele><time>2026-05-03T13:27:38.001Z</time></trkpt><trkpt lat="45.43435875155114" lon="10.548648219427992"><ele>111.0</ele><time>2026-05-03T13:27:39.001Z</time></trkpt><trkpt lat="45.4345073613559" lon="10.548490890950125"><ele>111.0</ele><time>2026-05-03T13:27:40.001Z</time></trkpt><trkpt lat="45.434647913736725" lon="10.54832587739594"><ele>111.0</ele><time>2026-05-03T13:27:41.001Z</time></trkpt><trkpt lat="45.434775320069555" lon="10.548163597718016"><ele>111.0</ele><time>2026-05-03T13:27:42.001Z</time></trkpt><trkpt lat="45.434889615640856" lon="10.548030434778713"><ele>111.0</ele><time>2026-05-03T13:27:43.001Z</time></trkpt><trkpt lat="45.435001154677714" lon="10.547898311193403"><ele>111.0</ele><time>2026-05-03T13:27:44.001Z</time></trkpt><trkpt lat="45.435138681398186" lon="10.547812086866015"><ele>111.0</ele><time>2026-05-03T13:27:45.001Z</time></trkpt><trkpt lat="45.43527706505441" lon="10.547728606504394"><ele>110.33333333333334</ele><time>2026-05-03T13:27:46.001Z</time></trkpt><trkpt lat="45.435436247941354" lon="10.54764661331841"><ele>109.66666666666667</ele><time>2026-05-03T13:27:47.001Z</time></trkpt><trkpt lat="45.43560467243637" lon="10.547565209346404"><ele>109.0</ele><time>2026-05-03T13:27:48.001Z</time></trkpt><trkpt lat="45.4357844897226" lon="10.547482987150882"><ele>108.66666666666667</ele><time>2026-05-03T13:27:49.001Z</time></trkpt><trkpt lat="45.43595585764643" lon="10.547368764264016"><ele>108.33333333333334</ele><time>2026-05-03T13:27:50.001Z</time></trkpt><trkpt lat="45.43612640379604" lon="10.547248121155231"><ele>108.0</ele><time>2026-05-03T13:27:51.001Z</time></trkpt><trkpt lat="45.43629428668103" lon="10.547105696359631"><ele>108.33333333333334</ele><time>2026-05-03T13:27:52.001Z</time></trkpt><trkpt lat="45.436473927842016" lon="10.546980954434561"><ele>108.66666666666667</ele><time>2026-05-03T13:27:53.001Z</time></trkpt><trkpt lat="45.436649479523716" lon="10.54686139001055"><ele>109.0</ele><time>2026-05-03T13:27:54.001Z</time></trkpt><trkpt lat="45.43683308800515" lon="10.546749464130226"><ele>109.0</ele><time>2026-05-03T13:27:55.001Z</time></trkpt><trkpt lat="45.4370175920342" lon="10.54663408816367"><ele>109.0</ele><time>2026-05-03T13:27:56.001Z</time></trkpt><trkpt lat="45.43720538413935" lon="10.546522563525931"><ele>109.0</ele><time>2026-05-03T13:27:57.001Z</time></trkpt><trkpt lat="45.43739962664212" lon="10.546412285359681"><ele>109.0</ele><time>2026-05-03T13:27:58.001Z</time></trkpt><trkpt lat="45.437595717541676" lon="10.546305884399581"><ele>109.0</ele><time>2026-05-03T13:27:59.001Z</time></trkpt><trkpt lat="45.43780397722029" lon="10.546228643234976"><ele>109.0</ele><time>2026-05-03T13:28:00.001Z</time></trkpt><trkpt lat="45.43799855021039" lon="10.546104331371454"><ele>109.0</ele><time>2026-05-03T13:28:01.001Z</time></trkpt><trkpt lat="45.43819969082737" lon="10.545987721041818"><ele>109.0</ele><time>2026-05-03T13:28:02.001Z</time></trkpt><trkpt lat="45.43839605963204" lon="10.545861683515742"><ele>109.0</ele><time>2026-05-03T13:28:03.001Z</time></trkpt><trkpt lat="45.43858827191707" lon="10.545719396672364"><ele>109.0</ele><time>2026-05-03T13:28:04.001Z</time></trkpt><trkpt lat="45.43878212734194" lon="10.545578318028028"><ele>109.0</ele><time>2026-05-03T13:28:05.001Z</time></trkpt><trkpt lat="45.438970498708244" lon="10.545438315310848"><ele>109.0</ele><time>2026-05-03T13:28:06.001Z</time></trkpt><trkpt lat="45.43915343168788" lon="10.545295144900376"><ele>108.33333333333334</ele><time>2026-05-03T13:28:07.001Z</time></trkpt><trkpt lat="45.43933814969044" lon="10.545147235495014"><ele>107.66666666666666</ele><time>2026-05-03T13:28:08.001Z</time></trkpt><trkpt lat="45.4395257596064" lon="10.544992489087736"><ele>107.0</ele><time>2026-05-03T13:28:09.001Z</time></trkpt><trkpt lat="45.439715944672955" lon="10.544836123488011"><ele>107.0</ele><time>2026-05-03T13:28:10.001Z</time></trkpt><trkpt lat="45.43990676206183" lon="10.544685100326694"><ele>107.0</ele><time>2026-05-03T13:28:11.001Z</time></trkpt><trkpt lat="45.44009419130863" lon="10.54454219081288"><ele>107.0</ele><time>2026-05-03T13:28:12.001Z</time></trkpt><trkpt lat="45.440277889452695" lon="10.544399944186722"><ele>106.66666666666666</ele><time>2026-05-03T13:28:13.001Z</time></trkpt><trkpt lat="45.44045866499171" lon="10.544259557210905"><ele>106.33333333333334</ele><time>2026-05-03T13:28:14.001Z</time></trkpt><trkpt lat="45.440637089620324" lon="10.544125777062366"><ele>106.0</ele><time>2026-05-03T13:28:15.001Z</time></trkpt><trkpt lat="45.440813460566616" lon="10.543997066405689"><ele>106.0</ele><time>2026-05-03T13:28:16.001Z</time></trkpt><trkpt lat="45.4409850464099" lon="10.543865589128266"><ele>106.0</ele><time>2026-05-03T13:28:17.001Z</time></trkpt><trkpt lat="45.44115287307876" lon="10.543732356697518"><ele>106.0</ele><time>2026-05-03T13:28:18.001Z</time></trkpt><trkpt lat="45.44131852273908" lon="10.543604083033902"><ele>105.66666666666667</ele><time>2026-05-03T13:28:19.001Z</time></trkpt><trkpt lat="45.44148088622477" lon="10.543469877055667"><ele>105.33333333333334</ele><time>2026-05-03T13:28:20.001Z</time></trkpt><trkpt lat="45.44164024528423" lon="10.543314476497716"><ele>105.0</ele><time>2026-05-03T13:28:21.001Z</time></trkpt><trkpt lat="45.44180279816329" lon="10.543147436456401"><ele>105.0</ele><time>2026-05-03T13:28:22.001Z</time></trkpt><trkpt lat="45.441929304424214" lon="10.5429116288676"><ele>105.0</ele><time>2026-05-03T13:28:23.001Z</time></trkpt><trkpt lat="45.44206963607276" lon="10.542696011317615"><ele>105.0</ele><time>2026-05-03T13:28:24.001Z</time></trkpt><trkpt lat="45.44219359363136" lon="10.542461213204733"><ele>106.0</ele><time>2026-05-03T13:28:25.001Z</time></trkpt><trkpt lat="45.44232031079408" lon="10.542217786139345"><ele>107.0</ele><time>2026-05-03T13:28:26.001Z</time></trkpt><trkpt lat="45.442433874159725" lon="10.541962729290772"><ele>108.0</ele><time>2026-05-03T13:28:27.001Z</time></trkpt><trkpt lat="45.44256057888142" lon="10.541718327788548"><ele>108.33333333333334</ele><time>2026-05-03T13:28:28.001Z</time></trkpt><trkpt lat="45.44268540837237" lon="10.541468920985608"><ele>108.66666666666667</ele><time>2026-05-03T13:28:29.001Z</time></trkpt><trkpt lat="45.44281305531094" lon="10.541220209618373"><ele>109.0</ele><time>2026-05-03T13:28:30.001Z</time></trkpt><trkpt lat="45.442939038700324" lon="10.540977138950186"><ele>109.0</ele><time>2026-05-03T13:28:31.001Z</time></trkpt><trkpt lat="45.44306107480685" lon="10.540735929304875"><ele>109.0</ele><time>2026-05-03T13:28:32.001Z</time></trkpt><trkpt lat="45.44318222267136" lon="10.540499903923378"><ele>109.0</ele><time>2026-05-03T13:28:33.001Z</time></trkpt><trkpt lat="45.44330258685497" lon="10.540268119075874"><ele>109.0</ele><time>2026-05-03T13:28:34.001Z</time></trkpt><trkpt lat="45.443420841415694" lon="10.540042074040478"><ele>109.0</ele><time>2026-05-03T13:28:35.001Z</time></trkpt><trkpt lat="45.44353382708985" lon="10.539818727847647"><ele>109.0</ele><time>2026-05-03T13:28:36.001Z</time></trkpt><trkpt lat="45.443636290669325" lon="10.53961806656945"><ele>108.66666666666667</ele><time>2026-05-03T13:28:37.001Z</time></trkpt><trkpt lat="45.44373081334234" lon="10.53944165989541"><ele>108.33333333333334</ele><time>2026-05-03T13:28:38.001Z</time></trkpt><trkpt lat="45.443831266898165" lon="10.539263685187308"><ele>108.0</ele><time>2026-05-03T13:28:39.001Z</time></trkpt><trkpt lat="45.44395765485372" lon="10.539110616990016"><ele>109.66666666666666</ele><time>2026-05-03T13:28:40.001Z</time></trkpt><trkpt lat="45.44410444927431" lon="10.538980504765714"><ele>111.33333333333333</ele><time>2026-05-03T13:28:41.001Z</time></trkpt><trkpt lat="45.44426282994763" lon="10.538883940175948"><ele>113.0</ele><time>2026-05-03T13:28:42.001Z</time></trkpt><trkpt lat="45.44444186111784" lon="10.538816931599541"><ele>112.66666666666666</ele><time>2026-05-03T13:28:43.001Z</time></trkpt><trkpt lat="45.444633589909365" lon="10.538811973309825"><ele>112.33333333333334</ele><time>2026-05-03T13:28:44.001Z</time></trkpt><trkpt lat="45.444830462083104" lon="10.538818330942219"><ele>112.0</ele><time>2026-05-03T13:28:45.001Z</time></trkpt><trkpt lat="45.445028913741616" lon="10.53881745097004"><ele>112.0</ele><time>2026-05-03T13:28:46.001Z</time></trkpt><trkpt lat="45.44523627832389" lon="10.538835982613788"><ele>112.0</ele><time>2026-05-03T13:28:47.001Z</time></trkpt><trkpt lat="45.44545146108317" lon="10.538857992675522"><ele>112.0</ele><time>2026-05-03T13:28:48.001Z</time></trkpt><trkpt lat="45.44567042267977" lon="10.538876522736803"><ele>109.5</ele><time>2026-05-03T13:28:49.001Z</time></trkpt><trkpt lat="45.44589788472061" lon="10.538893359814075"><ele>107.0</ele><time>2026-05-03T13:28:50.001Z</time></trkpt><trkpt lat="45.44612095812892" lon="10.538915116899906"><ele>106.0</ele><time>2026-05-03T13:28:51.001Z</time></trkpt><trkpt lat="45.44632807644719" lon="10.538937334786764"><ele>105.0</ele><time>2026-05-03T13:28:52.001Z</time></trkpt><trkpt lat="45.44653932869719" lon="10.538963233881619"><ele>104.0</ele><time>2026-05-03T13:28:53.001Z</time></trkpt><trkpt lat="45.4467523877071" lon="10.538972395122519"><ele>104.0</ele><time>2026-05-03T13:28:54.001Z</time></trkpt><trkpt lat="45.44696618250098" lon="10.538962954595492"><ele>104.0</ele><time>2026-05-03T13:28:55.001Z</time></trkpt><trkpt lat="45.44718192154769" lon="10.538921028031393"><ele>104.0</ele><time>2026-05-03T13:28:56.001Z</time></trkpt><trkpt lat="45.447399995444954" lon="10.53887365468095"><ele>104.0</ele><time>2026-05-03T13:28:57.001Z</time></trkpt><trkpt lat="45.447611054280074" lon="10.538773423743436"><ele>104.0</ele><time>2026-05-03T13:28:58.001Z</time></trkpt><trkpt lat="45.44781610888552" lon="10.53868695478025"><ele>104.0</ele><time>2026-05-03T13:28:59.001Z</time></trkpt><trkpt lat="45.44801932047408" lon="10.538628949083146"><ele>104.66666666666666</ele><time>2026-05-03T13:29:00.001Z</time></trkpt><trkpt lat="45.4482345846512" lon="10.538590510489898"><ele>105.33333333333334</ele><time>2026-05-03T13:29:01.001Z</time></trkpt><trkpt lat="45.448446154966284" lon="10.538535336137612"><ele>106.0</ele><time>2026-05-03T13:29:02.001Z</time></trkpt><trkpt lat="45.44864978657177" lon="10.538545994482632"><ele>104.66666666666667</ele><time>2026-05-03T13:29:03.001Z</time></trkpt><trkpt lat="45.448835542784714" lon="10.538552326961337"><ele>103.33333333333334</ele><time>2026-05-03T13:29:04.001Z</time></trkpt><trkpt lat="45.4490092434774" lon="10.53855810803128"><ele>102.0</ele><time>2026-05-03T13:29:05.001Z</time></trkpt><trkpt lat="45.44917619008088" lon="10.53854309811466"><ele>102.0</ele><time>2026-05-03T13:29:06.001Z</time></trkpt><trkpt lat="45.44934322558179" lon="10.538480971026999"><ele>102.0</ele><time>2026-05-03T13:29:07.001Z</time></trkpt><trkpt lat="45.44950685248655" lon="10.53837755281871"><ele>102.0</ele><time>2026-05-03T13:29:08.001Z</time></trkpt><trkpt lat="45.44967163531526" lon="10.538262692553968"><ele>102.0</ele><time>2026-05-03T13:29:09.001Z</time></trkpt><trkpt lat="45.449842881570625" lon="10.538133626269884"><ele>102.0</ele><time>2026-05-03T13:29:10.001Z</time></trkpt><trkpt lat="45.450026135978554" lon="10.538005793338177"><ele>102.0</ele><time>2026-05-03T13:29:11.001Z</time></trkpt><trkpt lat="45.450205280692465" lon="10.537870044230871"><ele>102.66666666666666</ele><time>2026-05-03T13:29:12.001Z</time></trkpt><trkpt lat="45.45039061803205" lon="10.537723984969958"><ele>103.33333333333333</ele><time>2026-05-03T13:29:13.001Z</time></trkpt><trkpt lat="45.45057713848075" lon="10.537594011470329"><ele>104.0</ele><time>2026-05-03T13:29:14.001Z</time></trkpt><trkpt lat="45.450769096794836" lon="10.537448930614516"><ele>102.66666666666666</ele><time>2026-05-03T13:29:15.001Z</time></trkpt><trkpt lat="45.45095360306591" lon="10.537307513340286"><ele>101.33333333333334</ele><time>2026-05-03T13:29:16.001Z</time></trkpt><trkpt lat="45.45113820411102" lon="10.537182584314868"><ele>100.0</ele><time>2026-05-03T13:29:17.001Z</time></trkpt><trkpt lat="45.45132787964152" lon="10.53709040547277"><ele>99.66666666666667</ele><time>2026-05-03T13:29:18.001Z</time></trkpt><trkpt lat="45.45151577486388" lon="10.53706193726699"><ele>99.33333333333334</ele><time>2026-05-03T13:29:19.001Z</time></trkpt><trkpt lat="45.4517101846528" lon="10.537055448339284"><ele>99.0</ele><time>2026-05-03T13:29:20.001Z</time></trkpt><trkpt lat="45.45191031578705" lon="10.537060076514035"><ele>99.0</ele><time>2026-05-03T13:29:21.001Z</time></trkpt><trkpt lat="45.45209330147314" lon="10.537057677539629"><ele>99.0</ele><time>2026-05-03T13:29:22.001Z</time></trkpt><trkpt lat="45.45226879963072" lon="10.5370569822042"><ele>99.0</ele><time>2026-05-03T13:29:23.001Z</time></trkpt><trkpt lat="45.45244964262744" lon="10.537031103572865"><ele>99.0</ele><time>2026-05-03T13:29:24.001Z</time></trkpt><trkpt lat="45.45262087413671" lon="10.536946015517557"><ele>99.0</ele><time>2026-05-03T13:29:25.001Z</time></trkpt><trkpt lat="45.45276649361706" lon="10.536823796768989"><ele>99.0</ele><time>2026-05-03T13:29:26.001Z</time></trkpt><trkpt lat="45.452896397759346" lon="10.53669826988026"><ele>98.25</ele><time>2026-05-03T13:29:27.001Z</time></trkpt><trkpt lat="45.453016759307474" lon="10.536574778937974"><ele>97.5</ele><time>2026-05-03T13:29:28.001Z</time></trkpt><trkpt lat="45.453133675897305" lon="10.536476609291642"><ele>96.75</ele><time>2026-05-03T13:29:29.001Z</time></trkpt><trkpt lat="45.45325754921859" lon="10.536466552505505"><ele>96.0</ele><time>2026-05-03T13:29:30.001Z</time></trkpt><trkpt lat="45.45335633024025" lon="10.536394709346558"><ele>96.0</ele><time>2026-05-03T13:29:31.001Z</time></trkpt><trkpt lat="45.45342370342089" lon="10.536267672186808"><ele>96.0</ele><time>2026-05-03T13:29:32.001Z</time></trkpt><trkpt lat="45.45345324912513" lon="10.536098310838216"><ele>96.0</ele><time>2026-05-03T13:29:33.001Z</time></trkpt><trkpt lat="45.453481781766186" lon="10.535922851410445"><ele>96.0</ele><time>2026-05-03T13:29:34.001Z</time></trkpt><trkpt lat="45.45356925085956" lon="10.535766612693198"><ele>96.33333333333334</ele><time>2026-05-03T13:29:35.001Z</time></trkpt><trkpt lat="45.45367606187017" lon="10.535621492629568"><ele>96.66666666666667</ele><time>2026-05-03T13:29:36.001Z</time></trkpt><trkpt lat="45.45377350396114" lon="10.5354569154161"><ele>97.0</ele><time>2026-05-03T13:29:37.001Z</time></trkpt><trkpt lat="45.453875821150724" lon="10.53527458005062"><ele>97.0</ele><time>2026-05-03T13:29:38.001Z</time></trkpt><trkpt lat="45.453986650586394" lon="10.535089455787288"><ele>97.0</ele><time>2026-05-03T13:29:39.001Z</time></trkpt><trkpt lat="45.45410758463096" lon="10.534908743050964"><ele>97.0</ele><time>2026-05-03T13:29:40.001Z</time></trkpt><trkpt lat="45.45422456221317" lon="10.534729049802266"><ele>98.0</ele><time>2026-05-03T13:29:41.001Z</time></trkpt><trkpt lat="45.454347516357124" lon="10.534538305647017"><ele>99.0</ele><time>2026-05-03T13:29:42.001Z</time></trkpt><trkpt lat="45.45448551351677" lon="10.534355818152692"><ele>100.0</ele><time>2026-05-03T13:29:43.001Z</time></trkpt><trkpt lat="45.454638961804214" lon="10.534196487611176"><ele>100.0</ele><time>2026-05-03T13:29:44.001Z</time></trkpt><trkpt lat="45.45480502065186" lon="10.534056065971248"><ele>100.0</ele><time>2026-05-03T13:29:45.001Z</time></trkpt><trkpt lat="45.454972494673385" lon="10.533905926867183"><ele>100.0</ele><time>2026-05-03T13:29:46.001Z</time></trkpt><trkpt lat="45.45514009664956" lon="10.533744570717584"><ele>100.66666666666667</ele><time>2026-05-03T13:29:47.001Z</time></trkpt><trkpt lat="45.45530960546354" lon="10.533587092771763"><ele>101.33333333333334</ele><time>2026-05-03T13:29:48.001Z</time></trkpt><trkpt lat="45.45547767034155" lon="10.533423102243846"><ele>102.0</ele><time>2026-05-03T13:29:49.001Z</time></trkpt><trkpt lat="45.455646439773375" lon="10.533253636059587"><ele>102.0</ele><time>2026-05-03T13:29:50.001Z</time></trkpt><trkpt lat="45.45580958705132" lon="10.533110931757614"><ele>102.0</ele><time>2026-05-03T13:29:51.001Z</time></trkpt><trkpt lat="45.45597168445892" lon="10.53300756345992"><ele>102.0</ele><time>2026-05-03T13:29:52.001Z</time></trkpt><trkpt lat="45.45614651139871" lon="10.532945221924862"><ele>101.0</ele><time>2026-05-03T13:29:53.001Z</time></trkpt><trkpt lat="45.456330898463065" lon="10.53289910910719"><ele>100.0</ele><time>2026-05-03T13:29:54.001Z</time></trkpt><trkpt lat="45.45651984745007" lon="10.532837643771702"><ele>99.0</ele><time>2026-05-03T13:29:55.001Z</time></trkpt><trkpt lat="45.456716730410655" lon="10.532778353245575"><ele>100.66666666666666</ele><time>2026-05-03T13:29:56.001Z</time></trkpt><trkpt lat="45.45691360840156" lon="10.532730024132778"><ele>102.33333333333333</ele><time>2026-05-03T13:29:57.001Z</time></trkpt><trkpt lat="45.457110217622706" lon="10.532690632803476"><ele>104.0</ele><time>2026-05-03T13:29:58.001Z</time></trkpt><trkpt lat="45.4573081942829" lon="10.532656176414422"><ele>104.0</ele><time>2026-05-03T13:29:59.001Z</time></trkpt><trkpt lat="45.45750452727391" lon="10.532617144119364"><ele>104.0</ele><time>2026-05-03T13:30:00.001Z</time></trkpt><trkpt lat="45.457686003281296" lon="10.53257614829109"><ele>104.0</ele><time>2026-05-03T13:30:01.001Z</time></trkpt><trkpt lat="45.45785153427685" lon="10.532552004699383"><ele>104.25</ele><time>2026-05-03T13:30:02.001Z</time></trkpt><trkpt lat="45.457986622311346" lon="10.532552222266446"><ele>104.5</ele><time>2026-05-03T13:30:03.001Z</time></trkpt><trkpt lat="45.45810965741128" lon="10.532573218141183"><ele>104.75</ele><time>2026-05-03T13:30:04.001Z</time></trkpt><trkpt lat="45.458221566822225" lon="10.532623623912707"><ele>105.0</ele><time>2026-05-03T13:30:05.001Z</time></trkpt><trkpt lat="45.45830986739728" lon="10.532725587035031"><ele>105.0</ele><time>2026-05-03T13:30:06.001Z</time></trkpt><trkpt lat="45.458381063405646" lon="10.532883292940292"><ele>105.0</ele><time>2026-05-03T13:30:07.001Z</time></trkpt><trkpt lat="45.45843221945077" lon="10.53308734491433"><ele>105.0</ele><time>2026-05-03T13:30:08.001Z</time></trkpt><trkpt lat="45.45848467638168" lon="10.533309647129322"><ele>105.0</ele><time>2026-05-03T13:30:09.001Z</time></trkpt><trkpt lat="45.45855057035974" lon="10.533522597850368"><ele>103.75</ele><time>2026-05-03T13:30:10.001Z</time></trkpt><trkpt lat="45.458607801128565" lon="10.53371250171544"><ele>102.5</ele><time>2026-05-03T13:30:11.001Z</time></trkpt><trkpt lat="45.4586620834869" lon="10.533898862733588"><ele>101.25</ele><time>2026-05-03T13:30:12.001Z</time></trkpt><trkpt lat="45.45872787497089" lon="10.534058354304998"><ele>100.0</ele><time>2026-05-03T13:30:13.001Z</time></trkpt><trkpt lat="45.45882282686885" lon="10.534180841167256"><ele>97.66666666666667</ele><time>2026-05-03T13:30:14.001Z</time></trkpt><trkpt lat="45.45894232800124" lon="10.534300876011406"><ele>95.33333333333334</ele><time>2026-05-03T13:30:15.001Z</time></trkpt><trkpt lat="45.45910019730466" lon="10.53433682899451"><ele>93.0</ele><time>2026-05-03T13:30:16.001Z</time></trkpt><trkpt lat="45.45926839770549" lon="10.534362833229888"><ele>93.0</ele><time>2026-05-03T13:30:17.001Z</time></trkpt><trkpt lat="45.45944209750251" lon="10.534367458630403"><ele>93.0</ele><time>2026-05-03T13:30:18.001Z</time></trkpt><trkpt lat="45.459606301313165" lon="10.53438651915458"><ele>93.0</ele><time>2026-05-03T13:30:19.001Z</time></trkpt><trkpt lat="45.45975420822448" lon="10.534303275785172"><ele>93.75</ele><time>2026-05-03T13:30:20.001Z</time></trkpt><trkpt lat="45.459885226306746" lon="10.534230172076576"><ele>94.5</ele><time>2026-05-03T13:30:21.001Z</time></trkpt><trkpt lat="45.46000719535854" lon="10.534179779240981"><ele>95.25</ele><time>2026-05-03T13:30:22.001Z</time></trkpt><trkpt lat="45.460128547515076" lon="10.534168361356205"><ele>96.0</ele><time>2026-05-03T13:30:23.001Z</time></trkpt><trkpt lat="45.46024299160925" lon="10.53421304706915"><ele>96.0</ele><time>2026-05-03T13:30:24.001Z</time></trkpt><trkpt lat="45.46035176978185" lon="10.534341602965723"><ele>96.0</ele><time>2026-05-03T13:30:25.001Z</time></trkpt><trkpt lat="45.46049045946166" lon="10.534437980018353"><ele>96.0</ele><time>2026-05-03T13:30:26.001Z</time></trkpt><trkpt lat="45.46063037234748" lon="10.53455908877308"><ele>96.8</ele><time>2026-05-03T13:30:27.001Z</time></trkpt><trkpt lat="45.460756238141336" lon="10.534664154346997"><ele>97.6</ele><time>2026-05-03T13:30:28.001Z</time></trkpt><trkpt lat="45.460860855268756" lon="10.534758127569285"><ele>98.4</ele><time>2026-05-03T13:30:29.001Z</time></trkpt><trkpt lat="45.46094774856792" lon="10.534842858537965"><ele>99.2</ele><time>2026-05-03T13:30:30.001Z</time></trkpt><trkpt lat="45.4609963657266" lon="10.53492184735608"><ele>100.0</ele><time>2026-05-03T13:30:31.001Z</time></trkpt><trkpt lat="45.461061796241914" lon="10.53496294638727"><ele>100.0</ele><time>2026-05-03T13:30:34.001Z</time></trkpt><trkpt lat="45.461124866545155" lon="10.534812428948786"><ele>100.0</ele><time>2026-05-03T13:30:36.001Z</time></trkpt><trkpt lat="45.46112985231039" lon="10.53469860272025"><ele>100.0</ele><time>2026-05-03T13:30:37.001Z</time></trkpt><trkpt lat="45.461163837867225" lon="10.53460621729807"><ele>100.0</ele><time>2026-05-03T13:30:38.001Z</time></trkpt><trkpt lat="45.461192563423545" lon="10.534505896351185"><ele>100.0</ele><time>2026-05-03T13:30:39.001Z</time></trkpt><trkpt lat="45.461261049531345" lon="10.534382354058842"><ele>100.75</ele><time>2026-05-03T13:30:41.001Z</time></trkpt><trkpt lat="45.46131492256341" lon="10.53425526335148"><ele>101.5</ele><time>2026-05-03T13:30:43.001Z</time></trkpt><trkpt lat="45.461213443323054" lon="10.53439461028472"><ele>102.25</ele><time>2026-05-03T13:30:45.001Z</time></trkpt><trkpt lat="45.461139148023506" lon="10.534374310831128"><ele>103.0</ele><time>2026-05-03T13:40:31Z</time></trkpt><trkpt lat="45.46130070321754" lon="10.534288807708206"><ele>103.0</ele><time>2026-05-03T13:40:35Z</time></trkpt><trkpt lat="45.46133407229256" lon="10.534210087455767"><ele>103.0</ele><time>2026-05-03T13:40:38Z</time></trkpt><trkpt lat="45.46114985454146" lon="10.533991497225097"><ele>103.0</ele><time>2026-05-03T13:40:41Z</time></trkpt><trkpt lat="45.46119374747522" lon="10.533911033511266"><ele>103.0</ele><time>2026-05-03T13:40:48Z</time></trkpt><trkpt lat="45.46125163599914" lon="10.533800444898407"><ele>103.0</ele><time>2026-05-03T13:40:51Z</time></trkpt><trkpt lat="45.461272789132074" lon="10.53371500296291"><ele>103.0</ele><time>2026-05-03T13:40:53Z</time></trkpt><trkpt lat="45.46130300092996" lon="10.53362685294993"><ele>103.0</ele><time>2026-05-03T13:40:55Z</time></trkpt><trkpt lat="45.461336486765944" lon="10.533536558214102"><ele>103.0</ele><time>2026-05-03T13:40:58Z</time></trkpt><trkpt lat="45.46136012015749" lon="10.53369039667319"><ele>103.0</ele><time>2026-05-03T13:52:59.232Z</time></trkpt><trkpt lat="45.46131692409714" lon="10.534023401847552"><ele>101.0</ele><time>2026-05-03T13:59:14.357Z</time></trkpt><trkpt lat="45.461170975335165" lon="10.534362124804371"><ele>99.0</ele><time>2026-05-03T14:00:57.078Z</time></trkpt><trkpt lat="45.46112412854805" lon="10.53442236490919"><ele>97.0</ele><time>2026-05-03T14:01:03.542Z</time></trkpt><trkpt lat="45.46124488907728" lon="10.534374456442615"><ele>97.0</ele><time>2026-05-03T14:01:09.824Z</time></trkpt><trkpt lat="45.461289316510886" lon="10.534142511095498"><ele>97.0</ele><time>2026-05-03T14:02:00.592Z</time></trkpt><trkpt lat="45.46126267686504" lon="10.534232889399247"><ele>97.0</ele><time>2026-05-03T14:07:48.416Z</time></trkpt><trkpt lat="45.46124535904069" lon="10.53409060960369"><ele>97.0</ele><time>2026-05-03T14:36:05.255Z</time></trkpt><trkpt lat="45.46129882115677" lon="10.53417983495358"><ele>97.0</ele><time>2026-05-03T14:58:53.001Z</time></trkpt><trkpt lat="45.46131747485036" lon="10.534266537668097"><ele>97.00000000000001</ele><time>2026-05-03T14:58:59.001Z</time></trkpt><trkpt lat="45.46125388333333" lon="10.534351116666668"><ele>97.0</ele><time>2026-05-03T15:00:45.688Z</time></trkpt><trkpt lat="45.46118638333334" lon="10.534496116666665"><ele>97.0</ele><time>2026-05-03T15:00:47.672Z</time></trkpt><trkpt lat="45.461153883333324" lon="10.53459805"><ele>97.0</ele><time>2026-05-03T15:00:48.674Z</time></trkpt><trkpt lat="45.461110568256956" lon="10.534697018863096"><ele>97.00000000000001</ele><time>2026-05-03T15:00:49.671Z</time></trkpt><trkpt lat="45.46110388333334" lon="10.534799999999999"><ele>97.0</ele><time>2026-05-03T15:00:50.686Z</time></trkpt><trkpt lat="45.461033050000005" lon="10.534892216666668"><ele>97.0</ele><time>2026-05-03T15:00:52.67Z</time></trkpt><trkpt lat="45.46093342469519" lon="10.534793296280267"><ele>97.0</ele><time>2026-05-03T15:00:54.672Z</time></trkpt><trkpt lat="45.46084971666667" lon="10.53473445"><ele>97.0</ele><time>2026-05-03T15:00:55.675Z</time></trkpt><trkpt lat="45.46076138333333" lon="10.534653333333331"><ele>97.0</ele><time>2026-05-03T15:00:56.676Z</time></trkpt><trkpt lat="45.460663049999994" lon="10.53456805"><ele>97.0</ele><time>2026-05-03T15:00:57.672Z</time></trkpt><trkpt lat="45.46056" lon="10.53447945"><ele>97.0</ele><time>2026-05-03T15:00:58.678Z</time></trkpt><trkpt lat="45.46045778333334" lon="10.534388616666668"><ele>97.0</ele><time>2026-05-03T15:00:59.673Z</time></trkpt><trkpt lat="45.460358049999996" lon="10.534297783333333"><ele>97.0</ele><time>2026-05-03T15:01:00.673Z</time></trkpt><trkpt lat="45.460260283333334" lon="10.534217499999999"><ele>97.0</ele><time>2026-05-03T15:01:01.685Z</time></trkpt><trkpt lat="45.46015778333334" lon="10.534160550000001"><ele>96.8</ele><time>2026-05-03T15:01:02.687Z</time></trkpt><trkpt lat="45.46005333333333" lon="10.53414195"><ele>96.6</ele><time>2026-05-03T15:01:03.687Z</time></trkpt><trkpt lat="45.45994999999999" lon="10.534169716666668"><ele>96.39999999999999</ele><time>2026-05-03T15:01:04.675Z</time></trkpt><trkpt lat="45.459842783333336" lon="10.534218883333333"><ele>96.19999999999999</ele><time>2026-05-03T15:01:05.674Z</time></trkpt><trkpt lat="45.45973000000001" lon="10.534274999999997"><ele>96.0</ele><time>2026-05-03T15:01:06.675Z</time></trkpt><trkpt lat="45.45961278333333" lon="10.534324716666665"><ele>95.25</ele><time>2026-05-03T15:01:07.673Z</time></trkpt><trkpt lat="45.459485550000004" lon="10.53435055"><ele>94.5</ele><time>2026-05-03T15:01:08.677Z</time></trkpt><trkpt lat="45.45935055" lon="10.534347216666667"><ele>93.75</ele><time>2026-05-03T15:01:09.676Z</time></trkpt><trkpt lat="45.45921195" lon="10.53433195"><ele>93.0</ele><time>2026-05-03T15:01:10.677Z</time></trkpt><trkpt lat="45.4590775" lon="10.534308333333335"><ele>93.0</ele><time>2026-05-03T15:01:11.673Z</time></trkpt><trkpt lat="45.45895528333334" lon="10.53426305"><ele>93.0</ele><time>2026-05-03T15:01:12.677Z</time></trkpt><trkpt lat="45.458849166666674" lon="10.5341825"><ele>93.0</ele><time>2026-05-03T15:01:13.672Z</time></trkpt><trkpt lat="45.45876166666667" lon="10.534065833333335"><ele>93.0</ele><time>2026-05-03T15:01:14.674Z</time></trkpt><trkpt lat="45.45869638333333" lon="10.533919166666665"><ele>93.25</ele><time>2026-05-03T15:01:15.684Z</time></trkpt><trkpt lat="45.45864805" lon="10.533755283333335"><ele>93.5</ele><time>2026-05-03T15:01:16.678Z</time></trkpt><trkpt lat="45.45860055" lon="10.533586383333333"><ele>93.75</ele><time>2026-05-03T15:01:17.675Z</time></trkpt><trkpt lat="45.45855138333333" lon="10.533414166666669"><ele>94.0</ele><time>2026-05-03T15:01:18.678Z</time></trkpt><trkpt lat="45.45850388333333" lon="10.533248050000003"><ele>95.0</ele><time>2026-05-03T15:01:19.671Z</time></trkpt><trkpt lat="45.45845944999999" lon="10.533093333333333"><ele>96.0</ele><time>2026-05-03T15:01:20.676Z</time></trkpt><trkpt lat="45.458421666666666" lon="10.532953333333335"><ele>97.0</ele><time>2026-05-03T15:01:21.671Z</time></trkpt><trkpt lat="45.45839861666666" lon="10.532841116666669"><ele>98.0</ele><time>2026-05-03T15:01:22.672Z</time></trkpt><trkpt lat="45.458391116666654" lon="10.532737216666664"><ele>99.00000000000001</ele><time>2026-05-03T15:01:23.675Z</time></trkpt><trkpt lat="45.45839805000001" lon="10.532641950000002"><ele>100.0</ele><time>2026-05-03T15:01:24.672Z</time></trkpt><trkpt lat="45.45838888333333" lon="10.53248583333333"><ele>100.66666666666667</ele><time>2026-05-03T15:01:26.674Z</time></trkpt><trkpt lat="45.458298049999996" lon="10.53241833333333"><ele>101.33333333333334</ele><time>2026-05-03T15:01:28.677Z</time></trkpt><trkpt lat="45.45823083333333" lon="10.532444449999998"><ele>102.0</ele><time>2026-05-03T15:01:29.674Z</time></trkpt><trkpt lat="45.458152500000004" lon="10.532473616666667"><ele>102.66666666666666</ele><time>2026-05-03T15:01:30.676Z</time></trkpt><trkpt lat="45.45806388333334" lon="10.532497499999998"><ele>103.33333333333333</ele><time>2026-05-03T15:01:31.677Z</time></trkpt><trkpt lat="45.45796528333334" lon="10.532510283333332"><ele>104.0</ele><time>2026-05-03T15:01:32.676Z</time></trkpt><trkpt lat="45.457859166666665" lon="10.532518333333334"><ele>104.0</ele><time>2026-05-03T15:01:33.674Z</time></trkpt><trkpt lat="45.457747783333325" lon="10.532534716666666"><ele>104.0</ele><time>2026-05-03T15:01:34.671Z</time></trkpt><trkpt lat="45.45763028333334" lon="10.532556116666667"><ele>104.0</ele><time>2026-05-03T15:01:35.676Z</time></trkpt><trkpt lat="45.45750695" lon="10.532578883333333"><ele>104.0</ele><time>2026-05-03T15:01:36.677Z</time></trkpt><trkpt lat="45.457377783333335" lon="10.532603616666666"><ele>104.0</ele><time>2026-05-03T15:01:37.674Z</time></trkpt><trkpt lat="45.457243616666666" lon="10.532631116666668"><ele>104.0</ele><time>2026-05-03T15:01:38.679Z</time></trkpt><trkpt lat="45.45710528333334" lon="10.532660833333333"><ele>104.0</ele><time>2026-05-03T15:01:39.676Z</time></trkpt><trkpt lat="45.456962499999996" lon="10.532689450000001"><ele>104.0</ele><time>2026-05-03T15:01:40.674Z</time></trkpt><trkpt lat="45.456815549999995" lon="10.532719716666668"><ele>104.33333333333333</ele><time>2026-05-03T15:01:41.677Z</time></trkpt><trkpt lat="45.456666116666675" lon="10.53275445"><ele>104.66666666666666</ele><time>2026-05-03T15:01:42.679Z</time></trkpt><trkpt lat="45.456513616666676" lon="10.532796383333334"><ele>105.0</ele><time>2026-05-03T15:01:43.679Z</time></trkpt><trkpt lat="45.45635945" lon="10.532845550000001"><ele>104.0</ele><time>2026-05-03T15:01:44.684Z</time></trkpt><trkpt lat="45.456206949999995" lon="10.532898049999998"><ele>103.0</ele><time>2026-05-03T15:01:45.676Z</time></trkpt><trkpt lat="45.4560575" lon="10.532951383333334"><ele>102.0</ele><time>2026-05-03T15:01:46.675Z</time></trkpt><trkpt lat="45.455913333333335" lon="10.533017783333332"><ele>102.0</ele><time>2026-05-03T15:01:47.673Z</time></trkpt><trkpt lat="45.45577611666666" lon="10.533105833333332"><ele>102.0</ele><time>2026-05-03T15:01:48.674Z</time></trkpt><trkpt lat="45.45564721666666" lon="10.533215833333335"><ele>102.0</ele><time>2026-05-03T15:01:49.677Z</time></trkpt><trkpt lat="45.45552305" lon="10.533339999999997"><ele>102.0</ele><time>2026-05-03T15:01:50.675Z</time></trkpt><trkpt lat="45.45539721666667" lon="10.53346555"><ele>102.0</ele><time>2026-05-03T15:01:51.679Z</time></trkpt><trkpt lat="45.455268049999994" lon="10.53359"><ele>102.0</ele><time>2026-05-03T15:01:52.677Z</time></trkpt><trkpt lat="45.45513583333334" lon="10.533712783333332"><ele>101.33333333333334</ele><time>2026-05-03T15:01:53.681Z</time></trkpt><trkpt lat="45.455001949999996" lon="10.533836383333334"><ele>100.66666666666667</ele><time>2026-05-03T15:01:54.676Z</time></trkpt><trkpt lat="45.45486638333333" lon="10.533962216666666"><ele>100.0</ele><time>2026-05-03T15:01:55.676Z</time></trkpt><trkpt lat="45.45473028333334" lon="10.534089449999998"><ele>100.33333333333334</ele><time>2026-05-03T15:01:56.677Z</time></trkpt><trkpt lat="45.45459666666667" lon="10.53421555"><ele>100.66666666666666</ele><time>2026-05-03T15:01:57.676Z</time></trkpt><trkpt lat="45.45446888333333" lon="10.534345283333334"><ele>101.0</ele><time>2026-05-03T15:01:58.676Z</time></trkpt><trkpt lat="45.45434971666667" lon="10.534487216666665"><ele>99.66666666666666</ele><time>2026-05-03T15:01:59.677Z</time></trkpt><trkpt lat="45.45423833333333" lon="10.534645000000001"><ele>98.33333333333334</ele><time>2026-05-03T15:02:00.677Z</time></trkpt><trkpt lat="45.45413083333333" lon="10.534813616666668"><ele>97.0</ele><time>2026-05-03T15:02:01.673Z</time></trkpt><trkpt lat="45.45402278333332" lon="10.53498805"><ele>97.0</ele><time>2026-05-03T15:02:02.684Z</time></trkpt><trkpt lat="45.45391221666667" lon="10.535164449999998"><ele>97.0</ele><time>2026-05-03T15:02:03.676Z</time></trkpt><trkpt lat="45.45380083333333" lon="10.535342783333332"><ele>97.0</ele><time>2026-05-03T15:02:04.672Z</time></trkpt><trkpt lat="45.45369195" lon="10.53551805"><ele>98.0</ele><time>2026-05-03T15:02:05.673Z</time></trkpt><trkpt lat="45.453407500000004" lon="10.535973616666668"><ele>99.0</ele><time>2026-05-03T15:02:08.064Z</time></trkpt><trkpt lat="45.453311666666664" lon="10.536076383333333"><ele>99.0</ele><time>2026-05-03T15:02:09.675Z</time></trkpt><trkpt lat="45.45319708940267" lon="10.536117456847572"><ele>99.0</ele><time>2026-05-03T15:02:10.674Z</time></trkpt><trkpt lat="45.45313278333333" lon="10.536257499999998"><ele>99.0</ele><time>2026-05-03T15:02:11.676Z</time></trkpt><trkpt lat="45.45306999999999" lon="10.536371383333336"><ele>99.0</ele><time>2026-05-03T15:02:12.676Z</time></trkpt><trkpt lat="45.452898616666666" lon="10.536598616666666"><ele>99.0</ele><time>2026-05-03T15:02:14.689Z</time></trkpt><trkpt lat="45.45279166666666" lon="10.536686383333333"><ele>99.0</ele><time>2026-05-03T15:02:15.683Z</time></trkpt><trkpt lat="45.45268166666666" lon="10.536753883333331"><ele>99.0</ele><time>2026-05-03T15:02:16.671Z</time></trkpt><trkpt lat="45.45257195000001" lon="10.536798050000002"><ele>99.0</ele><time>2026-05-03T15:02:17.671Z</time></trkpt><trkpt lat="45.45245971666667" lon="10.536812783333335"><ele>99.0</ele><time>2026-05-03T15:02:18.674Z</time></trkpt><trkpt lat="45.452349716666674" lon="10.536790833333335"><ele>99.0</ele><time>2026-05-03T15:02:19.692Z</time></trkpt><trkpt lat="45.45224861666667" lon="10.536731666666666"><ele>99.0</ele><time>2026-05-03T15:02:20.677Z</time></trkpt><trkpt lat="45.45216721666667" lon="10.536638883333334"><ele>99.0</ele><time>2026-05-03T15:02:21.674Z</time></trkpt><trkpt lat="45.452110833333336" lon="10.53652055"><ele>99.0</ele><time>2026-05-03T15:02:22.671Z</time></trkpt><trkpt lat="45.452081116666676" lon="10.53638555"><ele>99.0</ele><time>2026-05-03T15:02:23.677Z</time></trkpt><trkpt lat="45.45207833333334" lon="10.53624805"><ele>99.0</ele><time>2026-05-03T15:02:24.688Z</time></trkpt><trkpt lat="45.452095549999996" lon="10.536119166666667"><ele>99.0</ele><time>2026-05-03T15:02:25.673Z</time></trkpt><trkpt lat="45.45208770587194" lon="10.535995125055072"><ele>99.0</ele><time>2026-05-03T15:02:26.683Z</time></trkpt><trkpt lat="45.45209224526251" lon="10.535880916345052"><ele>99.0</ele><time>2026-05-03T15:02:27.677Z</time></trkpt><trkpt lat="45.452171666666665" lon="10.535774716666666"><ele>99.0</ele><time>2026-05-03T15:02:28.674Z</time></trkpt><trkpt lat="45.452197216666676" lon="10.535663883333333"><ele>99.0</ele><time>2026-05-03T15:02:29.673Z</time></trkpt><trkpt lat="45.45222305000001" lon="10.53554805"><ele>99.0</ele><time>2026-05-03T15:02:30.675Z</time></trkpt><trkpt lat="45.452251116666666" lon="10.535419166666669"><ele>99.0</ele><time>2026-05-03T15:02:31.679Z</time></trkpt><trkpt lat="45.4522825" lon="10.535255833333334"><ele>99.0</ele><time>2026-05-03T15:02:32.675Z</time></trkpt><trkpt lat="45.4523175" lon="10.535069716666666"><ele>99.33333333333334</ele><time>2026-05-03T15:02:33.673Z</time></trkpt><trkpt lat="45.452355283333326" lon="10.534870000000002"><ele>99.66666666666667</ele><time>2026-05-03T15:02:34.673Z</time></trkpt><trkpt lat="45.45239778333333" lon="10.534663883333334"><ele>100.0</ele><time>2026-05-03T15:02:35.678Z</time></trkpt><trkpt lat="45.45244445" lon="10.534453333333333"><ele>101.0</ele><time>2026-05-03T15:02:36.687Z</time></trkpt><trkpt lat="45.452494449999996" lon="10.534239999999999"><ele>102.0</ele><time>2026-05-03T15:02:37.674Z</time></trkpt><trkpt lat="45.45254583333334" lon="10.534023333333334"><ele>103.0</ele><time>2026-05-03T15:02:38.675Z</time></trkpt><trkpt lat="45.452597499999996" lon="10.533805"><ele>103.66666666666667</ele><time>2026-05-03T15:02:39.674Z</time></trkpt><trkpt lat="45.45264999999999" lon="10.533587216666668"><ele>104.33333333333334</ele><time>2026-05-03T15:02:40.672Z</time></trkpt><trkpt lat="45.45270361666667" lon="10.533372499999999"><ele>105.0</ele><time>2026-05-03T15:02:41.686Z</time></trkpt><trkpt lat="45.45275861666667" lon="10.533161116666667"><ele>105.0</ele><time>2026-05-03T15:02:42.678Z</time></trkpt><trkpt lat="45.45281555" lon="10.532953333333335"><ele>105.0</ele><time>2026-05-03T15:02:43.674Z</time></trkpt><trkpt lat="45.45287388333333" lon="10.532749716666668"><ele>105.0</ele><time>2026-05-03T15:02:44.672Z</time></trkpt><trkpt lat="45.45293333333334" lon="10.532551116666665"><ele>105.25</ele><time>2026-05-03T15:02:45.684Z</time></trkpt><trkpt lat="45.45299333333334" lon="10.532358883333332"><ele>105.5</ele><time>2026-05-03T15:02:46.677Z</time></trkpt><trkpt lat="45.453053333333344" lon="10.53217195"><ele>105.75</ele><time>2026-05-03T15:02:47.672Z</time></trkpt><trkpt lat="45.45311388333333" lon="10.531989716666665"><ele>106.0</ele><time>2026-05-03T15:02:48.676Z</time></trkpt><trkpt lat="45.45317611666666" lon="10.531807783333333"><ele>107.33333333333334</ele><time>2026-05-03T15:02:49.678Z</time></trkpt><trkpt lat="45.453241383333335" lon="10.531620833333333"><ele>108.66666666666666</ele><time>2026-05-03T15:02:50.685Z</time></trkpt><trkpt lat="45.45330971666667" lon="10.531428883333335"><ele>110.0</ele><time>2026-05-03T15:02:51.675Z</time></trkpt><trkpt lat="45.45337944999999" lon="10.5312325"><ele>111.66666666666666</ele><time>2026-05-03T15:02:52.674Z</time></trkpt><trkpt lat="45.453454449999995" lon="10.531023883333335"><ele>113.33333333333334</ele><time>2026-05-03T15:02:53.682Z</time></trkpt><trkpt lat="45.453531383333335" lon="10.530810283333336"><ele>115.0</ele><time>2026-05-03T15:02:54.676Z</time></trkpt><trkpt lat="45.45361249999999" lon="10.530585833333335"><ele>116.33333333333334</ele><time>2026-05-03T15:02:55.673Z</time></trkpt><trkpt lat="45.45369611666666" lon="10.530353333333334"><ele>117.66666666666666</ele><time>2026-05-03T15:02:56.676Z</time></trkpt><trkpt lat="45.45378166666666" lon="10.530116666666666"><ele>119.0</ele><time>2026-05-03T15:02:57.674Z</time></trkpt><trkpt lat="45.453867499999994" lon="10.529880833333335"><ele>119.0</ele><time>2026-05-03T15:02:58.676Z</time></trkpt><trkpt lat="45.45395305" lon="10.529651116666667"><ele>119.0</ele><time>2026-05-03T15:02:59.674Z</time></trkpt><trkpt lat="45.45403611666667" lon="10.529426666666666"><ele>119.0</ele><time>2026-05-03T15:03:00.675Z</time></trkpt><trkpt lat="45.45411666666667" lon="10.529207216666668"><ele>119.0</ele><time>2026-05-03T15:03:01.675Z</time></trkpt><trkpt lat="45.454195283333334" lon="10.528992783333335"><ele>119.0</ele><time>2026-05-03T15:03:02.676Z</time></trkpt><trkpt lat="45.45427278333333" lon="10.528779716666667"><ele>119.0</ele><time>2026-05-03T15:03:03.675Z</time></trkpt><trkpt lat="45.454350833333336" lon="10.528565833333335"><ele>120.0</ele><time>2026-05-03T15:03:04.676Z</time></trkpt><trkpt lat="45.45442805" lon="10.528356116666664"><ele>121.0</ele><time>2026-05-03T15:03:05.672Z</time></trkpt><trkpt lat="45.45450416666666" lon="10.52814945"><ele>122.0</ele><time>2026-05-03T15:03:06.674Z</time></trkpt><trkpt lat="45.45457778333333" lon="10.527950283333332"><ele>120.33333333333333</ele><time>2026-05-03T15:03:07.677Z</time></trkpt><trkpt lat="45.45465028333333" lon="10.527755283333335"><ele>118.66666666666666</ele><time>2026-05-03T15:03:08.674Z</time></trkpt><trkpt lat="45.454722216666674" lon="10.527561116666666"><ele>117.0</ele><time>2026-05-03T15:03:09.678Z</time></trkpt><trkpt lat="45.45479388333333" lon="10.527368883333335"><ele>117.0</ele><time>2026-05-03T15:03:10.674Z</time></trkpt><trkpt lat="45.45486721666666" lon="10.52717305"><ele>117.0</ele><time>2026-05-03T15:03:11.671Z</time></trkpt><trkpt lat="45.45494361666667" lon="10.526968333333333"><ele>117.0</ele><time>2026-05-03T15:03:12.677Z</time></trkpt><trkpt lat="45.455023883333325" lon="10.526751383333332"><ele>118.66666666666666</ele><time>2026-05-03T15:03:13.671Z</time></trkpt><trkpt lat="45.45510611666667" lon="10.526527216666667"><ele>120.33333333333333</ele><time>2026-05-03T15:03:14.675Z</time></trkpt><trkpt lat="45.45519278333333" lon="10.526295833333332"><ele>122.0</ele><time>2026-05-03T15:03:15.677Z</time></trkpt><trkpt lat="45.45528666666667" lon="10.52605945"><ele>122.0</ele><time>2026-05-03T15:03:16.677Z</time></trkpt><trkpt lat="45.45537721666666" lon="10.525809166666667"><ele>122.0</ele><time>2026-05-03T15:03:17.677Z</time></trkpt><trkpt lat="45.45547166666667" lon="10.525557216666668"><ele>122.0</ele><time>2026-05-03T15:03:18.674Z</time></trkpt><trkpt lat="45.45557945" lon="10.525325549999998"><ele>120.0</ele><time>2026-05-03T15:03:19.677Z</time></trkpt><trkpt lat="45.45569416666667" lon="10.525105283333335"><ele>118.0</ele><time>2026-05-03T15:03:20.673Z</time></trkpt><trkpt lat="45.45581638333333" lon="10.524896666666665"><ele>116.0</ele><time>2026-05-03T15:03:21.673Z</time></trkpt><trkpt lat="45.45594805" lon="10.524698616666667"><ele>117.0</ele><time>2026-05-03T15:03:22.674Z</time></trkpt><trkpt lat="45.456085550000005" lon="10.524505833333334"><ele>118.0</ele><time>2026-05-03T15:03:23.674Z</time></trkpt><trkpt lat="45.456226116666656" lon="10.524316383333332"><ele>119.0</ele><time>2026-05-03T15:03:24.675Z</time></trkpt><trkpt lat="45.4563725" lon="10.52413195"><ele>119.33333333333333</ele><time>2026-05-03T15:03:25.676Z</time></trkpt><trkpt lat="45.45652138333333" lon="10.523945833333334"><ele>119.66666666666666</ele><time>2026-05-03T15:03:26.674Z</time></trkpt><trkpt lat="45.4566725" lon="10.523756949999997"><ele>120.0</ele><time>2026-05-03T15:03:27.674Z</time></trkpt><trkpt lat="45.45682471666667" lon="10.523566666666666"><ele>120.0</ele><time>2026-05-03T15:03:28.674Z</time></trkpt><trkpt lat="45.45698945" lon="10.5233525"><ele>120.0</ele><time>2026-05-03T15:03:29.673Z</time></trkpt><trkpt lat="45.45712083333333" lon="10.52316805"><ele>120.0</ele><time>2026-05-03T15:03:30.689Z</time></trkpt><trkpt lat="45.45725528333334" lon="10.522955833333333"><ele>120.33333333333334</ele><time>2026-05-03T15:03:31.673Z</time></trkpt><trkpt lat="45.457377783333335" lon="10.522737216666666"><ele>120.66666666666667</ele><time>2026-05-03T15:03:32.672Z</time></trkpt><trkpt lat="45.45748666666666" lon="10.522512216666668"><ele>121.0</ele><time>2026-05-03T15:03:33.676Z</time></trkpt><trkpt lat="45.45758304999999" lon="10.522278333333334"><ele>121.33333333333334</ele><time>2026-05-03T15:03:34.679Z</time></trkpt><trkpt lat="45.45767000000001" lon="10.52203445"><ele>121.66666666666666</ele><time>2026-05-03T15:03:35.674Z</time></trkpt><trkpt lat="45.45774804999999" lon="10.521779716666666"><ele>122.0</ele><time>2026-05-03T15:03:36.676Z</time></trkpt><trkpt lat="45.45781166666668" lon="10.521511950000002"><ele>122.0</ele><time>2026-05-03T15:03:37.677Z</time></trkpt><trkpt lat="45.457862216666676" lon="10.521234166666666"><ele>122.0</ele><time>2026-05-03T15:03:38.674Z</time></trkpt><trkpt lat="45.457892783333335" lon="10.52094055"><ele>122.0</ele><time>2026-05-03T15:03:39.677Z</time></trkpt><trkpt lat="45.45790055000001" lon="10.520631666666668"><ele>123.33333333333333</ele><time>2026-05-03T15:03:40.672Z</time></trkpt><trkpt lat="45.457910283333334" lon="10.520328883333331"><ele>124.66666666666666</ele><time>2026-05-03T15:03:41.672Z</time></trkpt><trkpt lat="45.457920550000004" lon="10.520026383333335"><ele>126.0</ele><time>2026-05-03T15:03:42.673Z</time></trkpt><trkpt lat="45.45793278333334" lon="10.5197275"><ele>126.33333333333334</ele><time>2026-05-03T15:03:43.673Z</time></trkpt><trkpt lat="45.45794611666667" lon="10.519441950000003"><ele>126.66666666666667</ele><time>2026-05-03T15:03:44.675Z</time></trkpt><trkpt lat="45.45795861666667" lon="10.519171383333333"><ele>127.0</ele><time>2026-05-03T15:03:45.675Z</time></trkpt><trkpt lat="45.45797111666668" lon="10.518909716666668"><ele>128.0</ele><time>2026-05-03T15:03:46.677Z</time></trkpt><trkpt lat="45.45798361666666" lon="10.518656950000002"><ele>129.0</ele><time>2026-05-03T15:03:47.676Z</time></trkpt><trkpt lat="45.45799361666667" lon="10.518412499999998"><ele>130.0</ele><time>2026-05-03T15:03:48.674Z</time></trkpt><trkpt lat="45.45800195" lon="10.518176116666666"><ele>130.0</ele><time>2026-05-03T15:03:49.677Z</time></trkpt><trkpt lat="45.458008050000004" lon="10.517948333333333"><ele>130.0</ele><time>2026-05-03T15:03:50.677Z</time></trkpt><trkpt lat="45.45801221666667" lon="10.517724999999999"><ele>130.0</ele><time>2026-05-03T15:03:51.68Z</time></trkpt><trkpt lat="45.45801499999999" lon="10.517498049999999"><ele>131.0</ele><time>2026-05-03T15:03:52.673Z</time></trkpt><trkpt lat="45.458016666666666" lon="10.517263050000002"><ele>132.0</ele><time>2026-05-03T15:03:53.675Z</time></trkpt><trkpt lat="45.45801971666667" lon="10.517023333333336"><ele>133.0</ele><time>2026-05-03T15:03:54.679Z</time></trkpt><trkpt lat="45.45802805" lon="10.516778333333331"><ele>133.0</ele><time>2026-05-03T15:03:55.679Z</time></trkpt><trkpt lat="45.45804195000001" lon="10.516528616666667"><ele>133.0</ele><time>2026-05-03T15:03:56.674Z</time></trkpt><trkpt lat="45.45806055" lon="10.516277216666666"><ele>133.0</ele><time>2026-05-03T15:03:57.679Z</time></trkpt><trkpt lat="45.45808166666667" lon="10.516028616666665"><ele>133.33333333333334</ele><time>2026-05-03T15:03:58.673Z</time></trkpt><trkpt lat="45.458104166666665" lon="10.51578388333333"><ele>133.66666666666666</ele><time>2026-05-03T15:03:59.676Z</time></trkpt><trkpt lat="45.45813221666668" lon="10.515538616666666"><ele>134.0</ele><time>2026-05-03T15:04:00.676Z</time></trkpt><trkpt lat="45.458168883333336" lon="10.515292783333333"><ele>134.33333333333331</ele><time>2026-05-03T15:04:01.674Z</time></trkpt><trkpt lat="45.458213616666676" lon="10.515048333333333"><ele>134.66666666666666</ele><time>2026-05-03T15:04:02.671Z</time></trkpt><trkpt lat="45.45826805" lon="10.51480055"><ele>135.0</ele><time>2026-05-03T15:04:03.674Z</time></trkpt><trkpt lat="45.45833111666668" lon="10.514557216666665"><ele>135.0</ele><time>2026-05-03T15:04:04.679Z</time></trkpt><trkpt lat="45.45840083333332" lon="10.514315"><ele>135.0</ele><time>2026-05-03T15:04:05.675Z</time></trkpt><trkpt lat="45.458481666666664" lon="10.514069450000001"><ele>135.0</ele><time>2026-05-03T15:04:06.675Z</time></trkpt><trkpt lat="45.458565283333336" lon="10.513848050000002"><ele>136.0</ele><time>2026-05-03T15:04:07.674Z</time></trkpt><trkpt lat="45.458666949999994" lon="10.51361195"><ele>137.0</ele><time>2026-05-03T15:04:08.675Z</time></trkpt><trkpt lat="45.45877971666667" lon="10.513375833333335"><ele>138.0</ele><time>2026-05-03T15:04:09.675Z</time></trkpt><trkpt lat="45.458903616666674" lon="10.513146383333332"><ele>138.0</ele><time>2026-05-03T15:04:10.68Z</time></trkpt><trkpt lat="45.45903750000001" lon="10.512915833333334"><ele>138.0</ele><time>2026-05-03T15:04:11.685Z</time></trkpt><trkpt lat="45.45917695" lon="10.512684449999998"><ele>138.0</ele><time>2026-05-03T15:04:12.673Z</time></trkpt><trkpt lat="45.45931945000001" lon="10.512451383333334"><ele>138.0</ele><time>2026-05-03T15:04:13.676Z</time></trkpt><trkpt lat="45.459465550000004" lon="10.512213616666667"><ele>138.0</ele><time>2026-05-03T15:04:14.679Z</time></trkpt><trkpt lat="45.459615" lon="10.511971666666666"><ele>138.0</ele><time>2026-05-03T15:04:15.678Z</time></trkpt><trkpt lat="45.45976778333334" lon="10.511725550000001"><ele>139.5</ele><time>2026-05-03T15:04:16.68Z</time></trkpt><trkpt lat="45.45992028333333" lon="10.51147445"><ele>141.0</ele><time>2026-05-03T15:04:17.674Z</time></trkpt><trkpt lat="45.46007278333333" lon="10.511223883333333"><ele>143.5</ele><time>2026-05-03T15:04:18.679Z</time></trkpt><trkpt lat="45.46022333333333" lon="10.51097695"><ele>146.0</ele><time>2026-05-03T15:04:19.674Z</time></trkpt><trkpt lat="45.46037333333334" lon="10.510731950000002"><ele>145.0</ele><time>2026-05-03T15:04:20.671Z</time></trkpt><trkpt lat="45.460514716666665" lon="10.510501116666667"><ele>144.0</ele><time>2026-05-03T15:04:21.678Z</time></trkpt><trkpt lat="45.460655550000006" lon="10.51027055"><ele>143.0</ele><time>2026-05-03T15:04:22.678Z</time></trkpt><trkpt lat="45.46079305" lon="10.510044716666666"><ele>145.33333333333331</ele><time>2026-05-03T15:04:23.678Z</time></trkpt><trkpt lat="45.46092721666667" lon="10.509824166666666"><ele>147.66666666666666</ele><time>2026-05-03T15:04:24.673Z</time></trkpt><trkpt lat="45.46105888333333" lon="10.509609166666667"><ele>150.0</ele><time>2026-05-03T15:04:25.676Z</time></trkpt><trkpt lat="45.46118750000001" lon="10.509399166666666"><ele>150.0</ele><time>2026-05-03T15:04:26.672Z</time></trkpt><trkpt lat="45.46131388333333" lon="10.509191383333333"><ele>150.0</ele><time>2026-05-03T15:04:27.678Z</time></trkpt><trkpt lat="45.46143945" lon="10.50898416666667"><ele>150.0</ele><time>2026-05-03T15:04:28.677Z</time></trkpt><trkpt lat="45.46156528333333" lon="10.508776116666663"><ele>152.66666666666666</ele><time>2026-05-03T15:04:29.673Z</time></trkpt><trkpt lat="45.461693333333336" lon="10.508565283333333"><ele>155.33333333333331</ele><time>2026-05-03T15:04:30.677Z</time></trkpt><trkpt lat="45.46182138333333" lon="10.508355283333332"><ele>158.0</ele><time>2026-05-03T15:04:31.673Z</time></trkpt><trkpt lat="45.46195083333334" lon="10.508143050000001"><ele>158.0</ele><time>2026-05-03T15:04:32.674Z</time></trkpt><trkpt lat="45.462082499999994" lon="10.507925283333334"><ele>158.0</ele><time>2026-05-03T15:04:33.674Z</time></trkpt><trkpt lat="45.46221778333334" lon="10.507703616666667"><ele>158.0</ele><time>2026-05-03T15:04:34.677Z</time></trkpt><trkpt lat="45.46235528333333" lon="10.507478616666667"><ele>155.0</ele><time>2026-05-03T15:04:35.675Z</time></trkpt><trkpt lat="45.46249638333334" lon="10.507250283333335"><ele>152.0</ele><time>2026-05-03T15:04:36.675Z</time></trkpt><trkpt lat="45.462636666666675" lon="10.507025549999998"><ele>149.0</ele><time>2026-05-03T15:04:37.678Z</time></trkpt><trkpt lat="45.46277916666666" lon="10.506796383333334"><ele>149.0</ele><time>2026-05-03T15:04:38.677Z</time></trkpt><trkpt lat="45.462921949999995" lon="10.506566383333332"><ele>149.0</ele><time>2026-05-03T15:04:39.674Z</time></trkpt><trkpt lat="45.46306471666667" lon="10.506339166666665"><ele>149.0</ele><time>2026-05-03T15:04:40.677Z</time></trkpt><trkpt lat="45.46320611666666" lon="10.506114449999998"><ele>149.5</ele><time>2026-05-03T15:04:41.675Z</time></trkpt><trkpt lat="45.46334638333333" lon="10.505890283333335"><ele>150.0</ele><time>2026-05-03T15:04:42.671Z</time></trkpt><trkpt lat="45.463624716666665" lon="10.505447216666669"><ele>150.0</ele><time>2026-05-03T15:04:44.677Z</time></trkpt><trkpt lat="45.463762216666666" lon="10.505225"><ele>150.0</ele><time>2026-05-03T15:04:45.676Z</time></trkpt><trkpt lat="45.46389778333334" lon="10.505005833333334"><ele>150.0</ele><time>2026-05-03T15:04:46.678Z</time></trkpt><trkpt lat="45.46403388333333" lon="10.50478638333333"><ele>149.33333333333334</ele><time>2026-05-03T15:04:47.69Z</time></trkpt><trkpt lat="45.46417138333333" lon="10.504565833333332"><ele>148.66666666666669</ele><time>2026-05-03T15:04:48.673Z</time></trkpt><trkpt lat="45.46430999999999" lon="10.504343616666665"><ele>148.0</ele><time>2026-05-03T15:04:49.675Z</time></trkpt><trkpt lat="45.46444888333334" lon="10.504120833333332"><ele>148.0</ele><time>2026-05-03T15:04:50.678Z</time></trkpt><trkpt lat="45.46458916666667" lon="10.503895833333337"><ele>148.0</ele><time>2026-05-03T15:04:51.674Z</time></trkpt><trkpt lat="45.46473055" lon="10.503668883333333"><ele>148.0</ele><time>2026-05-03T15:04:52.68Z</time></trkpt><trkpt lat="45.46487388333333" lon="10.503441116666666"><ele>147.0</ele><time>2026-05-03T15:04:53.675Z</time></trkpt><trkpt lat="45.46501611666666" lon="10.503213883333334"><ele>146.0</ele><time>2026-05-03T15:04:54.674Z</time></trkpt><trkpt lat="45.465156666666665" lon="10.502988333333334"><ele>145.0</ele><time>2026-05-03T15:04:55.678Z</time></trkpt><trkpt lat="45.46529666666667" lon="10.502764449999999"><ele>145.0</ele><time>2026-05-03T15:04:56.677Z</time></trkpt><trkpt lat="45.465435549999995" lon="10.502541666666666"><ele>145.0</ele><time>2026-05-03T15:04:57.674Z</time></trkpt><trkpt lat="45.46557278333333" lon="10.502319450000002"><ele>145.0</ele><time>2026-05-03T15:04:58.679Z</time></trkpt><trkpt lat="45.46570971666667" lon="10.502098883333334"><ele>144.0</ele><time>2026-05-03T15:04:59.675Z</time></trkpt><trkpt lat="45.46584695" lon="10.501879716666666"><ele>143.0</ele><time>2026-05-03T15:05:00.678Z</time></trkpt><trkpt lat="45.4659825" lon="10.50165805"><ele>142.0</ele><time>2026-05-03T15:05:01.681Z</time></trkpt><trkpt lat="45.466112216666666" lon="10.50142945"><ele>142.0</ele><time>2026-05-03T15:05:02.676Z</time></trkpt><trkpt lat="45.46623611666667" lon="10.501193049999998"><ele>142.0</ele><time>2026-05-03T15:05:03.673Z</time></trkpt><trkpt lat="45.46635528333333" lon="10.500948616666669"><ele>142.0</ele><time>2026-05-03T15:05:04.678Z</time></trkpt><trkpt lat="45.46646861666667" lon="10.500696116666665"><ele>142.0</ele><time>2026-05-03T15:05:05.683Z</time></trkpt><trkpt lat="45.46657333333333" lon="10.500433333333335"><ele>142.0</ele><time>2026-05-03T15:05:06.674Z</time></trkpt><trkpt lat="45.46667445" lon="10.500157783333336"><ele>142.0</ele><time>2026-05-03T15:05:07.673Z</time></trkpt><trkpt lat="45.466769166666666" lon="10.49988055"><ele>141.66666666666669</ele><time>2026-05-03T15:05:08.677Z</time></trkpt><trkpt lat="45.466862783333326" lon="10.49960055"><ele>141.33333333333334</ele><time>2026-05-03T15:05:09.673Z</time></trkpt><trkpt lat="45.46695638333334" lon="10.499318616666669"><ele>141.0</ele><time>2026-05-03T15:05:10.675Z</time></trkpt><trkpt lat="45.467050833333325" lon="10.499035833333334"><ele>142.33333333333334</ele><time>2026-05-03T15:05:11.679Z</time></trkpt><trkpt lat="45.46714416666667" lon="10.498748616666667"><ele>143.66666666666669</ele><time>2026-05-03T15:05:12.674Z</time></trkpt><trkpt lat="45.46723695000001" lon="10.498464166666668"><ele>145.0</ele><time>2026-05-03T15:05:13.675Z</time></trkpt><trkpt lat="45.46733028333333" lon="10.498179716666668"><ele>145.0</ele><time>2026-05-03T15:05:14.682Z</time></trkpt><trkpt lat="45.46742305" lon="10.497895283333332"><ele>145.0</ele><time>2026-05-03T15:05:15.674Z</time></trkpt><trkpt lat="45.46751555000001" lon="10.497610283333332"><ele>145.0</ele><time>2026-05-03T15:05:16.675Z</time></trkpt><trkpt lat="45.4676075" lon="10.497325550000001"><ele>146.0</ele><time>2026-05-03T15:05:17.679Z</time></trkpt><trkpt lat="45.467690833333336" lon="10.49706945"><ele>147.0</ele><time>2026-05-03T15:05:18.675Z</time></trkpt><trkpt lat="45.46778361666667" lon="10.496786666666667"><ele>148.0</ele><time>2026-05-03T15:05:19.676Z</time></trkpt><trkpt lat="45.46787333333334" lon="10.49651555"><ele>146.33333333333334</ele><time>2026-05-03T15:05:20.677Z</time></trkpt><trkpt lat="45.46796333333334" lon="10.49625195"><ele>144.66666666666666</ele><time>2026-05-03T15:05:21.674Z</time></trkpt><trkpt lat="45.46805695" lon="10.495990833333334"><ele>143.0</ele><time>2026-05-03T15:05:22.677Z</time></trkpt><trkpt lat="45.468150833333326" lon="10.495743333333333"><ele>143.0</ele><time>2026-05-03T15:05:23.682Z</time></trkpt><trkpt lat="45.46824721666667" lon="10.495503883333333"><ele>143.0</ele><time>2026-05-03T15:05:24.674Z</time></trkpt><trkpt lat="45.46834721666667" lon="10.495273883333335"><ele>143.0</ele><time>2026-05-03T15:05:25.674Z</time></trkpt><trkpt lat="45.468453883333325" lon="10.49505555"><ele>144.33333333333331</ele><time>2026-05-03T15:05:26.676Z</time></trkpt><trkpt lat="45.46856778333334" lon="10.494850833333333"><ele>145.66666666666666</ele><time>2026-05-03T15:05:27.678Z</time></trkpt><trkpt lat="45.46868555" lon="10.494656950000001"><ele>147.0</ele><time>2026-05-03T15:05:28.674Z</time></trkpt><trkpt lat="45.46880471666667" lon="10.494471666666668"><ele>148.33333333333334</ele><time>2026-05-03T15:05:29.676Z</time></trkpt><trkpt lat="45.46892471666667" lon="10.494293616666667"><ele>149.66666666666669</ele><time>2026-05-03T15:05:30.674Z</time></trkpt><trkpt lat="45.469044716666666" lon="10.49412195"><ele>151.0</ele><time>2026-05-03T15:05:31.676Z</time></trkpt><trkpt lat="45.46916471666667" lon="10.49395305"><ele>151.0</ele><time>2026-05-03T15:05:32.679Z</time></trkpt><trkpt lat="45.469280833333336" lon="10.493791383333333"><ele>151.0</ele><time>2026-05-03T15:05:33.674Z</time></trkpt><trkpt lat="45.46939666666667" lon="10.493631116666664"><ele>151.0</ele><time>2026-05-03T15:05:34.676Z</time></trkpt><trkpt lat="45.46951304999999" lon="10.493468883333334"><ele>151.33333333333334</ele><time>2026-05-03T15:05:35.683Z</time></trkpt><trkpt lat="45.46963304999999" lon="10.493303616666665"><ele>151.66666666666666</ele><time>2026-05-03T15:05:36.688Z</time></trkpt><trkpt lat="45.4697575" lon="10.493133883333334"><ele>152.0</ele><time>2026-05-03T15:05:37.673Z</time></trkpt><trkpt lat="45.46988416666666" lon="10.492962783333333"><ele>151.66666666666666</ele><time>2026-05-03T15:05:38.68Z</time></trkpt><trkpt lat="45.47001333333333" lon="10.492789166666668"><ele>151.33333333333334</ele><time>2026-05-03T15:05:39.675Z</time></trkpt><trkpt lat="45.47014471666667" lon="10.492613883333334"><ele>151.0</ele><time>2026-05-03T15:05:40.673Z</time></trkpt><trkpt lat="45.47027833333333" lon="10.492435283333336"><ele>151.0</ele><time>2026-05-03T15:05:41.679Z</time></trkpt><trkpt lat="45.47041445" lon="10.492251116666667"><ele>151.0</ele><time>2026-05-03T15:05:42.678Z</time></trkpt><trkpt lat="45.47055138333334" lon="10.492063616666668"><ele>151.0</ele><time>2026-05-03T15:05:43.677Z</time></trkpt><trkpt lat="45.47068611666667" lon="10.491878333333334"><ele>151.33333333333334</ele><time>2026-05-03T15:05:44.679Z</time></trkpt><trkpt lat="45.47081638333334" lon="10.491698616666667"><ele>151.66666666666666</ele><time>2026-05-03T15:05:45.695Z</time></trkpt><trkpt lat="45.47094054999999" lon="10.491529166666666"><ele>152.0</ele><time>2026-05-03T15:05:46.676Z</time></trkpt><trkpt lat="45.47105695" lon="10.491370833333333"><ele>152.66666666666666</ele><time>2026-05-03T15:05:47.678Z</time></trkpt><trkpt lat="45.471168883333334" lon="10.491218883333334"><ele>153.33333333333334</ele><time>2026-05-03T15:05:48.677Z</time></trkpt><trkpt lat="45.47127721666667" lon="10.491070549999998"><ele>154.0</ele><time>2026-05-03T15:05:49.675Z</time></trkpt><trkpt lat="45.47138138333333" lon="10.490923333333333"><ele>154.0</ele><time>2026-05-03T15:05:50.678Z</time></trkpt><trkpt lat="45.47158638333333" lon="10.490643333333333"><ele>154.0</ele><time>2026-05-03T15:05:52.674Z</time></trkpt><trkpt lat="45.47168638333332" lon="10.49051055"><ele>154.0</ele><time>2026-05-03T15:05:53.679Z</time></trkpt><trkpt lat="45.47178388333334" lon="10.490381950000002"><ele>155.25</ele><time>2026-05-03T15:05:54.674Z</time></trkpt><trkpt lat="45.47187778333334" lon="10.490255283333333"><ele>156.5</ele><time>2026-05-03T15:05:55.673Z</time></trkpt><trkpt lat="45.471971950000004" lon="10.490125550000002"><ele>157.75</ele><time>2026-05-03T15:05:56.679Z</time></trkpt><trkpt lat="45.472067216666666" lon="10.489991116666667"><ele>159.0</ele><time>2026-05-03T15:05:57.674Z</time></trkpt><trkpt lat="45.47216194999999" lon="10.4898525"><ele>159.25</ele><time>2026-05-03T15:05:58.676Z</time></trkpt><trkpt lat="45.47225388333333" lon="10.489711666666668"><ele>159.5</ele><time>2026-05-03T15:05:59.679Z</time></trkpt><trkpt lat="45.472340550000006" lon="10.489565833333332"><ele>159.75</ele><time>2026-05-03T15:06:00.672Z</time></trkpt><trkpt lat="45.47242361666667" lon="10.489414166666666"><ele>160.0</ele><time>2026-05-03T15:06:01.677Z</time></trkpt><trkpt lat="45.47250583333333" lon="10.489258050000002"><ele>162.75</ele><time>2026-05-03T15:06:02.679Z</time></trkpt><trkpt lat="45.472587499999996" lon="10.489098883333334"><ele>165.5</ele><time>2026-05-03T15:06:03.678Z</time></trkpt><trkpt lat="45.47266611666667" lon="10.4889375"><ele>168.25</ele><time>2026-05-03T15:06:04.677Z</time></trkpt><trkpt lat="45.472739716666666" lon="10.488776116666667"><ele>171.0</ele><time>2026-05-03T15:06:05.679Z</time></trkpt><trkpt lat="45.47280888333333" lon="10.48861583333333"><ele>175.5</ele><time>2026-05-03T15:06:06.679Z</time></trkpt><trkpt lat="45.47287388333333" lon="10.488456666666666"><ele>180.0</ele><time>2026-05-03T15:06:07.675Z</time></trkpt><trkpt lat="45.47293333333333" lon="10.488299716666665"><ele>184.5</ele><time>2026-05-03T15:06:08.679Z</time></trkpt><trkpt lat="45.47298304999999" lon="10.488157783333333"><ele>189.0</ele><time>2026-05-03T15:06:09.688Z</time></trkpt><trkpt lat="45.47302305" lon="10.488033333333332"><ele>192.0</ele><time>2026-05-03T15:06:10.678Z</time></trkpt><trkpt lat="45.4730575" lon="10.487922783333332"><ele>195.0</ele><time>2026-05-03T15:06:11.678Z</time></trkpt><trkpt lat="45.47308861666667" lon="10.48781805"><ele>198.0</ele><time>2026-05-03T15:06:12.678Z</time></trkpt><trkpt lat="45.47311695" lon="10.487719166666666"><ele>201.0</ele><time>2026-05-03T15:06:13.688Z</time></trkpt><trkpt lat="45.47314278333333" lon="10.487622783333332"><ele>204.0</ele><time>2026-05-03T15:06:14.686Z</time></trkpt><trkpt lat="45.47316611666667" lon="10.487531666666667"><ele>207.0</ele><time>2026-05-03T15:06:15.675Z</time></trkpt><trkpt lat="45.47318666666667" lon="10.487446383333333"><ele>210.0</ele><time>2026-05-03T15:06:16.686Z</time></trkpt><trkpt lat="45.473221949999996" lon="10.487295283333333"><ele>210.0</ele><time>2026-05-03T15:06:18.687Z</time></trkpt><trkpt lat="45.47324888333332" lon="10.487172216666666"><ele>210.0</ele><time>2026-05-03T15:06:20.679Z</time></trkpt><trkpt lat="45.473272216666665" lon="10.487062783333332"><ele>210.0</ele><time>2026-05-03T15:06:22.672Z</time></trkpt><trkpt lat="45.4732975" lon="10.48693805"><ele>210.0</ele><time>2026-05-03T15:06:24.692Z</time></trkpt><trkpt lat="45.473330000000004" lon="10.486768333333336"><ele>210.0</ele><time>2026-05-03T15:06:26.687Z</time></trkpt><trkpt lat="45.47334833333333" lon="10.486667216666667"><ele>212.83333333333334</ele><time>2026-05-03T15:06:27.687Z</time></trkpt><trkpt lat="45.47336778333333" lon="10.486559166666666"><ele>215.66666666666669</ele><time>2026-05-03T15:06:28.687Z</time></trkpt><trkpt lat="45.4733875" lon="10.486446950000001"><ele>218.5</ele><time>2026-05-03T15:06:29.688Z</time></trkpt><trkpt lat="45.4734075" lon="10.486329166666668"><ele>221.33333333333334</ele><time>2026-05-03T15:06:30.673Z</time></trkpt><trkpt lat="45.47342805" lon="10.486204716666668"><ele>224.16666666666669</ele><time>2026-05-03T15:06:31.683Z</time></trkpt><trkpt lat="45.47344945" lon="10.486073616666665"><ele>227.0</ele><time>2026-05-03T15:06:32.684Z</time></trkpt><trkpt lat="45.473472783333335" lon="10.485934999999998"><ele>228.25</ele><time>2026-05-03T15:06:33.687Z</time></trkpt><trkpt lat="45.47349750000001" lon="10.48578945"><ele>229.5</ele><time>2026-05-03T15:06:34.677Z</time></trkpt><trkpt lat="45.47352333333333" lon="10.485636383333334"><ele>230.75</ele><time>2026-05-03T15:06:35.688Z</time></trkpt><trkpt lat="45.473550833333334" lon="10.485476383333333"><ele>232.0</ele><time>2026-05-03T15:06:36.69Z</time></trkpt><trkpt lat="45.47357888333333" lon="10.485310283333336"><ele>232.75</ele><time>2026-05-03T15:06:37.691Z</time></trkpt><trkpt lat="45.47360778333333" lon="10.485137216666667"><ele>233.5</ele><time>2026-05-03T15:06:38.673Z</time></trkpt><trkpt lat="45.473637499999995" lon="10.484960283333333"><ele>234.25</ele><time>2026-05-03T15:06:39.674Z</time></trkpt><trkpt lat="45.47366805" lon="10.4847775"><ele>235.0</ele><time>2026-05-03T15:06:40.673Z</time></trkpt><trkpt lat="45.47369971666667" lon="10.484590283333334"><ele>235.0</ele><time>2026-05-03T15:06:41.672Z</time></trkpt><trkpt lat="45.47373221666667" lon="10.484398333333335"><ele>235.0</ele><time>2026-05-03T15:06:42.676Z</time></trkpt><trkpt lat="45.47376528333333" lon="10.4842025"><ele>235.0</ele><time>2026-05-03T15:06:43.678Z</time></trkpt><trkpt lat="45.47379888333333" lon="10.484003333333332"><ele>235.0</ele><time>2026-05-03T15:06:44.674Z</time></trkpt><trkpt lat="45.473833049999996" lon="10.483801383333333"><ele>232.5</ele><time>2026-05-03T15:06:45.673Z</time></trkpt><trkpt lat="45.473868616666664" lon="10.483596116666668"><ele>230.0</ele><time>2026-05-03T15:06:46.688Z</time></trkpt><trkpt lat="45.47390445" lon="10.483392216666669"><ele>227.5</ele><time>2026-05-03T15:06:47.675Z</time></trkpt><trkpt lat="45.47393945" lon="10.483190833333333"><ele>225.0</ele><time>2026-05-03T15:06:48.674Z</time></trkpt><trkpt lat="45.473975283333324" lon="10.48298695"><ele>224.5</ele><time>2026-05-03T15:06:49.678Z</time></trkpt><trkpt lat="45.47400945" lon="10.48278666666667"><ele>224.0</ele><time>2026-05-03T15:06:50.678Z</time></trkpt><trkpt lat="45.474042499999996" lon="10.48258945"><ele>223.5</ele><time>2026-05-03T15:06:51.673Z</time></trkpt><trkpt lat="45.47407583333334" lon="10.482394450000001"><ele>223.0</ele><time>2026-05-03T15:06:52.678Z</time></trkpt><trkpt lat="45.474106383333336" lon="10.482217783333333"><ele>221.75</ele><time>2026-05-03T15:06:53.678Z</time></trkpt><trkpt lat="45.474140000000006" lon="10.482023333333332"><ele>220.5</ele><time>2026-05-03T15:06:54.675Z</time></trkpt><trkpt lat="45.47417528333334" lon="10.481815833333332"><ele>219.25</ele><time>2026-05-03T15:06:55.685Z</time></trkpt><trkpt lat="45.47420916666666" lon="10.481613616666667"><ele>218.0</ele><time>2026-05-03T15:06:56.675Z</time></trkpt><trkpt lat="45.47424471666666" lon="10.481400283333334"><ele>216.75</ele><time>2026-05-03T15:06:57.674Z</time></trkpt><trkpt lat="45.47427971666666" lon="10.481195283333333"><ele>215.5</ele><time>2026-05-03T15:06:58.678Z</time></trkpt><trkpt lat="45.474314166666666" lon="10.480995833333335"><ele>214.25</ele><time>2026-05-03T15:06:59.675Z</time></trkpt><trkpt lat="45.47434778333333" lon="10.480800283333334"><ele>213.0</ele><time>2026-05-03T15:07:00.674Z</time></trkpt><trkpt lat="45.474380000000004" lon="10.480612216666668"><ele>212.0</ele><time>2026-05-03T15:07:01.678Z</time></trkpt><trkpt lat="45.47439406821335" lon="10.480423878406153"><ele>211.0</ele><time>2026-05-03T15:07:02.676Z</time></trkpt><trkpt lat="45.474421919611196" lon="10.480245506706774"><ele>210.0</ele><time>2026-05-03T15:07:03.676Z</time></trkpt><trkpt lat="45.474449586495304" lon="10.480069040878117"><ele>209.0</ele><time>2026-05-03T15:07:04.677Z</time></trkpt><trkpt lat="45.47447772535238" lon="10.479891229217976"><ele>209.0</ele><time>2026-05-03T15:07:05.677Z</time></trkpt><trkpt lat="45.47450610161604" lon="10.47971191762406"><ele>209.0</ele><time>2026-05-03T15:07:06.677Z</time></trkpt><trkpt lat="45.474534756116995" lon="10.47953084715476"><ele>209.0</ele><time>2026-05-03T15:07:07.676Z</time></trkpt><trkpt lat="45.47456354572153" lon="10.47935072359695"><ele>209.0</ele><time>2026-05-03T15:07:08.676Z</time></trkpt><trkpt lat="45.474591741234136" lon="10.479174869202419"><ele>207.25</ele><time>2026-05-03T15:07:09.692Z</time></trkpt><trkpt lat="45.47461926055764" lon="10.47900323237383"><ele>205.5</ele><time>2026-05-03T15:07:10.676Z</time></trkpt><trkpt lat="45.47464623062057" lon="10.478835020890221"><ele>203.75</ele><time>2026-05-03T15:07:11.686Z</time></trkpt><trkpt lat="45.474672188236184" lon="10.478673124560736"><ele>202.0</ele><time>2026-05-03T15:07:12.674Z</time></trkpt><trkpt lat="45.47469931689215" lon="10.478503923988889"><ele>201.0</ele><time>2026-05-03T15:07:13.678Z</time></trkpt><trkpt lat="45.474726090378915" lon="10.478336938880986"><ele>200.0</ele><time>2026-05-03T15:07:14.676Z</time></trkpt><trkpt lat="45.47475305639107" lon="10.478168485965499"><ele>199.0</ele><time>2026-05-03T15:07:15.676Z</time></trkpt><trkpt lat="45.474780373060554" lon="10.477997609640965"><ele>198.0</ele><time>2026-05-03T15:07:16.679Z</time></trkpt><trkpt lat="45.47480810213253" lon="10.477825014549792"><ele>197.75</ele><time>2026-05-03T15:07:17.679Z</time></trkpt><trkpt lat="45.474836167667554" lon="10.477650324861703"><ele>197.5</ele><time>2026-05-03T15:07:18.678Z</time></trkpt><trkpt lat="45.47486465705354" lon="10.477472996863229"><ele>197.25</ele><time>2026-05-03T15:07:19.677Z</time></trkpt><trkpt lat="45.47489372531006" lon="10.477292066977585"><ele>197.0</ele><time>2026-05-03T15:07:20.683Z</time></trkpt><trkpt lat="45.47492251324985" lon="10.477108631751172"><ele>196.5</ele><time>2026-05-03T15:07:21.676Z</time></trkpt><trkpt lat="45.47495094031015" lon="10.476920892555503"><ele>196.0</ele><time>2026-05-03T15:07:22.685Z</time></trkpt><trkpt lat="45.47497862723954" lon="10.47673153519398"><ele>195.5</ele><time>2026-05-03T15:07:23.678Z</time></trkpt><trkpt lat="45.47500616948404" lon="10.47653786051514"><ele>195.0</ele><time>2026-05-03T15:07:24.678Z</time></trkpt><trkpt lat="45.47503319754199" lon="10.476343885920032"><ele>194.5</ele><time>2026-05-03T15:07:25.678Z</time></trkpt><trkpt lat="45.47505712042538" lon="10.476146512246622"><ele>194.0</ele><time>2026-05-03T15:07:26.682Z</time></trkpt><trkpt lat="45.47507640357189" lon="10.475943676079995"><ele>193.5</ele><time>2026-05-03T15:07:27.678Z</time></trkpt><trkpt lat="45.47509258382875" lon="10.47573632663381"><ele>193.0</ele><time>2026-05-03T15:07:28.676Z</time></trkpt><trkpt lat="45.475107875450554" lon="10.475525707428815"><ele>192.0</ele><time>2026-05-03T15:07:29.678Z</time></trkpt><trkpt lat="45.47511924472338" lon="10.475311613773476"><ele>191.0</ele><time>2026-05-03T15:07:30.679Z</time></trkpt><trkpt lat="45.47512594970769" lon="10.475095170171175"><ele>190.0</ele><time>2026-05-03T15:07:31.677Z</time></trkpt><trkpt lat="45.475127041703914" lon="10.474875093284886"><ele>190.0</ele><time>2026-05-03T15:07:32.679Z</time></trkpt><trkpt lat="45.475122927469044" lon="10.474646091382342"><ele>190.0</ele><time>2026-05-03T15:07:33.674Z</time></trkpt><trkpt lat="45.47511533358884" lon="10.474417554091815"><ele>190.0</ele><time>2026-05-03T15:07:34.679Z</time></trkpt><trkpt lat="45.47510252688202" lon="10.47418691852203"><ele>189.33333333333334</ele><time>2026-05-03T15:07:35.681Z</time></trkpt><trkpt lat="45.475085629565214" lon="10.473951848620576"><ele>188.66666666666666</ele><time>2026-05-03T15:07:36.68Z</time></trkpt><trkpt lat="45.47506593221692" lon="10.473713717175583"><ele>188.0</ele><time>2026-05-03T15:07:37.68Z</time></trkpt><trkpt lat="45.47504513035433" lon="10.473475469047855"><ele>188.0</ele><time>2026-05-03T15:07:38.678Z</time></trkpt><trkpt lat="45.47502172269955" lon="10.473247843464996"><ele>188.0</ele><time>2026-05-03T15:07:39.679Z</time></trkpt><trkpt lat="45.47499738701727" lon="10.473018543709959"><ele>188.0</ele><time>2026-05-03T15:07:40.678Z</time></trkpt><trkpt lat="45.47497322666385" lon="10.472791986343484"><ele>187.0</ele><time>2026-05-03T15:07:41.678Z</time></trkpt><trkpt lat="45.47494941349572" lon="10.472568683924731"><ele>186.0</ele><time>2026-05-03T15:07:42.673Z</time></trkpt><trkpt lat="45.474926259449404" lon="10.472346921935728"><ele>185.0</ele><time>2026-05-03T15:07:43.68Z</time></trkpt><trkpt lat="45.47490469033263" lon="10.472130739499782"><ele>183.25</ele><time>2026-05-03T15:07:44.682Z</time></trkpt><trkpt lat="45.474883761968556" lon="10.471920979213152"><ele>181.5</ele><time>2026-05-03T15:07:45.68Z</time></trkpt><trkpt lat="45.47486352421969" lon="10.471718140584537"><ele>179.75</ele><time>2026-05-03T15:07:46.681Z</time></trkpt><trkpt lat="45.47484367183379" lon="10.471519164724466"><ele>178.0</ele><time>2026-05-03T15:07:47.682Z</time></trkpt><trkpt lat="45.47482247432382" lon="10.471322533395018"><ele>176.0</ele><time>2026-05-03T15:07:48.68Z</time></trkpt><trkpt lat="45.474801183250655" lon="10.471124170479618"><ele>174.0</ele><time>2026-05-03T15:07:49.682Z</time></trkpt><trkpt lat="45.474779671323994" lon="10.470924612809757"><ele>172.0</ele><time>2026-05-03T15:07:50.677Z</time></trkpt><trkpt lat="45.474757518056585" lon="10.470722235493612"><ele>170.0</ele><time>2026-05-03T15:07:51.674Z</time></trkpt><trkpt lat="45.47465333333333" lon="10.470425"><ele>168.66666666666666</ele><time>2026-05-03T15:07:52.677Z</time></trkpt><trkpt lat="45.4746225" lon="10.470206383333334"><ele>167.33333333333334</ele><time>2026-05-03T15:07:53.678Z</time></trkpt><trkpt lat="45.474597499999994" lon="10.469981383333332"><ele>166.0</ele><time>2026-05-03T15:07:54.681Z</time></trkpt><trkpt lat="45.47457166666666" lon="10.469752783333336"><ele>165.33333333333334</ele><time>2026-05-03T15:07:55.682Z</time></trkpt><trkpt lat="45.474544716666664" lon="10.469520833333336"><ele>164.66666666666666</ele><time>2026-05-03T15:07:56.682Z</time></trkpt><trkpt lat="45.47451666666666" lon="10.469285549999999"><ele>164.0</ele><time>2026-05-03T15:07:57.673Z</time></trkpt><trkpt lat="45.474486383333335" lon="10.469047499999999"><ele>164.0</ele><time>2026-05-03T15:07:58.682Z</time></trkpt><trkpt lat="45.47445388333333" lon="10.468810283333335"><ele>164.0</ele><time>2026-05-03T15:07:59.676Z</time></trkpt><trkpt lat="45.47441833333334" lon="10.46857055"><ele>164.0</ele><time>2026-05-03T15:08:00.679Z</time></trkpt><trkpt lat="45.47438138333334" lon="10.468327783333333"><ele>163.33333333333331</ele><time>2026-05-03T15:08:01.676Z</time></trkpt><trkpt lat="45.474341383333325" lon="10.46808361666667"><ele>162.66666666666666</ele><time>2026-05-03T15:08:02.677Z</time></trkpt><trkpt lat="45.474296116666665" lon="10.46784055"><ele>162.0</ele><time>2026-05-03T15:08:03.674Z</time></trkpt><trkpt lat="45.47424666666667" lon="10.467603049999997"><ele>161.66666666666666</ele><time>2026-05-03T15:08:04.679Z</time></trkpt><trkpt lat="45.474194999999995" lon="10.467367783333335"><ele>161.33333333333331</ele><time>2026-05-03T15:08:05.675Z</time></trkpt><trkpt lat="45.4741425" lon="10.467133883333334"><ele>161.0</ele><time>2026-05-03T15:08:06.679Z</time></trkpt><trkpt lat="45.47408888333333" lon="10.466901949999999"><ele>160.33333333333331</ele><time>2026-05-03T15:08:07.678Z</time></trkpt><trkpt lat="45.47403278333333" lon="10.46667333333333"><ele>159.66666666666666</ele><time>2026-05-03T15:08:08.676Z</time></trkpt><trkpt lat="45.473974999999996" lon="10.466444166666667"><ele>159.0</ele><time>2026-05-03T15:08:09.675Z</time></trkpt><trkpt lat="45.47391805" lon="10.466217783333333"><ele>158.33333333333334</ele><time>2026-05-03T15:08:10.677Z</time></trkpt><trkpt lat="45.47386" lon="10.465987783333333"><ele>157.66666666666669</ele><time>2026-05-03T15:08:11.683Z</time></trkpt><trkpt lat="45.473801116666664" lon="10.46575695"><ele>157.0</ele><time>2026-05-03T15:08:12.679Z</time></trkpt><trkpt lat="45.4737425" lon="10.465525283333331"><ele>157.0</ele><time>2026-05-03T15:08:13.681Z</time></trkpt><trkpt lat="45.47368471666667" lon="10.465293616666669"><ele>157.0</ele><time>2026-05-03T15:08:14.68Z</time></trkpt><trkpt lat="45.47362638333334" lon="10.465060283333333"><ele>157.0</ele><time>2026-05-03T15:08:15.676Z</time></trkpt><trkpt lat="45.47356861666667" lon="10.464827783333332"><ele>156.66666666666669</ele><time>2026-05-03T15:08:16.678Z</time></trkpt><trkpt lat="45.47351083333333" lon="10.464593883333336"><ele>156.33333333333334</ele><time>2026-05-03T15:08:17.69Z</time></trkpt><trkpt lat="45.47345194999999" lon="10.464358049999998"><ele>156.0</ele><time>2026-05-03T15:08:18.677Z</time></trkpt><trkpt lat="45.47339166666667" lon="10.464118883333335"><ele>156.0</ele><time>2026-05-03T15:08:19.678Z</time></trkpt><trkpt lat="45.47332888333334" lon="10.463875"><ele>156.0</ele><time>2026-05-03T15:08:20.678Z</time></trkpt><trkpt lat="45.473200283333334" lon="10.463375000000001"><ele>155.66666666666666</ele><time>2026-05-03T15:08:22.68Z</time></trkpt><trkpt lat="45.47313528333334" lon="10.4631175"><ele>155.33333333333331</ele><time>2026-05-03T15:08:23.676Z</time></trkpt><trkpt lat="45.47307166666666" lon="10.462861950000002"><ele>155.0</ele><time>2026-05-03T15:08:24.676Z</time></trkpt><trkpt lat="45.47300861666666" lon="10.462608049999998"><ele>155.0</ele><time>2026-05-03T15:08:25.677Z</time></trkpt><trkpt lat="45.472945833333334" lon="10.462356666666668"><ele>155.0</ele><time>2026-05-03T15:08:26.674Z</time></trkpt><trkpt lat="45.472881949999994" lon="10.46210445"><ele>155.0</ele><time>2026-05-03T15:08:27.676Z</time></trkpt><trkpt lat="45.47282305000001" lon="10.461870833333334"><ele>154.0</ele><time>2026-05-03T15:08:28.679Z</time></trkpt><trkpt lat="45.4727525" lon="10.461588333333335"><ele>153.0</ele><time>2026-05-03T15:08:29.676Z</time></trkpt><trkpt lat="45.47268833333333" lon="10.46133166666667"><ele>152.0</ele><time>2026-05-03T15:08:30.678Z</time></trkpt><trkpt lat="45.472623616666674" lon="10.461076116666668"><ele>152.0</ele><time>2026-05-03T15:08:31.681Z</time></trkpt><trkpt lat="45.472558049999996" lon="10.460821666666666"><ele>152.0</ele><time>2026-05-03T15:08:32.679Z</time></trkpt><trkpt lat="45.4724925" lon="10.460567783333333"><ele>152.0</ele><time>2026-05-03T15:08:33.678Z</time></trkpt><trkpt lat="45.47242778333332" lon="10.460314449999998"><ele>152.0</ele><time>2026-05-03T15:08:34.68Z</time></trkpt><trkpt lat="45.472363883333344" lon="10.46006195"><ele>152.0</ele><time>2026-05-03T15:08:35.677Z</time></trkpt><trkpt lat="45.47230195" lon="10.459810000000001"><ele>152.0</ele><time>2026-05-03T15:08:36.677Z</time></trkpt><trkpt lat="45.472241950000004" lon="10.459558049999998"><ele>152.0</ele><time>2026-05-03T15:08:37.678Z</time></trkpt><trkpt lat="45.47218388333334" lon="10.459306116666669"><ele>152.0</ele><time>2026-05-03T15:08:38.679Z</time></trkpt><trkpt lat="45.47213" lon="10.459053883333334"><ele>152.0</ele><time>2026-05-03T15:08:39.677Z</time></trkpt><trkpt lat="45.472080000000005" lon="10.458800833333331"><ele>151.0</ele><time>2026-05-03T15:08:40.679Z</time></trkpt><trkpt lat="45.47203805000001" lon="10.458570000000002"><ele>150.0</ele><time>2026-05-03T15:08:41.679Z</time></trkpt><trkpt lat="45.471992500000006" lon="10.458290283333334"><ele>149.0</ele><time>2026-05-03T15:08:42.68Z</time></trkpt><trkpt lat="45.471956950000006" lon="10.458035283333334"><ele>149.33333333333331</ele><time>2026-05-03T15:08:43.68Z</time></trkpt><trkpt lat="45.47192666666666" lon="10.457779716666668"><ele>149.66666666666666</ele><time>2026-05-03T15:08:44.674Z</time></trkpt><trkpt lat="45.47190361666667" lon="10.457546666666667"><ele>150.0</ele><time>2026-05-03T15:08:45.68Z</time></trkpt><trkpt lat="45.47188305" lon="10.457288616666665"><ele>149.66666666666666</ele><time>2026-05-03T15:08:46.678Z</time></trkpt><trkpt lat="45.47186666666666" lon="10.457009166666667"><ele>149.33333333333331</ele><time>2026-05-03T15:08:47.679Z</time></trkpt><trkpt lat="45.47185721666666" lon="10.456756116666668"><ele>149.0</ele><time>2026-05-03T15:08:48.681Z</time></trkpt><trkpt lat="45.47185333333334" lon="10.456504449999999"><ele>148.33333333333331</ele><time>2026-05-03T15:08:49.679Z</time></trkpt><trkpt lat="45.47185416666667" lon="10.456255283333332"><ele>147.66666666666666</ele><time>2026-05-03T15:08:50.679Z</time></trkpt><trkpt lat="45.47185971666666" lon="10.456029716666668"><ele>147.0</ele><time>2026-05-03T15:08:51.678Z</time></trkpt><trkpt lat="45.47187028333333" lon="10.455782216666666"><ele>147.0</ele><time>2026-05-03T15:08:52.68Z</time></trkpt><trkpt lat="45.4718875" lon="10.45551695"><ele>147.0</ele><time>2026-05-03T15:08:53.691Z</time></trkpt><trkpt lat="45.47190805" lon="10.455278616666666"><ele>147.0</ele><time>2026-05-03T15:08:54.678Z</time></trkpt><trkpt lat="45.4719325" lon="10.455043049999999"><ele>147.0</ele><time>2026-05-03T15:08:55.68Z</time></trkpt><trkpt lat="45.47199111666667" lon="10.454576666666666"><ele>147.0</ele><time>2026-05-03T15:08:57.692Z</time></trkpt><trkpt lat="45.47202361666667" lon="10.454361383333332"><ele>147.0</ele><time>2026-05-03T15:08:58.687Z</time></trkpt><trkpt lat="45.472066666666656" lon="10.454106383333333"><ele>147.0</ele><time>2026-05-03T15:08:59.691Z</time></trkpt><trkpt lat="45.47211028333333" lon="10.453873333333334"><ele>147.0</ele><time>2026-05-03T15:09:00.675Z</time></trkpt><trkpt lat="45.472156116666675" lon="10.453662216666665"><ele>147.0</ele><time>2026-05-03T15:09:01.678Z</time></trkpt><trkpt lat="45.472217216666664" lon="10.453410550000001"><ele>147.0</ele><time>2026-05-03T15:09:02.68Z</time></trkpt><trkpt lat="45.472276383333345" lon="10.453181949999998"><ele>147.0</ele><time>2026-05-03T15:09:03.677Z</time></trkpt><trkpt lat="45.47233611666667" lon="10.452960833333336"><ele>146.66666666666666</ele><time>2026-05-03T15:09:04.679Z</time></trkpt><trkpt lat="45.4723925" lon="10.45275945"><ele>146.33333333333331</ele><time>2026-05-03T15:09:05.681Z</time></trkpt><trkpt lat="45.47245971666666" lon="10.452519716666666"><ele>146.0</ele><time>2026-05-03T15:09:06.677Z</time></trkpt><trkpt lat="45.47252083333333" lon="10.452301949999999"><ele>146.0</ele><time>2026-05-03T15:09:07.676Z</time></trkpt><trkpt lat="45.47257945" lon="10.452089999999997"><ele>146.0</ele><time>2026-05-03T15:09:08.681Z</time></trkpt><trkpt lat="45.47263666666666" lon="10.451877500000002"><ele>146.0</ele><time>2026-05-03T15:09:09.678Z</time></trkpt><trkpt lat="45.47269361666665" lon="10.451662783333333"><ele>146.0</ele><time>2026-05-03T15:09:10.675Z</time></trkpt><trkpt lat="45.47275" lon="10.451446950000003"><ele>146.0</ele><time>2026-05-03T15:09:11.679Z</time></trkpt><trkpt lat="45.47280778333334" lon="10.451224449999998"><ele>146.0</ele><time>2026-05-03T15:09:12.675Z</time></trkpt><trkpt lat="45.472866116666665" lon="10.451003883333332"><ele>146.0</ele><time>2026-05-03T15:09:13.677Z</time></trkpt><trkpt lat="45.472925833333335" lon="10.450783333333334"><ele>146.0</ele><time>2026-05-03T15:09:14.681Z</time></trkpt></trkseg></trk></gpx>